<?xml version='1.0' encoding='UTF-8'?><gpx version="1.1" creator="JPX - https://github.com/jenetics/jpx" xmlns="http://www.topografix.com/GPX/1/1"><trk><trkseg><trkpt lat="40.726679097307446" lon="17.579411389298144"><ele>240.0</ele><time>2026-04-17T13:29:24.998Z</time></trkpt><trkpt lat="40.7267356456242" lon="17.5794822910499"><ele>240.0</ele><time>2026-04-17T13:29:27.998Z</time></trkpt><trkpt lat="40.72678296982802" lon="17.579540827882727"><ele>240.0</ele><time>2026-04-17T13:29:31.998Z</time></trkpt><trkpt lat="40.7268418656097" lon="17.579593474945366"><ele>240.0</ele><time>2026-04-17T13:29:35.999Z</time></trkpt><trkpt lat="40.726905227119744" lon="17.57962969902409"><ele>240.0</ele><time>2026-04-17T13:29:38.999Z</time></trkpt><trkpt lat="40.72696388014366" lon="17.579694233236246"><ele>240.0</ele><time>2026-04-17T13:29:41.999Z</time></trkpt><trkpt lat="40.72701995424553" lon="17.579762212776693"><ele>240.0</ele><time>2026-04-17T13:29:44.999Z</time></trkpt><trkpt lat="40.72708320368393" lon="17.579792895808975"><ele>239.83333333333334</ele><time>2026-04-17T13:29:46.999Z</time></trkpt><trkpt lat="40.72700780805755" lon="17.57980813728998"><ele>239.66666666666669</ele><time>2026-04-17T13:30:02.999Z</time></trkpt><trkpt lat="40.726932722173004" lon="17.579769013092"><ele>239.5</ele><time>2026-04-17T13:30:05.999Z</time></trkpt><trkpt lat="40.72687336366166" lon="17.579713497900016"><ele>239.33333333333334</ele><time>2026-04-17T13:30:08.999Z</time></trkpt><trkpt lat="40.72680942599137" lon="17.579682134557682"><ele>239.16666666666669</ele><time>2026-04-17T13:30:11.999Z</time></trkpt><trkpt lat="40.72674695899937" lon="17.579631002383962"><ele>239.0</ele><time>2026-04-17T13:30:14.999Z</time></trkpt><trkpt lat="40.726672524828075" lon="17.57956874878443"><ele>239.00000000000003</ele><time>2026-04-17T13:30:17.999Z</time></trkpt><trkpt lat="40.72661656088576" lon="17.579526300150704"><ele>239.0</ele><time>2026-04-17T13:30:20.999Z</time></trkpt><trkpt lat="40.72654953202425" lon="17.579502865578142"><ele>239.00000000000003</ele><time>2026-04-17T13:30:23.999Z</time></trkpt><trkpt lat="40.72646372015805" lon="17.579445672956595"><ele>239.00000000000003</ele><time>2026-04-17T13:30:26.999Z</time></trkpt><trkpt lat="40.72639730583894" lon="17.579432819254503"><ele>239.0</ele><time>2026-04-17T13:30:29.999Z</time></trkpt><trkpt lat="40.72634963797418" lon="17.5793755600248"><ele>239.00000000000003</ele><time>2026-04-17T13:30:32.999Z</time></trkpt><trkpt lat="40.72628368500272" lon="17.57936104763572"><ele>239.00000000000003</ele><time>2026-04-17T13:30:35.999Z</time></trkpt><trkpt lat="40.72620970831368" lon="17.579325812459665"><ele>239.14285714285717</ele><time>2026-04-17T13:30:39.999Z</time></trkpt><trkpt lat="40.72614537144749" lon="17.579301343205316"><ele>239.28571428571428</ele><time>2026-04-17T13:30:42.999Z</time></trkpt><trkpt lat="40.72609514110007" lon="17.579216240805067"><ele>239.42857142857144</ele><time>2026-04-17T13:30:45.999Z</time></trkpt><trkpt lat="40.72605271645532" lon="17.579133546945364"><ele>239.57142857142858</ele><time>2026-04-17T13:30:51.999Z</time></trkpt><trkpt lat="40.72599477092413" lon="17.57907780354561"><ele>239.71428571428572</ele><time>2026-04-17T13:31:45.999Z</time></trkpt><trkpt lat="40.72601065830225" lon="17.57899578188229"><ele>239.85714285714286</ele><time>2026-04-17T13:32:00.999Z</time></trkpt><trkpt lat="40.72603536516043" lon="17.57890793149856"><ele>240.0</ele><time>2026-04-17T13:32:03.999Z</time></trkpt><trkpt lat="40.7260555269915" lon="17.57879481913957"><ele>240.0</ele><time>2026-04-17T13:32:06.999Z</time></trkpt><trkpt lat="40.726095392188604" lon="17.578722402245276"><ele>240.0</ele><time>2026-04-17T13:32:08.999Z</time></trkpt><trkpt lat="40.72612794465898" lon="17.57863663313683"><ele>240.0</ele><time>2026-04-17T13:32:10.999Z</time></trkpt><trkpt lat="40.7261611644207" lon="17.578547220930368"><ele>240.0</ele><time>2026-04-17T13:32:12.999Z</time></trkpt><trkpt lat="40.72619484624302" lon="17.578461017944218"><ele>240.0</ele><time>2026-04-17T13:32:14.999Z</time></trkpt><trkpt lat="40.72624110647699" lon="17.578375780005175"><ele>240.0</ele><time>2026-04-17T13:32:16.999Z</time></trkpt><trkpt lat="40.726277296271995" lon="17.578279734265458"><ele>240.16666666666666</ele><time>2026-04-17T13:32:18.999Z</time></trkpt><trkpt lat="40.72633028764872" lon="17.578173918569576"><ele>240.33333333333331</ele><time>2026-04-17T13:32:21.999Z</time></trkpt><trkpt lat="40.72637396759394" lon="17.578094073601918"><ele>240.5</ele><time>2026-04-17T13:32:23.999Z</time></trkpt><trkpt lat="40.726403157925" lon="17.57801994498374"><ele>240.66666666666666</ele><time>2026-04-17T13:32:25.999Z</time></trkpt><trkpt lat="40.72644425186382" lon="17.577937555017183"><ele>240.83333333333331</ele><time>2026-04-17T13:32:27.999Z</time></trkpt><trkpt lat="40.72647777145359" lon="17.577845592930846"><ele>241.0</ele><time>2026-04-17T13:32:29.999Z</time></trkpt><trkpt lat="40.726503214447476" lon="17.57776395459687"><ele>241.16666666666666</ele><time>2026-04-17T13:32:31.999Z</time></trkpt><trkpt lat="40.72653918506854" lon="17.577677847095682"><ele>241.33333333333331</ele><time>2026-04-17T13:32:33.999Z</time></trkpt><trkpt lat="40.72657293637186" lon="17.57760210516386"><ele>241.5</ele><time>2026-04-17T13:32:35.999Z</time></trkpt><trkpt lat="40.72660442864759" lon="17.57752177503126"><ele>241.66666666666669</ele><time>2026-04-17T13:32:37.999Z</time></trkpt><trkpt lat="40.72664366265278" lon="17.577425497224688"><ele>241.83333333333334</ele><time>2026-04-17T13:32:39.999Z</time></trkpt><trkpt lat="40.72669293944456" lon="17.57734456483831"><ele>242.0</ele><time>2026-04-17T13:32:42.999Z</time></trkpt><trkpt lat="40.72672485469817" lon="17.57722016828554"><ele>242.0</ele><time>2026-04-17T13:32:44.999Z</time></trkpt><trkpt lat="40.72676052278259" lon="17.577126894527368"><ele>242.0</ele><time>2026-04-17T13:32:46.999Z</time></trkpt><trkpt lat="40.726808491863686" lon="17.577005374243164"><ele>242.0</ele><time>2026-04-17T13:32:48.999Z</time></trkpt><trkpt lat="40.726854172747295" lon="17.576884388673506"><ele>242.0</ele><time>2026-04-17T13:32:50.999Z</time></trkpt><trkpt lat="40.72688074511481" lon="17.576763975375787"><ele>242.0</ele><time>2026-04-17T13:32:52.999Z</time></trkpt><trkpt lat="40.726901920111466" lon="17.576630861486183"><ele>242.0</ele><time>2026-04-17T13:32:54.999Z</time></trkpt><trkpt lat="40.726929011051745" lon="17.5764916287787"><ele>242.0</ele><time>2026-04-17T13:32:56.999Z</time></trkpt><trkpt lat="40.72696935778759" lon="17.576387689792593"><ele>242.0</ele><time>2026-04-17T13:32:58.999Z</time></trkpt><trkpt lat="40.72701984433055" lon="17.576287179222177"><ele>242.0</ele><time>2026-04-17T13:33:00.999Z</time></trkpt><trkpt lat="40.72705511017087" lon="17.576166650139875"><ele>242.0</ele><time>2026-04-17T13:33:02.999Z</time></trkpt><trkpt lat="40.727093320048105" lon="17.57605691943466"><ele>242.00000000000003</ele><time>2026-04-17T13:33:04.999Z</time></trkpt><trkpt lat="40.7271256620507" lon="17.575945536934483"><ele>242.0</ele><time>2026-04-17T13:33:06.999Z</time></trkpt><trkpt lat="40.72716979765154" lon="17.575852998822356"><ele>242.0</ele><time>2026-04-17T13:33:08.999Z</time></trkpt><trkpt lat="40.72724362574473" lon="17.575760211280656"><ele>242.0</ele><time>2026-04-17T13:33:13.999Z</time></trkpt><trkpt lat="40.72726177558646" lon="17.57565609208518"><ele>242.00000000000003</ele><time>2026-04-17T13:33:15.999Z</time></trkpt><trkpt lat="40.72731210298693" lon="17.575561975596028"><ele>242.0</ele><time>2026-04-17T13:33:17.999Z</time></trkpt><trkpt lat="40.727356849139056" lon="17.57544066985939"><ele>241.39999999999998</ele><time>2026-04-17T13:33:19.999Z</time></trkpt><trkpt lat="40.727402174979204" lon="17.575323754196514"><ele>240.79999999999998</ele><time>2026-04-17T13:33:21.999Z</time></trkpt><trkpt lat="40.727449578420234" lon="17.57521139779644"><ele>240.2</ele><time>2026-04-17T13:33:23.999Z</time></trkpt><trkpt lat="40.72749625437497" lon="17.575106290928264"><ele>239.6</ele><time>2026-04-17T13:33:25.999Z</time></trkpt><trkpt lat="40.72752022860844" lon="17.574987059094035"><ele>239.0</ele><time>2026-04-17T13:33:27.999Z</time></trkpt><trkpt lat="40.72754685043885" lon="17.57488705197421"><ele>239.00000000000003</ele><time>2026-04-17T13:33:29.999Z</time></trkpt><trkpt lat="40.727574149726095" lon="17.574777109744776"><ele>239.0</ele><time>2026-04-17T13:33:31.999Z</time></trkpt><trkpt lat="40.72761484165817" lon="17.574679845617002"><ele>239.0</ele><time>2026-04-17T13:33:33.999Z</time></trkpt><trkpt lat="40.7276546559598" lon="17.574581590180266"><ele>239.0</ele><time>2026-04-17T13:33:35.999Z</time></trkpt><trkpt lat="40.72769614246684" lon="17.57447834996453"><ele>239.00000000000003</ele><time>2026-04-17T13:33:37.998Z</time></trkpt><trkpt lat="40.72773165777388" lon="17.57438531848618"><ele>239.0</ele><time>2026-04-17T13:33:39.998Z</time></trkpt><trkpt lat="40.72772345416204" lon="17.574285055267403"><ele>238.66666666666669</ele><time>2026-04-17T13:33:42.998Z</time></trkpt><trkpt lat="40.72774925258149" lon="17.57420187976359"><ele>238.33333333333334</ele><time>2026-04-17T13:33:47.999Z</time></trkpt><trkpt lat="40.727759181496474" lon="17.57429106726061"><ele>238.0</ele><time>2026-04-17T13:38:01Z</time></trkpt><trkpt lat="40.72770331521907" lon="17.574333227367756"><ele>237.66666666666669</ele><time>2026-04-17T13:38:12Z</time></trkpt><trkpt lat="40.72766277477232" lon="17.574208052845275"><ele>237.33333333333334</ele><time>2026-04-17T13:38:30Z</time></trkpt><trkpt lat="40.72778133349686" lon="17.574151225129217"><ele>237.0</ele><time>2026-04-17T13:38:46Z</time></trkpt><trkpt lat="40.72770520146197" lon="17.57429100677815"><ele>237.0</ele><time>2026-04-17T13:38:49Z</time></trkpt><trkpt lat="40.7275884692007" lon="17.57432648913709"><ele>237.0</ele><time>2026-04-17T13:40:19Z</time></trkpt><trkpt lat="40.727747264133676" lon="17.574328453799037"><ele>237.0</ele><time>2026-04-17T13:40:35Z</time></trkpt><trkpt lat="40.72778374069502" lon="17.574245581441975"><ele>237.0</ele><time>2026-04-17T13:41:56.999Z</time></trkpt><trkpt lat="40.7278435778517" lon="17.57418280478944"><ele>237.0</ele><time>2026-04-17T13:41:59.999Z</time></trkpt><trkpt lat="40.727898323650685" lon="17.574133569440274"><ele>236.66666666666666</ele><time>2026-04-17T13:42:01.999Z</time></trkpt><trkpt lat="40.72794816929734" lon="17.574027926248917"><ele>236.33333333333331</ele><time>2026-04-17T13:42:03.999Z</time></trkpt><trkpt lat="40.7279892035975" lon="17.573917688952207"><ele>236.0</ele><time>2026-04-17T13:42:05.999Z</time></trkpt><trkpt lat="40.72802201528691" lon="17.573804337264587"><ele>235.66666666666666</ele><time>2026-04-17T13:42:07.999Z</time></trkpt><trkpt lat="40.72805384626589" lon="17.573709469397564"><ele>235.33333333333331</ele><time>2026-04-17T13:42:10Z</time></trkpt><trkpt lat="40.72809563439992" lon="17.573605809953825"><ele>235.0</ele><time>2026-04-17T13:42:12Z</time></trkpt><trkpt lat="40.72813416384696" lon="17.57350457021316"><ele>234.66666666666666</ele><time>2026-04-17T13:42:14Z</time></trkpt><trkpt lat="40.72817065775452" lon="17.57340811562866"><ele>234.33333333333331</ele><time>2026-04-17T13:42:16Z</time></trkpt><trkpt lat="40.72820962164772" lon="17.573306671504096"><ele>234.0</ele><time>2026-04-17T13:42:18Z</time></trkpt><trkpt lat="40.72824477520782" lon="17.57320611524466"><ele>233.66666666666669</ele><time>2026-04-17T13:42:20Z</time></trkpt><trkpt lat="40.72826909908854" lon="17.57308742697176"><ele>233.33333333333334</ele><time>2026-04-17T13:42:22Z</time></trkpt><trkpt lat="40.72829582247074" lon="17.572977433920922"><ele>233.0</ele><time>2026-04-17T13:42:24Z</time></trkpt><trkpt lat="40.728327304397624" lon="17.57286111106776"><ele>232.66666666666669</ele><time>2026-04-17T13:42:26Z</time></trkpt><trkpt lat="40.72835382502988" lon="17.572749496644953"><ele>232.33333333333334</ele><time>2026-04-17T13:42:28Z</time></trkpt><trkpt lat="40.728348835770454" lon="17.572640341714283"><ele>232.0</ele><time>2026-04-17T13:42:30Z</time></trkpt><trkpt lat="40.72831428228222" lon="17.572528032566655"><ele>231.66666666666669</ele><time>2026-04-17T13:42:32Z</time></trkpt><trkpt lat="40.72829990950204" lon="17.572418689014757"><ele>231.33333333333334</ele><time>2026-04-17T13:42:34Z</time></trkpt><trkpt lat="40.728306455273774" lon="17.572299744015808"><ele>231.0</ele><time>2026-04-17T13:42:36Z</time></trkpt><trkpt lat="40.72830518320603" lon="17.572164745868285"><ele>231.0</ele><time>2026-04-17T13:42:38Z</time></trkpt><trkpt lat="40.728300750589035" lon="17.572039107360403"><ele>231.00000000000003</ele><time>2026-04-17T13:42:40Z</time></trkpt><trkpt lat="40.728303499484376" lon="17.571896530082075"><ele>231.00000000000003</ele><time>2026-04-17T13:42:42Z</time></trkpt><trkpt lat="40.728298048963566" lon="17.571752645399492"><ele>231.0</ele><time>2026-04-17T13:42:44Z</time></trkpt><trkpt lat="40.728312283956384" lon="17.57162787135078"><ele>231.0</ele><time>2026-04-17T13:42:46Z</time></trkpt><trkpt lat="40.72829454128018" lon="17.571476255497732"><ele>231.20000000000002</ele><time>2026-04-17T13:42:48Z</time></trkpt><trkpt lat="40.72829091277973" lon="17.57134267390811"><ele>231.40000000000003</ele><time>2026-04-17T13:42:50Z</time></trkpt><trkpt lat="40.72828796748065" lon="17.57121580902803"><ele>231.6</ele><time>2026-04-17T13:42:52Z</time></trkpt><trkpt lat="40.728285543742636" lon="17.571089346000942"><ele>231.8</ele><time>2026-04-17T13:42:54Z</time></trkpt><trkpt lat="40.72828766972584" lon="17.570961857544702"><ele>232.0</ele><time>2026-04-17T13:42:56Z</time></trkpt><trkpt lat="40.728294548383495" lon="17.57083893913666"><ele>232.2</ele><time>2026-04-17T13:42:58Z</time></trkpt><trkpt lat="40.728297296638985" lon="17.57070795012559"><ele>232.39999999999998</ele><time>2026-04-17T13:43:00Z</time></trkpt><trkpt lat="40.72829511621707" lon="17.570567326180583"><ele>232.60000000000002</ele><time>2026-04-17T13:43:02Z</time></trkpt><trkpt lat="40.728303218323006" lon="17.5704368125224"><ele>232.8</ele><time>2026-04-17T13:43:04Z</time></trkpt><trkpt lat="40.72829644933173" lon="17.57029841527062"><ele>233.0</ele><time>2026-04-17T13:43:06Z</time></trkpt><trkpt lat="40.72831358758947" lon="17.570166993434345"><ele>233.0</ele><time>2026-04-17T13:43:08Z</time></trkpt><trkpt lat="40.72832147342259" lon="17.570026830425146"><ele>233.0</ele><time>2026-04-17T13:43:10Z</time></trkpt><trkpt lat="40.72832101528131" lon="17.569889333333368"><ele>233.0</ele><time>2026-04-17T13:43:11.999Z</time></trkpt><trkpt lat="40.728320779154515" lon="17.56975466793441"><ele>233.0</ele><time>2026-04-17T13:43:13.999Z</time></trkpt><trkpt lat="40.72830216858355" lon="17.569606316902547"><ele>233.0</ele><time>2026-04-17T13:43:15.999Z</time></trkpt><trkpt lat="40.72826237405294" lon="17.56947212243172"><ele>232.60000000000002</ele><time>2026-04-17T13:43:17.999Z</time></trkpt><trkpt lat="40.728235535548606" lon="17.56932764665111"><ele>232.20000000000002</ele><time>2026-04-17T13:43:19.999Z</time></trkpt><trkpt lat="40.72819342042621" lon="17.569223661402017"><ele>231.8</ele><time>2026-04-17T13:43:21.999Z</time></trkpt><trkpt lat="40.72815664412219" lon="17.569107189519027"><ele>231.4</ele><time>2026-04-17T13:43:23.999Z</time></trkpt><trkpt lat="40.728125292446556" lon="17.568969200405252"><ele>231.0</ele><time>2026-04-17T13:43:25.999Z</time></trkpt><trkpt lat="40.72810152203913" lon="17.568885679200694"><ele>231.0</ele><time>2026-04-17T13:43:26.999Z</time></trkpt><trkpt lat="40.728087331022046" lon="17.568763980707104"><ele>231.00000000000003</ele><time>2026-04-17T13:43:28.999Z</time></trkpt><trkpt lat="40.72805627024857" lon="17.568625759109334"><ele>231.00000000000003</ele><time>2026-04-17T13:43:30.999Z</time></trkpt><trkpt lat="40.7280304433793" lon="17.568530579755425"><ele>231.0</ele><time>2026-04-17T13:43:31.999Z</time></trkpt><trkpt lat="40.72801484015618" lon="17.568405223840074"><ele>231.0</ele><time>2026-04-17T13:43:33.999Z</time></trkpt><trkpt lat="40.72800194593817" lon="17.56828190253329"><ele>231.20000000000002</ele><time>2026-04-17T13:43:35.999Z</time></trkpt><trkpt lat="40.72798463748912" lon="17.568156646831888"><ele>231.40000000000003</ele><time>2026-04-17T13:43:37.999Z</time></trkpt><trkpt lat="40.72796440230739" lon="17.568030855208193"><ele>231.6</ele><time>2026-04-17T13:43:39.999Z</time></trkpt><trkpt lat="40.727926786887316" lon="17.56789566067576"><ele>231.8</ele><time>2026-04-17T13:43:41.999Z</time></trkpt><trkpt lat="40.72789098800349" lon="17.567756970578657"><ele>232.0</ele><time>2026-04-17T13:43:43.999Z</time></trkpt><trkpt lat="40.72785140891255" lon="17.567622887413258"><ele>232.0</ele><time>2026-04-17T13:43:45.999Z</time></trkpt><trkpt lat="40.72780309872769" lon="17.567503812579208"><ele>232.0</ele><time>2026-04-17T13:43:47.999Z</time></trkpt><trkpt lat="40.72775780019878" lon="17.56741208978005"><ele>232.0</ele><time>2026-04-17T13:43:49.999Z</time></trkpt><trkpt lat="40.72770322899794" lon="17.56732326990555"><ele>232.0</ele><time>2026-04-17T13:43:51.999Z</time></trkpt><trkpt lat="40.72762561779516" lon="17.567250765545"><ele>232.0</ele><time>2026-04-17T13:43:53.999Z</time></trkpt><trkpt lat="40.72755349571258" lon="17.56716560112363"><ele>232.0</ele><time>2026-04-17T13:43:55.999Z</time></trkpt><trkpt lat="40.72747700432632" lon="17.567086384142037"><ele>232.0</ele><time>2026-04-17T13:43:57.999Z</time></trkpt><trkpt lat="40.72740841951073" lon="17.566998225417198"><ele>232.0</ele><time>2026-04-17T13:43:59.999Z</time></trkpt><trkpt lat="40.727348813963374" lon="17.566910988420958"><ele>232.0</ele><time>2026-04-17T13:44:01.999Z</time></trkpt><trkpt lat="40.727286299406046" lon="17.566818294417853"><ele>232.0</ele><time>2026-04-17T13:44:03.999Z</time></trkpt><trkpt lat="40.727242484156044" lon="17.566714597539985"><ele>232.8</ele><time>2026-04-17T13:44:05.999Z</time></trkpt><trkpt lat="40.72721167964566" lon="17.56659652772749"><ele>233.6</ele><time>2026-04-17T13:44:07.999Z</time></trkpt><trkpt lat="40.7272125982229" lon="17.56648218100306"><ele>234.40000000000003</ele><time>2026-04-17T13:44:09.999Z</time></trkpt><trkpt lat="40.727216520620026" lon="17.566343005577096"><ele>235.20000000000002</ele><time>2026-04-17T13:44:11.999Z</time></trkpt><trkpt lat="40.72725798377545" lon="17.566224404445833"><ele>236.0</ele><time>2026-04-17T13:44:13.999Z</time></trkpt><trkpt lat="40.72732033256126" lon="17.566125434303935"><ele>236.20000000000002</ele><time>2026-04-17T13:44:16Z</time></trkpt><trkpt lat="40.727389679744064" lon="17.56601940654087"><ele>236.40000000000003</ele><time>2026-04-17T13:44:18Z</time></trkpt><trkpt lat="40.72746423018604" lon="17.56593034338053"><ele>236.6</ele><time>2026-04-17T13:44:20Z</time></trkpt><trkpt lat="40.72755207895602" lon="17.565866234510864"><ele>236.8</ele><time>2026-04-17T13:44:22Z</time></trkpt><trkpt lat="40.72763421313511" lon="17.565805689769075"><ele>237.0</ele><time>2026-04-17T13:44:24Z</time></trkpt><trkpt lat="40.727715807781095" lon="17.565735601728946"><ele>236.8</ele><time>2026-04-17T13:44:26Z</time></trkpt><trkpt lat="40.727803238264705" lon="17.565653862378106"><ele>236.6</ele><time>2026-04-17T13:44:28Z</time></trkpt><trkpt lat="40.72788750769336" lon="17.565581370350642"><ele>236.40000000000003</ele><time>2026-04-17T13:44:30Z</time></trkpt><trkpt lat="40.72796924892168" lon="17.5654871741034"><ele>236.20000000000002</ele><time>2026-04-17T13:44:32Z</time></trkpt><trkpt lat="40.72806386956286" lon="17.565385974541318"><ele>236.0</ele><time>2026-04-17T13:44:34Z</time></trkpt><trkpt lat="40.728100966792205" lon="17.56531775803037"><ele>235.42857142857142</ele><time>2026-04-17T13:44:35Z</time></trkpt><trkpt lat="40.728143411792956" lon="17.565241804901135"><ele>234.8571428571429</ele><time>2026-04-17T13:44:36Z</time></trkpt><trkpt lat="40.728181754816745" lon="17.565165376354614"><ele>234.2857142857143</ele><time>2026-04-17T13:44:37Z</time></trkpt><trkpt lat="40.72820936299433" lon="17.565076044019534"><ele>233.71428571428572</ele><time>2026-04-17T13:44:38Z</time></trkpt><trkpt lat="40.72823954639986" lon="17.56498540825849"><ele>233.14285714285717</ele><time>2026-04-17T13:44:39Z</time></trkpt><trkpt lat="40.7282593459179" lon="17.564883083600822"><ele>232.5714285714286</ele><time>2026-04-17T13:44:40Z</time></trkpt><trkpt lat="40.728273307450166" lon="17.564778885349742"><ele>232.00000000000003</ele><time>2026-04-17T13:44:41Z</time></trkpt><trkpt lat="40.7282716291585" lon="17.564664543503795"><ele>231.99999999999997</ele><time>2026-04-17T13:44:42Z</time></trkpt><trkpt lat="40.72826454077693" lon="17.564556169389338"><ele>232.0</ele><time>2026-04-17T13:44:43Z</time></trkpt><trkpt lat="40.72824975924992" lon="17.564443717487443"><ele>232.0</ele><time>2026-04-17T13:44:44Z</time></trkpt><trkpt lat="40.728242884635684" lon="17.56432440910699"><ele>232.0</ele><time>2026-04-17T13:44:45Z</time></trkpt><trkpt lat="40.728241423754284" lon="17.56422327619133"><ele>231.99999999999997</ele><time>2026-04-17T13:44:46Z</time></trkpt><trkpt lat="40.72824507196766" lon="17.564128508805272"><ele>232.0</ele><time>2026-04-17T13:44:47Z</time></trkpt><trkpt lat="40.728252620540516" lon="17.564025217969128"><ele>231.33333333333331</ele><time>2026-04-17T13:44:48Z</time></trkpt><trkpt lat="40.72824457213778" lon="17.563923482173525"><ele>230.66666666666666</ele><time>2026-04-17T13:44:49Z</time></trkpt><trkpt lat="40.72824493867262" lon="17.563820054777413"><ele>230.0</ele><time>2026-04-17T13:44:50Z</time></trkpt><trkpt lat="40.72824750159851" lon="17.563712265130164"><ele>229.33333333333331</ele><time>2026-04-17T13:44:51Z</time></trkpt><trkpt lat="40.728239099816285" lon="17.56360418424338"><ele>228.66666666666666</ele><time>2026-04-17T13:44:52Z</time></trkpt><trkpt lat="40.728229581295075" lon="17.563483707482437"><ele>228.0</ele><time>2026-04-17T13:44:53Z</time></trkpt><trkpt lat="40.72821803977103" lon="17.563364843095634"><ele>226.83333333333334</ele><time>2026-04-17T13:44:54Z</time></trkpt><trkpt lat="40.72819583431261" lon="17.56325127451569"><ele>225.66666666666669</ele><time>2026-04-17T13:44:55Z</time></trkpt><trkpt lat="40.72817714541106" lon="17.563144112380062"><ele>224.5</ele><time>2026-04-17T13:44:56Z</time></trkpt><trkpt lat="40.728152005034616" lon="17.563029076777905"><ele>223.33333333333334</ele><time>2026-04-17T13:44:57Z</time></trkpt><trkpt lat="40.728125836738506" lon="17.562916482333208"><ele>222.16666666666669</ele><time>2026-04-17T13:44:58Z</time></trkpt><trkpt lat="40.72810165809828" lon="17.562802673053334"><ele>221.0</ele><time>2026-04-17T13:44:59Z</time></trkpt><trkpt lat="40.728085606430035" lon="17.562689896767093"><ele>220.60000000000002</ele><time>2026-04-17T13:45:00Z</time></trkpt><trkpt lat="40.72807167454375" lon="17.562570508945043"><ele>220.20000000000002</ele><time>2026-04-17T13:45:01Z</time></trkpt><trkpt lat="40.72803775592727" lon="17.56244876108052"><ele>219.79999999999998</ele><time>2026-04-17T13:45:02Z</time></trkpt><trkpt lat="40.728010031962484" lon="17.56232362862839"><ele>219.39999999999998</ele><time>2026-04-17T13:45:03Z</time></trkpt><trkpt lat="40.72799291114413" lon="17.562201462265925"><ele>219.0</ele><time>2026-04-17T13:45:04Z</time></trkpt><trkpt lat="40.72798949204541" lon="17.562071970408685"><ele>219.0</ele><time>2026-04-17T13:45:05Z</time></trkpt><trkpt lat="40.728001087413695" lon="17.561948651411424"><ele>219.0</ele><time>2026-04-17T13:45:06Z</time></trkpt><trkpt lat="40.72801761957559" lon="17.561836789579104"><ele>219.0</ele><time>2026-04-17T13:45:07Z</time></trkpt><trkpt lat="40.72803718890975" lon="17.561735563557704"><ele>219.0</ele><time>2026-04-17T13:45:07.999Z</time></trkpt><trkpt lat="40.72804572715147" lon="17.561630803909814"><ele>219.0</ele><time>2026-04-17T13:45:08.999Z</time></trkpt><trkpt lat="40.728044256602224" lon="17.56153671891378"><ele>219.0</ele><time>2026-04-17T13:45:09.999Z</time></trkpt><trkpt lat="40.72802150773267" lon="17.56144343134625"><ele>219.0</ele><time>2026-04-17T13:45:10.999Z</time></trkpt><trkpt lat="40.72799953361825" lon="17.561361173327928"><ele>218.99999999999997</ele><time>2026-04-17T13:45:11.999Z</time></trkpt><trkpt lat="40.72794220052224" lon="17.56122155460596"><ele>218.99999999999997</ele><time>2026-04-17T13:45:13.999Z</time></trkpt><trkpt lat="40.7278943200267" lon="17.561093879545876"><ele>219.0</ele><time>2026-04-17T13:45:15.999Z</time></trkpt><trkpt lat="40.727846189307435" lon="17.560977803822464"><ele>219.0</ele><time>2026-04-17T13:45:17.999Z</time></trkpt><trkpt lat="40.72780860109402" lon="17.56086566106664"><ele>219.39999999999998</ele><time>2026-04-17T13:45:19.999Z</time></trkpt><trkpt lat="40.72777218645522" lon="17.560749067426396"><ele>219.79999999999998</ele><time>2026-04-17T13:45:21.999Z</time></trkpt><trkpt lat="40.72775645603057" lon="17.560629917902183"><ele>220.20000000000002</ele><time>2026-04-17T13:45:23.999Z</time></trkpt><trkpt lat="40.72779753932162" lon="17.560517911765704"><ele>220.60000000000002</ele><time>2026-04-17T13:45:25.999Z</time></trkpt><trkpt lat="40.727838783962255" lon="17.560416093396455"><ele>221.0</ele><time>2026-04-17T13:45:27.999Z</time></trkpt><trkpt lat="40.72788177899325" lon="17.560312890490064"><ele>221.66666666666669</ele><time>2026-04-17T13:45:29.999Z</time></trkpt><trkpt lat="40.727923906602264" lon="17.560209942225647"><ele>222.33333333333334</ele><time>2026-04-17T13:45:31.999Z</time></trkpt><trkpt lat="40.72796173363227" lon="17.560100244357283"><ele>223.0</ele><time>2026-04-17T13:45:33.999Z</time></trkpt><trkpt lat="40.72800934678777" lon="17.55999228787903"><ele>223.66666666666669</ele><time>2026-04-17T13:45:35.999Z</time></trkpt><trkpt lat="40.728057626317465" lon="17.559899143023827"><ele>224.33333333333334</ele><time>2026-04-17T13:45:37.999Z</time></trkpt><trkpt lat="40.72809673264491" lon="17.55979542736809"><ele>225.0</ele><time>2026-04-17T13:45:39.999Z</time></trkpt><trkpt lat="40.72813378308822" lon="17.5596977739369"><ele>225.0</ele><time>2026-04-17T13:45:41.999Z</time></trkpt><trkpt lat="40.728182104208656" lon="17.559620587166936"><ele>225.0</ele><time>2026-04-17T13:45:43.999Z</time></trkpt><trkpt lat="40.728216554185416" lon="17.55951721904987"><ele>225.0</ele><time>2026-04-17T13:45:45.999Z</time></trkpt><trkpt lat="40.728255021496494" lon="17.559413149966094"><ele>225.0</ele><time>2026-04-17T13:45:47.999Z</time></trkpt><trkpt lat="40.72829630682778" lon="17.559312693218434"><ele>225.0</ele><time>2026-04-17T13:45:49.999Z</time></trkpt><trkpt lat="40.72833618706828" lon="17.559221119611454"><ele>225.0</ele><time>2026-04-17T13:45:51.999Z</time></trkpt><trkpt lat="40.72837627895635" lon="17.559131465399606"><ele>225.71428571428575</ele><time>2026-04-17T13:45:53.999Z</time></trkpt><trkpt lat="40.7284160467676" lon="17.559051446605352"><ele>226.42857142857144</ele><time>2026-04-17T13:45:55.999Z</time></trkpt><trkpt lat="40.72845062588846" lon="17.55896494593216"><ele>227.14285714285714</ele><time>2026-04-17T13:45:57.999Z</time></trkpt><trkpt lat="40.72847801488618" lon="17.55888528784932"><ele>227.85714285714286</ele><time>2026-04-17T13:45:59.999Z</time></trkpt><trkpt lat="40.72851135077524" lon="17.55881039065201"><ele>228.57142857142856</ele><time>2026-04-17T13:46:01.999Z</time></trkpt><trkpt lat="40.72854841204228" lon="17.558726736308973"><ele>229.28571428571425</ele><time>2026-04-17T13:46:03.999Z</time></trkpt><trkpt lat="40.728587800796035" lon="17.55863888763187"><ele>229.99999999999997</ele><time>2026-04-17T13:46:05.999Z</time></trkpt><trkpt lat="40.72863075967924" lon="17.558535498053164"><ele>231.00000000000003</ele><time>2026-04-17T13:46:07.999Z</time></trkpt><trkpt lat="40.728667605915206" lon="17.558432621801604"><ele>232.0</ele><time>2026-04-17T13:46:09.999Z</time></trkpt><trkpt lat="40.72869828714538" lon="17.558326434055786"><ele>233.0</ele><time>2026-04-17T13:46:11.999Z</time></trkpt><trkpt lat="40.72872899773186" lon="17.558219199323887"><ele>234.0</ele><time>2026-04-17T13:46:13.999Z</time></trkpt><trkpt lat="40.72874474108562" lon="17.558101089689536"><ele>235.00000000000003</ele><time>2026-04-17T13:46:15.999Z</time></trkpt><trkpt lat="40.728754942253545" lon="17.557986450691903"><ele>236.0</ele><time>2026-04-17T13:46:17.999Z</time></trkpt><trkpt lat="40.72875823080344" lon="17.55787888828075"><ele>236.00000000000003</ele><time>2026-04-17T13:46:19.998Z</time></trkpt><trkpt lat="40.72876555091232" lon="17.557767253211043"><ele>236.0</ele><time>2026-04-17T13:46:22Z</time></trkpt><trkpt lat="40.72877756783089" lon="17.557658491016138"><ele>236.0</ele><time>2026-04-17T13:46:24Z</time></trkpt><trkpt lat="40.72882461362666" lon="17.55753837733179"><ele>236.0</ele><time>2026-04-17T13:46:26Z</time></trkpt><trkpt lat="40.7288897859325" lon="17.557453825338122"><ele>236.00000000000003</ele><time>2026-04-17T13:46:28Z</time></trkpt><trkpt lat="40.728962441685326" lon="17.55739409301125"><ele>236.0</ele><time>2026-04-17T13:46:30Z</time></trkpt><trkpt lat="40.72903423656482" lon="17.557357196007644"><ele>236.0</ele><time>2026-04-17T13:46:32Z</time></trkpt><trkpt lat="40.72911947004575" lon="17.557304848339733"><ele>236.00000000000003</ele><time>2026-04-17T13:46:34Z</time></trkpt><trkpt lat="40.72919744348726" lon="17.55722652375558"><ele>236.00000000000003</ele><time>2026-04-17T13:46:36Z</time></trkpt><trkpt lat="40.72927997486346" lon="17.55717597112859"><ele>236.0</ele><time>2026-04-17T13:46:38Z</time></trkpt><trkpt lat="40.72936224633859" lon="17.557125820980502"><ele>236.0</ele><time>2026-04-17T13:46:40Z</time></trkpt><trkpt lat="40.72943896650654" lon="17.557063421746218"><ele>237.20000000000002</ele><time>2026-04-17T13:46:42Z</time></trkpt><trkpt lat="40.729526518243254" lon="17.557012715469025"><ele>238.40000000000003</ele><time>2026-04-17T13:46:44Z</time></trkpt><trkpt lat="40.7296160997705" lon="17.556960577908423"><ele>239.6</ele><time>2026-04-17T13:46:46Z</time></trkpt><trkpt lat="40.729695728464144" lon="17.55690881829878"><ele>240.8</ele><time>2026-04-17T13:46:48Z</time></trkpt><trkpt lat="40.72978087241568" lon="17.556849657549563"><ele>242.0</ele><time>2026-04-17T13:46:50Z</time></trkpt><trkpt lat="40.72985793580977" lon="17.556791917276428"><ele>242.00000000000003</ele><time>2026-04-17T13:46:52Z</time></trkpt><trkpt lat="40.72993844967216" lon="17.55674228667022"><ele>242.0</ele><time>2026-04-17T13:46:54Z</time></trkpt><trkpt lat="40.73001842334503" lon="17.556687689623026"><ele>242.0</ele><time>2026-04-17T13:46:56Z</time></trkpt><trkpt lat="40.73008673056774" lon="17.5566250592906"><ele>242.0</ele><time>2026-04-17T13:46:58Z</time></trkpt><trkpt lat="40.730142990989414" lon="17.55653092902895"><ele>242.00000000000003</ele><time>2026-04-17T13:47:00Z</time></trkpt><trkpt lat="40.73019398902398" lon="17.556445233162563"><ele>242.0</ele><time>2026-04-17T13:47:02Z</time></trkpt><trkpt lat="40.730227389623835" lon="17.55632223779361"><ele>244.0</ele><time>2026-04-17T13:47:04Z</time></trkpt><trkpt lat="40.73026171374174" lon="17.556208687291146"><ele>246.0</ele><time>2026-04-17T13:47:06Z</time></trkpt><trkpt lat="40.73030451245752" lon="17.55609924086919"><ele>248.0</ele><time>2026-04-17T13:47:08Z</time></trkpt><trkpt lat="40.730339483992516" lon="17.55598769937591"><ele>250.0</ele><time>2026-04-17T13:47:09.999Z</time></trkpt><trkpt lat="40.73038136236273" lon="17.555885401832445"><ele>252.0</ele><time>2026-04-17T13:47:11.999Z</time></trkpt><trkpt lat="40.73041881149733" lon="17.555768311096877"><ele>252.2</ele><time>2026-04-17T13:47:13.999Z</time></trkpt><trkpt lat="40.73046211720529" lon="17.55566018642812"><ele>252.39999999999998</ele><time>2026-04-17T13:47:15.999Z</time></trkpt><trkpt lat="40.73050521587605" lon="17.555534622002533"><ele>252.60000000000002</ele><time>2026-04-17T13:47:17.999Z</time></trkpt><trkpt lat="40.73055252492061" lon="17.555434837432873"><ele>252.8</ele><time>2026-04-17T13:47:19.999Z</time></trkpt><trkpt lat="40.73059120227524" lon="17.55532384515271"><ele>253.0</ele><time>2026-04-17T13:47:21.999Z</time></trkpt><trkpt lat="40.730623079468806" lon="17.555219730272665"><ele>252.49999999999997</ele><time>2026-04-17T13:47:23.999Z</time></trkpt><trkpt lat="40.73066845520072" lon="17.555121723871412"><ele>252.0</ele><time>2026-04-17T13:47:25.999Z</time></trkpt><trkpt lat="40.730716865185435" lon="17.55503182118454"><ele>251.5</ele><time>2026-04-17T13:47:27.999Z</time></trkpt><trkpt lat="40.730763538230896" lon="17.55492789337976"><ele>251.0</ele><time>2026-04-17T13:47:29.999Z</time></trkpt><trkpt lat="40.73082466546255" lon="17.554843153368996"><ele>250.49999999999997</ele><time>2026-04-17T13:47:31.999Z</time></trkpt><trkpt lat="40.73087359680558" lon="17.554773368424907"><ele>250.0</ele><time>2026-04-17T13:47:33.999Z</time></trkpt><trkpt lat="40.73092390553893" lon="17.554666821232935"><ele>250.0</ele><time>2026-04-17T13:47:35.999Z</time></trkpt><trkpt lat="40.730969302366425" lon="17.554564481637886"><ele>250.0</ele><time>2026-04-17T13:47:37.999Z</time></trkpt><trkpt lat="40.7310182737044" lon="17.55445224271593"><ele>250.0</ele><time>2026-04-17T13:47:39.999Z</time></trkpt><trkpt lat="40.73107153897214" lon="17.554338770522673"><ele>250.0</ele><time>2026-04-17T13:47:41.999Z</time></trkpt><trkpt lat="40.73111860461256" lon="17.55423200297248"><ele>250.0</ele><time>2026-04-17T13:47:43.999Z</time></trkpt><trkpt lat="40.73117380863224" lon="17.554130815921802"><ele>251.2</ele><time>2026-04-17T13:47:45.999Z</time></trkpt><trkpt lat="40.731231014764965" lon="17.554033997253125"><ele>252.4</ele><time>2026-04-17T13:47:47.999Z</time></trkpt><trkpt lat="40.731288889531136" lon="17.553929044786994"><ele>253.60000000000002</ele><time>2026-04-17T13:47:49.999Z</time></trkpt><trkpt lat="40.73134892434141" lon="17.55384427345457"><ele>254.8</ele><time>2026-04-17T13:47:51.999Z</time></trkpt><trkpt lat="40.731413474584784" lon="17.55375794731377"><ele>256.0</ele><time>2026-04-17T13:47:53.999Z</time></trkpt><trkpt lat="40.7314803360301" lon="17.55368440522101"><ele>255.99999999999997</ele><time>2026-04-17T13:47:55.999Z</time></trkpt><trkpt lat="40.73156254872967" lon="17.553641732907217"><ele>256.0</ele><time>2026-04-17T13:47:57.999Z</time></trkpt><trkpt lat="40.73164475966912" lon="17.553610506906207"><ele>256.0</ele><time>2026-04-17T13:47:59.999Z</time></trkpt><trkpt lat="40.73172936119918" lon="17.553629622047637"><ele>256.0</ele><time>2026-04-17T13:48:01.999Z</time></trkpt><trkpt lat="40.73180079579552" lon="17.55371443950654"><ele>255.99999999999997</ele><time>2026-04-17T13:48:03.999Z</time></trkpt><trkpt lat="40.73186488136075" lon="17.55379969222717"><ele>256.0</ele><time>2026-04-17T13:48:05.999Z</time></trkpt><trkpt lat="40.73191987101679" lon="17.553882976296975"><ele>257.40000000000003</ele><time>2026-04-17T13:48:07.999Z</time></trkpt><trkpt lat="40.731995138767076" lon="17.553945322528424"><ele>258.8</ele><time>2026-04-17T13:48:09.999Z</time></trkpt><trkpt lat="40.732081516317294" lon="17.55397137248136"><ele>260.20000000000005</ele><time>2026-04-17T13:48:11.999Z</time></trkpt><trkpt lat="40.7321592367671" lon="17.55393204164491"><ele>261.6</ele><time>2026-04-17T13:48:13.999Z</time></trkpt><trkpt lat="40.73222303165789" lon="17.553826519390473"><ele>263.0</ele><time>2026-04-17T13:48:15.999Z</time></trkpt><trkpt lat="40.732263676483846" lon="17.55371520950631"><ele>263.33333333333337</ele><time>2026-04-17T13:48:17.999Z</time></trkpt><trkpt lat="40.732303555511095" lon="17.55361038878862"><ele>263.6666666666667</ele><time>2026-04-17T13:48:19.999Z</time></trkpt><trkpt lat="40.73233817100867" lon="17.55350868226816"><ele>264.0</ele><time>2026-04-17T13:48:21.998Z</time></trkpt><trkpt lat="40.732378245990084" lon="17.553401558875006"><ele>264.3333333333333</ele><time>2026-04-17T13:48:23.998Z</time></trkpt><trkpt lat="40.73241405914204" lon="17.5532872493421"><ele>264.66666666666663</ele><time>2026-04-17T13:48:25.998Z</time></trkpt><trkpt lat="40.7324358955151" lon="17.553172322900878"><ele>265.0</ele><time>2026-04-17T13:48:28Z</time></trkpt><trkpt lat="40.732458332687884" lon="17.55305485811895"><ele>265.0</ele><time>2026-04-17T13:48:30Z</time></trkpt><trkpt lat="40.73248144222651" lon="17.552937604095195"><ele>265.0</ele><time>2026-04-17T13:48:32Z</time></trkpt><trkpt lat="40.732490989668634" lon="17.5528175158741"><ele>265.0</ele><time>2026-04-17T13:48:34Z</time></trkpt><trkpt lat="40.73251873145779" lon="17.552735523243452"><ele>265.0</ele><time>2026-04-17T13:48:36Z</time></trkpt><trkpt lat="40.73255644605326" lon="17.552618077467926"><ele>265.0</ele><time>2026-04-17T13:48:38Z</time></trkpt><trkpt lat="40.732591638273" lon="17.55252279174045"><ele>265.0</ele><time>2026-04-17T13:48:40Z</time></trkpt><trkpt lat="40.73260340414489" lon="17.55240233925407"><ele>265.4</ele><time>2026-04-17T13:48:42Z</time></trkpt><trkpt lat="40.732617035249895" lon="17.552286361928015"><ele>265.8</ele><time>2026-04-17T13:48:44Z</time></trkpt><trkpt lat="40.73263195856178" lon="17.552169576581466"><ele>266.2</ele><time>2026-04-17T13:48:46Z</time></trkpt><trkpt lat="40.732647515318675" lon="17.552041207244173"><ele>266.6</ele><time>2026-04-17T13:48:48Z</time></trkpt><trkpt lat="40.73267397311276" lon="17.551919893436384"><ele>267.0</ele><time>2026-04-17T13:48:50Z</time></trkpt><trkpt lat="40.732710308861066" lon="17.551772487294077"><ele>268.6</ele><time>2026-04-17T13:48:52Z</time></trkpt><trkpt lat="40.73274740400673" lon="17.551647312690015"><ele>270.2</ele><time>2026-04-17T13:48:54Z</time></trkpt><trkpt lat="40.73278851396481" lon="17.551538336616726"><ele>271.8</ele><time>2026-04-17T13:48:56Z</time></trkpt><trkpt lat="40.73283330684617" lon="17.5514136121955"><ele>273.4</ele><time>2026-04-17T13:48:58Z</time></trkpt><trkpt lat="40.732895237411306" lon="17.551318053161765"><ele>275.0</ele><time>2026-04-17T13:49:00Z</time></trkpt><trkpt lat="40.73296904073811" lon="17.55122847498126"><ele>275.2</ele><time>2026-04-17T13:49:02Z</time></trkpt><trkpt lat="40.73305418681222" lon="17.551151787044063"><ele>275.4</ele><time>2026-04-17T13:49:04Z</time></trkpt><trkpt lat="40.7331321874402" lon="17.551075297768097"><ele>275.6</ele><time>2026-04-17T13:49:06Z</time></trkpt><trkpt lat="40.73321203822973" lon="17.550997206533115"><ele>275.8</ele><time>2026-04-17T13:49:08Z</time></trkpt><trkpt lat="40.73329975191237" lon="17.550924282529156"><ele>276.0</ele><time>2026-04-17T13:49:10Z</time></trkpt><trkpt lat="40.73339007381789" lon="17.55085101581574"><ele>276.0</ele><time>2026-04-17T13:49:12Z</time></trkpt><trkpt lat="40.733478238779284" lon="17.550776158531924"><ele>276.0</ele><time>2026-04-17T13:49:14Z</time></trkpt><trkpt lat="40.73356492242734" lon="17.550697211894366"><ele>276.0</ele><time>2026-04-17T13:49:16Z</time></trkpt><trkpt lat="40.733652123285424" lon="17.550631706170737"><ele>276.0</ele><time>2026-04-17T13:49:17.999Z</time></trkpt><trkpt lat="40.733738410674675" lon="17.550565609097816"><ele>276.0</ele><time>2026-04-17T13:49:19.999Z</time></trkpt><trkpt lat="40.73382402168619" lon="17.550496732112258"><ele>276.6</ele><time>2026-04-17T13:49:21.999Z</time></trkpt><trkpt lat="40.73390671972231" lon="17.55041271713877"><ele>277.20000000000005</ele><time>2026-04-17T13:49:23.999Z</time></trkpt><trkpt lat="40.7339553639233" lon="17.550304039115485"><ele>277.79999999999995</ele><time>2026-04-17T13:49:25.999Z</time></trkpt><trkpt lat="40.7339822115831" lon="17.55018710609337"><ele>278.4</ele><time>2026-04-17T13:49:27.999Z</time></trkpt><trkpt lat="40.733995125033815" lon="17.55006211932504"><ele>279.0</ele><time>2026-04-17T13:49:29.999Z</time></trkpt><trkpt lat="40.73400588608358" lon="17.549942738680027"><ele>279.2</ele><time>2026-04-17T13:49:31.999Z</time></trkpt><trkpt lat="40.733996311119384" lon="17.549810072085407"><ele>279.4</ele><time>2026-04-17T13:49:33.999Z</time></trkpt><trkpt lat="40.73396582437452" lon="17.549686749100598"><ele>279.6</ele><time>2026-04-17T13:49:35.999Z</time></trkpt><trkpt lat="40.73394114082697" lon="17.549551840548673"><ele>279.8</ele><time>2026-04-17T13:49:37.999Z</time></trkpt><trkpt lat="40.73392431321298" lon="17.549410657405048"><ele>280.0</ele><time>2026-04-17T13:49:39.999Z</time></trkpt><trkpt lat="40.73391162598515" lon="17.54927108721901"><ele>280.0</ele><time>2026-04-17T13:49:41.999Z</time></trkpt><trkpt lat="40.73389424063103" lon="17.549130673238977"><ele>280.0</ele><time>2026-04-17T13:49:43.999Z</time></trkpt><trkpt lat="40.73388650679258" lon="17.549004765478287"><ele>280.0</ele><time>2026-04-17T13:49:45.999Z</time></trkpt><trkpt lat="40.73388265661304" lon="17.548875485042522"><ele>280.0</ele><time>2026-04-17T13:49:47.999Z</time></trkpt><trkpt lat="40.73386931256142" lon="17.548740789018172"><ele>280.0</ele><time>2026-04-17T13:49:49.999Z</time></trkpt><trkpt lat="40.7338550426323" lon="17.548599439217867"><ele>279.8</ele><time>2026-04-17T13:49:51.999Z</time></trkpt><trkpt lat="40.73385160634604" lon="17.54847237934912"><ele>279.6</ele><time>2026-04-17T13:49:53.999Z</time></trkpt><trkpt lat="40.733829839184004" lon="17.548335602993788"><ele>279.4</ele><time>2026-04-17T13:49:55.999Z</time></trkpt><trkpt lat="40.733797845662224" lon="17.548201964291625"><ele>279.2</ele><time>2026-04-17T13:49:57.999Z</time></trkpt><trkpt lat="40.73375772240278" lon="17.548067092065114"><ele>279.0</ele><time>2026-04-17T13:49:59.999Z</time></trkpt><trkpt lat="40.73372722072305" lon="17.547929485838463"><ele>278.3333333333333</ele><time>2026-04-17T13:50:01.999Z</time></trkpt><trkpt lat="40.73373386759159" lon="17.547786122159394"><ele>277.6666666666667</ele><time>2026-04-17T13:50:03.999Z</time></trkpt><trkpt lat="40.73375703508245" lon="17.547702757744155"><ele>277.0</ele><time>2026-04-17T13:50:04.999Z</time></trkpt><trkpt lat="40.733788162651315" lon="17.547628490636257"><ele>276.33333333333337</ele><time>2026-04-17T13:50:05.999Z</time></trkpt><trkpt lat="40.73382548618147" lon="17.547556742956324"><ele>275.6666666666667</ele><time>2026-04-17T13:50:06.999Z</time></trkpt><trkpt lat="40.73386153432881" lon="17.547471791402575"><ele>275.0</ele><time>2026-04-17T13:50:07.999Z</time></trkpt><trkpt lat="40.73390466955364" lon="17.547382027763597"><ele>275.0</ele><time>2026-04-17T13:50:08.999Z</time></trkpt><trkpt lat="40.733958349211434" lon="17.547298113521926"><ele>275.0</ele><time>2026-04-17T13:50:09.999Z</time></trkpt><trkpt lat="40.73400305629355" lon="17.547202475444344"><ele>275.0</ele><time>2026-04-17T13:50:10.999Z</time></trkpt><trkpt lat="40.734045609492256" lon="17.54711771433471"><ele>275.0</ele><time>2026-04-17T13:50:11.999Z</time></trkpt><trkpt lat="40.73409741112298" lon="17.54702139663133"><ele>275.0</ele><time>2026-04-17T13:50:12.999Z</time></trkpt><trkpt lat="40.73414873131869" lon="17.546920727883162"><ele>275.0</ele><time>2026-04-17T13:50:13.999Z</time></trkpt><trkpt lat="40.734210566027976" lon="17.54683408718384"><ele>274.83333333333337</ele><time>2026-04-17T13:50:14.999Z</time></trkpt><trkpt lat="40.7342717136971" lon="17.546756362139543"><ele>274.6666666666667</ele><time>2026-04-17T13:50:15.999Z</time></trkpt><trkpt lat="40.73434169448636" lon="17.54668777315994"><ele>274.5</ele><time>2026-04-17T13:50:16.999Z</time></trkpt><trkpt lat="40.73441397400111" lon="17.546646868928654"><ele>274.3333333333333</ele><time>2026-04-17T13:50:17.999Z</time></trkpt><trkpt lat="40.73450182775821" lon="17.54659973494191"><ele>274.16666666666663</ele><time>2026-04-17T13:50:18.999Z</time></trkpt><trkpt lat="40.734583225156356" lon="17.546577323002797"><ele>274.0</ele><time>2026-04-17T13:50:19.999Z</time></trkpt><trkpt lat="40.73466286316238" lon="17.546572990442996"><ele>273.8333333333333</ele><time>2026-04-17T13:50:20.999Z</time></trkpt><trkpt lat="40.73474816448725" lon="17.546568391658443"><ele>273.66666666666663</ele><time>2026-04-17T13:50:21.999Z</time></trkpt><trkpt lat="40.73481944422164" lon="17.546551288146205"><ele>273.5</ele><time>2026-04-17T13:50:22.999Z</time></trkpt><trkpt lat="40.73488575606826" lon="17.54653219579335"><ele>273.3333333333333</ele><time>2026-04-17T13:50:23.999Z</time></trkpt><trkpt lat="40.73498863243072" lon="17.546478338553545"><ele>273.1666666666667</ele><time>2026-04-17T13:50:25.999Z</time></trkpt><trkpt lat="40.73506073087291" lon="17.546382396212817"><ele>273.0</ele><time>2026-04-17T13:50:27.999Z</time></trkpt><trkpt lat="40.735115560120825" lon="17.54628947433424"><ele>272.8</ele><time>2026-04-17T13:50:29.999Z</time></trkpt><trkpt lat="40.73520511245755" lon="17.54619908254244"><ele>272.6</ele><time>2026-04-17T13:50:31.998Z</time></trkpt><trkpt lat="40.73526825868159" lon="17.546095941607614"><ele>272.4</ele><time>2026-04-17T13:50:34Z</time></trkpt><trkpt lat="40.735341132997384" lon="17.54597998828239"><ele>272.2</ele><time>2026-04-17T13:50:36Z</time></trkpt><trkpt lat="40.73538417460413" lon="17.545846988625424"><ele>272.0</ele><time>2026-04-17T13:50:38Z</time></trkpt><trkpt lat="40.73535943990805" lon="17.545710329950126"><ele>272.0</ele><time>2026-04-17T13:50:40Z</time></trkpt><trkpt lat="40.73531447506374" lon="17.545589189485852"><ele>272.0</ele><time>2026-04-17T13:50:42Z</time></trkpt><trkpt lat="40.735279130062494" lon="17.545470091178"><ele>272.0</ele><time>2026-04-17T13:50:44Z</time></trkpt><trkpt lat="40.73523701835007" lon="17.54534969268296"><ele>272.0</ele><time>2026-04-17T13:50:46Z</time></trkpt><trkpt lat="40.735195678695135" lon="17.545219991860982"><ele>272.0</ele><time>2026-04-17T13:50:48Z</time></trkpt><trkpt lat="40.73515691372378" lon="17.54507716298017"><ele>271.6</ele><time>2026-04-17T13:50:50Z</time></trkpt><trkpt lat="40.73511597717573" lon="17.544930934464695"><ele>271.2</ele><time>2026-04-17T13:50:52Z</time></trkpt><trkpt lat="40.73509529909462" lon="17.544851228812718"><ele>270.8</ele><time>2026-04-17T13:50:53Z</time></trkpt><trkpt lat="40.73507916736104" lon="17.54476995585745"><ele>270.4</ele><time>2026-04-17T13:50:54Z</time></trkpt><trkpt lat="40.73506488985316" lon="17.54460684687551"><ele>270.0</ele><time>2026-04-17T13:50:56Z</time></trkpt><trkpt lat="40.735044897178014" lon="17.544450623342406"><ele>269.75</ele><time>2026-04-17T13:50:58Z</time></trkpt><trkpt lat="40.73502743038165" lon="17.544300880873422"><ele>269.5</ele><time>2026-04-17T13:51:00Z</time></trkpt><trkpt lat="40.73502320308694" lon="17.544145414874528"><ele>269.25</ele><time>2026-04-17T13:51:02Z</time></trkpt><trkpt lat="40.73501384262495" lon="17.5439840787395"><ele>269.0</ele><time>2026-04-17T13:51:04Z</time></trkpt><trkpt lat="40.73500071430975" lon="17.543796945415792"><ele>268.5</ele><time>2026-04-17T13:51:06Z</time></trkpt><trkpt lat="40.73499190914212" lon="17.54369400440873"><ele>268.0</ele><time>2026-04-17T13:51:07Z</time></trkpt><trkpt lat="40.73498608929717" lon="17.54358500938027"><ele>267.5</ele><time>2026-04-17T13:51:08Z</time></trkpt><trkpt lat="40.73497111286577" lon="17.54348216965181"><ele>267.0</ele><time>2026-04-17T13:51:09Z</time></trkpt><trkpt lat="40.734954812030935" lon="17.543360134901217"><ele>266.5</ele><time>2026-04-17T13:51:10Z</time></trkpt><trkpt lat="40.734949873229745" lon="17.543250523274963"><ele>266.0</ele><time>2026-04-17T13:51:11Z</time></trkpt><trkpt lat="40.73494178629221" lon="17.543147567734508"><ele>266.0</ele><time>2026-04-17T13:51:12Z</time></trkpt><trkpt lat="40.73493897896134" lon="17.543028278420774"><ele>266.0</ele><time>2026-04-17T13:51:13Z</time></trkpt><trkpt lat="40.73493155021956" lon="17.542886225582166"><ele>266.0</ele><time>2026-04-17T13:51:14Z</time></trkpt><trkpt lat="40.73494318204543" lon="17.54278323196079"><ele>266.0</ele><time>2026-04-17T13:51:15Z</time></trkpt><trkpt lat="40.734960569776455" lon="17.542649980935188"><ele>266.0</ele><time>2026-04-17T13:51:16Z</time></trkpt><trkpt lat="40.73498288835534" lon="17.542521603744124"><ele>265.2</ele><time>2026-04-17T13:51:17Z</time></trkpt><trkpt lat="40.735017552907465" lon="17.5424034847667"><ele>264.40000000000003</ele><time>2026-04-17T13:51:18Z</time></trkpt><trkpt lat="40.735086701797364" lon="17.542305255900466"><ele>263.6</ele><time>2026-04-17T13:51:19Z</time></trkpt><trkpt lat="40.73518112283571" lon="17.542239418933256"><ele>262.8</ele><time>2026-04-17T13:51:20Z</time></trkpt><trkpt lat="40.735268614432364" lon="17.542178666110846"><ele>262.0</ele><time>2026-04-17T13:51:21Z</time></trkpt><trkpt lat="40.7353424490673" lon="17.542108676167206"><ele>262.0</ele><time>2026-04-17T13:51:22Z</time></trkpt><trkpt lat="40.735406967229935" lon="17.542049486766423"><ele>262.0</ele><time>2026-04-17T13:51:22.999Z</time></trkpt><trkpt lat="40.735464892500005" lon="17.54199638253394"><ele>262.0</ele><time>2026-04-17T13:51:23.999Z</time></trkpt><trkpt lat="40.73552051953348" lon="17.541953733474987"><ele>262.0</ele><time>2026-04-17T13:51:24.999Z</time></trkpt><trkpt lat="40.73560702962974" lon="17.541860873761422"><ele>262.0</ele><time>2026-04-17T13:51:26.999Z</time></trkpt><trkpt lat="40.73566156152861" lon="17.541736615158076"><ele>262.0</ele><time>2026-04-17T13:51:28.999Z</time></trkpt><trkpt lat="40.735690866773076" lon="17.54159572975789"><ele>261.8</ele><time>2026-04-17T13:51:30.999Z</time></trkpt><trkpt lat="40.73568969704168" lon="17.54150192319997"><ele>261.6</ele><time>2026-04-17T13:51:31.999Z</time></trkpt><trkpt lat="40.735671078550574" lon="17.541360673340964"><ele>261.40000000000003</ele><time>2026-04-17T13:51:33.999Z</time></trkpt><trkpt lat="40.73564595306012" lon="17.541281936154903"><ele>261.2</ele><time>2026-04-17T13:51:34.999Z</time></trkpt><trkpt lat="40.735596158904464" lon="17.541138156694988"><ele>261.0</ele><time>2026-04-17T13:51:36.999Z</time></trkpt><trkpt lat="40.73554189229716" lon="17.541002455866643"><ele>261.0</ele><time>2026-04-17T13:51:38.999Z</time></trkpt><trkpt lat="40.73548332268662" lon="17.54086806344484"><ele>261.0</ele><time>2026-04-17T13:51:40.999Z</time></trkpt><trkpt lat="40.735443044849134" lon="17.540727684661345"><ele>261.0</ele><time>2026-04-17T13:51:42.999Z</time></trkpt><trkpt lat="40.73543171923471" lon="17.54058130352574"><ele>261.0</ele><time>2026-04-17T13:51:44.999Z</time></trkpt><trkpt lat="40.735450187154704" lon="17.54043277097674"><ele>261.8</ele><time>2026-04-17T13:51:46.999Z</time></trkpt><trkpt lat="40.7354879576644" lon="17.54028823411647"><ele>262.6</ele><time>2026-04-17T13:51:48.999Z</time></trkpt><trkpt lat="40.73554478808693" lon="17.540158049956244"><ele>263.4</ele><time>2026-04-17T13:51:50.999Z</time></trkpt><trkpt lat="40.735597150020375" lon="17.540011041490942"><ele>264.2</ele><time>2026-04-17T13:51:52.999Z</time></trkpt><trkpt lat="40.73562785386194" lon="17.539936946583378"><ele>265.0</ele><time>2026-04-17T13:51:53.999Z</time></trkpt><trkpt lat="40.735683764607806" lon="17.53981294377281"><ele>265.0</ele><time>2026-04-17T13:51:55.999Z</time></trkpt><trkpt lat="40.73573129747775" lon="17.539666457597548"><ele>265.0</ele><time>2026-04-17T13:51:57.999Z</time></trkpt><trkpt lat="40.73578055910316" lon="17.539531002681837"><ele>265.0</ele><time>2026-04-17T13:51:59.999Z</time></trkpt><trkpt lat="40.73581827610944" lon="17.53939142518805"><ele>265.0</ele><time>2026-04-17T13:52:01.999Z</time></trkpt><trkpt lat="40.73584341601456" lon="17.53924717061641"><ele>264.8</ele><time>2026-04-17T13:52:03.999Z</time></trkpt><trkpt lat="40.735843096979224" lon="17.539091140080185"><ele>264.6</ele><time>2026-04-17T13:52:05.999Z</time></trkpt><trkpt lat="40.735851040439755" lon="17.538955414604555"><ele>264.4</ele><time>2026-04-17T13:52:07.999Z</time></trkpt><trkpt lat="40.735837888871764" lon="17.538849762562876"><ele>264.2</ele><time>2026-04-17T13:52:08.999Z</time></trkpt><trkpt lat="40.735819080343724" lon="17.53868250083661"><ele>264.0</ele><time>2026-04-17T13:52:10.999Z</time></trkpt><trkpt lat="40.735804976486186" lon="17.53860009808641"><ele>263.5</ele><time>2026-04-17T13:52:11.999Z</time></trkpt><trkpt lat="40.735777405977764" lon="17.538444203397486"><ele>263.0</ele><time>2026-04-17T13:52:13.999Z</time></trkpt><trkpt lat="40.7357451870006" lon="17.538308303774564"><ele>262.5</ele><time>2026-04-17T13:52:15.999Z</time></trkpt><trkpt lat="40.73569865294092" lon="17.538167742904545"><ele>262.0</ele><time>2026-04-17T13:52:17.999Z</time></trkpt><trkpt lat="40.73564357391956" lon="17.538030307135987"><ele>262.0</ele><time>2026-04-17T13:52:19.999Z</time></trkpt><trkpt lat="40.73559944117219" lon="17.537893699726936"><ele>262.0</ele><time>2026-04-17T13:52:21.999Z</time></trkpt><trkpt lat="40.735552228659465" lon="17.53776381561988"><ele>262.0</ele><time>2026-04-17T13:52:23.999Z</time></trkpt><trkpt lat="40.73550389016214" lon="17.537630731061494"><ele>262.0</ele><time>2026-04-17T13:52:25.999Z</time></trkpt><trkpt lat="40.735452693550286" lon="17.537499163260698"><ele>262.0</ele><time>2026-04-17T13:52:27.999Z</time></trkpt><trkpt lat="40.73539914611619" lon="17.537380545863932"><ele>262.2</ele><time>2026-04-17T13:52:29.999Z</time></trkpt><trkpt lat="40.735353522525536" lon="17.5372597372967"><ele>262.4</ele><time>2026-04-17T13:52:31.999Z</time></trkpt><trkpt lat="40.73532303121214" lon="17.537136082177962"><ele>262.6</ele><time>2026-04-17T13:52:33.999Z</time></trkpt><trkpt lat="40.73526929803917" lon="17.5370037264404"><ele>262.8</ele><time>2026-04-17T13:52:35.999Z</time></trkpt><trkpt lat="40.73521613425193" lon="17.536864870305283"><ele>263.0</ele><time>2026-04-17T13:52:38Z</time></trkpt><trkpt lat="40.735166457727004" lon="17.536740397642905"><ele>264.2</ele><time>2026-04-17T13:52:40Z</time></trkpt><trkpt lat="40.735127326099374" lon="17.53662285300012"><ele>265.4</ele><time>2026-04-17T13:52:42Z</time></trkpt><trkpt lat="40.73508270195946" lon="17.536491242624216"><ele>266.59999999999997</ele><time>2026-04-17T13:52:44Z</time></trkpt><trkpt lat="40.735041162921526" lon="17.536367688112723"><ele>267.8</ele><time>2026-04-17T13:52:46Z</time></trkpt><trkpt lat="40.735111880397476" lon="17.536336083692078"><ele>269.0</ele><time>2026-04-17T13:52:49Z</time></trkpt><trkpt lat="40.73518509615234" lon="17.536302220206903"><ele>268.7142857142857</ele><time>2026-04-17T13:52:54Z</time></trkpt><trkpt lat="40.73522372391752" lon="17.536215032213256"><ele>268.42857142857144</ele><time>2026-04-17T13:52:57Z</time></trkpt><trkpt lat="40.73524626387367" lon="17.5361189549428"><ele>268.14285714285717</ele><time>2026-04-17T13:52:59Z</time></trkpt><trkpt lat="40.73527538496647" lon="17.536033554603506"><ele>267.8571428571429</ele><time>2026-04-17T13:53:01Z</time></trkpt><trkpt lat="40.735345968540095" lon="17.536050545515284"><ele>267.57142857142856</ele><time>2026-04-17T13:53:03Z</time></trkpt><trkpt lat="40.73537826990117" lon="17.53612404693376"><ele>267.28571428571433</ele><time>2026-04-17T13:53:06Z</time></trkpt><trkpt lat="40.73541480631971" lon="17.536204649967463"><ele>267.0</ele><time>2026-04-17T13:55:43.999Z</time></trkpt><trkpt lat="40.73540107593406" lon="17.53629766526184"><ele>267.0</ele><time>2026-04-17T13:55:45.999Z</time></trkpt><trkpt lat="40.735432908548916" lon="17.53641115517892"><ele>267.0</ele><time>2026-04-17T13:55:48.999Z</time></trkpt><trkpt lat="40.73551772131085" lon="17.536512574057245"><ele>267.0</ele><time>2026-04-17T13:55:50.999Z</time></trkpt><trkpt lat="40.73556833897146" lon="17.53658118313651"><ele>267.0</ele><time>2026-04-17T13:55:52.999Z</time></trkpt><trkpt lat="40.73560509922056" lon="17.536661318356686"><ele>267.0</ele><time>2026-04-17T13:55:56.999Z</time></trkpt><trkpt lat="40.73575152434688" lon="17.536683767981003"><ele>267.0</ele><time>2026-04-17T13:56:02.999Z</time></trkpt><trkpt lat="40.73581158127793" lon="17.536744144478757"><ele>267.0</ele><time>2026-04-17T13:56:04.999Z</time></trkpt><trkpt lat="40.735877558619556" lon="17.536794068750524"><ele>267.0</ele><time>2026-04-17T13:56:05.999Z</time></trkpt><trkpt lat="40.735986959078915" lon="17.536848776536196"><ele>267.0</ele><time>2026-04-17T13:56:07.999Z</time></trkpt><trkpt lat="40.73604762430274" lon="17.536902625490743"><ele>267.0</ele><time>2026-04-17T13:56:08.999Z</time></trkpt><trkpt lat="40.73609936946423" lon="17.536950519402527"><ele>267.0</ele><time>2026-04-17T13:56:09.999Z</time></trkpt><trkpt lat="40.73616536619581" lon="17.536913413994547"><ele>265.4</ele><time>2026-04-17T13:56:12.999Z</time></trkpt><trkpt lat="40.7362440263637" lon="17.536853040557276"><ele>263.79999999999995</ele><time>2026-04-17T13:56:15.999Z</time></trkpt><trkpt lat="40.73632071920355" lon="17.53681167340063"><ele>262.2</ele><time>2026-04-17T13:56:17.999Z</time></trkpt><trkpt lat="40.736502023461775" lon="17.5367682423983"><ele>260.59999999999997</ele><time>2026-04-17T13:56:21.999Z</time></trkpt><trkpt lat="40.736563466906134" lon="17.536728462684593"><ele>259.0</ele><time>2026-04-17T13:56:22.999Z</time></trkpt><trkpt lat="40.73666411645124" lon="17.5367111490426"><ele>259.0</ele><time>2026-04-17T13:56:24.999Z</time></trkpt><trkpt lat="40.73674041030854" lon="17.536603113696664"><ele>259.0</ele><time>2026-04-17T13:56:26.999Z</time></trkpt><trkpt lat="40.736788904469705" lon="17.53653975122025"><ele>259.0</ele><time>2026-04-17T13:56:28.999Z</time></trkpt><trkpt lat="40.73678699533896" lon="17.536401888950973"><ele>259.0</ele><time>2026-04-17T13:56:30.999Z</time></trkpt><trkpt lat="40.736821695064506" lon="17.53632249658576"><ele>259.0</ele><time>2026-04-17T13:56:32.999Z</time></trkpt><trkpt lat="40.73680670535443" lon="17.536205395208153"><ele>259.0</ele><time>2026-04-17T13:56:34.999Z</time></trkpt><trkpt lat="40.736868051497254" lon="17.53615815747287"><ele>260.16666666666663</ele><time>2026-04-17T13:56:37.999Z</time></trkpt><trkpt lat="40.736955399515445" lon="17.536119573276075"><ele>261.3333333333333</ele><time>2026-04-17T13:56:39.999Z</time></trkpt><trkpt lat="40.736945988399945" lon="17.536021446506723"><ele>262.5</ele><time>2026-04-17T13:56:42.999Z</time></trkpt><trkpt lat="40.7369335538109" lon="17.535932623291504"><ele>263.6666666666667</ele><time>2026-04-17T13:56:45.999Z</time></trkpt><trkpt lat="40.73700279968583" lon="17.53588199421169"><ele>264.83333333333337</ele><time>2026-04-17T13:56:58Z</time></trkpt><trkpt lat="40.73701641016284" lon="17.535794812508897"><ele>266.0</ele><time>2026-04-17T13:57:00Z</time></trkpt><trkpt lat="40.73701301861342" lon="17.53567935807687"><ele>266.0</ele><time>2026-04-17T13:57:02Z</time></trkpt><trkpt lat="40.73705977651936" lon="17.535579526431825"><ele>266.0</ele><time>2026-04-17T13:57:05Z</time></trkpt><trkpt lat="40.73712380628082" lon="17.535532128313953"><ele>266.0</ele><time>2026-04-17T13:57:08Z</time></trkpt><trkpt lat="40.73716699168021" lon="17.535451379724243"><ele>266.0</ele><time>2026-04-17T13:57:11Z</time></trkpt><trkpt lat="40.737233518066084" lon="17.53537388487113"><ele>266.0</ele><time>2026-04-17T13:57:14Z</time></trkpt><trkpt lat="40.737215005523495" lon="17.535264932802658"><ele>266.0</ele><time>2026-04-17T13:57:17Z</time></trkpt><trkpt lat="40.73720844998513" lon="17.535149177151727"><ele>266.1666666666667</ele><time>2026-04-17T13:57:20Z</time></trkpt><trkpt lat="40.737261000210616" lon="17.535067753454175"><ele>266.33333333333337</ele><time>2026-04-17T13:57:23Z</time></trkpt><trkpt lat="40.737316605346024" lon="17.53501242796319"><ele>266.5</ele><time>2026-04-17T13:57:26Z</time></trkpt><trkpt lat="40.737388767494124" lon="17.535025653675806"><ele>266.6666666666667</ele><time>2026-04-17T13:57:28Z</time></trkpt><trkpt lat="40.737452068280874" lon="17.535015369616147"><ele>266.8333333333333</ele><time>2026-04-17T13:57:31Z</time></trkpt><trkpt lat="40.73754381088724" lon="17.53498025243472"><ele>267.0</ele><time>2026-04-17T13:57:33Z</time></trkpt><trkpt lat="40.73761952914606" lon="17.53496515141209"><ele>267.0</ele><time>2026-04-17T13:57:37Z</time></trkpt><trkpt lat="40.737658781361404" lon="17.535065021575342"><ele>267.0</ele><time>2026-04-17T13:57:41Z</time></trkpt><trkpt lat="40.737643223529396" lon="17.535148641886533"><ele>267.0</ele><time>2026-04-17T13:57:43Z</time></trkpt><trkpt lat="40.737711901517045" lon="17.535090694141587"><ele>267.0</ele><time>2026-04-17T13:57:47Z</time></trkpt><trkpt lat="40.737747549793944" lon="17.534992259641434"><ele>267.0</ele><time>2026-04-17T13:57:51Z</time></trkpt><trkpt lat="40.73778624140468" lon="17.534921792114346"><ele>267.0</ele><time>2026-04-17T13:57:53.999Z</time></trkpt><trkpt lat="40.73783432650379" lon="17.534818979407053"><ele>265.75</ele><time>2026-04-17T13:57:56.999Z</time></trkpt><trkpt lat="40.73793377552775" lon="17.534707785936398"><ele>264.5</ele><time>2026-04-17T13:57:59.999Z</time></trkpt><trkpt lat="40.73800258311598" lon="17.534583489487005"><ele>263.25</ele><time>2026-04-17T13:58:01.999Z</time></trkpt><trkpt lat="40.73804441191173" lon="17.53445910988083"><ele>262.0</ele><time>2026-04-17T13:58:03.999Z</time></trkpt><trkpt lat="40.73803768268426" lon="17.534288710041245"><ele>262.0</ele><time>2026-04-17T13:58:05.999Z</time></trkpt><trkpt lat="40.738024613472874" lon="17.534207342102427"><ele>262.0</ele><time>2026-04-17T13:58:06.999Z</time></trkpt><trkpt lat="40.73800628136042" lon="17.534087817802323"><ele>262.0</ele><time>2026-04-17T13:58:08.999Z</time></trkpt><trkpt lat="40.73797535285631" lon="17.533968368728697"><ele>262.0</ele><time>2026-04-17T13:58:10.999Z</time></trkpt><trkpt lat="40.737949322649506" lon="17.533847505425207"><ele>262.0</ele><time>2026-04-17T13:58:12.999Z</time></trkpt><trkpt lat="40.73793178467076" lon="17.533752742057583"><ele>262.0</ele><time>2026-04-17T13:58:14.999Z</time></trkpt><trkpt lat="40.737921555483695" lon="17.533660987123607"><ele>261.8571428571429</ele><time>2026-04-17T13:58:16.999Z</time></trkpt><trkpt lat="40.73790449760531" lon="17.533566338724125"><ele>261.7142857142857</ele><time>2026-04-17T13:58:18.999Z</time></trkpt><trkpt lat="40.737891443783916" lon="17.533469817635613"><ele>261.57142857142856</ele><time>2026-04-17T13:58:20.999Z</time></trkpt><trkpt lat="40.73787399361031" lon="17.533364624217946"><ele>261.42857142857144</ele><time>2026-04-17T13:58:22.999Z</time></trkpt><trkpt lat="40.737803042618815" lon="17.53332288112013"><ele>261.2857142857143</ele><time>2026-04-17T13:58:24.999Z</time></trkpt><trkpt lat="40.73773481939739" lon="17.533305964581896"><ele>261.14285714285717</ele><time>2026-04-17T13:58:26.999Z</time></trkpt><trkpt lat="40.73769088924547" lon="17.533243010019333"><ele>261.0</ele><time>2026-04-17T13:58:28.999Z</time></trkpt><trkpt lat="40.73770081625509" lon="17.53315693488066"><ele>261.8333333333333</ele><time>2026-04-17T13:58:30.999Z</time></trkpt><trkpt lat="40.73771800388507" lon="17.533055197138847"><ele>262.6666666666667</ele><time>2026-04-17T13:58:33.999Z</time></trkpt><trkpt lat="40.737711860074164" lon="17.532964649739014"><ele>263.5</ele><time>2026-04-17T13:58:35.999Z</time></trkpt><trkpt lat="40.737742102164425" lon="17.532847045176766"><ele>264.33333333333337</ele><time>2026-04-17T13:58:38.999Z</time></trkpt><trkpt lat="40.73772949889966" lon="17.53275602229908"><ele>265.1666666666667</ele><time>2026-04-17T13:58:40.999Z</time></trkpt><trkpt lat="40.73769202614177" lon="17.532662462319085"><ele>266.0</ele><time>2026-04-17T13:58:42.999Z</time></trkpt><trkpt lat="40.73763862074283" lon="17.53260299159782"><ele>268.6666666666667</ele><time>2026-04-17T13:58:45.999Z</time></trkpt><trkpt lat="40.73755923672517" lon="17.532496692159967"><ele>271.33333333333337</ele><time>2026-04-17T13:58:47.999Z</time></trkpt><trkpt lat="40.737494028963646" lon="17.532448902700388"><ele>274.0</ele><time>2026-04-17T13:58:49.999Z</time></trkpt><trkpt lat="40.73744228331437" lon="17.53233578607578"><ele>276.6666666666667</ele><time>2026-04-17T13:58:51.999Z</time></trkpt><trkpt lat="40.73740175461445" lon="17.53224619378238"><ele>279.3333333333333</ele><time>2026-04-17T13:58:53.999Z</time></trkpt><trkpt lat="40.737371455451985" lon="17.532155574324033"><ele>282.0</ele><time>2026-04-17T13:58:56Z</time></trkpt><trkpt lat="40.73735058765411" lon="17.532072686989363"><ele>282.14285714285717</ele><time>2026-04-17T13:58:58Z</time></trkpt><trkpt lat="40.737358113559154" lon="17.53197646000054"><ele>282.2857142857143</ele><time>2026-04-17T13:59:00Z</time></trkpt><trkpt lat="40.73733187764771" lon="17.531890012989237"><ele>282.42857142857144</ele><time>2026-04-17T13:59:02Z</time></trkpt><trkpt lat="40.737313179571515" lon="17.531790400583393"><ele>282.57142857142856</ele><time>2026-04-17T13:59:04Z</time></trkpt><trkpt lat="40.73733520130645" lon="17.53170655082948"><ele>282.7142857142857</ele><time>2026-04-17T13:59:06Z</time></trkpt><trkpt lat="40.73738847786537" lon="17.531639660606796"><ele>282.8571428571429</ele><time>2026-04-17T13:59:08Z</time></trkpt><trkpt lat="40.73744592656295" lon="17.531567587772162"><ele>283.0</ele><time>2026-04-17T13:59:10Z</time></trkpt><trkpt lat="40.737482854744925" lon="17.531482608540102"><ele>283.0</ele><time>2026-04-17T13:59:12Z</time></trkpt><trkpt lat="40.73748676462424" lon="17.531378052585836"><ele>283.0</ele><time>2026-04-17T13:59:14Z</time></trkpt><trkpt lat="40.73746392464687" lon="17.531271242576995"><ele>283.0</ele><time>2026-04-17T13:59:16Z</time></trkpt><trkpt lat="40.737449375540464" lon="17.531169204427357"><ele>283.0</ele><time>2026-04-17T13:59:18Z</time></trkpt><trkpt lat="40.737425174760936" lon="17.53106566935547"><ele>283.0</ele><time>2026-04-17T13:59:20Z</time></trkpt><trkpt lat="40.737400392339374" lon="17.530956924738952"><ele>283.0</ele><time>2026-04-17T13:59:22Z</time></trkpt><trkpt lat="40.737362479466974" lon="17.530850787607054"><ele>283.3333333333333</ele><time>2026-04-17T13:59:24Z</time></trkpt><trkpt lat="40.73731124458185" lon="17.530753171684896"><ele>283.66666666666663</ele><time>2026-04-17T13:59:26Z</time></trkpt><trkpt lat="40.737268966369776" lon="17.530645303989726"><ele>284.0</ele><time>2026-04-17T13:59:28Z</time></trkpt><trkpt lat="40.737227586942545" lon="17.530543509083234"><ele>284.3333333333333</ele><time>2026-04-17T13:59:30Z</time></trkpt><trkpt lat="40.73720784253573" lon="17.530435851327102"><ele>284.6666666666667</ele><time>2026-04-17T13:59:32Z</time></trkpt><trkpt lat="40.73721189830906" lon="17.530326865552173"><ele>285.0</ele><time>2026-04-17T13:59:34Z</time></trkpt><trkpt lat="40.73727640665907" lon="17.530236367716487"><ele>285.6</ele><time>2026-04-17T13:59:36Z</time></trkpt><trkpt lat="40.73734459323269" lon="17.530153472090323"><ele>286.2</ele><time>2026-04-17T13:59:38Z</time></trkpt><trkpt lat="40.7374015727197" lon="17.530053802085533"><ele>286.8</ele><time>2026-04-17T13:59:40Z</time></trkpt><trkpt lat="40.73746910246583" lon="17.529945868681427"><ele>287.4</ele><time>2026-04-17T13:59:42Z</time></trkpt><trkpt lat="40.737532353184804" lon="17.529833693056414"><ele>288.0</ele><time>2026-04-17T13:59:44Z</time></trkpt><trkpt lat="40.737612105020055" lon="17.529732993407727"><ele>288.0</ele><time>2026-04-17T13:59:46Z</time></trkpt><trkpt lat="40.73770268557152" lon="17.52965480494117"><ele>288.0</ele><time>2026-04-17T13:59:48Z</time></trkpt><trkpt lat="40.73777194604212" lon="17.52954891752972"><ele>288.0</ele><time>2026-04-17T13:59:50Z</time></trkpt><trkpt lat="40.73782951219101" lon="17.529401279637803"><ele>288.0</ele><time>2026-04-17T13:59:52Z</time></trkpt><trkpt lat="40.737839317618175" lon="17.529316304596872"><ele>288.0</ele><time>2026-04-17T13:59:53Z</time></trkpt><trkpt lat="40.737833921101995" lon="17.5291462245529"><ele>287.5</ele><time>2026-04-17T13:59:54.999Z</time></trkpt><trkpt lat="40.73778736056077" lon="17.529034397353964"><ele>287.0</ele><time>2026-04-17T13:59:56.999Z</time></trkpt><trkpt lat="40.737769078368174" lon="17.52895481113942"><ele>286.5</ele><time>2026-04-17T13:59:58.999Z</time></trkpt><trkpt lat="40.737799131743095" lon="17.52887902871706"><ele>286.0</ele><time>2026-04-17T14:00:00.999Z</time></trkpt><trkpt lat="40.737786090281354" lon="17.52879508096908"><ele>285.5</ele><time>2026-04-17T14:00:02.999Z</time></trkpt><trkpt lat="40.73777093856576" lon="17.52870259595016"><ele>285.0</ele><time>2026-04-17T14:00:04.999Z</time></trkpt><trkpt lat="40.737797643962196" lon="17.528575149434513"><ele>285.0</ele><time>2026-04-17T14:00:07.999Z</time></trkpt><trkpt lat="40.73786753433644" lon="17.52847429975769"><ele>285.0</ele><time>2026-04-17T14:00:09.999Z</time></trkpt><trkpt lat="40.73793756256646" lon="17.528367276391638"><ele>285.0</ele><time>2026-04-17T14:00:11.999Z</time></trkpt><trkpt lat="40.738026623085446" lon="17.528300286919816"><ele>285.0</ele><time>2026-04-17T14:00:13.999Z</time></trkpt><trkpt lat="40.73809989776932" lon="17.528246579708462"><ele>285.0</ele><time>2026-04-17T14:00:16.999Z</time></trkpt><trkpt lat="40.73812477535627" lon="17.528357461241963"><ele>285.0</ele><time>2026-04-17T14:00:20.999Z</time></trkpt><trkpt lat="40.738105821692834" lon="17.528450056098976"><ele>285.0</ele><time>2026-04-17T14:00:22.999Z</time></trkpt><trkpt lat="40.73808396176969" lon="17.52853567065414"><ele>285.0</ele><time>2026-04-17T14:00:24.999Z</time></trkpt><trkpt lat="40.73810883546602" lon="17.52864216854215"><ele>285.0</ele><time>2026-04-17T14:00:27.999Z</time></trkpt><trkpt lat="40.73818026905922" lon="17.52871579817618"><ele>285.0</ele><time>2026-04-17T14:00:29.999Z</time></trkpt><trkpt lat="40.738221623274924" lon="17.528779614135484"><ele>285.0</ele><time>2026-04-17T14:00:30.999Z</time></trkpt><trkpt lat="40.73831270198354" lon="17.528850572546457"><ele>284.4</ele><time>2026-04-17T14:00:32.999Z</time></trkpt><trkpt lat="40.73840618295993" lon="17.52891634172567"><ele>283.8</ele><time>2026-04-17T14:00:34.999Z</time></trkpt><trkpt lat="40.73851205794535" lon="17.52898607107713"><ele>283.2</ele><time>2026-04-17T14:00:37.999Z</time></trkpt><trkpt lat="40.73860649524885" lon="17.52902764797509"><ele>282.6</ele><time>2026-04-17T14:00:38.999Z</time></trkpt><trkpt lat="40.738707092520144" lon="17.529125285737468"><ele>282.0</ele><time>2026-04-17T14:00:40.999Z</time></trkpt><trkpt lat="40.73871323901673" lon="17.529223090110168"><ele>279.8333333333333</ele><time>2026-04-17T14:00:42.999Z</time></trkpt><trkpt lat="40.73878927539162" lon="17.52923639182622"><ele>277.6666666666667</ele><time>2026-04-17T14:00:45.999Z</time></trkpt><trkpt lat="40.738882830199984" lon="17.52919219449555"><ele>275.5</ele><time>2026-04-17T14:00:47.999Z</time></trkpt><trkpt lat="40.738990831442294" lon="17.52910069201842"><ele>273.33333333333337</ele><time>2026-04-17T14:00:49.999Z</time></trkpt><trkpt lat="40.73904376415584" lon="17.529030019411355"><ele>271.1666666666667</ele><time>2026-04-17T14:00:51.999Z</time></trkpt><trkpt lat="40.73903575669177" lon="17.529114289353796"><ele>269.0</ele><time>2026-04-17T14:01:04Z</time></trkpt><trkpt lat="40.73899848592413" lon="17.529225841883218"><ele>269.0</ele><time>2026-04-17T14:01:07Z</time></trkpt><trkpt lat="40.73899451958664" lon="17.529350425663043"><ele>269.0</ele><time>2026-04-17T14:01:09Z</time></trkpt><trkpt lat="40.73902199157556" lon="17.529501972012806"><ele>269.0</ele><time>2026-04-17T14:01:11Z</time></trkpt><trkpt lat="40.73907935298589" lon="17.52962780615068"><ele>269.0</ele><time>2026-04-17T14:01:13Z</time></trkpt><trkpt lat="40.73908454518169" lon="17.52971338066269"><ele>269.0</ele><time>2026-04-17T14:01:14Z</time></trkpt><trkpt lat="40.73908277623628" lon="17.52985928742487"><ele>266.59999999999997</ele><time>2026-04-17T14:01:16Z</time></trkpt><trkpt lat="40.73908489024283" lon="17.529955077088506"><ele>264.2</ele><time>2026-04-17T14:01:17Z</time></trkpt><trkpt lat="40.7390911212228" lon="17.530122879570296"><ele>261.79999999999995</ele><time>2026-04-17T14:01:19Z</time></trkpt><trkpt lat="40.73910465371713" lon="17.53028045853705"><ele>259.4</ele><time>2026-04-17T14:01:21Z</time></trkpt><trkpt lat="40.739136093491915" lon="17.53044282179215"><ele>257.0</ele><time>2026-04-17T14:01:23Z</time></trkpt><trkpt lat="40.73916135691579" lon="17.530572800852106"><ele>255.39999999999998</ele><time>2026-04-17T14:01:25Z</time></trkpt><trkpt lat="40.73917843379861" lon="17.53069519327181"><ele>253.79999999999998</ele><time>2026-04-17T14:01:27Z</time></trkpt><trkpt lat="40.739189538957575" lon="17.530814341755896"><ele>252.2</ele><time>2026-04-17T14:01:29Z</time></trkpt><trkpt lat="40.73921902784148" lon="17.530929815013774"><ele>250.6</ele><time>2026-04-17T14:01:31Z</time></trkpt><trkpt lat="40.73920000176476" lon="17.53109454402926"><ele>249.0</ele><time>2026-04-17T14:01:33Z</time></trkpt><trkpt lat="40.73919415763713" lon="17.53117953189344"><ele>247.16666666666666</ele><time>2026-04-17T14:01:34Z</time></trkpt><trkpt lat="40.73917724027343" lon="17.531339086861212"><ele>245.33333333333331</ele><time>2026-04-17T14:01:36Z</time></trkpt><trkpt lat="40.73914808621384" lon="17.531420166647326"><ele>243.5</ele><time>2026-04-17T14:01:37Z</time></trkpt><trkpt lat="40.73913854468762" lon="17.531527308395702"><ele>241.66666666666666</ele><time>2026-04-17T14:01:38Z</time></trkpt><trkpt lat="40.739120424886" lon="17.53161248547265"><ele>239.83333333333331</ele><time>2026-04-17T14:01:39Z</time></trkpt><trkpt lat="40.739091753040995" lon="17.531734648570907"><ele>238.0</ele><time>2026-04-17T14:01:41Z</time></trkpt><trkpt lat="40.739081219149014" lon="17.531827408586164"><ele>238.0</ele><time>2026-04-17T14:01:43Z</time></trkpt><trkpt lat="40.73907353609079" lon="17.53195876022872"><ele>238.0</ele><time>2026-04-17T14:01:45Z</time></trkpt><trkpt lat="40.7391694620087" lon="17.531939465197528"><ele>238.0</ele><time>2026-04-17T14:01:50Z</time></trkpt><trkpt lat="40.73922616934492" lon="17.53187364427781"><ele>238.0</ele><time>2026-04-17T14:01:52Z</time></trkpt><trkpt lat="40.73924211994085" lon="17.531757050713782"><ele>238.0</ele><time>2026-04-17T14:01:55Z</time></trkpt><trkpt lat="40.73939819208727" lon="17.531726015822358"><ele>233.57142857142858</ele><time>2026-04-17T14:02:03.999Z</time></trkpt><trkpt lat="40.73939890612707" lon="17.53163223017953"><ele>229.14285714285714</ele><time>2026-04-17T14:02:05.999Z</time></trkpt><trkpt lat="40.73942176913772" lon="17.531551698043042"><ele>224.71428571428572</ele><time>2026-04-17T14:02:07.999Z</time></trkpt><trkpt lat="40.73949697061033" lon="17.53151456783452"><ele>220.28571428571428</ele><time>2026-04-17T14:02:10.999Z</time></trkpt><trkpt lat="40.7395692501728" lon="17.531552526885235"><ele>215.85714285714286</ele><time>2026-04-17T14:02:14.999Z</time></trkpt><trkpt lat="40.739636188786285" lon="17.531505615665196"><ele>211.42857142857144</ele><time>2026-04-17T14:02:17.999Z</time></trkpt><trkpt lat="40.73962191467206" lon="17.531404117926435"><ele>207.0</ele><time>2026-04-17T14:02:20.999Z</time></trkpt><trkpt lat="40.739602541764214" lon="17.531313862071546"><ele>208.83333333333334</ele><time>2026-04-17T14:02:24.999Z</time></trkpt><trkpt lat="40.73962463807787" lon="17.531221399468105"><ele>210.66666666666669</ele><time>2026-04-17T14:02:27.999Z</time></trkpt><trkpt lat="40.73963859594889" lon="17.531105282274105"><ele>212.5</ele><time>2026-04-17T14:02:30.999Z</time></trkpt><trkpt lat="40.739651900981755" lon="17.53098544452812"><ele>214.33333333333334</ele><time>2026-04-17T14:02:34.999Z</time></trkpt><trkpt lat="40.73971445452982" lon="17.5309321406357"><ele>216.16666666666669</ele><time>2026-04-17T14:02:37.999Z</time></trkpt><trkpt lat="40.73977362510854" lon="17.530851157620024"><ele>218.0</ele><time>2026-04-17T14:02:40.999Z</time></trkpt><trkpt lat="40.73980400947737" lon="17.530757831042965"><ele>218.00000000000003</ele><time>2026-04-17T14:02:42.999Z</time></trkpt><trkpt lat="40.739810906962056" lon="17.530673710307283"><ele>218.0</ele><time>2026-04-17T14:02:44.999Z</time></trkpt><trkpt lat="40.739779872286725" lon="17.530526332864362"><ele>218.0</ele><time>2026-04-17T14:02:47.999Z</time></trkpt><trkpt lat="40.73978563630152" lon="17.530413238728222"><ele>218.0</ele><time>2026-04-17T14:02:51.999Z</time></trkpt><trkpt lat="40.739752498717614" lon="17.53030522158727"><ele>218.00000000000003</ele><time>2026-04-17T14:03:02.999Z</time></trkpt><trkpt lat="40.73977343329228" lon="17.530390380190813"><ele>218.0</ele><time>2026-04-17T14:03:31Z</time></trkpt><trkpt lat="40.739802408683126" lon="17.530466266863893"><ele>218.00000000000003</ele><time>2026-04-17T14:03:41Z</time></trkpt><trkpt lat="40.73986610695236" lon="17.53049727266706"><ele>218.0</ele><time>2026-04-17T14:03:43Z</time></trkpt><trkpt lat="40.739945470679295" lon="17.530564021889397"><ele>218.0</ele><time>2026-04-17T14:03:45Z</time></trkpt><trkpt lat="40.740024332024554" lon="17.530593883096856"><ele>218.0</ele><time>2026-04-17T14:03:48Z</time></trkpt><trkpt lat="40.74005859550672" lon="17.530664790314287"><ele>218.00000000000003</ele><time>2026-04-17T14:03:54Z</time></trkpt><trkpt lat="40.74010944707357" lon="17.5307390471456"><ele>218.0</ele><time>2026-04-17T14:03:57Z</time></trkpt><trkpt lat="40.74021751222648" lon="17.530762533881344"><ele>215.00000000000003</ele><time>2026-04-17T14:04:08.999Z</time></trkpt><trkpt lat="40.740246157286634" lon="17.530838222717055"><ele>212.0</ele><time>2026-04-17T14:04:10.999Z</time></trkpt><trkpt lat="40.7402908912483" lon="17.53090559943615"><ele>209.0</ele><time>2026-04-17T14:04:13.999Z</time></trkpt><trkpt lat="40.740256115208176" lon="17.531012410350048"><ele>206.0</ele><time>2026-04-17T14:04:16.999Z</time></trkpt><trkpt lat="40.74022857406176" lon="17.531093739906982"><ele>203.00000000000003</ele><time>2026-04-17T14:04:19.999Z</time></trkpt><trkpt lat="40.740275755134064" lon="17.53114914092415"><ele>200.0</ele><time>2026-04-17T14:04:22.999Z</time></trkpt><trkpt lat="40.74037687778796" lon="17.53115269686098"><ele>200.00000000000003</ele><time>2026-04-17T14:04:24.999Z</time></trkpt><trkpt lat="40.74043265462419" lon="17.531202861883042"><ele>200.0</ele><time>2026-04-17T14:04:26.999Z</time></trkpt><trkpt lat="40.74048890145089" lon="17.531110116168414"><ele>200.0</ele><time>2026-04-17T14:04:30.999Z</time></trkpt><trkpt lat="40.74048754308179" lon="17.531011461310797"><ele>200.0</ele><time>2026-04-17T14:04:33.999Z</time></trkpt><trkpt lat="40.74046497816872" lon="17.530889346937208"><ele>200.00000000000003</ele><time>2026-04-17T14:04:36.999Z</time></trkpt><trkpt lat="40.74049416217395" lon="17.530797193057722"><ele>200.0</ele><time>2026-04-17T14:04:39.999Z</time></trkpt><trkpt lat="40.74055989514597" lon="17.5307722222137"><ele>200.00000000000003</ele><time>2026-04-17T14:04:42.999Z</time></trkpt><trkpt lat="40.74059184909778" lon="17.530685129847562"><ele>200.0</ele><time>2026-04-17T14:04:51.999Z</time></trkpt><trkpt lat="40.74066688801691" lon="17.530688982380703"><ele>200.0</ele><time>2026-04-17T14:04:54.999Z</time></trkpt><trkpt lat="40.74073740879965" lon="17.530654699229704"><ele>200.0</ele><time>2026-04-17T14:04:55.999Z</time></trkpt><trkpt lat="40.74081808440011" lon="17.530638201235774"><ele>200.00000000000003</ele><time>2026-04-17T14:04:57.999Z</time></trkpt><trkpt lat="40.74088117764937" lon="17.530581501015234"><ele>200.0</ele><time>2026-04-17T14:04:59.999Z</time></trkpt><trkpt lat="40.74096701000596" lon="17.5305742614751"><ele>200.00000000000003</ele><time>2026-04-17T14:05:02.999Z</time></trkpt><trkpt lat="40.74102307310845" lon="17.530532863415445"><ele>200.0</ele><time>2026-04-17T14:05:04.999Z</time></trkpt><trkpt lat="40.74108611786361" lon="17.530522574197928"><ele>200.0</ele><time>2026-04-17T14:05:06.999Z</time></trkpt><trkpt lat="40.74118102461514" lon="17.53050706850517"><ele>200.0</ele><time>2026-04-17T14:05:08.999Z</time></trkpt><trkpt lat="40.74128483640355" lon="17.530482292990477"><ele>200.00000000000003</ele><time>2026-04-17T14:05:10.999Z</time></trkpt><trkpt lat="40.74134837220124" lon="17.53046788842294"><ele>200.0</ele><time>2026-04-17T14:05:11.999Z</time></trkpt><trkpt lat="40.74147231756959" lon="17.53043968981202"><ele>198.33333333333334</ele><time>2026-04-17T14:05:14Z</time></trkpt><trkpt lat="40.74154402688184" lon="17.53040822198766"><ele>196.66666666666669</ele><time>2026-04-17T14:05:15Z</time></trkpt><trkpt lat="40.7416404837027" lon="17.530371490200825"><ele>195.0</ele><time>2026-04-17T14:05:16Z</time></trkpt><trkpt lat="40.74171447318851" lon="17.53038377387871"><ele>193.33333333333334</ele><time>2026-04-17T14:05:17Z</time></trkpt><trkpt lat="40.741801347195675" lon="17.530393280469006"><ele>191.66666666666669</ele><time>2026-04-17T14:05:18Z</time></trkpt><trkpt lat="40.74190576681607" lon="17.530413056786173"><ele>190.0</ele><time>2026-04-17T14:05:20Z</time></trkpt><trkpt lat="40.742002217530604" lon="17.530399259565986"><ele>190.4</ele><time>2026-04-17T14:05:21Z</time></trkpt><trkpt lat="40.74208884197202" lon="17.530346226071625"><ele>190.8</ele><time>2026-04-17T14:05:23Z</time></trkpt><trkpt lat="40.7422062711175" lon="17.530279942590003"><ele>191.2</ele><time>2026-04-17T14:05:25Z</time></trkpt><trkpt lat="40.742285298199974" lon="17.5302855774334"><ele>191.6</ele><time>2026-04-17T14:05:26Z</time></trkpt><trkpt lat="40.74239085536931" lon="17.530269951336695"><ele>192.0</ele><time>2026-04-17T14:05:27Z</time></trkpt><trkpt lat="40.74247174031639" lon="17.530246339355706"><ele>192.0</ele><time>2026-04-17T14:05:28Z</time></trkpt><trkpt lat="40.74255227203151" lon="17.53020962244518"><ele>192.0</ele><time>2026-04-17T14:05:29Z</time></trkpt><trkpt lat="40.742627873358444" lon="17.530161379527804"><ele>192.0</ele><time>2026-04-17T14:05:30Z</time></trkpt><trkpt lat="40.742707791274626" lon="17.530115903806823"><ele>192.0</ele><time>2026-04-17T14:05:31Z</time></trkpt><trkpt lat="40.74277109570758" lon="17.530055195987806"><ele>192.0</ele><time>2026-04-17T14:05:32Z</time></trkpt><trkpt lat="40.74283710346863" lon="17.53000942904533"><ele>192.0</ele><time>2026-04-17T14:05:33Z</time></trkpt><trkpt lat="40.74289558993341" lon="17.529961824831503"><ele>189.2</ele><time>2026-04-17T14:05:34Z</time></trkpt><trkpt lat="40.74294743555512" lon="17.529898113408095"><ele>186.39999999999998</ele><time>2026-04-17T14:05:35Z</time></trkpt><trkpt lat="40.74300888260509" lon="17.529847622336998"><ele>183.60000000000002</ele><time>2026-04-17T14:05:36Z</time></trkpt><trkpt lat="40.74310179137282" lon="17.52977369151643"><ele>180.8</ele><time>2026-04-17T14:05:38Z</time></trkpt><trkpt lat="40.74321041039902" lon="17.529698038896417"><ele>178.0</ele><time>2026-04-17T14:05:40Z</time></trkpt><trkpt lat="40.74331512698785" lon="17.529611243942174"><ele>178.0</ele><time>2026-04-17T14:05:42Z</time></trkpt><trkpt lat="40.743423757006695" lon="17.529566532810687"><ele>178.0</ele><time>2026-04-17T14:05:44Z</time></trkpt><trkpt lat="40.74348413114626" lon="17.529538302924383"><ele>178.0</ele><time>2026-04-17T14:05:45Z</time></trkpt><trkpt lat="40.74356257333784" lon="17.529484409721693"><ele>178.0</ele><time>2026-04-17T14:05:46Z</time></trkpt><trkpt lat="40.743597143447595" lon="17.52941305777399"><ele>178.0</ele><time>2026-04-17T14:05:47Z</time></trkpt><trkpt lat="40.74371051339268" lon="17.529339579820903"><ele>177.4</ele><time>2026-04-17T14:05:49Z</time></trkpt><trkpt lat="40.743803860319396" lon="17.529289904676798"><ele>176.8</ele><time>2026-04-17T14:05:51Z</time></trkpt><trkpt lat="40.74390106000033" lon="17.529260044832974"><ele>176.2</ele><time>2026-04-17T14:05:53Z</time></trkpt><trkpt lat="40.74403148945849" lon="17.52922841475258"><ele>175.6</ele><time>2026-04-17T14:05:55Z</time></trkpt><trkpt lat="40.74412624342364" lon="17.529149277266285"><ele>175.0</ele><time>2026-04-17T14:05:57Z</time></trkpt><trkpt lat="40.74422489345208" lon="17.529095874733873"><ele>175.0</ele><time>2026-04-17T14:05:59Z</time></trkpt><trkpt lat="40.744349013757926" lon="17.52905308663683"><ele>175.0</ele><time>2026-04-17T14:06:01Z</time></trkpt><trkpt lat="40.74439927264545" lon="17.528997325409584"><ele>175.0</ele><time>2026-04-17T14:06:02Z</time></trkpt><trkpt lat="40.74447660007076" lon="17.52892675705728"><ele>175.0</ele><time>2026-04-17T14:06:04Z</time></trkpt><trkpt lat="40.74455760627284" lon="17.528891605823258"><ele>175.0</ele><time>2026-04-17T14:06:08.999Z</time></trkpt><trkpt lat="40.74463549070819" lon="17.528858956852336"><ele>174.66666666666669</ele><time>2026-04-17T14:06:10.999Z</time></trkpt><trkpt lat="40.744729578821406" lon="17.5287960599728"><ele>174.33333333333334</ele><time>2026-04-17T14:06:12.999Z</time></trkpt><trkpt lat="40.74478363102641" lon="17.528687883199193"><ele>174.0</ele><time>2026-04-17T14:06:14.999Z</time></trkpt><trkpt lat="40.74482487737062" lon="17.528616664731665"><ele>173.66666666666666</ele><time>2026-04-17T14:06:16.999Z</time></trkpt><trkpt lat="40.7449045529433" lon="17.528574401350724"><ele>173.33333333333331</ele><time>2026-04-17T14:06:18.999Z</time></trkpt><trkpt lat="40.7449733104003" lon="17.52856262483302"><ele>173.0</ele><time>2026-04-17T14:06:19.999Z</time></trkpt><trkpt lat="40.74507979812978" lon="17.528500736560936"><ele>173.0</ele><time>2026-04-17T14:06:21.999Z</time></trkpt><trkpt lat="40.745143912142524" lon="17.528489772798064"><ele>173.0</ele><time>2026-04-17T14:06:22.999Z</time></trkpt><trkpt lat="40.745250419683714" lon="17.528461958683657"><ele>173.0</ele><time>2026-04-17T14:06:24.999Z</time></trkpt><trkpt lat="40.74531773034297" lon="17.52844792620278"><ele>173.0</ele><time>2026-04-17T14:06:25.999Z</time></trkpt><trkpt lat="40.74543440632088" lon="17.528376488538854"><ele>173.0</ele><time>2026-04-17T14:06:27.999Z</time></trkpt><trkpt lat="40.74553616394711" lon="17.528304048635125"><ele>171.14285714285714</ele><time>2026-04-17T14:06:29.999Z</time></trkpt><trkpt lat="40.74560386108722" lon="17.528256358266123"><ele>169.2857142857143</ele><time>2026-04-17T14:06:30.999Z</time></trkpt><trkpt lat="40.745664858412376" lon="17.528206705688195"><ele>167.42857142857144</ele><time>2026-04-17T14:06:31.999Z</time></trkpt><trkpt lat="40.745729190135634" lon="17.52815582153376"><ele>165.57142857142856</ele><time>2026-04-17T14:06:32.999Z</time></trkpt><trkpt lat="40.7457935522757" lon="17.52811413607503"><ele>163.71428571428572</ele><time>2026-04-17T14:06:33.999Z</time></trkpt><trkpt lat="40.74584968616253" lon="17.528065674643532"><ele>161.85714285714286</ele><time>2026-04-17T14:06:34.999Z</time></trkpt><trkpt lat="40.74589761582977" lon="17.528010353765758"><ele>160.0</ele><time>2026-04-17T14:06:35.999Z</time></trkpt><trkpt lat="40.74598774977325" lon="17.52793814262202"><ele>160.0</ele><time>2026-04-17T14:06:37.999Z</time></trkpt><trkpt lat="40.746096826489435" lon="17.527859758563157"><ele>160.0</ele><time>2026-04-17T14:06:39.999Z</time></trkpt><trkpt lat="40.74620793586435" lon="17.52777907300989"><ele>160.0</ele><time>2026-04-17T14:06:41.999Z</time></trkpt><trkpt lat="40.74627404219939" lon="17.52773612795246"><ele>160.0</ele><time>2026-04-17T14:06:43.999Z</time></trkpt><trkpt lat="40.74634101696824" lon="17.527782164063595"><ele>160.0</ele><time>2026-04-17T14:06:46.999Z</time></trkpt><trkpt lat="40.746411016249915" lon="17.52774430275077"><ele>160.0</ele><time>2026-04-17T14:06:48.999Z</time></trkpt><trkpt lat="40.74647947482796" lon="17.52772509467231"><ele>160.0</ele><time>2026-04-17T14:06:50.999Z</time></trkpt><trkpt lat="40.746569487386324" lon="17.52765393892782"><ele>160.0</ele><time>2026-04-17T14:06:52.999Z</time></trkpt><trkpt lat="40.746643054302794" lon="17.52762843858154"><ele>160.0</ele><time>2026-04-17T14:06:54.999Z</time></trkpt><trkpt lat="40.746719104864276" lon="17.527562344945377"><ele>160.0</ele><time>2026-04-17T14:06:56.999Z</time></trkpt><trkpt lat="40.7467629933531" lon="17.527484050888248"><ele>160.0</ele><time>2026-04-17T14:06:58.999Z</time></trkpt><trkpt lat="40.74678515349675" lon="17.527364450500194"><ele>160.0</ele><time>2026-04-17T14:07:00.999Z</time></trkpt><trkpt lat="40.74681870920176" lon="17.52729372169581"><ele>160.0</ele><time>2026-04-17T14:07:03.999Z</time></trkpt><trkpt lat="40.74688426492041" lon="17.527240929560367"><ele>160.0</ele><time>2026-04-17T14:07:06.999Z</time></trkpt><trkpt lat="40.746951023964094" lon="17.527192575185587"><ele>160.0</ele><time>2026-04-17T14:07:08.999Z</time></trkpt><trkpt lat="40.74701240880855" lon="17.527106576412823"><ele>160.0</ele><time>2026-04-17T14:07:10.999Z</time></trkpt><trkpt lat="40.747111805003264" lon="17.527103975442184"><ele>160.0</ele><time>2026-04-17T14:07:12.999Z</time></trkpt><trkpt lat="40.7472026521675" lon="17.527128176485075"><ele>159.66666666666669</ele><time>2026-04-17T14:07:14.999Z</time></trkpt><trkpt lat="40.74725144812763" lon="17.527033852668072"><ele>159.33333333333334</ele><time>2026-04-17T14:07:16.999Z</time></trkpt><trkpt lat="40.747307864753076" lon="17.526977355718383"><ele>159.0</ele><time>2026-04-17T14:07:18.999Z</time></trkpt><trkpt lat="40.74739887988046" lon="17.526992195879473"><ele>158.66666666666666</ele><time>2026-04-17T14:07:21Z</time></trkpt><trkpt lat="40.74745816067589" lon="17.52702253422405"><ele>158.33333333333331</ele><time>2026-04-17T14:07:23Z</time></trkpt><trkpt lat="40.74752522289851" lon="17.52698372955638"><ele>158.0</ele><time>2026-04-17T14:07:25Z</time></trkpt><trkpt lat="40.74760978012088" lon="17.526912640336285"><ele>158.0</ele><time>2026-04-17T14:07:28Z</time></trkpt><trkpt lat="40.74769488643363" lon="17.526863566951295"><ele>158.0</ele><time>2026-04-17T14:07:30Z</time></trkpt><trkpt lat="40.74777499356279" lon="17.526756951692857"><ele>158.0</ele><time>2026-04-17T14:07:33Z</time></trkpt><trkpt lat="40.747856916212314" lon="17.526802029748357"><ele>158.0</ele><time>2026-04-17T14:07:35Z</time></trkpt><trkpt lat="40.74794581135359" lon="17.526774036518056"><ele>158.0</ele><time>2026-04-17T14:07:38Z</time></trkpt><trkpt lat="40.748007354152755" lon="17.526703461603848"><ele>155.66666666666666</ele><time>2026-04-17T14:07:40Z</time></trkpt><trkpt lat="40.7480697525121" lon="17.526677236238978"><ele>153.33333333333331</ele><time>2026-04-17T14:07:42Z</time></trkpt><trkpt lat="40.74816920197142" lon="17.526666765657062"><ele>151.0</ele><time>2026-04-17T14:07:47Z</time></trkpt><trkpt lat="40.74825974826407" lon="17.526678030090682"><ele>148.66666666666666</ele><time>2026-04-17T14:07:50Z</time></trkpt><trkpt lat="40.74834330068201" lon="17.526665805945825"><ele>146.33333333333334</ele><time>2026-04-17T14:07:54Z</time></trkpt><trkpt lat="40.74840956313651" lon="17.52660600367001"><ele>144.0</ele><time>2026-04-17T14:07:56Z</time></trkpt><trkpt lat="40.74847724633967" lon="17.526562787577067"><ele>144.0</ele><time>2026-04-17T14:07:59Z</time></trkpt><trkpt lat="40.74853338829333" lon="17.52649107301478"><ele>144.0</ele><time>2026-04-17T14:08:03Z</time></trkpt><trkpt lat="40.74861282341971" lon="17.526355546688134"><ele>144.0</ele><time>2026-04-17T14:08:05Z</time></trkpt><trkpt lat="40.74865688903097" lon="17.526257113478305"><ele>144.0</ele><time>2026-04-17T14:08:06Z</time></trkpt><trkpt lat="40.74868774029629" lon="17.526146623625117"><ele>144.0</ele><time>2026-04-17T14:08:07Z</time></trkpt><trkpt lat="40.74872855398711" lon="17.526081122750067"><ele>144.0</ele><time>2026-04-17T14:08:08Z</time></trkpt><trkpt lat="40.74877603036334" lon="17.52602229512626"><ele>143.0</ele><time>2026-04-17T14:08:09Z</time></trkpt><trkpt lat="40.74886217445763" lon="17.525933585270558"><ele>142.0</ele><time>2026-04-17T14:08:11Z</time></trkpt><trkpt lat="40.7488472819383" lon="17.525805510821673"><ele>141.0</ele><time>2026-04-17T14:08:12.999Z</time></trkpt><trkpt lat="40.74890573932515" lon="17.5256903811951"><ele>140.0</ele><time>2026-04-17T14:08:14.999Z</time></trkpt><trkpt lat="40.74894499367708" lon="17.52556863293373"><ele>139.0</ele><time>2026-04-17T14:08:16.999Z</time></trkpt><trkpt lat="40.74892832929534" lon="17.525424372083062"><ele>140.0</ele><time>2026-04-17T14:08:18.999Z</time></trkpt><trkpt lat="40.74889960422325" lon="17.525344309182902"><ele>141.0</ele><time>2026-04-17T14:08:19.999Z</time></trkpt><trkpt lat="40.748843849172076" lon="17.525269675158725"><ele>142.0</ele><time>2026-04-17T14:08:21.999Z</time></trkpt><trkpt lat="40.74886412776472" lon="17.52514035097872"><ele>143.0</ele><time>2026-04-17T14:08:24.999Z</time></trkpt><trkpt lat="40.74887618399734" lon="17.52500135312591"><ele>144.0</ele><time>2026-04-17T14:08:26.999Z</time></trkpt><trkpt lat="40.74888505972995" lon="17.524864153936868"><ele>144.0</ele><time>2026-04-17T14:08:28.999Z</time></trkpt><trkpt lat="40.748900874495895" lon="17.52477509677949"><ele>144.0</ele><time>2026-04-17T14:08:29.999Z</time></trkpt><trkpt lat="40.748931336928145" lon="17.52463825046187"><ele>144.0</ele><time>2026-04-17T14:08:31.999Z</time></trkpt><trkpt lat="40.74891276627675" lon="17.524515436404723"><ele>144.0</ele><time>2026-04-17T14:08:33.999Z</time></trkpt><trkpt lat="40.748904438613756" lon="17.524384230149185"><ele>144.0</ele><time>2026-04-17T14:08:35.999Z</time></trkpt><trkpt lat="40.74893297019304" lon="17.52425345787512"><ele>144.25</ele><time>2026-04-17T14:08:37.999Z</time></trkpt><trkpt lat="40.74898866102889" lon="17.524114502584084"><ele>144.5</ele><time>2026-04-17T14:08:39.999Z</time></trkpt><trkpt lat="40.749040636536414" lon="17.523976781185105"><ele>144.75</ele><time>2026-04-17T14:08:41.999Z</time></trkpt><trkpt lat="40.749106828614515" lon="17.523844216955684"><ele>145.0</ele><time>2026-04-17T14:08:43.999Z</time></trkpt><trkpt lat="40.74916426874619" lon="17.523692684256936"><ele>144.25</ele><time>2026-04-17T14:08:45.999Z</time></trkpt><trkpt lat="40.74922428666834" lon="17.52355303908912"><ele>143.5</ele><time>2026-04-17T14:08:47.999Z</time></trkpt><trkpt lat="40.749294966309904" lon="17.523423865116964"><ele>142.75</ele><time>2026-04-17T14:08:49.999Z</time></trkpt><trkpt lat="40.74934942471861" lon="17.523278987569224"><ele>142.0</ele><time>2026-04-17T14:08:51.999Z</time></trkpt><trkpt lat="40.749387782726345" lon="17.52313699797557"><ele>142.0</ele><time>2026-04-17T14:08:53.999Z</time></trkpt><trkpt lat="40.749406424193275" lon="17.523054376961138"><ele>142.0</ele><time>2026-04-17T14:08:54.999Z</time></trkpt><trkpt lat="40.74943940555078" lon="17.522911243128636"><ele>142.0</ele><time>2026-04-17T14:08:56.999Z</time></trkpt><trkpt lat="40.749497420953915" lon="17.522809673237074"><ele>142.0</ele><time>2026-04-17T14:08:58.999Z</time></trkpt><trkpt lat="40.74954020784766" lon="17.52274249852235"><ele>142.0</ele><time>2026-04-17T14:08:59.999Z</time></trkpt><trkpt lat="40.74959763532193" lon="17.522608106334644"><ele>143.0</ele><time>2026-04-17T14:09:01.999Z</time></trkpt><trkpt lat="40.7496296964191" lon="17.522490616144108"><ele>144.0</ele><time>2026-04-17T14:09:03.999Z</time></trkpt><trkpt lat="40.7496706691826" lon="17.522371009486193"><ele>145.0</ele><time>2026-04-17T14:09:05.999Z</time></trkpt><trkpt lat="40.74972335528961" lon="17.52227782357455"><ele>146.0</ele><time>2026-04-17T14:09:07.999Z</time></trkpt><trkpt lat="40.74978190567195" lon="17.522178534161874"><ele>147.0</ele><time>2026-04-17T14:09:09.999Z</time></trkpt><trkpt lat="40.7498279344647" lon="17.52205985540737"><ele>148.6</ele><time>2026-04-17T14:09:11.999Z</time></trkpt><trkpt lat="40.74987618512676" lon="17.522003972361038"><ele>150.2</ele><time>2026-04-17T14:09:12.999Z</time></trkpt><trkpt lat="40.749942030011304" lon="17.5218830214836"><ele>151.8</ele><time>2026-04-17T14:09:14.999Z</time></trkpt><trkpt lat="40.750014995532176" lon="17.521784626628467"><ele>153.4</ele><time>2026-04-17T14:09:16.999Z</time></trkpt><trkpt lat="40.75010899572937" lon="17.521712426821516"><ele>155.0</ele><time>2026-04-17T14:09:18.999Z</time></trkpt><trkpt lat="40.75021200810203" lon="17.521653326647748"><ele>155.0</ele><time>2026-04-17T14:09:20.999Z</time></trkpt><trkpt lat="40.75032271264073" lon="17.52159133981142"><ele>155.0</ele><time>2026-04-17T14:09:22.999Z</time></trkpt><trkpt lat="40.75038643348289" lon="17.521522360238574"><ele>155.0</ele><time>2026-04-17T14:09:24.998Z</time></trkpt><trkpt lat="40.75042998049716" lon="17.521447213560077"><ele>155.0</ele><time>2026-04-17T14:09:28Z</time></trkpt><trkpt lat="40.750438314203656" lon="17.52132331010026"><ele>155.0</ele><time>2026-04-17T14:09:31Z</time></trkpt><trkpt lat="40.750433044781666" lon="17.521223629949695"><ele>155.0</ele><time>2026-04-17T14:09:34Z</time></trkpt><trkpt lat="40.75040947625344" lon="17.52112934357091"><ele>155.83333333333331</ele><time>2026-04-17T14:09:36Z</time></trkpt><trkpt lat="40.75037122452561" lon="17.52105223906854"><ele>156.66666666666666</ele><time>2026-04-17T14:09:38Z</time></trkpt><trkpt lat="40.75031831692327" lon="17.520984668677993"><ele>157.5</ele><time>2026-04-17T14:09:40Z</time></trkpt><trkpt lat="40.75026849498674" lon="17.520917437295886"><ele>158.33333333333334</ele><time>2026-04-17T14:09:42Z</time></trkpt><trkpt lat="40.750204218116195" lon="17.520873515915653"><ele>159.16666666666669</ele><time>2026-04-17T14:09:44Z</time></trkpt><trkpt lat="40.750133901285494" lon="17.52076515370757"><ele>160.0</ele><time>2026-04-17T14:09:47Z</time></trkpt><trkpt lat="40.75006769548322" lon="17.52067878594302"><ele>161.33333333333334</ele><time>2026-04-17T14:09:49Z</time></trkpt><trkpt lat="40.74999221643043" lon="17.520634776905514"><ele>162.66666666666669</ele><time>2026-04-17T14:09:51Z</time></trkpt><trkpt lat="40.74992109395439" lon="17.52058642092601"><ele>164.0</ele><time>2026-04-17T14:09:53Z</time></trkpt><trkpt lat="40.749837988524845" lon="17.520557335168107"><ele>165.33333333333334</ele><time>2026-04-17T14:09:55Z</time></trkpt><trkpt lat="40.749763381317095" lon="17.520522792829414"><ele>166.66666666666666</ele><time>2026-04-17T14:09:57Z</time></trkpt><trkpt lat="40.74969824747404" lon="17.520463417658473"><ele>168.0</ele><time>2026-04-17T14:09:59Z</time></trkpt><trkpt lat="40.74961681673159" lon="17.520404145509456"><ele>168.5</ele><time>2026-04-17T14:10:01Z</time></trkpt><trkpt lat="40.74953856561841" lon="17.520338100869"><ele>169.0</ele><time>2026-04-17T14:10:03Z</time></trkpt><trkpt lat="40.74946816137829" lon="17.52028125804708"><ele>169.5</ele><time>2026-04-17T14:10:05Z</time></trkpt><trkpt lat="40.74939201334493" lon="17.520223787115107"><ele>170.0</ele><time>2026-04-17T14:10:07Z</time></trkpt><trkpt lat="40.74931505622766" lon="17.520156617376912"><ele>170.5</ele><time>2026-04-17T14:10:09Z</time></trkpt><trkpt lat="40.74923664515473" lon="17.520088615240685"><ele>171.0</ele><time>2026-04-17T14:10:11Z</time></trkpt><trkpt lat="40.74913913644267" lon="17.5200125098571"><ele>171.0</ele><time>2026-04-17T14:10:13Z</time></trkpt><trkpt lat="40.74903651377069" lon="17.519942454989312"><ele>171.0</ele><time>2026-04-17T14:10:15Z</time></trkpt><trkpt lat="40.74894596672917" lon="17.51989047811986"><ele>171.0</ele><time>2026-04-17T14:10:17Z</time></trkpt><trkpt lat="40.74888321366429" lon="17.51986488551073"><ele>171.0</ele><time>2026-04-17T14:10:18Z</time></trkpt><trkpt lat="40.74877528987317" lon="17.51983172719938"><ele>171.0</ele><time>2026-04-17T14:10:20Z</time></trkpt><trkpt lat="40.74867783188498" lon="17.519784234347405"><ele>171.0</ele><time>2026-04-17T14:10:21.999Z</time></trkpt><trkpt lat="40.748580815854005" lon="17.519715780382537"><ele>171.0</ele><time>2026-04-17T14:10:23.999Z</time></trkpt><trkpt lat="40.74850082152384" lon="17.519616161413182"><ele>171.0</ele><time>2026-04-17T14:10:25.999Z</time></trkpt><trkpt lat="40.74845150628184" lon="17.519551796040293"><ele>171.0</ele><time>2026-04-17T14:10:26.999Z</time></trkpt><trkpt lat="40.74839816421929" lon="17.519487812858138"><ele>171.0</ele><time>2026-04-17T14:10:27.999Z</time></trkpt><trkpt lat="40.748305225968764" lon="17.519384040872453"><ele>170.8</ele><time>2026-04-17T14:10:29.999Z</time></trkpt><trkpt lat="40.74821941250302" lon="17.519284151491995"><ele>170.60000000000002</ele><time>2026-04-17T14:10:31.999Z</time></trkpt><trkpt lat="40.74814060628758" lon="17.519199683241833"><ele>170.4</ele><time>2026-04-17T14:10:33.999Z</time></trkpt><trkpt lat="40.74808729366439" lon="17.519121471315596"><ele>170.2</ele><time>2026-04-17T14:10:35.999Z</time></trkpt><trkpt lat="40.74803898070257" lon="17.519064088163844"><ele>170.0</ele><time>2026-04-17T14:10:36.999Z</time></trkpt><trkpt lat="40.7480108044416" lon="17.518923189335474"><ele>170.0</ele><time>2026-04-17T14:10:38.999Z</time></trkpt><trkpt lat="40.7479568282533" lon="17.518802342259047"><ele>170.0</ele><time>2026-04-17T14:10:40.999Z</time></trkpt><trkpt lat="40.747859674823395" lon="17.51869824580058"><ele>170.0</ele><time>2026-04-17T14:10:42.999Z</time></trkpt><trkpt lat="40.747784110501975" lon="17.51859769350903"><ele>170.0</ele><time>2026-04-17T14:10:44.999Z</time></trkpt><trkpt lat="40.74768526600383" lon="17.518557254824593"><ele>170.0</ele><time>2026-04-17T14:10:46.999Z</time></trkpt><trkpt lat="40.74758757484451" lon="17.51851532447791"><ele>169.6</ele><time>2026-04-17T14:10:48.999Z</time></trkpt><trkpt lat="40.74748708612087" lon="17.518484889696175"><ele>169.2</ele><time>2026-04-17T14:10:50.999Z</time></trkpt><trkpt lat="40.74746594254519" lon="17.518368689209765"><ele>168.8</ele><time>2026-04-17T14:10:53.999Z</time></trkpt><trkpt lat="40.747432252900055" lon="17.518237984702132"><ele>168.4</ele><time>2026-04-17T14:10:55.999Z</time></trkpt><trkpt lat="40.74740768288786" lon="17.518131100434854"><ele>168.0</ele><time>2026-04-17T14:10:57.999Z</time></trkpt><trkpt lat="40.74733017242066" lon="17.51805798677513"><ele>168.0</ele><time>2026-04-17T14:10:59.999Z</time></trkpt><trkpt lat="40.74725533837368" lon="17.517936555607307"><ele>168.0</ele><time>2026-04-17T14:11:01.999Z</time></trkpt><trkpt lat="40.747162203349035" lon="17.517858815339594"><ele>168.0</ele><time>2026-04-17T14:11:03.999Z</time></trkpt><trkpt lat="40.7470776915594" lon="17.51779105804866"><ele>168.0</ele><time>2026-04-17T14:11:05.999Z</time></trkpt><trkpt lat="40.74709185819246" lon="17.51769716234445"><ele>168.0</ele><time>2026-04-17T14:11:08.999Z</time></trkpt><trkpt lat="40.74711767452162" lon="17.517613732855253"><ele>168.33333333333334</ele><time>2026-04-17T14:11:11.999Z</time></trkpt><trkpt lat="40.747083117617585" lon="17.51749032805535"><ele>168.66666666666666</ele><time>2026-04-17T14:11:13.999Z</time></trkpt><trkpt lat="40.747051925071545" lon="17.517370028671955"><ele>169.0</ele><time>2026-04-17T14:11:16.999Z</time></trkpt><trkpt lat="40.74702405236996" lon="17.517288487649722"><ele>169.33333333333331</ele><time>2026-04-17T14:11:18.999Z</time></trkpt><trkpt lat="40.74697401065651" lon="17.51721221585307"><ele>169.66666666666666</ele><time>2026-04-17T14:11:20.999Z</time></trkpt><trkpt lat="40.74689998877789" lon="17.517193906956678"><ele>170.0</ele><time>2026-04-17T14:11:22.999Z</time></trkpt><trkpt lat="40.746848856188" lon="17.517286050108265"><ele>170.0</ele><time>2026-04-17T14:11:24.999Z</time></trkpt><trkpt lat="40.74678912378246" lon="17.517346303094794"><ele>170.0</ele><time>2026-04-17T14:11:27.999Z</time></trkpt><trkpt lat="40.74673869129202" lon="17.517273370683665"><ele>170.0</ele><time>2026-04-17T14:11:29.999Z</time></trkpt><trkpt lat="40.74665529895979" lon="17.51719885539139"><ele>170.0</ele><time>2026-04-17T14:11:32Z</time></trkpt><trkpt lat="40.74657964666656" lon="17.5171090936661"><ele>170.0</ele><time>2026-04-17T14:11:34Z</time></trkpt><trkpt lat="40.746500621323754" lon="17.517017544173562"><ele>168.6</ele><time>2026-04-17T14:11:36Z</time></trkpt><trkpt lat="40.74642688721869" lon="17.51694704111996"><ele>167.2</ele><time>2026-04-17T14:11:38Z</time></trkpt><trkpt lat="40.74636187584332" lon="17.516855443163454"><ele>165.8</ele><time>2026-04-17T14:11:40Z</time></trkpt><trkpt lat="40.746288430352045" lon="17.516775727285857"><ele>164.4</ele><time>2026-04-17T14:11:42Z</time></trkpt><trkpt lat="40.74622436629168" lon="17.51668098510768"><ele>163.0</ele><time>2026-04-17T14:11:44Z</time></trkpt><trkpt lat="40.746161116461465" lon="17.516593440257832"><ele>163.0</ele><time>2026-04-17T14:11:46Z</time></trkpt><trkpt lat="40.746099801823036" lon="17.51649839707509"><ele>163.0</ele><time>2026-04-17T14:11:48Z</time></trkpt><trkpt lat="40.746077874105616" lon="17.516409422137954"><ele>163.0</ele><time>2026-04-17T14:11:50Z</time></trkpt><trkpt lat="40.74606492199181" lon="17.51630031781997"><ele>163.0</ele><time>2026-04-17T14:11:52Z</time></trkpt><trkpt lat="40.746002694558946" lon="17.51622611662735"><ele>163.0</ele><time>2026-04-17T14:11:54Z</time></trkpt><trkpt lat="40.745929758174505" lon="17.516184668745243"><ele>163.0</ele><time>2026-04-17T14:11:57Z</time></trkpt><trkpt lat="40.745899206087806" lon="17.516106481618042"><ele>162.57142857142858</ele><time>2026-04-17T14:12:01Z</time></trkpt><trkpt lat="40.74594760725611" lon="17.516182147577712"><ele>162.14285714285714</ele><time>2026-04-17T14:12:10Z</time></trkpt><trkpt lat="40.74600827448885" lon="17.516206105476208"><ele>161.71428571428572</ele><time>2026-04-17T14:12:13Z</time></trkpt><trkpt lat="40.74604231285464" lon="17.516127841168366"><ele>161.28571428571428</ele><time>2026-04-17T14:12:16Z</time></trkpt><trkpt lat="40.74607290900688" lon="17.516040035616236"><ele>160.85714285714286</ele><time>2026-04-17T14:12:19Z</time></trkpt><trkpt lat="40.74603659511103" lon="17.515969096937784"><ele>160.42857142857142</ele><time>2026-04-17T14:12:21.999Z</time></trkpt><trkpt lat="40.745997815160585" lon="17.515858813185947"><ele>160.0</ele><time>2026-04-17T14:12:25.999Z</time></trkpt><trkpt lat="40.745959374678606" lon="17.515788535159846"><ele>161.71428571428572</ele><time>2026-04-17T14:12:28.999Z</time></trkpt><trkpt lat="40.74591084533923" lon="17.515711595639367"><ele>163.42857142857144</ele><time>2026-04-17T14:12:31.999Z</time></trkpt><trkpt lat="40.74581633279761" lon="17.5157035552184"><ele>165.14285714285717</ele><time>2026-04-17T14:12:34.999Z</time></trkpt><trkpt lat="40.74574698876648" lon="17.51573187909635"><ele>166.85714285714286</ele><time>2026-04-17T14:12:36.999Z</time></trkpt><trkpt lat="40.74569138890437" lon="17.515690291878546"><ele>168.57142857142858</ele><time>2026-04-17T14:12:38.999Z</time></trkpt><trkpt lat="40.745634453955724" lon="17.515650189963235"><ele>170.2857142857143</ele><time>2026-04-17T14:12:40.999Z</time></trkpt><trkpt lat="40.74562890497246" lon="17.51554783633361"><ele>172.0</ele><time>2026-04-17T14:12:43.999Z</time></trkpt><trkpt lat="40.74567935475069" lon="17.51545954268693"><ele>172.33333333333334</ele><time>2026-04-17T14:12:45.999Z</time></trkpt><trkpt lat="40.745743987458354" lon="17.51539013141194"><ele>172.66666666666669</ele><time>2026-04-17T14:12:47.999Z</time></trkpt><trkpt lat="40.74580580173054" lon="17.51531054038699"><ele>173.0</ele><time>2026-04-17T14:12:50.999Z</time></trkpt><trkpt lat="40.74585950018922" lon="17.515238584343884"><ele>173.33333333333334</ele><time>2026-04-17T14:12:52.999Z</time></trkpt><trkpt lat="40.74590603571677" lon="17.515127372483605"><ele>173.66666666666666</ele><time>2026-04-17T14:12:54.999Z</time></trkpt><trkpt lat="40.74595492893354" lon="17.515067145735774"><ele>174.0</ele><time>2026-04-17T14:12:56.999Z</time></trkpt><trkpt lat="40.74604945269877" lon="17.515051073236567"><ele>172.83333333333334</ele><time>2026-04-17T14:12:59.999Z</time></trkpt><trkpt lat="40.74610475091921" lon="17.514958983002398"><ele>171.66666666666666</ele><time>2026-04-17T14:13:01.999Z</time></trkpt><trkpt lat="40.74613381949717" lon="17.514879755057947"><ele>170.5</ele><time>2026-04-17T14:13:03.999Z</time></trkpt><trkpt lat="40.74618484083258" lon="17.51479702669708"><ele>169.33333333333331</ele><time>2026-04-17T14:13:06.999Z</time></trkpt><trkpt lat="40.74622672638545" lon="17.514696081139963"><ele>168.16666666666666</ele><time>2026-04-17T14:13:09.999Z</time></trkpt><trkpt lat="40.74628064356043" lon="17.51460232441117"><ele>167.0</ele><time>2026-04-17T14:13:13.999Z</time></trkpt><trkpt lat="40.74631803405713" lon="17.51450323502464"><ele>167.0</ele><time>2026-04-17T14:13:16.999Z</time></trkpt><trkpt lat="40.746374078142296" lon="17.51445026212432"><ele>167.0</ele><time>2026-04-17T14:13:19.999Z</time></trkpt><trkpt lat="40.74642668273966" lon="17.51452241826765"><ele>167.0</ele><time>2026-04-17T14:13:21.999Z</time></trkpt><trkpt lat="40.746499621307855" lon="17.514586544171475"><ele>167.0</ele><time>2026-04-17T14:13:24.999Z</time></trkpt><trkpt lat="40.746549666445574" lon="17.51465528678298"><ele>167.0</ele><time>2026-04-17T14:13:26.999Z</time></trkpt><trkpt lat="40.74662635299228" lon="17.514711435999807"><ele>167.0</ele><time>2026-04-17T14:13:28.999Z</time></trkpt><trkpt lat="40.746709472523854" lon="17.514732947341408"><ele>166.2</ele><time>2026-04-17T14:13:30.998Z</time></trkpt><trkpt lat="40.74681186709742" lon="17.514673348155707"><ele>165.39999999999998</ele><time>2026-04-17T14:13:33.998Z</time></trkpt><trkpt lat="40.74688069279312" lon="17.51472341455755"><ele>164.60000000000002</ele><time>2026-04-17T14:13:35.998Z</time></trkpt><trkpt lat="40.74695962279965" lon="17.51478582636056"><ele>163.8</ele><time>2026-04-17T14:13:38Z</time></trkpt><trkpt lat="40.74704701701497" lon="17.51484941913392"><ele>163.0</ele><time>2026-04-17T14:13:42Z</time></trkpt><trkpt lat="40.74712913892596" lon="17.514765490702626"><ele>161.71428571428572</ele><time>2026-04-17T14:13:45Z</time></trkpt><trkpt lat="40.747174005987056" lon="17.51470087747871"><ele>160.42857142857142</ele><time>2026-04-17T14:13:47Z</time></trkpt><trkpt lat="40.74722821914722" lon="17.51463892852184"><ele>159.14285714285714</ele><time>2026-04-17T14:13:49Z</time></trkpt><trkpt lat="40.747289721809864" lon="17.514577742404292"><ele>157.85714285714286</ele><time>2026-04-17T14:13:51Z</time></trkpt><trkpt lat="40.74734155056088" lon="17.514516220176407"><ele>156.57142857142856</ele><time>2026-04-17T14:13:54Z</time></trkpt><trkpt lat="40.74738766490475" lon="17.51445111859685"><ele>155.28571428571428</ele><time>2026-04-17T14:13:56Z</time></trkpt><trkpt lat="40.747467817545235" lon="17.51442447809439"><ele>154.0</ele><time>2026-04-17T14:13:59Z</time></trkpt><trkpt lat="40.74753473285848" lon="17.514462621801652"><ele>154.0</ele><time>2026-04-17T14:14:01Z</time></trkpt><trkpt lat="40.74761378555381" lon="17.51447266602585"><ele>154.0</ele><time>2026-04-17T14:14:03Z</time></trkpt><trkpt lat="40.74770460167279" lon="17.514456150131085"><ele>154.0</ele><time>2026-04-17T14:14:05Z</time></trkpt><trkpt lat="40.747751189993174" lon="17.514358995722155"><ele>154.0</ele><time>2026-04-17T14:14:08Z</time></trkpt><trkpt lat="40.74779751804573" lon="17.51427338929823"><ele>154.0</ele><time>2026-04-17T14:14:09Z</time></trkpt><trkpt lat="40.74781022103454" lon="17.5141719682093"><ele>154.0</ele><time>2026-04-17T14:14:10Z</time></trkpt><trkpt lat="40.74781886621374" lon="17.51402654301255"><ele>152.5</ele><time>2026-04-17T14:14:13Z</time></trkpt><trkpt lat="40.74778577207228" lon="17.513939534293474"><ele>151.0</ele><time>2026-04-17T14:14:15Z</time></trkpt><trkpt lat="40.747810359416675" lon="17.513856772534023"><ele>149.5</ele><time>2026-04-17T14:14:18Z</time></trkpt><trkpt lat="40.74781359263203" lon="17.51376836865342"><ele>148.0</ele><time>2026-04-17T14:14:20Z</time></trkpt><trkpt lat="40.74783140365622" lon="17.51367663697753"><ele>146.5</ele><time>2026-04-17T14:14:22Z</time></trkpt><trkpt lat="40.74788206426096" lon="17.513568125936334"><ele>145.0</ele><time>2026-04-17T14:14:24Z</time></trkpt><trkpt lat="40.74792483486326" lon="17.51343073728869"><ele>145.0</ele><time>2026-04-17T14:14:26Z</time></trkpt><trkpt lat="40.74795339283405" lon="17.513350895015563"><ele>145.0</ele><time>2026-04-17T14:14:27Z</time></trkpt><trkpt lat="40.74798207223764" lon="17.513231677456456"><ele>145.0</ele><time>2026-04-17T14:14:29Z</time></trkpt><trkpt lat="40.74797506773375" lon="17.5131079178153"><ele>145.0</ele><time>2026-04-17T14:14:30.999Z</time></trkpt><trkpt lat="40.74796275629318" lon="17.512981079772395"><ele>145.0</ele><time>2026-04-17T14:14:32.999Z</time></trkpt><trkpt lat="40.747968295529226" lon="17.512862178257954"><ele>145.0</ele><time>2026-04-17T14:14:34.999Z</time></trkpt><trkpt lat="40.747967774929826" lon="17.512767216947495"><ele>144.83333333333334</ele><time>2026-04-17T14:14:36.999Z</time></trkpt><trkpt lat="40.74796881006233" lon="17.51265754517241"><ele>144.66666666666669</ele><time>2026-04-17T14:14:38.999Z</time></trkpt><trkpt lat="40.74799965012855" lon="17.51254847264324"><ele>144.5</ele><time>2026-04-17T14:14:41.999Z</time></trkpt><trkpt lat="40.74798756204371" lon="17.512443743806923"><ele>144.33333333333334</ele><time>2026-04-17T14:14:43.999Z</time></trkpt><trkpt lat="40.74796828180976" lon="17.512353167086314"><ele>144.16666666666666</ele><time>2026-04-17T14:14:45.999Z</time></trkpt><trkpt lat="40.74798289317466" lon="17.512266238349945"><ele>144.0</ele><time>2026-04-17T14:14:47.999Z</time></trkpt><trkpt lat="40.74793535918365" lon="17.51211610494237"><ele>144.0</ele><time>2026-04-17T14:14:50.999Z</time></trkpt><trkpt lat="40.74789304340569" lon="17.512026669211195"><ele>144.0</ele><time>2026-04-17T14:14:52.999Z</time></trkpt><trkpt lat="40.747835319794355" lon="17.51195817165728"><ele>144.0</ele><time>2026-04-17T14:14:54.999Z</time></trkpt><trkpt lat="40.74775877186086" lon="17.511874450501605"><ele>144.0</ele><time>2026-04-17T14:14:56.999Z</time></trkpt><trkpt lat="40.74768847487554" lon="17.511748231669543"><ele>144.0</ele><time>2026-04-17T14:14:58.999Z</time></trkpt><trkpt lat="40.74765603088447" lon="17.51167684205311"><ele>144.0</ele><time>2026-04-17T14:14:59.999Z</time></trkpt><trkpt lat="40.74762727419982" lon="17.51155599853855"><ele>145.0</ele><time>2026-04-17T14:15:01.999Z</time></trkpt><trkpt lat="40.747588645462926" lon="17.511482425155023"><ele>146.0</ele><time>2026-04-17T14:15:02.999Z</time></trkpt><trkpt lat="40.74754241672962" lon="17.511361642530865"><ele>147.0</ele><time>2026-04-17T14:15:04.999Z</time></trkpt><trkpt lat="40.74750578894381" lon="17.511238478827728"><ele>148.0</ele><time>2026-04-17T14:15:06.999Z</time></trkpt><trkpt lat="40.747525540495324" lon="17.51114239469116"><ele>149.0</ele><time>2026-04-17T14:15:24.999Z</time></trkpt><trkpt lat="40.7475795828948" lon="17.51119637959818"><ele>150.0</ele><time>2026-04-17T14:15:27.999Z</time></trkpt><trkpt lat="40.747567114770256" lon="17.511283656775127"><ele>150.0</ele><time>2026-04-17T14:15:30.999Z</time></trkpt><trkpt lat="40.74755040838439" lon="17.511365302173516"><ele>150.0</ele><time>2026-04-17T14:15:36.999Z</time></trkpt><trkpt lat="40.74750458135918" lon="17.51123963619721"><ele>150.0</ele><time>2026-04-17T14:15:40.998Z</time></trkpt><trkpt lat="40.74747842593895" lon="17.51114033325773"><ele>150.0</ele><time>2026-04-17T14:15:42.998Z</time></trkpt><trkpt lat="40.74746048446895" lon="17.511041512607488"><ele>150.0</ele><time>2026-04-17T14:15:45Z</time></trkpt><trkpt lat="40.74744236112317" lon="17.510941167290994"><ele>150.0</ele><time>2026-04-17T14:15:47Z</time></trkpt><trkpt lat="40.7474199735601" lon="17.510832190667873"><ele>150.16666666666666</ele><time>2026-04-17T14:15:50Z</time></trkpt><trkpt lat="40.747424016578485" lon="17.51073839561165"><ele>150.33333333333334</ele><time>2026-04-17T14:15:52Z</time></trkpt><trkpt lat="40.74742502168946" lon="17.51063857983929"><ele>150.5</ele><time>2026-04-17T14:15:54Z</time></trkpt><trkpt lat="40.74742919217648" lon="17.51052254423045"><ele>150.66666666666669</ele><time>2026-04-17T14:15:56Z</time></trkpt><trkpt lat="40.74745840012073" lon="17.5104021907478"><ele>150.83333333333334</ele><time>2026-04-17T14:15:58Z</time></trkpt><trkpt lat="40.74749946832585" lon="17.510320795590687"><ele>151.0</ele><time>2026-04-17T14:16:00Z</time></trkpt><trkpt lat="40.74751638614702" lon="17.510222105167756"><ele>150.4</ele><time>2026-04-17T14:16:02Z</time></trkpt><trkpt lat="40.747480158898945" lon="17.510096276070843"><ele>149.8</ele><time>2026-04-17T14:16:04Z</time></trkpt><trkpt lat="40.7475022226466" lon="17.50998435463893"><ele>149.20000000000002</ele><time>2026-04-17T14:16:07Z</time></trkpt><trkpt lat="40.747473264492236" lon="17.509881920353504"><ele>148.6</ele><time>2026-04-17T14:16:09Z</time></trkpt><trkpt lat="40.74742589976611" lon="17.509758250699996"><ele>148.0</ele><time>2026-04-17T14:16:11Z</time></trkpt><trkpt lat="40.74742545993119" lon="17.509660930644145"><ele>148.0</ele><time>2026-04-17T14:16:14Z</time></trkpt><trkpt lat="40.747526028405574" lon="17.509654790529197"><ele>148.0</ele><time>2026-04-17T14:16:17Z</time></trkpt><trkpt lat="40.7476386586769" lon="17.509684124592145"><ele>148.0</ele><time>2026-04-17T14:16:19Z</time></trkpt><trkpt lat="40.747738674363056" lon="17.509719985732595"><ele>148.0</ele><time>2026-04-17T14:16:21Z</time></trkpt><trkpt lat="40.74783615345638" lon="17.509681305020568"><ele>148.0</ele><time>2026-04-17T14:16:23Z</time></trkpt><trkpt lat="40.74786673902049" lon="17.50960607599501"><ele>147.0</ele><time>2026-04-17T14:16:26Z</time></trkpt><trkpt lat="40.747926569780766" lon="17.509535304957755"><ele>146.0</ele><time>2026-04-17T14:16:27.999Z</time></trkpt><trkpt lat="40.747968206295006" lon="17.50943764593799"><ele>145.0</ele><time>2026-04-17T14:16:29.999Z</time></trkpt><trkpt lat="40.74797779072078" lon="17.50932145285711"><ele>144.0</ele><time>2026-04-17T14:16:31.999Z</time></trkpt><trkpt lat="40.747993840226655" lon="17.509230690512297"><ele>143.0</ele><time>2026-04-17T14:16:33.999Z</time></trkpt><trkpt lat="40.74802070965158" lon="17.509143724712875"><ele>142.0</ele><time>2026-04-17T14:16:35.999Z</time></trkpt><trkpt lat="40.74804019334734" lon="17.509014103333904"><ele>142.0</ele><time>2026-04-17T14:16:38.999Z</time></trkpt><trkpt lat="40.74804549538247" lon="17.508906537497538"><ele>142.0</ele><time>2026-04-17T14:16:41.999Z</time></trkpt><trkpt lat="40.748079404145926" lon="17.508808997123182"><ele>142.0</ele><time>2026-04-17T14:16:44.999Z</time></trkpt><trkpt lat="40.748085476764246" lon="17.508711228933034"><ele>142.0</ele><time>2026-04-17T14:16:48.999Z</time></trkpt><trkpt lat="40.74811744227397" lon="17.50862297666863"><ele>142.0</ele><time>2026-04-17T14:16:51.999Z</time></trkpt><trkpt lat="40.7481782297623" lon="17.50854836080315"><ele>142.0</ele><time>2026-04-17T14:16:53.999Z</time></trkpt><trkpt lat="40.748154986181945" lon="17.508434519939126"><ele>142.33333333333334</ele><time>2026-04-17T14:16:56.999Z</time></trkpt><trkpt lat="40.748197362050306" lon="17.50833337344657"><ele>142.66666666666669</ele><time>2026-04-17T14:17:00.999Z</time></trkpt><trkpt lat="40.748250002950584" lon="17.508279945056486"><ele>143.0</ele><time>2026-04-17T14:17:03.999Z</time></trkpt><trkpt lat="40.7483260769993" lon="17.5082247232846"><ele>143.33333333333334</ele><time>2026-04-17T14:17:06.999Z</time></trkpt><trkpt lat="40.748412862193184" lon="17.508158521224804"><ele>143.66666666666666</ele><time>2026-04-17T14:17:09.999Z</time></trkpt><trkpt lat="40.74849155457931" lon="17.508099038402374"><ele>144.0</ele><time>2026-04-17T14:17:13.999Z</time></trkpt><trkpt lat="40.74856716048343" lon="17.508013700852754"><ele>144.00000000000003</ele><time>2026-04-17T14:17:16.999Z</time></trkpt><trkpt lat="40.74862603384387" lon="17.507980092956842"><ele>144.0</ele><time>2026-04-17T14:17:18.999Z</time></trkpt><trkpt lat="40.748691964639036" lon="17.507943630632735"><ele>144.0</ele><time>2026-04-17T14:17:20.999Z</time></trkpt><trkpt lat="40.748743470758704" lon="17.507895415268653"><ele>144.0</ele><time>2026-04-17T14:17:21.999Z</time></trkpt><trkpt lat="40.74882227825471" lon="17.507829533998034"><ele>144.0</ele><time>2026-04-17T14:17:23.999Z</time></trkpt><trkpt lat="40.74887627640006" lon="17.507764278582506"><ele>144.00000000000003</ele><time>2026-04-17T14:18:51.999Z</time></trkpt><trkpt lat="40.74893422498919" lon="17.50769588920259"><ele>144.0</ele><time>2026-04-17T14:19:12.999Z</time></trkpt><trkpt lat="40.74895906564795" lon="17.50756553870256"><ele>145.0</ele><time>2026-04-17T14:19:14.999Z</time></trkpt><trkpt lat="40.748985554811306" lon="17.507428403677487"><ele>146.0</ele><time>2026-04-17T14:19:16.999Z</time></trkpt><trkpt lat="40.748996576181334" lon="17.507338357997465"><ele>147.0</ele><time>2026-04-17T14:19:17.999Z</time></trkpt><trkpt lat="40.74900357796694" lon="17.50724599123457"><ele>148.0</ele><time>2026-04-17T14:19:18.999Z</time></trkpt><trkpt lat="40.74899599468789" lon="17.507148056654216"><ele>149.0</ele><time>2026-04-17T14:19:19.999Z</time></trkpt><trkpt lat="40.74899358110573" lon="17.507055081941587"><ele>150.0</ele><time>2026-04-17T14:19:20.999Z</time></trkpt><trkpt lat="40.749001507063866" lon="17.506969339376372"><ele>150.6</ele><time>2026-04-17T14:19:21.999Z</time></trkpt><trkpt lat="40.74900186107212" lon="17.50687924266933"><ele>151.2</ele><time>2026-04-17T14:19:22.999Z</time></trkpt><trkpt lat="40.74901119261898" lon="17.506720388288386"><ele>151.8</ele><time>2026-04-17T14:19:24.999Z</time></trkpt><trkpt lat="40.7490137521941" lon="17.506580682345767"><ele>152.4</ele><time>2026-04-17T14:19:26.999Z</time></trkpt><trkpt lat="40.74901593982993" lon="17.50644666717547"><ele>153.0</ele><time>2026-04-17T14:19:28.999Z</time></trkpt><trkpt lat="40.74897964024" lon="17.506332558495757"><ele>153.0</ele><time>2026-04-17T14:19:30.999Z</time></trkpt><trkpt lat="40.74893836788391" lon="17.506245356417743"><ele>153.0</ele><time>2026-04-17T14:19:32.999Z</time></trkpt><trkpt lat="40.748963897233594" lon="17.506118880411154"><ele>153.0</ele><time>2026-04-17T14:19:34.999Z</time></trkpt><trkpt lat="40.74896221583518" lon="17.50597365323045"><ele>153.0</ele><time>2026-04-17T14:19:36.999Z</time></trkpt><trkpt lat="40.74897453606208" lon="17.505878376825937"><ele>153.0</ele><time>2026-04-17T14:19:38.999Z</time></trkpt><trkpt lat="40.74896877657794" lon="17.505779254795893"><ele>153.0</ele><time>2026-04-17T14:19:40.999Z</time></trkpt><trkpt lat="40.74904078307521" lon="17.505811236705235"><ele>153.6</ele><time>2026-04-17T14:19:44.999Z</time></trkpt><trkpt lat="40.74918218327859" lon="17.505879512039133"><ele>154.20000000000002</ele><time>2026-04-17T14:19:47.999Z</time></trkpt><trkpt lat="40.74928366097391" lon="17.505929601716428"><ele>154.8</ele><time>2026-04-17T14:19:48.999Z</time></trkpt><trkpt lat="40.74932526203363" lon="17.506003764659233"><ele>155.4</ele><time>2026-04-17T14:19:49.998Z</time></trkpt><trkpt lat="40.74936631636109" lon="17.50612843105108"><ele>156.0</ele><time>2026-04-17T14:19:51.998Z</time></trkpt><trkpt lat="40.749426856310734" lon="17.506093625031024"><ele>156.0</ele><time>2026-04-17T14:19:53.998Z</time></trkpt><trkpt lat="40.749405872906465" lon="17.505991772536447"><ele>156.0</ele><time>2026-04-17T14:19:57Z</time></trkpt><trkpt lat="40.74936384370647" lon="17.505897526989042"><ele>156.0</ele><time>2026-04-17T14:19:59Z</time></trkpt><trkpt lat="40.74932016940913" lon="17.505801202547783"><ele>156.0</ele><time>2026-04-17T14:20:01Z</time></trkpt><trkpt lat="40.74927743010767" lon="17.50569280179755"><ele>156.0</ele><time>2026-04-17T14:20:03Z</time></trkpt><trkpt lat="40.74923559597741" lon="17.505581049036817"><ele>156.0</ele><time>2026-04-17T14:20:05Z</time></trkpt><trkpt lat="40.74919498323575" lon="17.505468447075543"><ele>157.0</ele><time>2026-04-17T14:20:07Z</time></trkpt><trkpt lat="40.749158132954236" lon="17.50536096862656"><ele>158.0</ele><time>2026-04-17T14:20:09Z</time></trkpt><trkpt lat="40.74910493877905" lon="17.505278288873118"><ele>159.0</ele><time>2026-04-17T14:20:11Z</time></trkpt><trkpt lat="40.749045087061674" lon="17.505191908681837"><ele>160.0</ele><time>2026-04-17T14:20:13Z</time></trkpt><trkpt lat="40.74896238183274" lon="17.50512820291222"><ele>161.0</ele><time>2026-04-17T14:20:15Z</time></trkpt><trkpt lat="40.74886790651767" lon="17.50511346231572"><ele>161.0</ele><time>2026-04-17T14:20:17Z</time></trkpt><trkpt lat="40.7487830890677" lon="17.505135736453425"><ele>161.0</ele><time>2026-04-17T14:20:19Z</time></trkpt><trkpt lat="40.748694638484906" lon="17.50515006322878"><ele>161.0</ele><time>2026-04-17T14:20:21Z</time></trkpt><trkpt lat="40.74861483934956" lon="17.505120848568243"><ele>161.0</ele><time>2026-04-17T14:20:23Z</time></trkpt><trkpt lat="40.74857131522137" lon="17.505043493342185"><ele>161.0</ele><time>2026-04-17T14:20:25Z</time></trkpt><trkpt lat="40.74853600196977" lon="17.5049018036522"><ele>161.0</ele><time>2026-04-17T14:20:27Z</time></trkpt><trkpt lat="40.74848773451987" lon="17.504784046633574"><ele>162.20000000000002</ele><time>2026-04-17T14:20:29Z</time></trkpt><trkpt lat="40.74844779418436" lon="17.504640418433226"><ele>163.4</ele><time>2026-04-17T14:20:31Z</time></trkpt><trkpt lat="40.748407483308085" lon="17.504510959050243"><ele>164.6</ele><time>2026-04-17T14:20:33Z</time></trkpt><trkpt lat="40.748363134468185" lon="17.504360331902003"><ele>165.8</ele><time>2026-04-17T14:20:35Z</time></trkpt><trkpt lat="40.74832448893446" lon="17.504234089438288"><ele>167.0</ele><time>2026-04-17T14:20:37Z</time></trkpt><trkpt lat="40.74829229771326" lon="17.504107532804824"><ele>167.2</ele><time>2026-04-17T14:20:39Z</time></trkpt><trkpt lat="40.7482383904628" lon="17.50397407423036"><ele>167.39999999999998</ele><time>2026-04-17T14:20:41Z</time></trkpt><trkpt lat="40.74816768813318" lon="17.503870948136825"><ele>167.60000000000002</ele><time>2026-04-17T14:20:43Z</time></trkpt><trkpt lat="40.74811854447207" lon="17.503818444053547"><ele>167.8</ele><time>2026-04-17T14:20:44Z</time></trkpt><trkpt lat="40.74802350910203" lon="17.503736471212118"><ele>168.0</ele><time>2026-04-17T14:20:45.999Z</time></trkpt><trkpt lat="40.74791890339382" lon="17.503658947272562"><ele>168.60000000000002</ele><time>2026-04-17T14:20:47.999Z</time></trkpt><trkpt lat="40.747867558973695" lon="17.503605259094357"><ele>169.20000000000002</ele><time>2026-04-17T14:20:48.999Z</time></trkpt><trkpt lat="40.74778118891865" lon="17.503526429242303"><ele>169.8</ele><time>2026-04-17T14:20:50.999Z</time></trkpt><trkpt lat="40.74768344789665" lon="17.503457617849076"><ele>170.4</ele><time>2026-04-17T14:20:52.999Z</time></trkpt><trkpt lat="40.747607215383795" lon="17.503374414611518"><ele>171.0</ele><time>2026-04-17T14:20:54.999Z</time></trkpt><trkpt lat="40.74752189338847" lon="17.50330415290854"><ele>172.16666666666666</ele><time>2026-04-17T14:20:56.999Z</time></trkpt><trkpt lat="40.74743394118858" lon="17.503220706117677"><ele>173.33333333333334</ele><time>2026-04-17T14:20:58.999Z</time></trkpt><trkpt lat="40.74736235005025" lon="17.503160803041844"><ele>174.5</ele><time>2026-04-17T14:21:00.999Z</time></trkpt><trkpt lat="40.747280979268766" lon="17.503080061983194"><ele>175.66666666666669</ele><time>2026-04-17T14:21:02.999Z</time></trkpt><trkpt lat="40.747210101818816" lon="17.503033519012213"><ele>176.83333333333334</ele><time>2026-04-17T14:21:04.999Z</time></trkpt><trkpt lat="40.747189828896325" lon="17.502951663401404"><ele>178.0</ele><time>2026-04-17T14:21:06.999Z</time></trkpt><trkpt lat="40.74717489863507" lon="17.502869590932203"><ele>178.83333333333334</ele><time>2026-04-17T14:21:08.999Z</time></trkpt><trkpt lat="40.747239481076136" lon="17.502815419387975"><ele>179.66666666666669</ele><time>2026-04-17T14:21:11.999Z</time></trkpt><trkpt lat="40.7472988018895" lon="17.502767197411018"><ele>180.5</ele><time>2026-04-17T14:21:13.999Z</time></trkpt><trkpt lat="40.74735685109087" lon="17.502716008033097"><ele>181.33333333333334</ele><time>2026-04-17T14:21:15.999Z</time></trkpt><trkpt lat="40.74745821567608" lon="17.502649428572433"><ele>182.16666666666666</ele><time>2026-04-17T14:21:17.999Z</time></trkpt><trkpt lat="40.74751907542909" lon="17.502610497066026"><ele>183.0</ele><time>2026-04-17T14:21:18.999Z</time></trkpt><trkpt lat="40.74759280313985" lon="17.502491168106243"><ele>183.0</ele><time>2026-04-17T14:21:20.999Z</time></trkpt><trkpt lat="40.74765546701711" lon="17.502376557614262"><ele>183.0</ele><time>2026-04-17T14:21:22.999Z</time></trkpt><trkpt lat="40.74769323980625" lon="17.502275232107635"><ele>183.0</ele><time>2026-04-17T14:21:24.999Z</time></trkpt><trkpt lat="40.74775288418861" lon="17.50216675593216"><ele>183.0</ele><time>2026-04-17T14:21:26.999Z</time></trkpt><trkpt lat="40.74781664372446" lon="17.502035365461566"><ele>183.0</ele><time>2026-04-17T14:21:28.999Z</time></trkpt><trkpt lat="40.74787169086979" lon="17.501936553110475"><ele>182.0</ele><time>2026-04-17T14:21:30.999Z</time></trkpt><trkpt lat="40.74792279400906" lon="17.501814745240157"><ele>181.0</ele><time>2026-04-17T14:21:32.999Z</time></trkpt><trkpt lat="40.74792983451144" lon="17.50171349420825"><ele>180.0</ele><time>2026-04-17T14:21:34.999Z</time></trkpt><trkpt lat="40.747944018971886" lon="17.501603520884064"><ele>179.0</ele><time>2026-04-17T14:21:36.999Z</time></trkpt><trkpt lat="40.74799717866146" lon="17.501507264165355"><ele>178.0</ele><time>2026-04-17T14:21:38.999Z</time></trkpt><trkpt lat="40.74804476255899" lon="17.50139195717617"><ele>178.0</ele><time>2026-04-17T14:21:40.999Z</time></trkpt><trkpt lat="40.74804695864206" lon="17.501257897572117"><ele>178.0</ele><time>2026-04-17T14:21:42.999Z</time></trkpt><trkpt lat="40.74809882208668" lon="17.501170387018398"><ele>178.0</ele><time>2026-04-17T14:21:44.999Z</time></trkpt><trkpt lat="40.74814746234459" lon="17.501055987952768"><ele>178.0</ele><time>2026-04-17T14:21:46.999Z</time></trkpt><trkpt lat="40.74816496234109" lon="17.500927901923568"><ele>178.0</ele><time>2026-04-17T14:21:48.999Z</time></trkpt><trkpt lat="40.74821707290155" lon="17.500826729139604"><ele>179.2</ele><time>2026-04-17T14:21:50.999Z</time></trkpt><trkpt lat="40.74826649940112" lon="17.500689129460024"><ele>180.4</ele><time>2026-04-17T14:21:52.999Z</time></trkpt><trkpt lat="40.74832820557917" lon="17.50055164681394"><ele>181.6</ele><time>2026-04-17T14:21:54.999Z</time></trkpt><trkpt lat="40.748410584307855" lon="17.500453650536016"><ele>182.79999999999998</ele><time>2026-04-17T14:21:56.999Z</time></trkpt><trkpt lat="40.74844934402153" lon="17.500364173272676"><ele>184.0</ele><time>2026-04-17T14:21:58.999Z</time></trkpt><trkpt lat="40.74850064747786" lon="17.500240911063585"><ele>185.39999999999998</ele><time>2026-04-17T14:22:00.998Z</time></trkpt><trkpt lat="40.74849325036652" lon="17.500085069573444"><ele>186.8</ele><time>2026-04-17T14:22:03Z</time></trkpt><trkpt lat="40.748472010459345" lon="17.499950971988767"><ele>188.2</ele><time>2026-04-17T14:22:05Z</time></trkpt><trkpt lat="40.74842484221206" lon="17.499828561166424"><ele>189.60000000000002</ele><time>2026-04-17T14:22:07Z</time></trkpt><trkpt lat="40.74840824197467" lon="17.49971075876887"><ele>191.0</ele><time>2026-04-17T14:22:09Z</time></trkpt><trkpt lat="40.7483640153572" lon="17.49958320830741"><ele>192.0</ele><time>2026-04-17T14:22:11Z</time></trkpt><trkpt lat="40.7482882266594" lon="17.499552245099036"><ele>193.0</ele><time>2026-04-17T14:22:13Z</time></trkpt><trkpt lat="40.74821260308606" lon="17.499489748419528"><ele>194.0</ele><time>2026-04-17T14:22:15Z</time></trkpt><trkpt lat="40.74815918902845" lon="17.499388488157184"><ele>195.0</ele><time>2026-04-17T14:22:18Z</time></trkpt><trkpt lat="40.74813061314002" lon="17.499302267945286"><ele>196.00000000000003</ele><time>2026-04-17T14:22:20Z</time></trkpt><trkpt lat="40.74816978022129" lon="17.499229231010315"><ele>197.0</ele><time>2026-04-17T14:22:22Z</time></trkpt><trkpt lat="40.748143108375125" lon="17.499139572438875"><ele>197.00000000000003</ele><time>2026-04-17T14:22:24Z</time></trkpt><trkpt lat="40.748193070628304" lon="17.49904628088894"><ele>197.0</ele><time>2026-04-17T14:22:27Z</time></trkpt><trkpt lat="40.7482618358103" lon="17.49901029706621"><ele>197.0</ele><time>2026-04-17T14:22:29Z</time></trkpt><trkpt lat="40.748279415433096" lon="17.49892949592441"><ele>197.0</ele><time>2026-04-17T14:22:31Z</time></trkpt><trkpt lat="40.748314820615235" lon="17.498834423291196"><ele>197.00000000000003</ele><time>2026-04-17T14:22:33Z</time></trkpt><trkpt lat="40.74835025980563" lon="17.498745474601158"><ele>197.0</ele><time>2026-04-17T14:22:35Z</time></trkpt><trkpt lat="40.74834927545073" lon="17.498619683396246"><ele>198.16666666666669</ele><time>2026-04-17T14:22:37Z</time></trkpt><trkpt lat="40.74837049266879" lon="17.498525250811316"><ele>199.33333333333334</ele><time>2026-04-17T14:22:39Z</time></trkpt><trkpt lat="40.748379583531474" lon="17.498410216809816"><ele>200.5</ele><time>2026-04-17T14:22:41Z</time></trkpt><trkpt lat="40.74838812199592" lon="17.498318650895616"><ele>201.66666666666669</ele><time>2026-04-17T14:22:43Z</time></trkpt><trkpt lat="40.74832978125853" lon="17.49826732286973"><ele>202.83333333333334</ele><time>2026-04-17T14:22:46Z</time></trkpt><trkpt lat="40.74828370934828" lon="17.498206645702304"><ele>204.0</ele><time>2026-04-17T14:22:47.999Z</time></trkpt><trkpt lat="40.7482149509727" lon="17.498101078719547"><ele>204.0</ele><time>2026-04-17T14:22:50.999Z</time></trkpt><trkpt lat="40.74816350152011" lon="17.498017914883796"><ele>204.0</ele><time>2026-04-17T14:22:52.999Z</time></trkpt><trkpt lat="40.74817889410713" lon="17.497920369918706"><ele>204.0</ele><time>2026-04-17T14:22:55.999Z</time></trkpt><trkpt lat="40.74824154958477" lon="17.497831800874838"><ele>204.0</ele><time>2026-04-17T14:22:58.999Z</time></trkpt><trkpt lat="40.74827253066315" lon="17.497736509807595"><ele>204.0</ele><time>2026-04-17T14:23:02.999Z</time></trkpt><trkpt lat="40.748310744813914" lon="17.497644962132014"><ele>204.0</ele><time>2026-04-17T14:23:05.999Z</time></trkpt><trkpt lat="40.74836812071046" lon="17.497593262227866"><ele>204.83333333333334</ele><time>2026-04-17T14:23:18.999Z</time></trkpt><trkpt lat="40.74843228721618" lon="17.497569024463207"><ele>205.66666666666669</ele><time>2026-04-17T14:23:21.999Z</time></trkpt><trkpt lat="40.74850384778198" lon="17.49749738341773"><ele>206.5</ele><time>2026-04-17T14:23:36.999Z</time></trkpt><trkpt lat="40.74856790660131" lon="17.497453242133044"><ele>207.33333333333334</ele><time>2026-04-17T14:23:38.999Z</time></trkpt><trkpt lat="40.748644809734905" lon="17.497395420357353"><ele>208.16666666666669</ele><time>2026-04-17T14:23:40.999Z</time></trkpt><trkpt lat="40.74872409497048" lon="17.497342407678207"><ele>209.0</ele><time>2026-04-17T14:23:42.999Z</time></trkpt><trkpt lat="40.74879804670589" lon="17.49730675163095"><ele>208.50000000000003</ele><time>2026-04-17T14:23:44.999Z</time></trkpt><trkpt lat="40.748869937312435" lon="17.497239954165664"><ele>208.0</ele><time>2026-04-17T14:23:46.999Z</time></trkpt><trkpt lat="40.74895120400286" lon="17.497179529732254"><ele>207.5</ele><time>2026-04-17T14:23:48.999Z</time></trkpt><trkpt lat="40.74901238306321" lon="17.4971305961003"><ele>207.0</ele><time>2026-04-17T14:23:50.999Z</time></trkpt><trkpt lat="40.74909907999521" lon="17.49710458392502"><ele>206.50000000000003</ele><time>2026-04-17T14:23:52.999Z</time></trkpt><trkpt lat="40.74919657387012" lon="17.49708830541896"><ele>206.0</ele><time>2026-04-17T14:23:54.999Z</time></trkpt><trkpt lat="40.74928011859435" lon="17.497038976955402"><ele>206.00000000000003</ele><time>2026-04-17T14:23:56.999Z</time></trkpt><trkpt lat="40.74934045208634" lon="17.496925414042995"><ele>206.0</ele><time>2026-04-17T14:23:58.999Z</time></trkpt><trkpt lat="40.74940061343908" lon="17.49684156991426"><ele>206.0</ele><time>2026-04-17T14:24:00.999Z</time></trkpt><trkpt lat="40.7494359329482" lon="17.496752999306732"><ele>206.0</ele><time>2026-04-17T14:24:02.999Z</time></trkpt><trkpt lat="40.749495764079384" lon="17.49669995198052"><ele>206.00000000000003</ele><time>2026-04-17T14:24:04.998Z</time></trkpt><trkpt lat="40.749565327730195" lon="17.496613800390083"><ele>206.0</ele><time>2026-04-17T14:24:06.998Z</time></trkpt><trkpt lat="40.749624318117085" lon="17.496524463528935"><ele>204.66666666666669</ele><time>2026-04-17T14:24:09Z</time></trkpt><trkpt lat="40.74969314268812" lon="17.496455942888723"><ele>203.33333333333334</ele><time>2026-04-17T14:24:11Z</time></trkpt><trkpt lat="40.74972187517341" lon="17.4963565900974"><ele>202.0</ele><time>2026-04-17T14:24:13Z</time></trkpt><trkpt lat="40.74975619414326" lon="17.49625753917263"><ele>200.66666666666669</ele><time>2026-04-17T14:24:15Z</time></trkpt><trkpt lat="40.749804771976876" lon="17.496178422782467"><ele>199.33333333333334</ele><time>2026-04-17T14:24:17Z</time></trkpt><trkpt lat="40.74984132806102" lon="17.496100163782252"><ele>198.0</ele><time>2026-04-17T14:24:19Z</time></trkpt><trkpt lat="40.74986754865336" lon="17.4959895320076"><ele>198.0</ele><time>2026-04-17T14:24:21Z</time></trkpt><trkpt lat="40.749905748520376" lon="17.495919665184196"><ele>198.0</ele><time>2026-04-17T14:24:23Z</time></trkpt><trkpt lat="40.749963807327354" lon="17.495873081509124"><ele>198.0</ele><time>2026-04-17T14:24:25Z</time></trkpt><trkpt lat="40.750008698147894" lon="17.495784640944517"><ele>198.0</ele><time>2026-04-17T14:24:27Z</time></trkpt><trkpt lat="40.75006525296787" lon="17.495699845877265"><ele>198.0</ele><time>2026-04-17T14:24:29Z</time></trkpt><trkpt lat="40.75012130480713" lon="17.495639769845642"><ele>198.0</ele><time>2026-04-17T14:24:31Z</time></trkpt><trkpt lat="40.75018010632805" lon="17.495586653900947"><ele>198.0</ele><time>2026-04-17T14:24:34Z</time></trkpt><trkpt lat="40.750238993141195" lon="17.495517011584397"><ele>196.4</ele><time>2026-04-17T14:24:36Z</time></trkpt><trkpt lat="40.75032012717629" lon="17.495430937738167"><ele>194.8</ele><time>2026-04-17T14:24:38Z</time></trkpt><trkpt lat="40.750377596676806" lon="17.495377420583946"><ele>193.2</ele><time>2026-04-17T14:24:39Z</time></trkpt><trkpt lat="40.750477396549165" lon="17.495270070632483"><ele>191.6</ele><time>2026-04-17T14:24:41Z</time></trkpt><trkpt lat="40.750553963645906" lon="17.495168799617083"><ele>190.0</ele><time>2026-04-17T14:24:43Z</time></trkpt><trkpt lat="40.750629011812606" lon="17.49508943470798"><ele>190.0</ele><time>2026-04-17T14:24:45Z</time></trkpt><trkpt lat="40.75068979441034" lon="17.495008098107387"><ele>190.0</ele><time>2026-04-17T14:24:47Z</time></trkpt><trkpt lat="40.75076286844439" lon="17.4949249459071"><ele>190.0</ele><time>2026-04-17T14:24:49Z</time></trkpt><trkpt lat="40.75083649997725" lon="17.494851118655124"><ele>190.0</ele><time>2026-04-17T14:24:51Z</time></trkpt><trkpt lat="40.750914580770385" lon="17.494781519045155"><ele>190.0</ele><time>2026-04-17T14:24:53Z</time></trkpt><trkpt lat="40.750998827934076" lon="17.494687025427293"><ele>190.2</ele><time>2026-04-17T14:24:54.999Z</time></trkpt><trkpt lat="40.75109340589505" lon="17.494610023741064"><ele>190.4</ele><time>2026-04-17T14:24:56.999Z</time></trkpt><trkpt lat="40.751181004681605" lon="17.494518086440202"><ele>190.60000000000002</ele><time>2026-04-17T14:24:58.999Z</time></trkpt><trkpt lat="40.751226396972434" lon="17.49445192926879"><ele>190.8</ele><time>2026-04-17T14:24:59.999Z</time></trkpt><trkpt lat="40.751322884786006" lon="17.494360755671075"><ele>191.0</ele><time>2026-04-17T14:25:01.999Z</time></trkpt><trkpt lat="40.751373114310084" lon="17.494306049084667"><ele>191.0</ele><time>2026-04-17T14:25:02.999Z</time></trkpt><trkpt lat="40.75146219404369" lon="17.49420253531438"><ele>191.0</ele><time>2026-04-17T14:25:04.999Z</time></trkpt><trkpt lat="40.75155303746926" lon="17.494089657689663"><ele>191.0</ele><time>2026-04-17T14:25:06.999Z</time></trkpt><trkpt lat="40.75163231760664" lon="17.493967559939186"><ele>191.0</ele><time>2026-04-17T14:25:08.999Z</time></trkpt><trkpt lat="40.751715426835794" lon="17.49384620817712"><ele>191.0</ele><time>2026-04-17T14:25:10.999Z</time></trkpt><trkpt lat="40.75180106078405" lon="17.49373605793319"><ele>191.0</ele><time>2026-04-17T14:25:12.999Z</time></trkpt><trkpt lat="40.751878437548676" lon="17.49362905209202"><ele>191.0</ele><time>2026-04-17T14:25:14.999Z</time></trkpt><trkpt lat="40.751924417573356" lon="17.49355925820255"><ele>191.0</ele><time>2026-04-17T14:25:15.999Z</time></trkpt><trkpt lat="40.75197954047086" lon="17.493514059397224"><ele>191.0</ele><time>2026-04-17T14:25:16.999Z</time></trkpt><trkpt lat="40.75207195887503" lon="17.49340730878378"><ele>191.0</ele><time>2026-04-17T14:25:18.999Z</time></trkpt><trkpt lat="40.75215390679613" lon="17.4933002666545"><ele>191.0</ele><time>2026-04-17T14:25:20.999Z</time></trkpt><trkpt lat="40.75224012959478" lon="17.493193309644898"><ele>191.0</ele><time>2026-04-17T14:25:22.999Z</time></trkpt><trkpt lat="40.75232181787038" lon="17.4930768803114"><ele>191.0</ele><time>2026-04-17T14:25:24.999Z</time></trkpt><trkpt lat="40.752409649986234" lon="17.49297879766929"><ele>190.8</ele><time>2026-04-17T14:25:26.999Z</time></trkpt><trkpt lat="40.752456451717286" lon="17.492916211479475"><ele>190.60000000000002</ele><time>2026-04-17T14:25:27.999Z</time></trkpt><trkpt lat="40.75253841729487" lon="17.49283733871031"><ele>190.4</ele><time>2026-04-17T14:25:29.999Z</time></trkpt><trkpt lat="40.75261405422772" lon="17.492726620775883"><ele>190.2</ele><time>2026-04-17T14:25:31.999Z</time></trkpt><trkpt lat="40.7526794906225" lon="17.49264188490694"><ele>190.0</ele><time>2026-04-17T14:25:33.999Z</time></trkpt><trkpt lat="40.752761840593045" lon="17.49255077414771"><ele>190.0</ele><time>2026-04-17T14:25:35.999Z</time></trkpt><trkpt lat="40.75282708997227" lon="17.492450564790857"><ele>190.0</ele><time>2026-04-17T14:25:37.999Z</time></trkpt><trkpt lat="40.752926365659036" lon="17.492417329285264"><ele>190.0</ele><time>2026-04-17T14:25:40.999Z</time></trkpt><trkpt lat="40.75302595023336" lon="17.49239922067161"><ele>190.0</ele><time>2026-04-17T14:25:42.999Z</time></trkpt><trkpt lat="40.75308835416463" lon="17.492387597631367"><ele>190.0</ele><time>2026-04-17T14:25:43.999Z</time></trkpt><trkpt lat="40.753156587059266" lon="17.492367159687504"><ele>190.0</ele><time>2026-04-17T14:25:44.999Z</time></trkpt><trkpt lat="40.75323322206873" lon="17.492350946623837"><ele>190.0</ele><time>2026-04-17T14:25:45.999Z</time></trkpt><trkpt lat="40.75335589264586" lon="17.49238156135925"><ele>190.0</ele><time>2026-04-17T14:25:47.999Z</time></trkpt><trkpt lat="40.75347220404624" lon="17.492499391611375"><ele>190.0</ele><time>2026-04-17T14:25:49.999Z</time></trkpt><trkpt lat="40.75352680652062" lon="17.492584864208993"><ele>190.0</ele><time>2026-04-17T14:25:50.999Z</time></trkpt><trkpt lat="40.753577260191754" lon="17.4926591879466"><ele>190.0</ele><time>2026-04-17T14:25:51.999Z</time></trkpt><trkpt lat="40.75363232845341" lon="17.492701773108614"><ele>189.33333333333334</ele><time>2026-04-17T14:25:52.999Z</time></trkpt><trkpt lat="40.75370410559009" lon="17.4927466973202"><ele>188.66666666666669</ele><time>2026-04-17T14:25:53.999Z</time></trkpt><trkpt lat="40.75375440413412" lon="17.492799048169072"><ele>188.0</ele><time>2026-04-17T14:25:54.999Z</time></trkpt><trkpt lat="40.75380681600862" lon="17.49286251639797"><ele>187.33333333333334</ele><time>2026-04-17T14:25:55.999Z</time></trkpt><trkpt lat="40.753861181632324" lon="17.492946899409965"><ele>186.66666666666666</ele><time>2026-04-17T14:25:56.999Z</time></trkpt><trkpt lat="40.75393036816085" lon="17.49302817179604"><ele>186.0</ele><time>2026-04-17T14:25:57.999Z</time></trkpt><trkpt lat="40.75398376958132" lon="17.493120813999088"><ele>184.4</ele><time>2026-04-17T14:25:58.999Z</time></trkpt><trkpt lat="40.7540605126901" lon="17.49323714274581"><ele>182.8</ele><time>2026-04-17T14:26:00.999Z</time></trkpt><trkpt lat="40.75407550674124" lon="17.493335570441975"><ele>181.20000000000002</ele><time>2026-04-17T14:26:01.999Z</time></trkpt><trkpt lat="40.75408219753395" lon="17.493428252354615"><ele>179.60000000000002</ele><time>2026-04-17T14:26:02.999Z</time></trkpt><trkpt lat="40.7540956345975" lon="17.493544786762726"><ele>178.0</ele><time>2026-04-17T14:26:04.999Z</time></trkpt><trkpt lat="40.75418134976651" lon="17.493676182645526"><ele>177.99999999999997</ele><time>2026-04-17T14:26:06.999Z</time></trkpt><trkpt lat="40.75421486977824" lon="17.493751113749248"><ele>178.0</ele><time>2026-04-17T14:26:07.999Z</time></trkpt><trkpt lat="40.75421922836188" lon="17.493862457339002"><ele>178.0</ele><time>2026-04-17T14:26:09.999Z</time></trkpt><trkpt lat="40.75428211704095" lon="17.493858680456228"><ele>178.0</ele><time>2026-04-17T14:26:12.999Z</time></trkpt><trkpt lat="40.7543727224419" lon="17.493874664417966"><ele>178.0</ele><time>2026-04-17T14:26:15Z</time></trkpt><trkpt lat="40.75442739369691" lon="17.49393532460431"><ele>177.99999999999997</ele><time>2026-04-17T14:26:17Z</time></trkpt><trkpt lat="40.75446998292204" lon="17.49400958883049"><ele>178.0</ele><time>2026-04-17T14:26:19Z</time></trkpt><trkpt lat="40.75452518872247" lon="17.494062339083637"><ele>175.83333333333334</ele><time>2026-04-17T14:26:21Z</time></trkpt><trkpt lat="40.754584378664944" lon="17.494121365712225"><ele>173.66666666666669</ele><time>2026-04-17T14:26:23Z</time></trkpt><trkpt lat="40.75466570374579" lon="17.494126937690037"><ele>171.5</ele><time>2026-04-17T14:26:25Z</time></trkpt><trkpt lat="40.75473790281523" lon="17.49408627002315"><ele>169.33333333333334</ele><time>2026-04-17T14:26:27Z</time></trkpt><trkpt lat="40.75479152080831" lon="17.494133968996593"><ele>167.16666666666666</ele><time>2026-04-17T14:26:29Z</time></trkpt><trkpt lat="40.75485851557378" lon="17.494184467584482"><ele>165.0</ele><time>2026-04-17T14:26:33Z</time></trkpt><trkpt lat="40.754946435190234" lon="17.494292652720585"><ele>165.0</ele><time>2026-04-17T14:26:36Z</time></trkpt><trkpt lat="40.75503310727228" lon="17.494316967912596"><ele>165.0</ele><time>2026-04-17T14:26:38Z</time></trkpt><trkpt lat="40.75509386304065" lon="17.494340935260443"><ele>165.0</ele><time>2026-04-17T14:26:40Z</time></trkpt><trkpt lat="40.75516349967629" lon="17.494394685483055"><ele>165.0</ele><time>2026-04-17T14:26:44Z</time></trkpt><trkpt lat="40.75524359468577" lon="17.494352719516666"><ele>165.0</ele><time>2026-04-17T14:26:46Z</time></trkpt><trkpt lat="40.75530866577392" lon="17.494324400835136"><ele>165.0</ele><time>2026-04-17T14:26:50Z</time></trkpt><trkpt lat="40.7553842452265" lon="17.494328839483163"><ele>164.66666666666666</ele><time>2026-04-17T14:26:54Z</time></trkpt><trkpt lat="40.75546209909991" lon="17.49431992213636"><ele>164.33333333333334</ele><time>2026-04-17T14:26:58Z</time></trkpt><trkpt lat="40.75553140220822" lon="17.49429995522467"><ele>164.0</ele><time>2026-04-17T14:27:01Z</time></trkpt><trkpt lat="40.7556057835128" lon="17.49428899612964"><ele>163.66666666666669</ele><time>2026-04-17T14:27:03Z</time></trkpt><trkpt lat="40.75569164552898" lon="17.494298662322663"><ele>163.33333333333334</ele><time>2026-04-17T14:27:05.999Z</time></trkpt><trkpt lat="40.7557571498333" lon="17.494306327468767"><ele>163.0</ele><time>2026-04-17T14:27:07.999Z</time></trkpt><trkpt lat="40.75583607209704" lon="17.494355543109027"><ele>163.0</ele><time>2026-04-17T14:27:08.999Z</time></trkpt><trkpt lat="40.75590009439728" lon="17.494388526565576"><ele>163.0</ele><time>2026-04-17T14:27:09.999Z</time></trkpt><trkpt lat="40.75600719763344" lon="17.494400977478765"><ele>163.0</ele><time>2026-04-17T14:27:11.999Z</time></trkpt><trkpt lat="40.75604639432855" lon="17.494468579635264"><ele>163.0</ele><time>2026-04-17T14:27:13.999Z</time></trkpt><trkpt lat="40.75604817902726" lon="17.49458390968069"><ele>163.0</ele><time>2026-04-17T14:27:15.999Z</time></trkpt><trkpt lat="40.75609878295593" lon="17.494674476926757"><ele>163.0</ele><time>2026-04-17T14:27:17.999Z</time></trkpt><trkpt lat="40.75615329756728" lon="17.494719020679856"><ele>160.71428571428572</ele><time>2026-04-17T14:27:19.999Z</time></trkpt><trkpt lat="40.756213363307424" lon="17.494756465424384"><ele>158.42857142857142</ele><time>2026-04-17T14:27:21.999Z</time></trkpt><trkpt lat="40.75627781890307" lon="17.494783402646505"><ele>156.14285714285714</ele><time>2026-04-17T14:27:23.999Z</time></trkpt><trkpt lat="40.756349502466634" lon="17.494818270236273"><ele>153.85714285714286</ele><time>2026-04-17T14:27:25.999Z</time></trkpt><trkpt lat="40.756448163347706" lon="17.49479021079419"><ele>151.57142857142856</ele><time>2026-04-17T14:27:27.999Z</time></trkpt><trkpt lat="40.75650521658682" lon="17.494751913038407"><ele>149.28571428571428</ele><time>2026-04-17T14:27:28.999Z</time></trkpt><trkpt lat="40.756568615474166" lon="17.494709403554268"><ele>147.0</ele><time>2026-04-17T14:27:29.999Z</time></trkpt><trkpt lat="40.756661531778974" lon="17.494609681733078"><ele>147.0</ele><time>2026-04-17T14:27:31.999Z</time></trkpt><trkpt lat="40.756752208855595" lon="17.49458011482453"><ele>147.0</ele><time>2026-04-17T14:27:33.999Z</time></trkpt><trkpt lat="40.75679789036664" lon="17.494663809279707"><ele>147.0</ele><time>2026-04-17T14:27:35.999Z</time></trkpt><trkpt lat="40.75681835372286" lon="17.49476359891286"><ele>147.0</ele><time>2026-04-17T14:27:37.999Z</time></trkpt><trkpt lat="40.756896642993645" lon="17.49484388080134"><ele>147.0</ele><time>2026-04-17T14:27:39.999Z</time></trkpt><trkpt lat="40.757021197835876" lon="17.49489791325769"><ele>146.33333333333334</ele><time>2026-04-17T14:27:41.999Z</time></trkpt><trkpt lat="40.75710102276028" lon="17.49490977855406"><ele>145.66666666666666</ele><time>2026-04-17T14:27:42.999Z</time></trkpt><trkpt lat="40.757191696856566" lon="17.49492471353382"><ele>145.0</ele><time>2026-04-17T14:27:43.999Z</time></trkpt><trkpt lat="40.75727158252092" lon="17.494964602755005"><ele>144.33333333333331</ele><time>2026-04-17T14:27:44.999Z</time></trkpt><trkpt lat="40.757342661827145" lon="17.494996897562626"><ele>143.66666666666666</ele><time>2026-04-17T14:27:45.999Z</time></trkpt><trkpt lat="40.75743888309369" lon="17.495040734333443"><ele>143.0</ele><time>2026-04-17T14:27:47.999Z</time></trkpt><trkpt lat="40.757477481378984" lon="17.49497229541319"><ele>143.0</ele><time>2026-04-17T14:27:49.999Z</time></trkpt><trkpt lat="40.757485668144746" lon="17.494875770833996"><ele>143.0</ele><time>2026-04-17T14:27:51.999Z</time></trkpt><trkpt lat="40.757418104472" lon="17.494894650822072"><ele>143.0</ele><time>2026-04-17T14:27:54.999Z</time></trkpt><trkpt lat="40.75734699146471" lon="17.494964264138723"><ele>143.0</ele><time>2026-04-17T14:27:56.999Z</time></trkpt><trkpt lat="40.757364868443695" lon="17.495066891538013"><ele>143.0</ele><time>2026-04-17T14:28:00.999Z</time></trkpt><trkpt lat="40.75741878054547" lon="17.495155338555335"><ele>143.0</ele><time>2026-04-17T14:28:03.999Z</time></trkpt><trkpt lat="40.757456657137794" lon="17.49522392124028"><ele>143.0</ele><time>2026-04-17T14:28:05.999Z</time></trkpt><trkpt lat="40.757490179182994" lon="17.495310173450783"><ele>143.0</ele><time>2026-04-17T14:28:07.999Z</time></trkpt><trkpt lat="40.75753996457535" lon="17.495408189668336"><ele>143.0</ele><time>2026-04-17T14:28:10.999Z</time></trkpt><trkpt lat="40.75752759069423" lon="17.495533569935116"><ele>143.0</ele><time>2026-04-17T14:28:12.999Z</time></trkpt><trkpt lat="40.75759931506798" lon="17.495650185989113"><ele>143.0</ele><time>2026-04-17T14:28:13.999Z</time></trkpt><trkpt lat="40.757628508205364" lon="17.495758831448427"><ele>142.16666666666666</ele><time>2026-04-17T14:28:14.999Z</time></trkpt><trkpt lat="40.75766736416585" lon="17.495850882636805"><ele>141.33333333333331</ele><time>2026-04-17T14:28:15.999Z</time></trkpt><trkpt lat="40.75770887136415" lon="17.495927177882695"><ele>140.5</ele><time>2026-04-17T14:28:16.999Z</time></trkpt><trkpt lat="40.75775912779069" lon="17.495987694886445"><ele>139.66666666666666</ele><time>2026-04-17T14:28:17.999Z</time></trkpt><trkpt lat="40.757821566230554" lon="17.496014995591782"><ele>138.83333333333334</ele><time>2026-04-17T14:28:18.999Z</time></trkpt><trkpt lat="40.75792890780314" lon="17.495973795169103"><ele>138.0</ele><time>2026-04-17T14:28:21Z</time></trkpt><trkpt lat="40.757997914016805" lon="17.49590596379422"><ele>137.66666666666666</ele><time>2026-04-17T14:28:23Z</time></trkpt><trkpt lat="40.7580539033864" lon="17.49582054841963"><ele>137.33333333333334</ele><time>2026-04-17T14:28:25Z</time></trkpt><trkpt lat="40.75812367164876" lon="17.495738476191583"><ele>137.0</ele><time>2026-04-17T14:28:27Z</time></trkpt><trkpt lat="40.75818329107083" lon="17.495649751206983"><ele>136.66666666666669</ele><time>2026-04-17T14:28:29Z</time></trkpt><trkpt lat="40.75823163725407" lon="17.495550468450467"><ele>136.33333333333334</ele><time>2026-04-17T14:28:31Z</time></trkpt><trkpt lat="40.758288229000485" lon="17.495481773948246"><ele>136.0</ele><time>2026-04-17T14:28:33Z</time></trkpt><trkpt lat="40.75835361117364" lon="17.49542304057501"><ele>135.66666666666669</ele><time>2026-04-17T14:28:35Z</time></trkpt><trkpt lat="40.75840321736197" lon="17.49532395837801"><ele>135.33333333333334</ele><time>2026-04-17T14:28:37Z</time></trkpt><trkpt lat="40.758453210658956" lon="17.495244442487202"><ele>135.0</ele><time>2026-04-17T14:28:39Z</time></trkpt><trkpt lat="40.75845598870324" lon="17.495139553796616"><ele>134.66666666666666</ele><time>2026-04-17T14:28:42Z</time></trkpt><trkpt lat="40.7584544823752" lon="17.495035436761626"><ele>134.33333333333331</ele><time>2026-04-17T14:28:45Z</time></trkpt><trkpt lat="40.75854515438209" lon="17.494998350507238"><ele>134.0</ele><time>2026-04-17T14:28:48Z</time></trkpt><trkpt lat="40.758615008133184" lon="17.49496336404916"><ele>134.0</ele><time>2026-04-17T14:28:50Z</time></trkpt><trkpt lat="40.758679213096116" lon="17.494915723289104"><ele>134.0</ele><time>2026-04-17T14:28:52Z</time></trkpt><trkpt lat="40.7587369896757" lon="17.49485167832861"><ele>134.0</ele><time>2026-04-17T14:28:54Z</time></trkpt><trkpt lat="40.758798526947466" lon="17.494813316246827"><ele>134.0</ele><time>2026-04-17T14:28:56Z</time></trkpt><trkpt lat="40.75884069936584" lon="17.494744445386292"><ele>134.0</ele><time>2026-04-17T14:28:58Z</time></trkpt><trkpt lat="40.75888675852304" lon="17.49467179207417"><ele>134.0</ele><time>2026-04-17T14:29:00Z</time></trkpt><trkpt lat="40.758941950372" lon="17.494615275756402"><ele>134.0</ele><time>2026-04-17T14:29:02Z</time></trkpt><trkpt lat="40.75899318139502" lon="17.494543425286686"><ele>134.0</ele><time>2026-04-17T14:29:04Z</time></trkpt><trkpt lat="40.759066542590965" lon="17.494467067791216"><ele>134.0</ele><time>2026-04-17T14:29:06Z</time></trkpt><trkpt lat="40.759128018802016" lon="17.494395258172567"><ele>134.0</ele><time>2026-04-17T14:29:08Z</time></trkpt><trkpt lat="40.759196827414264" lon="17.494304219950155"><ele>134.0</ele><time>2026-04-17T14:29:10Z</time></trkpt><trkpt lat="40.7592513989749" lon="17.49423452148026"><ele>134.0</ele><time>2026-04-17T14:29:12Z</time></trkpt><trkpt lat="40.75931498859238" lon="17.49415541582072"><ele>134.0</ele><time>2026-04-17T14:29:14Z</time></trkpt><trkpt lat="40.75937093328865" lon="17.49407411002278"><ele>134.0</ele><time>2026-04-17T14:29:15.999Z</time></trkpt><trkpt lat="40.75944687153763" lon="17.49400204455156"><ele>134.0</ele><time>2026-04-17T14:29:17.999Z</time></trkpt><trkpt lat="40.75952639439509" lon="17.493919146095873"><ele>134.0</ele><time>2026-04-17T14:29:19.999Z</time></trkpt><trkpt lat="40.75961106188606" lon="17.493838424528366"><ele>134.0</ele><time>2026-04-17T14:29:21.999Z</time></trkpt><trkpt lat="40.759700347703976" lon="17.493761761383528"><ele>134.0</ele><time>2026-04-17T14:29:23.999Z</time></trkpt><trkpt lat="40.759763338824186" lon="17.493655069267685"><ele>135.0</ele><time>2026-04-17T14:29:25.999Z</time></trkpt><trkpt lat="40.759829779032025" lon="17.49355943098872"><ele>136.0</ele><time>2026-04-17T14:29:27.999Z</time></trkpt><trkpt lat="40.75988710177763" lon="17.49345819913141"><ele>137.0</ele><time>2026-04-17T14:29:29.999Z</time></trkpt><trkpt lat="40.75991598199387" lon="17.49333159392065"><ele>138.0</ele><time>2026-04-17T14:29:31.999Z</time></trkpt><trkpt lat="40.75990612465091" lon="17.493191369047356"><ele>139.0</ele><time>2026-04-17T14:29:33.999Z</time></trkpt><trkpt lat="40.759904120518705" lon="17.493073288682965"><ele>139.0</ele><time>2026-04-17T14:29:35.999Z</time></trkpt><trkpt lat="40.759931526988886" lon="17.492951450747828"><ele>139.0</ele><time>2026-04-17T14:29:37.999Z</time></trkpt><trkpt lat="40.759958722294904" lon="17.49281254627963"><ele>139.0</ele><time>2026-04-17T14:29:39.999Z</time></trkpt><trkpt lat="40.759989966225014" lon="17.49267706458397"><ele>139.0</ele><time>2026-04-17T14:29:41.999Z</time></trkpt><trkpt lat="40.76001996444905" lon="17.492549365568927"><ele>139.0</ele><time>2026-04-17T14:29:43.999Z</time></trkpt><trkpt lat="40.76005271682172" lon="17.492410325659336"><ele>139.6</ele><time>2026-04-17T14:29:45.999Z</time></trkpt><trkpt lat="40.760081210955356" lon="17.492273977581437"><ele>140.2</ele><time>2026-04-17T14:29:47.999Z</time></trkpt><trkpt lat="40.760090543873005" lon="17.492139880715794"><ele>140.79999999999998</ele><time>2026-04-17T14:29:49.999Z</time></trkpt><trkpt lat="40.76008482682614" lon="17.492010996341197"><ele>141.4</ele><time>2026-04-17T14:29:51.999Z</time></trkpt><trkpt lat="40.7600754756209" lon="17.491873610184065"><ele>142.0</ele><time>2026-04-17T14:29:53.999Z</time></trkpt><trkpt lat="40.76006582664086" lon="17.491735077010354"><ele>142.4</ele><time>2026-04-17T14:29:55.999Z</time></trkpt><trkpt lat="40.76006235846825" lon="17.49161286360597"><ele>142.79999999999998</ele><time>2026-04-17T14:29:57.999Z</time></trkpt><trkpt lat="40.76005076810496" lon="17.491470834401728"><ele>143.2</ele><time>2026-04-17T14:29:59.999Z</time></trkpt><trkpt lat="40.7600353421586" lon="17.491337211837543"><ele>143.6</ele><time>2026-04-17T14:30:01.999Z</time></trkpt><trkpt lat="40.76001727322456" lon="17.491201685802093"><ele>144.0</ele><time>2026-04-17T14:30:03.999Z</time></trkpt><trkpt lat="40.76000113633144" lon="17.491066174428518"><ele>145.0</ele><time>2026-04-17T14:30:05.999Z</time></trkpt><trkpt lat="40.7599794412437" lon="17.490938744910032"><ele>146.0</ele><time>2026-04-17T14:30:07.999Z</time></trkpt><trkpt lat="40.75995932927582" lon="17.490811583683097"><ele>147.0</ele><time>2026-04-17T14:30:09.999Z</time></trkpt><trkpt lat="40.75995020398377" lon="17.49068111451576"><ele>148.0</ele><time>2026-04-17T14:30:11.999Z</time></trkpt><trkpt lat="40.75996454597397" lon="17.490568685388716"><ele>149.0</ele><time>2026-04-17T14:30:13.999Z</time></trkpt><trkpt lat="40.75998890619644" lon="17.490442428314733"><ele>150.0</ele><time>2026-04-17T14:30:15.999Z</time></trkpt><trkpt lat="40.76006543748003" lon="17.490364022578277"><ele>151.0</ele><time>2026-04-17T14:30:17.999Z</time></trkpt><trkpt lat="40.760172151012604" lon="17.490333016432764"><ele>152.0</ele><time>2026-04-17T14:30:19.999Z</time></trkpt><trkpt lat="40.76026617135678" lon="17.49029423546135"><ele>153.0</ele><time>2026-04-17T14:30:21.999Z</time></trkpt><trkpt lat="40.76035988293314" lon="17.490261649318338"><ele>154.0</ele><time>2026-04-17T14:30:23.999Z</time></trkpt><trkpt lat="40.760450342726394" lon="17.490226168366863"><ele>154.0</ele><time>2026-04-17T14:30:26Z</time></trkpt><trkpt lat="40.76054742430409" lon="17.49019521157872"><ele>154.0</ele><time>2026-04-17T14:30:28Z</time></trkpt><trkpt lat="40.760630925108714" lon="17.490159868861134"><ele>154.0</ele><time>2026-04-17T14:30:30Z</time></trkpt><trkpt lat="40.76070903305311" lon="17.4901203792134"><ele>154.0</ele><time>2026-04-17T14:30:32Z</time></trkpt><trkpt lat="40.76078825979083" lon="17.490076186247915"><ele>154.0</ele><time>2026-04-17T14:30:34Z</time></trkpt><trkpt lat="40.76086263159541" lon="17.49002409715896"><ele>154.0</ele><time>2026-04-17T14:30:36Z</time></trkpt><trkpt lat="40.760931865862" lon="17.489951777950484"><ele>154.0</ele><time>2026-04-17T14:30:38Z</time></trkpt><trkpt lat="40.76098669515066" lon="17.489874963266146"><ele>154.0</ele><time>2026-04-17T14:30:40Z</time></trkpt><trkpt lat="40.76104693752205" lon="17.48978074797056"><ele>154.0</ele><time>2026-04-17T14:30:42Z</time></trkpt><trkpt lat="40.76110187770846" lon="17.489680531690805"><ele>154.0</ele><time>2026-04-17T14:30:44Z</time></trkpt><trkpt lat="40.761110023748095" lon="17.489589912500044"><ele>154.0</ele><time>2026-04-17T14:30:46Z</time></trkpt><trkpt lat="40.76107036081958" lon="17.489453179817676"><ele>154.0</ele><time>2026-04-17T14:30:48Z</time></trkpt><trkpt lat="40.7610081368462" lon="17.489389142560427"><ele>155.4</ele><time>2026-04-17T14:30:50Z</time></trkpt><trkpt lat="40.7609208278312" lon="17.489315420964857"><ele>156.8</ele><time>2026-04-17T14:30:52Z</time></trkpt><trkpt lat="40.76085661712918" lon="17.48923684833489"><ele>158.20000000000002</ele><time>2026-04-17T14:30:54Z</time></trkpt><trkpt lat="40.760792397271594" lon="17.489189640055628"><ele>159.60000000000002</ele><time>2026-04-17T14:30:56Z</time></trkpt><trkpt lat="40.7607154204993" lon="17.489104133576358"><ele>161.0</ele><time>2026-04-17T14:30:58Z</time></trkpt><trkpt lat="40.760648989855966" lon="17.489024387462212"><ele>161.0</ele><time>2026-04-17T14:31:00Z</time></trkpt><trkpt lat="40.760581790009745" lon="17.4889385353386"><ele>161.0</ele><time>2026-04-17T14:31:02Z</time></trkpt><trkpt lat="40.76055899829226" lon="17.4888212162647"><ele>161.0</ele><time>2026-04-17T14:31:04Z</time></trkpt><trkpt lat="40.760573010448304" lon="17.48869373363683"><ele>161.0</ele><time>2026-04-17T14:31:06Z</time></trkpt><trkpt lat="40.76059463412143" lon="17.488576424101197"><ele>161.0</ele><time>2026-04-17T14:31:08Z</time></trkpt><trkpt lat="40.76061768015164" lon="17.488467059841355"><ele>161.60000000000002</ele><time>2026-04-17T14:31:10Z</time></trkpt><trkpt lat="40.7606472936039" lon="17.488354980517805"><ele>162.2</ele><time>2026-04-17T14:31:12Z</time></trkpt><trkpt lat="40.76068672081104" lon="17.488235703366904"><ele>162.8</ele><time>2026-04-17T14:31:14Z</time></trkpt><trkpt lat="40.760728703035895" lon="17.48812515183824"><ele>163.39999999999998</ele><time>2026-04-17T14:31:16Z</time></trkpt><trkpt lat="40.76078464768376" lon="17.488023635054663"><ele>164.0</ele><time>2026-04-17T14:31:18Z</time></trkpt><trkpt lat="40.76083361018313" lon="17.487920347541333"><ele>164.39999999999998</ele><time>2026-04-17T14:31:19.999Z</time></trkpt><trkpt lat="40.760881575070336" lon="17.487820057083116"><ele>164.8</ele><time>2026-04-17T14:31:21.999Z</time></trkpt><trkpt lat="40.7609308161268" lon="17.48771285032011"><ele>165.2</ele><time>2026-04-17T14:31:23.999Z</time></trkpt><trkpt lat="40.76098375170592" lon="17.487606331874883"><ele>165.60000000000002</ele><time>2026-04-17T14:31:25.999Z</time></trkpt><trkpt lat="40.76104881617644" lon="17.48748912345734"><ele>166.0</ele><time>2026-04-17T14:31:27.999Z</time></trkpt><trkpt lat="40.761105509111154" lon="17.487371406161692"><ele>165.60000000000002</ele><time>2026-04-17T14:31:29.999Z</time></trkpt><trkpt lat="40.76116319420857" lon="17.487253952288665"><ele>165.2</ele><time>2026-04-17T14:31:31.999Z</time></trkpt><trkpt lat="40.7612164230141" lon="17.48713554888492"><ele>164.8</ele><time>2026-04-17T14:31:33.999Z</time></trkpt><trkpt lat="40.76125252880637" lon="17.48701846426833"><ele>164.39999999999998</ele><time>2026-04-17T14:31:35.999Z</time></trkpt><trkpt lat="40.76129005728874" lon="17.486889519386605"><ele>164.0</ele><time>2026-04-17T14:31:37.999Z</time></trkpt><trkpt lat="40.761356071255754" lon="17.486767094663286"><ele>164.0</ele><time>2026-04-17T14:31:39.999Z</time></trkpt><trkpt lat="40.76138510277843" lon="17.48664534610052"><ele>164.0</ele><time>2026-04-17T14:31:41.999Z</time></trkpt><trkpt lat="40.76140705345433" lon="17.486501720388805"><ele>164.0</ele><time>2026-04-17T14:31:43.999Z</time></trkpt><trkpt lat="40.76144595998071" lon="17.486378492444647"><ele>164.0</ele><time>2026-04-17T14:31:45.999Z</time></trkpt><trkpt lat="40.76147263585834" lon="17.486237359204303"><ele>164.0</ele><time>2026-04-17T14:31:47.999Z</time></trkpt><trkpt lat="40.761525400935405" lon="17.486118376231992"><ele>164.6</ele><time>2026-04-17T14:31:49.999Z</time></trkpt><trkpt lat="40.76157391632303" lon="17.485978879851597"><ele>165.2</ele><time>2026-04-17T14:31:51.999Z</time></trkpt><trkpt lat="40.761597522337944" lon="17.485838766229907"><ele>165.79999999999998</ele><time>2026-04-17T14:31:53.999Z</time></trkpt><trkpt lat="40.76160561030027" lon="17.48569947014517"><ele>166.39999999999998</ele><time>2026-04-17T14:31:55.999Z</time></trkpt><trkpt lat="40.76161673896858" lon="17.485566131882983"><ele>167.0</ele><time>2026-04-17T14:31:57.999Z</time></trkpt><trkpt lat="40.76163305653377" lon="17.485421948361317"><ele>167.39999999999998</ele><time>2026-04-17T14:31:59.999Z</time></trkpt><trkpt lat="40.76164146420959" lon="17.485279730724418"><ele>167.79999999999998</ele><time>2026-04-17T14:32:01.999Z</time></trkpt><trkpt lat="40.76164516703039" lon="17.485191994954516"><ele>168.2</ele><time>2026-04-17T14:32:02.999Z</time></trkpt><trkpt lat="40.761657475545796" lon="17.48505204204748"><ele>168.6</ele><time>2026-04-17T14:32:04.999Z</time></trkpt><trkpt lat="40.761678403689835" lon="17.484907486646048"><ele>169.0</ele><time>2026-04-17T14:32:06.999Z</time></trkpt><trkpt lat="40.76168707931186" lon="17.48475379396713"><ele>169.0</ele><time>2026-04-17T14:32:08.999Z</time></trkpt><trkpt lat="40.76171080333725" lon="17.484604842949235"><ele>169.0</ele><time>2026-04-17T14:32:10.999Z</time></trkpt><trkpt lat="40.761762508338116" lon="17.484453847005348"><ele>169.0</ele><time>2026-04-17T14:32:12.999Z</time></trkpt><trkpt lat="40.76179446988311" lon="17.48438197807716"><ele>169.0</ele><time>2026-04-17T14:32:13.999Z</time></trkpt><trkpt lat="40.761848531551756" lon="17.484232112052965"><ele>169.0</ele><time>2026-04-17T14:32:15.999Z</time></trkpt><trkpt lat="40.761906046099305" lon="17.48408499528001"><ele>168.16666666666669</ele><time>2026-04-17T14:32:17.999Z</time></trkpt><trkpt lat="40.761933796418944" lon="17.484010136411694"><ele>167.33333333333334</ele><time>2026-04-17T14:32:18.999Z</time></trkpt><trkpt lat="40.76199005545852" lon="17.483865442375258"><ele>166.5</ele><time>2026-04-17T14:32:20.999Z</time></trkpt><trkpt lat="40.76201802039989" lon="17.483789573592876"><ele>165.66666666666666</ele><time>2026-04-17T14:32:21.999Z</time></trkpt><trkpt lat="40.76207358572745" lon="17.483638780248405"><ele>164.83333333333331</ele><time>2026-04-17T14:32:23.999Z</time></trkpt><trkpt lat="40.76210174668336" lon="17.483563353154995"><ele>164.0</ele><time>2026-04-17T14:32:24.999Z</time></trkpt><trkpt lat="40.762134403711364" lon="17.483485673829474"><ele>163.33333333333331</ele><time>2026-04-17T14:32:25.999Z</time></trkpt><trkpt lat="40.76216460359972" lon="17.483407908778005"><ele>162.66666666666666</ele><time>2026-04-17T14:32:26.999Z</time></trkpt><trkpt lat="40.76218739441933" lon="17.483281372627047"><ele>162.0</ele><time>2026-04-17T14:32:28.999Z</time></trkpt><trkpt lat="40.76215313917152" lon="17.483188493792174"><ele>161.33333333333334</ele><time>2026-04-17T14:32:30.999Z</time></trkpt><trkpt lat="40.76208792265487" lon="17.483080972092992"><ele>160.66666666666669</ele><time>2026-04-17T14:32:33Z</time></trkpt><trkpt lat="40.7620239654078" lon="17.482979645776254"><ele>160.0</ele><time>2026-04-17T14:32:35Z</time></trkpt><trkpt lat="40.761944018954594" lon="17.48284023261462"><ele>160.4</ele><time>2026-04-17T14:32:37Z</time></trkpt><trkpt lat="40.761913446678435" lon="17.482730039590642"><ele>160.8</ele><time>2026-04-17T14:32:39Z</time></trkpt><trkpt lat="40.76187195592549" lon="17.482657336212046"><ele>161.2</ele><time>2026-04-17T14:32:40Z</time></trkpt><trkpt lat="40.76179963201337" lon="17.482518737531425"><ele>161.6</ele><time>2026-04-17T14:32:42Z</time></trkpt><trkpt lat="40.76176521198802" lon="17.482449147194643"><ele>162.0</ele><time>2026-04-17T14:32:43Z</time></trkpt><trkpt lat="40.761708568065096" lon="17.482309841092455"><ele>162.0</ele><time>2026-04-17T14:32:45Z</time></trkpt><trkpt lat="40.76165048155719" lon="17.48217573332242"><ele>162.0</ele><time>2026-04-17T14:32:47Z</time></trkpt><trkpt lat="40.76158660145252" lon="17.48204985262121"><ele>162.0</ele><time>2026-04-17T14:32:49Z</time></trkpt><trkpt lat="40.76153279391207" lon="17.481915815004303"><ele>162.0</ele><time>2026-04-17T14:32:51Z</time></trkpt><trkpt lat="40.76149191644302" lon="17.481779961130684"><ele>162.25</ele><time>2026-04-17T14:32:53Z</time></trkpt><trkpt lat="40.761491154096845" lon="17.48163022319622"><ele>162.5</ele><time>2026-04-17T14:32:55Z</time></trkpt><trkpt lat="40.761497690912876" lon="17.48145771851654"><ele>162.75</ele><time>2026-04-17T14:32:57Z</time></trkpt><trkpt lat="40.761513201990724" lon="17.481315367855427"><ele>163.0</ele><time>2026-04-17T14:32:59Z</time></trkpt><trkpt lat="40.76153683447697" lon="17.481188266384454"><ele>164.0</ele><time>2026-04-17T14:33:01Z</time></trkpt><trkpt lat="40.7615534028411" lon="17.481036802745695"><ele>165.0</ele><time>2026-04-17T14:33:03Z</time></trkpt><trkpt lat="40.761582248502165" lon="17.480891379554528"><ele>166.0</ele><time>2026-04-17T14:33:05Z</time></trkpt><trkpt lat="40.761597950946246" lon="17.48080877846658"><ele>167.0</ele><time>2026-04-17T14:33:06Z</time></trkpt><trkpt lat="40.76160939702515" lon="17.48068894082645"><ele>168.0</ele><time>2026-04-17T14:33:08Z</time></trkpt><trkpt lat="40.76164157895616" lon="17.480590972862444"><ele>168.0</ele><time>2026-04-17T14:33:10Z</time></trkpt><trkpt lat="40.76166494169114" lon="17.480457727689046"><ele>168.0</ele><time>2026-04-17T14:33:12Z</time></trkpt><trkpt lat="40.76167913739096" lon="17.480343335105697"><ele>168.0</ele><time>2026-04-17T14:33:14Z</time></trkpt><trkpt lat="40.76171548665439" lon="17.480195872734907"><ele>168.0</ele><time>2026-04-17T14:33:16Z</time></trkpt><trkpt lat="40.76174706722812" lon="17.480051332484987"><ele>168.0</ele><time>2026-04-17T14:33:18Z</time></trkpt><trkpt lat="40.76177575928591" lon="17.479910001270582"><ele>166.75</ele><time>2026-04-17T14:33:20Z</time></trkpt><trkpt lat="40.76179981077909" lon="17.479770587155873"><ele>165.5</ele><time>2026-04-17T14:33:22Z</time></trkpt><trkpt lat="40.76183949021412" lon="17.479622187083013"><ele>164.25</ele><time>2026-04-17T14:33:24Z</time></trkpt><trkpt lat="40.76186426835732" lon="17.47947998725013"><ele>163.0</ele><time>2026-04-17T14:33:26Z</time></trkpt><trkpt lat="40.76189735416732" lon="17.47932736974365"><ele>163.0</ele><time>2026-04-17T14:33:27.999Z</time></trkpt><trkpt lat="40.76193643292648" lon="17.479176901081672"><ele>163.0</ele><time>2026-04-17T14:33:29.999Z</time></trkpt><trkpt lat="40.76195975743504" lon="17.479095852413128"><ele>163.0</ele><time>2026-04-17T14:33:30.999Z</time></trkpt><trkpt lat="40.761964590632374" lon="17.47896927157176"><ele>163.0</ele><time>2026-04-17T14:33:32.999Z</time></trkpt><trkpt lat="40.76198801814152" lon="17.47888825629715"><ele>163.0</ele><time>2026-04-17T14:33:33.999Z</time></trkpt><trkpt lat="40.76201358130238" lon="17.478742341931593"><ele>163.75</ele><time>2026-04-17T14:33:35.999Z</time></trkpt><trkpt lat="40.76204292064579" lon="17.47858997966972"><ele>164.5</ele><time>2026-04-17T14:33:37.999Z</time></trkpt><trkpt lat="40.76207179658066" lon="17.478444328622274"><ele>165.25</ele><time>2026-04-17T14:33:39.999Z</time></trkpt><trkpt lat="40.762104073408416" lon="17.4782925931421"><ele>166.0</ele><time>2026-04-17T14:33:41.999Z</time></trkpt><trkpt lat="40.76214038432134" lon="17.478136144708674"><ele>166.0</ele><time>2026-04-17T14:33:43.999Z</time></trkpt><trkpt lat="40.76217249471444" lon="17.477979180327374"><ele>166.0</ele><time>2026-04-17T14:33:45.999Z</time></trkpt><trkpt lat="40.76220200055663" lon="17.4778303629334"><ele>166.0</ele><time>2026-04-17T14:33:47.999Z</time></trkpt><trkpt lat="40.76221925835338" lon="17.477678099398716"><ele>166.0</ele><time>2026-04-17T14:33:49.999Z</time></trkpt><trkpt lat="40.76223965223287" lon="17.477531068288872"><ele>166.20000000000002</ele><time>2026-04-17T14:33:51.999Z</time></trkpt><trkpt lat="40.76228437620363" lon="17.477389956059447"><ele>166.4</ele><time>2026-04-17T14:33:53.999Z</time></trkpt><trkpt lat="40.76232487726609" lon="17.477235226740486"><ele>166.6</ele><time>2026-04-17T14:33:55.999Z</time></trkpt><trkpt lat="40.76233645388461" lon="17.47715090213207"><ele>166.8</ele><time>2026-04-17T14:33:56.999Z</time></trkpt><trkpt lat="40.76231516145779" lon="17.477028296866077"><ele>167.0</ele><time>2026-04-17T14:33:58.999Z</time></trkpt><trkpt lat="40.76224858139454" lon="17.476916626688418"><ele>167.66666666666666</ele><time>2026-04-17T14:34:00.999Z</time></trkpt><trkpt lat="40.762159923880255" lon="17.47684607357122"><ele>168.33333333333331</ele><time>2026-04-17T14:34:02.999Z</time></trkpt><trkpt lat="40.76207918694903" lon="17.47682971382772"><ele>169.0</ele><time>2026-04-17T14:34:04.999Z</time></trkpt><trkpt lat="40.76201868414042" lon="17.47675775196928"><ele>169.66666666666666</ele><time>2026-04-17T14:34:06.999Z</time></trkpt><trkpt lat="40.76194551458676" lon="17.476698478445982"><ele>170.33333333333334</ele><time>2026-04-17T14:34:08.999Z</time></trkpt><trkpt lat="40.76187408716808" lon="17.476645207476057"><ele>171.0</ele><time>2026-04-17T14:34:10.999Z</time></trkpt><trkpt lat="40.76180700338419" lon="17.476649306858416"><ele>172.16666666666666</ele><time>2026-04-17T14:34:12.999Z</time></trkpt><trkpt lat="40.76172807635371" lon="17.476608949257578"><ele>173.33333333333334</ele><time>2026-04-17T14:34:14.999Z</time></trkpt><trkpt lat="40.76164859936675" lon="17.476585677216992"><ele>174.5</ele><time>2026-04-17T14:34:16.999Z</time></trkpt><trkpt lat="40.761574538026565" lon="17.476570003339848"><ele>175.66666666666669</ele><time>2026-04-17T14:34:18.999Z</time></trkpt><trkpt lat="40.76147924769778" lon="17.47656444986619"><ele>176.83333333333334</ele><time>2026-04-17T14:34:20.999Z</time></trkpt><trkpt lat="40.761391218210335" lon="17.47650486441704"><ele>178.0</ele><time>2026-04-17T14:34:22.999Z</time></trkpt><trkpt lat="40.76133312620969" lon="17.47643802619472"><ele>178.0</ele><time>2026-04-17T14:34:24.999Z</time></trkpt><trkpt lat="40.76123605502739" lon="17.476433416979205"><ele>178.0</ele><time>2026-04-17T14:34:26.999Z</time></trkpt><trkpt lat="40.76114131986312" lon="17.476428383462757"><ele>178.0</ele><time>2026-04-17T14:34:28.999Z</time></trkpt><trkpt lat="40.76104928664798" lon="17.47640759785071"><ele>178.0</ele><time>2026-04-17T14:34:30.999Z</time></trkpt><trkpt lat="40.760934434499475" lon="17.476378420935937"><ele>178.0</ele><time>2026-04-17T14:34:33.999Z</time></trkpt><trkpt lat="40.76086022858447" lon="17.47635650541241"><ele>179.5</ele><time>2026-04-17T14:34:35.999Z</time></trkpt><trkpt lat="40.76077650279764" lon="17.47632426251138"><ele>181.0</ele><time>2026-04-17T14:34:38Z</time></trkpt><trkpt lat="40.760686971182054" lon="17.476315600249006"><ele>182.5</ele><time>2026-04-17T14:34:40Z</time></trkpt><trkpt lat="40.76059161306353" lon="17.476324566187717"><ele>184.0</ele><time>2026-04-17T14:34:43Z</time></trkpt><trkpt lat="40.76053373904575" lon="17.476289723784408"><ele>185.5</ele><time>2026-04-17T14:34:46Z</time></trkpt><trkpt lat="40.76051318767025" lon="17.476178813238455"><ele>187.0</ele><time>2026-04-17T14:34:52Z</time></trkpt><trkpt lat="40.76048781172734" lon="17.476044322377643"><ele>187.33333333333334</ele><time>2026-04-17T14:34:55Z</time></trkpt><trkpt lat="40.760486789418785" lon="17.475957025755463"><ele>187.66666666666669</ele><time>2026-04-17T14:34:57Z</time></trkpt><trkpt lat="40.760472322257996" lon="17.475859944296214"><ele>188.0</ele><time>2026-04-17T14:35:01Z</time></trkpt><trkpt lat="40.76047655515621" lon="17.475745913359162"><ele>188.33333333333334</ele><time>2026-04-17T14:35:04Z</time></trkpt><trkpt lat="40.76045383433418" lon="17.47563516833619"><ele>188.66666666666666</ele><time>2026-04-17T14:35:07Z</time></trkpt><trkpt lat="40.76045164273784" lon="17.475536008932377"><ele>189.0</ele><time>2026-04-17T14:35:09Z</time></trkpt><trkpt lat="40.76044723457505" lon="17.47539505702805"><ele>189.33333333333334</ele><time>2026-04-17T14:35:12Z</time></trkpt><trkpt lat="40.760446552392736" lon="17.47524557448568"><ele>189.66666666666666</ele><time>2026-04-17T14:35:14Z</time></trkpt><trkpt lat="40.76042952681596" lon="17.47514584504611"><ele>190.0</ele><time>2026-04-17T14:35:16Z</time></trkpt><trkpt lat="40.76038620454713" lon="17.475045423125795"><ele>190.33333333333331</ele><time>2026-04-17T14:35:18Z</time></trkpt><trkpt lat="40.760362072261636" lon="17.474919058645902"><ele>190.66666666666666</ele><time>2026-04-17T14:35:21Z</time></trkpt><trkpt lat="40.76038269227905" lon="17.4748382741788"><ele>191.0</ele><time>2026-04-17T14:35:23Z</time></trkpt><trkpt lat="40.760401130578664" lon="17.474737434861645"><ele>191.0</ele><time>2026-04-17T14:35:24Z</time></trkpt><trkpt lat="40.76041569983225" lon="17.474643038512568"><ele>191.0</ele><time>2026-04-17T14:35:25.999Z</time></trkpt><trkpt lat="40.760420550937965" lon="17.47453655402807"><ele>191.0</ele><time>2026-04-17T14:35:27.999Z</time></trkpt><trkpt lat="40.76039893433225" lon="17.47444636585483"><ele>191.0</ele><time>2026-04-17T14:35:29.999Z</time></trkpt><trkpt lat="40.76037148953716" lon="17.474357519650965"><ele>191.0</ele><time>2026-04-17T14:35:31.999Z</time></trkpt><trkpt lat="40.76032487141546" lon="17.474263947591297"><ele>191.0</ele><time>2026-04-17T14:35:34.999Z</time></trkpt><trkpt lat="40.76035127300867" lon="17.474176103462433"><ele>190.83333333333331</ele><time>2026-04-17T14:35:42.999Z</time></trkpt><trkpt lat="40.760382451620046" lon="17.474063442994265"><ele>190.66666666666666</ele><time>2026-04-17T14:35:52.999Z</time></trkpt><trkpt lat="40.760303548139916" lon="17.474030922759315"><ele>190.5</ele><time>2026-04-17T14:41:03Z</time></trkpt><trkpt lat="40.76023695227406" lon="17.473954507741208"><ele>190.33333333333334</ele><time>2026-04-17T14:41:07Z</time></trkpt><trkpt lat="40.76016542900575" lon="17.473871818881133"><ele>190.16666666666669</ele><time>2026-04-17T14:41:10Z</time></trkpt><trkpt lat="40.76011907254929" lon="17.47378627887566"><ele>190.0</ele><time>2026-04-17T14:41:13Z</time></trkpt><trkpt lat="40.7600669368108" lon="17.473737829209718"><ele>190.0</ele><time>2026-04-17T14:41:15Z</time></trkpt><trkpt lat="40.76000668187225" lon="17.473681942626733"><ele>190.0</ele><time>2026-04-17T14:41:24Z</time></trkpt><trkpt lat="40.760076819685544" lon="17.473718866420075"><ele>190.0</ele><time>2026-04-17T14:41:38Z</time></trkpt><trkpt lat="40.7601458261067" lon="17.473798176520823"><ele>190.0</ele><time>2026-04-17T14:41:41Z</time></trkpt><trkpt lat="40.76020778856086" lon="17.473871974619232"><ele>190.0</ele><time>2026-04-17T14:41:43Z</time></trkpt><trkpt lat="40.76026936863997" lon="17.473960061511715"><ele>190.0</ele><time>2026-04-17T14:41:45Z</time></trkpt><trkpt lat="40.76036072193401" lon="17.47403294356498"><ele>190.0</ele><time>2026-04-17T14:41:47Z</time></trkpt><trkpt lat="40.7604072240875" lon="17.47409384453016"><ele>190.0</ele><time>2026-04-17T14:41:50Z</time></trkpt><trkpt lat="40.76035862005363" lon="17.474185659667548"><ele>190.0</ele><time>2026-04-17T14:42:02.999Z</time></trkpt><trkpt lat="40.760281382259535" lon="17.474193134026986"><ele>190.0</ele><time>2026-04-17T14:42:10.999Z</time></trkpt><trkpt lat="40.76021410184696" lon="17.474177482452173"><ele>190.0</ele><time>2026-04-17T14:42:13.999Z</time></trkpt><trkpt lat="40.760133174380336" lon="17.474223207202435"><ele>190.0</ele><time>2026-04-17T14:42:16.999Z</time></trkpt><trkpt lat="40.76006847445301" lon="17.474227728669742"><ele>190.0</ele><time>2026-04-17T14:42:19.999Z</time></trkpt><trkpt lat="40.76000455991822" lon="17.47421687119057"><ele>192.83333333333334</ele><time>2026-04-17T14:42:22.999Z</time></trkpt><trkpt lat="40.75996039461893" lon="17.47413157140784"><ele>195.66666666666669</ele><time>2026-04-17T14:42:30.999Z</time></trkpt><trkpt lat="40.759928495842445" lon="17.474042354336543"><ele>198.5</ele><time>2026-04-17T14:42:35.999Z</time></trkpt><trkpt lat="40.75989953037675" lon="17.47396412402991"><ele>201.33333333333334</ele><time>2026-04-17T14:42:38.999Z</time></trkpt><trkpt lat="40.75987788712541" lon="17.473880955372568"><ele>204.16666666666666</ele><time>2026-04-17T14:42:40.999Z</time></trkpt><trkpt lat="40.75982061493523" lon="17.47381089735609"><ele>207.0</ele><time>2026-04-17T14:42:42.999Z</time></trkpt><trkpt lat="40.759731722389404" lon="17.47382638825771"><ele>207.00000000000003</ele><time>2026-04-17T14:42:44.999Z</time></trkpt><trkpt lat="40.759662675599536" lon="17.473797048831308"><ele>207.0</ele><time>2026-04-17T14:42:47.999Z</time></trkpt><trkpt lat="40.759590140329436" lon="17.47379551514062"><ele>207.0</ele><time>2026-04-17T14:42:49.999Z</time></trkpt><trkpt lat="40.75952605801267" lon="17.473773244773703"><ele>207.0</ele><time>2026-04-17T14:42:52.999Z</time></trkpt><trkpt lat="40.75944731748192" lon="17.473745696345425"><ele>207.0</ele><time>2026-04-17T14:42:56.999Z</time></trkpt><trkpt lat="40.75938893537493" lon="17.473687758990803"><ele>207.00000000000003</ele><time>2026-04-17T14:42:59.999Z</time></trkpt><trkpt lat="40.75932603295084" lon="17.47365794054013"><ele>207.0</ele><time>2026-04-17T14:43:04Z</time></trkpt><trkpt lat="40.759285916922494" lon="17.473582359511482"><ele>209.42857142857144</ele><time>2026-04-17T14:43:07Z</time></trkpt><trkpt lat="40.75922475767691" lon="17.473539798289693"><ele>211.85714285714286</ele><time>2026-04-17T14:43:10Z</time></trkpt><trkpt lat="40.75916215891325" lon="17.473506724133994"><ele>214.28571428571428</ele><time>2026-04-17T14:43:13Z</time></trkpt><trkpt lat="40.75907505033168" lon="17.473474938117366"><ele>216.71428571428572</ele><time>2026-04-17T14:43:16Z</time></trkpt><trkpt lat="40.75900248187207" lon="17.47345952578853"><ele>219.14285714285714</ele><time>2026-04-17T14:43:19Z</time></trkpt><trkpt lat="40.758951056332464" lon="17.473400082114928"><ele>221.57142857142858</ele><time>2026-04-17T14:43:21Z</time></trkpt><trkpt lat="40.75890006159301" lon="17.473347389515467"><ele>224.0</ele><time>2026-04-17T14:43:24Z</time></trkpt><trkpt lat="40.758838754480855" lon="17.473318176965982"><ele>224.00000000000003</ele><time>2026-04-17T14:43:26Z</time></trkpt><trkpt lat="40.75875432466232" lon="17.473265666835868"><ele>224.0</ele><time>2026-04-17T14:43:29Z</time></trkpt><trkpt lat="40.758688501301386" lon="17.47321205369353"><ele>224.0</ele><time>2026-04-17T14:43:32Z</time></trkpt><trkpt lat="40.758620657607175" lon="17.473168114030383"><ele>224.0</ele><time>2026-04-17T14:43:35Z</time></trkpt><trkpt lat="40.758551452395785" lon="17.473086471569815"><ele>224.00000000000003</ele><time>2026-04-17T14:43:38Z</time></trkpt><trkpt lat="40.758519047391346" lon="17.47300118702423"><ele>224.0</ele><time>2026-04-17T14:43:41Z</time></trkpt><trkpt lat="40.758464675248376" lon="17.472927517772067"><ele>225.50000000000003</ele><time>2026-04-17T14:43:43Z</time></trkpt><trkpt lat="40.75838075187434" lon="17.472833539503736"><ele>227.0</ele><time>2026-04-17T14:43:46Z</time></trkpt><trkpt lat="40.758325317386216" lon="17.472749664233223"><ele>228.5</ele><time>2026-04-17T14:43:49Z</time></trkpt><trkpt lat="40.758302629464005" lon="17.4726411700917"><ele>230.0</ele><time>2026-04-17T14:43:52Z</time></trkpt><trkpt lat="40.75826088817114" lon="17.472536688323803"><ele>231.50000000000003</ele><time>2026-04-17T14:43:54.999Z</time></trkpt><trkpt lat="40.75826572757216" lon="17.47245377925156"><ele>233.0</ele><time>2026-04-17T14:44:13.999Z</time></trkpt><trkpt lat="40.75830303151941" lon="17.472358431700034"><ele>233.00000000000003</ele><time>2026-04-17T14:44:17.999Z</time></trkpt><trkpt lat="40.75840312420226" lon="17.47234723107656"><ele>233.0</ele><time>2026-04-17T14:44:20.999Z</time></trkpt><trkpt lat="40.75846784602819" lon="17.47230816944066"><ele>233.0</ele><time>2026-04-17T14:44:22.999Z</time></trkpt><trkpt lat="40.75852665209794" lon="17.472261248681978"><ele>233.0</ele><time>2026-04-17T14:44:25.999Z</time></trkpt><trkpt lat="40.758502221288424" lon="17.47216411488791"><ele>233.00000000000003</ele><time>2026-04-17T14:44:28.999Z</time></trkpt><trkpt lat="40.75844108200905" lon="17.47209622603858"><ele>233.0</ele><time>2026-04-17T14:44:31.999Z</time></trkpt><trkpt lat="40.75837556072685" lon="17.472074211179535"><ele>230.00000000000003</ele><time>2026-04-17T14:44:34.999Z</time></trkpt><trkpt lat="40.75831373455643" lon="17.471991295545383"><ele>227.0</ele><time>2026-04-17T14:44:37.999Z</time></trkpt><trkpt lat="40.75824816663534" lon="17.471929428779653"><ele>224.0</ele><time>2026-04-17T14:44:40.999Z</time></trkpt><trkpt lat="40.7581758437984" lon="17.471834566658924"><ele>221.0</ele><time>2026-04-17T14:44:43.999Z</time></trkpt><trkpt lat="40.758100652919815" lon="17.471767074353888"><ele>218.00000000000003</ele><time>2026-04-17T14:44:46.999Z</time></trkpt><trkpt lat="40.7580548090916" lon="17.471705725941135"><ele>215.0</ele><time>2026-04-17T14:44:48.999Z</time></trkpt><trkpt lat="40.75801316150864" lon="17.47163822275137"><ele>215.00000000000003</ele><time>2026-04-17T14:44:50.999Z</time></trkpt><trkpt lat="40.75797478591479" lon="17.471560233746157"><ele>215.0</ele><time>2026-04-17T14:44:52.999Z</time></trkpt><trkpt lat="40.757914222472934" lon="17.47147848784365"><ele>215.0</ele><time>2026-04-17T14:44:54.999Z</time></trkpt><trkpt lat="40.757848736177536" lon="17.471399934576286"><ele>215.0</ele><time>2026-04-17T14:44:56.999Z</time></trkpt><trkpt lat="40.75779007888593" lon="17.47131184526207"><ele>215.00000000000003</ele><time>2026-04-17T14:44:58.999Z</time></trkpt><trkpt lat="40.757744627777875" lon="17.471234115204926"><ele>215.0</ele><time>2026-04-17T14:45:00.999Z</time></trkpt><trkpt lat="40.75772459564941" lon="17.471151385589206"><ele>219.33333333333334</ele><time>2026-04-17T14:45:01.999Z</time></trkpt><trkpt lat="40.757686906995204" lon="17.471046439136742"><ele>223.66666666666669</ele><time>2026-04-17T14:45:03.998Z</time></trkpt><trkpt lat="40.757636615399456" lon="17.470929992669703"><ele>228.0</ele><time>2026-04-17T14:45:05.998Z</time></trkpt><trkpt lat="40.757612185905806" lon="17.47082565160137"><ele>232.33333333333331</ele><time>2026-04-17T14:45:08Z</time></trkpt><trkpt lat="40.75760166554895" lon="17.47073234729514"><ele>236.66666666666666</ele><time>2026-04-17T14:45:10Z</time></trkpt><trkpt lat="40.75762504269258" lon="17.470611515256948"><ele>241.0</ele><time>2026-04-17T14:45:12Z</time></trkpt><trkpt lat="40.757663082234025" lon="17.4705383079547"><ele>237.66666666666666</ele><time>2026-04-17T14:45:14Z</time></trkpt><trkpt lat="40.7577036040958" lon="17.470455350113205"><ele>234.33333333333331</ele><time>2026-04-17T14:45:16Z</time></trkpt><trkpt lat="40.75775581598308" lon="17.470357110642574"><ele>231.0</ele><time>2026-04-17T14:45:19Z</time></trkpt><trkpt lat="40.75780164020165" lon="17.470287925165206"><ele>227.66666666666669</ele><time>2026-04-17T14:45:21Z</time></trkpt><trkpt lat="40.757843625241065" lon="17.470213723902855"><ele>224.33333333333334</ele><time>2026-04-17T14:45:23Z</time></trkpt><trkpt lat="40.757922284893574" lon="17.470134328909772"><ele>221.0</ele><time>2026-04-17T14:45:25Z</time></trkpt><trkpt lat="40.757972873869896" lon="17.470081063931218"><ele>221.00000000000003</ele><time>2026-04-17T14:45:26Z</time></trkpt><trkpt lat="40.75807474148043" lon="17.470007529598593"><ele>221.0</ele><time>2026-04-17T14:45:28Z</time></trkpt><trkpt lat="40.75811775723715" lon="17.46994326990833"><ele>221.0</ele><time>2026-04-17T14:45:29Z</time></trkpt><trkpt lat="40.75816959568476" lon="17.469881907454084"><ele>221.0</ele><time>2026-04-17T14:45:30Z</time></trkpt><trkpt lat="40.75821873028247" lon="17.469823364313562"><ele>221.00000000000003</ele><time>2026-04-17T14:45:31Z</time></trkpt><trkpt lat="40.75827647735261" lon="17.469769783591683"><ele>221.0</ele><time>2026-04-17T14:45:32Z</time></trkpt><trkpt lat="40.75837657390898" lon="17.469678796437567"><ele>219.33333333333334</ele><time>2026-04-17T14:45:34Z</time></trkpt><trkpt lat="40.758420495416885" lon="17.46959649038388"><ele>217.66666666666669</ele><time>2026-04-17T14:45:35Z</time></trkpt><trkpt lat="40.75853358121032" lon="17.469502996246952"><ele>216.0</ele><time>2026-04-17T14:45:37Z</time></trkpt><trkpt lat="40.7585862650714" lon="17.4694507321152"><ele>214.33333333333331</ele><time>2026-04-17T14:45:38Z</time></trkpt><trkpt lat="40.75864296062325" lon="17.469412987526145"><ele>212.66666666666666</ele><time>2026-04-17T14:45:39Z</time></trkpt><trkpt lat="40.758706485384515" lon="17.46935924967701"><ele>211.0</ele><time>2026-04-17T14:45:40Z</time></trkpt><trkpt lat="40.75876142321644" lon="17.469310106694007"><ele>210.99999999999997</ele><time>2026-04-17T14:45:41Z</time></trkpt><trkpt lat="40.75881392753682" lon="17.46924470685885"><ele>211.0</ele><time>2026-04-17T14:45:42Z</time></trkpt><trkpt lat="40.75884846207987" lon="17.469166436630733"><ele>211.0</ele><time>2026-04-17T14:45:43Z</time></trkpt><trkpt lat="40.758901289296546" lon="17.469109052861256"><ele>211.0</ele><time>2026-04-17T14:45:44Z</time></trkpt><trkpt lat="40.75895890155969" lon="17.468986477732106"><ele>210.99999999999997</ele><time>2026-04-17T14:45:46Z</time></trkpt><trkpt lat="40.758987284197225" lon="17.468870430245712"><ele>211.0</ele><time>2026-04-17T14:45:48Z</time></trkpt><trkpt lat="40.75904857040779" lon="17.468772272982186"><ele>213.20000000000002</ele><time>2026-04-17T14:45:50Z</time></trkpt><trkpt lat="40.75909583315933" lon="17.46867727819529"><ele>215.4</ele><time>2026-04-17T14:45:52Z</time></trkpt><trkpt lat="40.75915135756079" lon="17.468542409628512"><ele>217.6</ele><time>2026-04-17T14:45:54Z</time></trkpt><trkpt lat="40.75918770265015" lon="17.468423891032916"><ele>219.8</ele><time>2026-04-17T14:45:56Z</time></trkpt><trkpt lat="40.75924250621373" lon="17.468342458526497"><ele>222.0</ele><time>2026-04-17T14:45:58Z</time></trkpt><trkpt lat="40.75927216043624" lon="17.468244751943452"><ele>222.0</ele><time>2026-04-17T14:46:00Z</time></trkpt><trkpt lat="40.75932470899049" lon="17.46811442077006"><ele>222.0</ele><time>2026-04-17T14:46:01.999Z</time></trkpt><trkpt lat="40.75935671846168" lon="17.46799308414435"><ele>222.0</ele><time>2026-04-17T14:46:03.999Z</time></trkpt><trkpt lat="40.75940211474753" lon="17.46788230566761"><ele>222.0</ele><time>2026-04-17T14:46:05.999Z</time></trkpt><trkpt lat="40.75944100092929" lon="17.46778000204393"><ele>222.0</ele><time>2026-04-17T14:46:07.999Z</time></trkpt><trkpt lat="40.75946444521549" lon="17.467669342968193"><ele>219.5</ele><time>2026-04-17T14:46:10.999Z</time></trkpt><trkpt lat="40.75950903669651" lon="17.46775510396865"><ele>217.0</ele><time>2026-04-17T14:46:14.999Z</time></trkpt><trkpt lat="40.759553161861014" lon="17.467667797161354"><ele>214.5</ele><time>2026-04-17T14:46:37.999Z</time></trkpt><trkpt lat="40.75960770305984" lon="17.467555133526236"><ele>212.0</ele><time>2026-04-17T14:46:40.999Z</time></trkpt><trkpt lat="40.759647282050096" lon="17.4674646086202"><ele>209.5</ele><time>2026-04-17T14:46:42.999Z</time></trkpt><trkpt lat="40.75969688048881" lon="17.467340080544716"><ele>207.0</ele><time>2026-04-17T14:46:44.999Z</time></trkpt><trkpt lat="40.75972758171761" lon="17.46720863722812"><ele>207.5</ele><time>2026-04-17T14:46:46.999Z</time></trkpt><trkpt lat="40.75974591910789" lon="17.467083064913723"><ele>208.0</ele><time>2026-04-17T14:46:48.999Z</time></trkpt><trkpt lat="40.75978656662897" lon="17.46700027401892"><ele>208.5</ele><time>2026-04-17T14:46:52.999Z</time></trkpt><trkpt lat="40.75979735544603" lon="17.466899452638867"><ele>209.0</ele><time>2026-04-17T14:46:55.999Z</time></trkpt><trkpt lat="40.75979377309088" lon="17.466786111660312"><ele>209.5</ele><time>2026-04-17T14:46:57.999Z</time></trkpt><trkpt lat="40.759793646423766" lon="17.46663680427651"><ele>210.0</ele><time>2026-04-17T14:47:00.999Z</time></trkpt><trkpt lat="40.759789229452224" lon="17.466542067537564"><ele>210.0</ele><time>2026-04-17T14:47:02.999Z</time></trkpt><trkpt lat="40.759777720487136" lon="17.46645739269602"><ele>210.0</ele><time>2026-04-17T14:47:04.999Z</time></trkpt><trkpt lat="40.7597650368198" lon="17.466321032823164"><ele>210.0</ele><time>2026-04-17T14:47:07.999Z</time></trkpt><trkpt lat="40.759828504263545" lon="17.466297264831166"><ele>210.0</ele><time>2026-04-17T14:47:09.998Z</time></trkpt><trkpt lat="40.75992427749202" lon="17.466326695536996"><ele>210.0</ele><time>2026-04-17T14:47:11.998Z</time></trkpt><trkpt lat="40.76002217453592" lon="17.466323247441846"><ele>210.0</ele><time>2026-04-17T14:47:14Z</time></trkpt><trkpt lat="40.760147181920885" lon="17.466344176566697"><ele>208.5</ele><time>2026-04-17T14:47:16Z</time></trkpt><trkpt lat="40.760232228489485" lon="17.466433110328587"><ele>207.0</ele><time>2026-04-17T14:47:18Z</time></trkpt><trkpt lat="40.76033690935447" lon="17.466486693390287"><ele>205.5</ele><time>2026-04-17T14:47:20Z</time></trkpt><trkpt lat="40.76040409731864" lon="17.46652384099821"><ele>204.0</ele><time>2026-04-17T14:47:21Z</time></trkpt><trkpt lat="40.76046876246813" lon="17.46656937595298"><ele>202.5</ele><time>2026-04-17T14:47:22Z</time></trkpt><trkpt lat="40.7605355944205" lon="17.466610807541556"><ele>201.0</ele><time>2026-04-17T14:47:23Z</time></trkpt><trkpt lat="40.760622182824804" lon="17.466649614167064"><ele>201.0</ele><time>2026-04-17T14:47:24Z</time></trkpt><trkpt lat="40.76069062609491" lon="17.46669267702193"><ele>201.0</ele><time>2026-04-17T14:47:25Z</time></trkpt><trkpt lat="40.76077169543589" lon="17.46673183712289"><ele>201.0</ele><time>2026-04-17T14:47:26Z</time></trkpt><trkpt lat="40.76086880962972" lon="17.466768064541895"><ele>201.0</ele><time>2026-04-17T14:47:27Z</time></trkpt><trkpt lat="40.76095157045599" lon="17.466828127992404"><ele>201.0</ele><time>2026-04-17T14:47:28Z</time></trkpt><trkpt lat="40.76102908944057" lon="17.466876075793095"><ele>201.0</ele><time>2026-04-17T14:47:29Z</time></trkpt><trkpt lat="40.761106172422565" lon="17.466931385564063"><ele>199.83333333333334</ele><time>2026-04-17T14:47:30Z</time></trkpt><trkpt lat="40.76118559566745" lon="17.46698313668541"><ele>198.66666666666669</ele><time>2026-04-17T14:47:31Z</time></trkpt><trkpt lat="40.76126779223894" lon="17.467038671268213"><ele>197.5</ele><time>2026-04-17T14:47:32Z</time></trkpt><trkpt lat="40.761336073534274" lon="17.467090015806356"><ele>196.33333333333334</ele><time>2026-04-17T14:47:33Z</time></trkpt><trkpt lat="40.76141939537675" lon="17.46713434613038"><ele>195.16666666666669</ele><time>2026-04-17T14:47:34Z</time></trkpt><trkpt lat="40.76149142388945" lon="17.46717285504669"><ele>194.0</ele><time>2026-04-17T14:47:35Z</time></trkpt><trkpt lat="40.76154039506504" lon="17.467068091685963"><ele>194.00000000000003</ele><time>2026-04-17T14:47:38Z</time></trkpt><trkpt lat="40.76157437339761" lon="17.466991882624793"><ele>194.0</ele><time>2026-04-17T14:47:40Z</time></trkpt><trkpt lat="40.761602602257994" lon="17.46688787033664"><ele>194.0</ele><time>2026-04-17T14:47:42Z</time></trkpt><trkpt lat="40.761615960117425" lon="17.466784429986163"><ele>194.0</ele><time>2026-04-17T14:47:44Z</time></trkpt><trkpt lat="40.76164518196317" lon="17.466687811689223"><ele>194.00000000000003</ele><time>2026-04-17T14:47:46Z</time></trkpt><trkpt lat="40.76167018942428" lon="17.466578385289043"><ele>194.0</ele><time>2026-04-17T14:47:48Z</time></trkpt><trkpt lat="40.761695745447255" lon="17.466475069354274"><ele>194.0</ele><time>2026-04-17T14:47:50Z</time></trkpt><trkpt lat="40.761713602169145" lon="17.466361692752756"><ele>194.0</ele><time>2026-04-17T14:47:52Z</time></trkpt><trkpt lat="40.76173639399779" lon="17.466251219056684"><ele>194.0</ele><time>2026-04-17T14:47:54Z</time></trkpt><trkpt lat="40.761747958948895" lon="17.466117174785335"><ele>194.0</ele><time>2026-04-17T14:47:56Z</time></trkpt><trkpt lat="40.76178876351446" lon="17.466011110479844"><ele>194.0</ele><time>2026-04-17T14:47:58Z</time></trkpt><trkpt lat="40.761831974737674" lon="17.465894334143663"><ele>194.6</ele><time>2026-04-17T14:48:00Z</time></trkpt><trkpt lat="40.76183207701789" lon="17.4657562874461"><ele>195.2</ele><time>2026-04-17T14:48:01.999Z</time></trkpt><trkpt lat="40.76184795552584" lon="17.46563513114951"><ele>195.79999999999998</ele><time>2026-04-17T14:48:03.999Z</time></trkpt><trkpt lat="40.761847757260504" lon="17.465488387232558"><ele>196.39999999999998</ele><time>2026-04-17T14:48:05.999Z</time></trkpt><trkpt lat="40.76185471593965" lon="17.465350997913507"><ele>197.0</ele><time>2026-04-17T14:48:07.999Z</time></trkpt><trkpt lat="40.76184301026317" lon="17.465221442580397"><ele>197.2</ele><time>2026-04-17T14:48:09.999Z</time></trkpt><trkpt lat="40.76182362921699" lon="17.465092546994928"><ele>197.39999999999998</ele><time>2026-04-17T14:48:11.999Z</time></trkpt><trkpt lat="40.76182249573521" lon="17.464965732009"><ele>197.60000000000002</ele><time>2026-04-17T14:48:13.999Z</time></trkpt><trkpt lat="40.76178376774672" lon="17.464831571864256"><ele>197.8</ele><time>2026-04-17T14:48:15.999Z</time></trkpt><trkpt lat="40.761776828324926" lon="17.46474704461543"><ele>198.0</ele><time>2026-04-17T14:48:16.999Z</time></trkpt><trkpt lat="40.76174782797425" lon="17.464621960999953"><ele>198.8</ele><time>2026-04-17T14:48:18.999Z</time></trkpt><trkpt lat="40.76172609038165" lon="17.464478292149405"><ele>199.60000000000002</ele><time>2026-04-17T14:48:20.999Z</time></trkpt><trkpt lat="40.761727542925875" lon="17.464362214350633"><ele>200.39999999999998</ele><time>2026-04-17T14:48:22.999Z</time></trkpt><trkpt lat="40.76171232551254" lon="17.46424675265366"><ele>201.2</ele><time>2026-04-17T14:48:24.999Z</time></trkpt><trkpt lat="40.76169470539138" lon="17.464126810353903"><ele>202.0</ele><time>2026-04-17T14:48:26.999Z</time></trkpt><trkpt lat="40.761692630434716" lon="17.46401445348836"><ele>202.0</ele><time>2026-04-17T14:48:28.999Z</time></trkpt><trkpt lat="40.76171840993338" lon="17.463884037657476"><ele>202.0</ele><time>2026-04-17T14:48:30.999Z</time></trkpt><trkpt lat="40.76175620520279" lon="17.463754580167592"><ele>202.0</ele><time>2026-04-17T14:48:32.999Z</time></trkpt><trkpt lat="40.76179289758439" lon="17.463616782392208"><ele>202.0</ele><time>2026-04-17T14:48:34.999Z</time></trkpt><trkpt lat="40.76181352864174" lon="17.46353716923272"><ele>202.0</ele><time>2026-04-17T14:48:35.999Z</time></trkpt><trkpt lat="40.761841833929296" lon="17.463454876737593"><ele>200.83333333333331</ele><time>2026-04-17T14:48:36.999Z</time></trkpt><trkpt lat="40.761872266802" lon="17.463378983355494"><ele>199.66666666666666</ele><time>2026-04-17T14:48:37.999Z</time></trkpt><trkpt lat="40.761898808398726" lon="17.463298009333503"><ele>198.5</ele><time>2026-04-17T14:48:38.999Z</time></trkpt><trkpt lat="40.761939392379354" lon="17.46314151288384"><ele>197.33333333333331</ele><time>2026-04-17T14:48:40.999Z</time></trkpt><trkpt lat="40.761968960861495" lon="17.4630571333841"><ele>196.16666666666666</ele><time>2026-04-17T14:48:41.999Z</time></trkpt><trkpt lat="40.76199008282937" lon="17.462965593077982"><ele>195.0</ele><time>2026-04-17T14:48:42.999Z</time></trkpt><trkpt lat="40.762012003628776" lon="17.462819314421424"><ele>195.0</ele><time>2026-04-17T14:48:44.999Z</time></trkpt><trkpt lat="40.76203355663265" lon="17.46272866589237"><ele>195.0</ele><time>2026-04-17T14:48:45.999Z</time></trkpt><trkpt lat="40.76205263309775" lon="17.46258060844229"><ele>195.0</ele><time>2026-04-17T14:48:47.999Z</time></trkpt><trkpt lat="40.76206516852606" lon="17.46242920852877"><ele>195.0</ele><time>2026-04-17T14:48:49.999Z</time></trkpt><trkpt lat="40.76208477004541" lon="17.462266968868636"><ele>195.0</ele><time>2026-04-17T14:48:51.999Z</time></trkpt><trkpt lat="40.7621083523638" lon="17.462118249949086"><ele>195.6</ele><time>2026-04-17T14:48:53.999Z</time></trkpt><trkpt lat="40.76213048611632" lon="17.461967702976445"><ele>196.2</ele><time>2026-04-17T14:48:55.999Z</time></trkpt><trkpt lat="40.76216594488013" lon="17.461827955695735"><ele>196.8</ele><time>2026-04-17T14:48:57.999Z</time></trkpt><trkpt lat="40.762190647614844" lon="17.461681258172405"><ele>197.4</ele><time>2026-04-17T14:48:59.999Z</time></trkpt><trkpt lat="40.762203709446766" lon="17.46158908095318"><ele>198.0</ele><time>2026-04-17T14:49:00.999Z</time></trkpt><trkpt lat="40.76223062275689" lon="17.461442512726457"><ele>198.0</ele><time>2026-04-17T14:49:02.999Z</time></trkpt><trkpt lat="40.7622755712607" lon="17.461314101104833"><ele>198.0</ele><time>2026-04-17T14:49:04.999Z</time></trkpt><trkpt lat="40.76229434326846" lon="17.461232954591864"><ele>198.0</ele><time>2026-04-17T14:49:05.999Z</time></trkpt><trkpt lat="40.76232449296514" lon="17.461081552707775"><ele>198.0</ele><time>2026-04-17T14:49:07.999Z</time></trkpt><trkpt lat="40.76236711391712" lon="17.460934343071116"><ele>198.0</ele><time>2026-04-17T14:49:09.998Z</time></trkpt><trkpt lat="40.762407043495294" lon="17.460792041667215"><ele>198.5</ele><time>2026-04-17T14:49:11.998Z</time></trkpt><trkpt lat="40.76243421870104" lon="17.46064110921139"><ele>199.0</ele><time>2026-04-17T14:49:13.998Z</time></trkpt><trkpt lat="40.76246529330026" lon="17.46049780486921"><ele>199.5</ele><time>2026-04-17T14:49:15.998Z</time></trkpt><trkpt lat="40.76250030606078" lon="17.460360704105778"><ele>200.0</ele><time>2026-04-17T14:49:17.998Z</time></trkpt><trkpt lat="40.76254451191534" lon="17.460214055642727"><ele>199.8</ele><time>2026-04-17T14:49:20Z</time></trkpt><trkpt lat="40.76257736929612" lon="17.460059536852263"><ele>199.6</ele><time>2026-04-17T14:49:22Z</time></trkpt><trkpt lat="40.76259566227975" lon="17.45997992634179"><ele>199.39999999999998</ele><time>2026-04-17T14:49:23Z</time></trkpt><trkpt lat="40.76265547070004" lon="17.459849600301204"><ele>199.2</ele><time>2026-04-17T14:49:25Z</time></trkpt><trkpt lat="40.7626966882909" lon="17.45977914847123"><ele>199.0</ele><time>2026-04-17T14:49:26Z</time></trkpt><trkpt lat="40.76279535801649" lon="17.45966930041496"><ele>199.16666666666666</ele><time>2026-04-17T14:49:28Z</time></trkpt><trkpt lat="40.76287086924601" lon="17.459545059846555"><ele>199.33333333333331</ele><time>2026-04-17T14:49:30Z</time></trkpt><trkpt lat="40.76291518157482" lon="17.459476412107083"><ele>199.5</ele><time>2026-04-17T14:49:31Z</time></trkpt><trkpt lat="40.76295545635847" lon="17.4594099100941"><ele>199.66666666666669</ele><time>2026-04-17T14:49:32Z</time></trkpt><trkpt lat="40.76298450626736" lon="17.459335939845033"><ele>199.83333333333334</ele><time>2026-04-17T14:49:33Z</time></trkpt><trkpt lat="40.763021012389984" lon="17.459249088359332"><ele>200.0</ele><time>2026-04-17T14:49:34Z</time></trkpt><trkpt lat="40.763084506381986" lon="17.45913057423161"><ele>200.0</ele><time>2026-04-17T14:49:36Z</time></trkpt><trkpt lat="40.76314518986261" lon="17.45900813388218"><ele>200.0</ele><time>2026-04-17T14:49:38Z</time></trkpt><trkpt lat="40.76320569302388" lon="17.458879112744544"><ele>200.0</ele><time>2026-04-17T14:49:40Z</time></trkpt><trkpt lat="40.76322796979669" lon="17.458800845601466"><ele>200.0</ele><time>2026-04-17T14:49:41Z</time></trkpt><trkpt lat="40.76328291711717" lon="17.458656376305125"><ele>200.0</ele><time>2026-04-17T14:49:43Z</time></trkpt><trkpt lat="40.763343513864825" lon="17.458515549506284"><ele>200.6</ele><time>2026-04-17T14:49:45Z</time></trkpt><trkpt lat="40.76336810792614" lon="17.458427855900474"><ele>201.2</ele><time>2026-04-17T14:49:46Z</time></trkpt><trkpt lat="40.76341183049081" lon="17.458287834219117"><ele>201.8</ele><time>2026-04-17T14:49:48Z</time></trkpt><trkpt lat="40.76345992799244" lon="17.45815585232764"><ele>202.4</ele><time>2026-04-17T14:49:50Z</time></trkpt><trkpt lat="40.7634871611631" lon="17.458068717544105"><ele>203.0</ele><time>2026-04-17T14:49:52Z</time></trkpt><trkpt lat="40.76367485200788" lon="17.458068594987346"><ele>201.4</ele><time>2026-04-17T14:50:01Z</time></trkpt><trkpt lat="40.763824119050106" lon="17.458195968668708"><ele>199.8</ele><time>2026-04-17T14:50:05Z</time></trkpt><trkpt lat="40.76393121695733" lon="17.45825685765299"><ele>198.2</ele><time>2026-04-17T14:50:07Z</time></trkpt><trkpt lat="40.763990943022456" lon="17.45828843452218"><ele>196.6</ele><time>2026-04-17T14:50:07.999Z</time></trkpt><trkpt lat="40.76405692962526" lon="17.458319879040346"><ele>195.0</ele><time>2026-04-17T14:50:08.999Z</time></trkpt><trkpt lat="40.76411472630981" lon="17.45835656640541"><ele>195.0</ele><time>2026-04-17T14:50:09.999Z</time></trkpt><trkpt lat="40.764176334175374" lon="17.458404114575004"><ele>195.0</ele><time>2026-04-17T14:50:10.999Z</time></trkpt><trkpt lat="40.76424195614711" lon="17.45843866065331"><ele>195.0</ele><time>2026-04-17T14:50:11.999Z</time></trkpt><trkpt lat="40.76430760386216" lon="17.458471799050855"><ele>195.0</ele><time>2026-04-17T14:50:12.999Z</time></trkpt><trkpt lat="40.764379006013" lon="17.45851611856995"><ele>195.0</ele><time>2026-04-17T14:50:13.999Z</time></trkpt><trkpt lat="40.76444442430863" lon="17.458559617352385"><ele>195.0</ele><time>2026-04-17T14:50:14.999Z</time></trkpt><trkpt lat="40.76451092189294" lon="17.45860764410739"><ele>195.0</ele><time>2026-04-17T14:50:15.999Z</time></trkpt><trkpt lat="40.76457671599309" lon="17.458642621753388"><ele>193.8</ele><time>2026-04-17T14:50:16.999Z</time></trkpt><trkpt lat="40.7646489094528" lon="17.458643832342606"><ele>192.6</ele><time>2026-04-17T14:50:17.999Z</time></trkpt><trkpt lat="40.764731245717314" lon="17.458689301111086"><ele>191.39999999999998</ele><time>2026-04-17T14:50:19.999Z</time></trkpt><trkpt lat="40.76485058264209" lon="17.45868094189609"><ele>190.2</ele><time>2026-04-17T14:50:21.999Z</time></trkpt><trkpt lat="40.76493760410902" lon="17.45875077747594"><ele>189.0</ele><time>2026-04-17T14:50:23.999Z</time></trkpt><trkpt lat="40.76501520016684" lon="17.458809125720204"><ele>189.0</ele><time>2026-04-17T14:50:25.999Z</time></trkpt><trkpt lat="40.76509332870069" lon="17.45882710101181"><ele>189.0</ele><time>2026-04-17T14:50:28.999Z</time></trkpt><trkpt lat="40.76515624649413" lon="17.458820535601028"><ele>189.0</ele><time>2026-04-17T14:50:30.999Z</time></trkpt><trkpt lat="40.76522216828618" lon="17.458752569451836"><ele>189.0</ele><time>2026-04-17T14:50:32.999Z</time></trkpt><trkpt lat="40.765298200236515" lon="17.458773379753804"><ele>189.0</ele><time>2026-04-17T14:50:34.999Z</time></trkpt><trkpt lat="40.76535483976951" lon="17.458897046348802"><ele>189.0</ele><time>2026-04-17T14:50:36.999Z</time></trkpt><trkpt lat="40.765344310129926" lon="17.45899219567601"><ele>187.2</ele><time>2026-04-17T14:50:38.999Z</time></trkpt><trkpt lat="40.76532551236129" lon="17.45907926624219"><ele>185.39999999999998</ele><time>2026-04-17T14:50:42.999Z</time></trkpt><trkpt lat="40.76536532246565" lon="17.459147076752473"><ele>183.6</ele><time>2026-04-17T14:50:44.999Z</time></trkpt><trkpt lat="40.76553644853264" lon="17.459251961351885"><ele>181.8</ele><time>2026-04-17T14:50:52.999Z</time></trkpt><trkpt lat="40.76561001976029" lon="17.459248844185527"><ele>180.0</ele><time>2026-04-17T14:50:55.999Z</time></trkpt><trkpt lat="40.76567592273127" lon="17.459321232497658"><ele>180.0</ele><time>2026-04-17T14:50:58.999Z</time></trkpt><trkpt lat="40.76573259471403" lon="17.459394244296522"><ele>180.0</ele><time>2026-04-17T14:51:00.999Z</time></trkpt><trkpt lat="40.765787551870886" lon="17.459491821805077"><ele>180.0</ele><time>2026-04-17T14:51:03.999Z</time></trkpt><trkpt lat="40.76586099678147" lon="17.45951538283005"><ele>180.0</ele><time>2026-04-17T14:51:06.999Z</time></trkpt><trkpt lat="40.76589260725549" lon="17.459613612798996"><ele>180.0</ele><time>2026-04-17T14:51:09.999Z</time></trkpt><trkpt lat="40.7659574334631" lon="17.4596340772953"><ele>180.0</ele><time>2026-04-17T14:51:12.999Z</time></trkpt><trkpt lat="40.76608453505689" lon="17.459683550288123"><ele>177.8</ele><time>2026-04-17T14:51:16.998Z</time></trkpt><trkpt lat="40.766224299440466" lon="17.459668732494993"><ele>175.6</ele><time>2026-04-17T14:51:18.998Z</time></trkpt><trkpt lat="40.76630532989636" lon="17.45971169127953"><ele>173.39999999999998</ele><time>2026-04-17T14:51:19.998Z</time></trkpt><trkpt lat="40.766379820516484" lon="17.459779660444568"><ele>171.2</ele><time>2026-04-17T14:51:20.998Z</time></trkpt><trkpt lat="40.76644234547709" lon="17.45986485843398"><ele>169.0</ele><time>2026-04-17T14:51:21.998Z</time></trkpt><trkpt lat="40.76650565914317" lon="17.45993077875105"><ele>169.0</ele><time>2026-04-17T14:51:22.998Z</time></trkpt><trkpt lat="40.766568569595584" lon="17.45999559197391"><ele>169.0</ele><time>2026-04-17T14:51:23.998Z</time></trkpt><trkpt lat="40.76662395268851" lon="17.46007987772588"><ele>169.0</ele><time>2026-04-17T14:51:25Z</time></trkpt><trkpt lat="40.766679231956445" lon="17.46018471422447"><ele>169.0</ele><time>2026-04-17T14:51:26Z</time></trkpt><trkpt lat="40.766693129124064" lon="17.460292793607547"><ele>169.0</ele><time>2026-04-17T14:51:27Z</time></trkpt><trkpt lat="40.76672201199728" lon="17.460372306333863"><ele>169.0</ele><time>2026-04-17T14:51:28Z</time></trkpt><trkpt lat="40.76681208797006" lon="17.460491626839964"><ele>167.5</ele><time>2026-04-17T14:51:30Z</time></trkpt><trkpt lat="40.76689019241923" lon="17.46054753002579"><ele>166.0</ele><time>2026-04-17T14:51:31Z</time></trkpt><trkpt lat="40.766951098426816" lon="17.460582895847292"><ele>164.5</ele><time>2026-04-17T14:51:32Z</time></trkpt><trkpt lat="40.76704194089198" lon="17.46056760589275"><ele>163.0</ele><time>2026-04-17T14:51:33Z</time></trkpt><trkpt lat="40.76711654786849" lon="17.460550931148383"><ele>161.5</ele><time>2026-04-17T14:51:34Z</time></trkpt><trkpt lat="40.76718597311307" lon="17.460543810240207"><ele>160.0</ele><time>2026-04-17T14:51:35Z</time></trkpt><trkpt lat="40.76725119933627" lon="17.46056116013608"><ele>160.0</ele><time>2026-04-17T14:51:36Z</time></trkpt><trkpt lat="40.76731454499149" lon="17.460550843017213"><ele>160.0</ele><time>2026-04-17T14:51:37Z</time></trkpt><trkpt lat="40.767393168143805" lon="17.460499481413876"><ele>160.0</ele><time>2026-04-17T14:51:39Z</time></trkpt><trkpt lat="40.76750115810265" lon="17.460396838647537"><ele>160.0</ele><time>2026-04-17T14:51:41Z</time></trkpt><trkpt lat="40.76760750084432" lon="17.460341194360662"><ele>160.0</ele><time>2026-04-17T14:51:43Z</time></trkpt><trkpt lat="40.767702836819524" lon="17.460331066248145"><ele>158.75</ele><time>2026-04-17T14:51:45Z</time></trkpt><trkpt lat="40.76780047330757" lon="17.460277128570144"><ele>157.5</ele><time>2026-04-17T14:51:47Z</time></trkpt><trkpt lat="40.76790997578678" lon="17.460217777235044"><ele>156.25</ele><time>2026-04-17T14:51:49Z</time></trkpt><trkpt lat="40.76799659385548" lon="17.4601011928903"><ele>155.0</ele><time>2026-04-17T14:51:51Z</time></trkpt><trkpt lat="40.76807115076802" lon="17.46000494706285"><ele>155.0</ele><time>2026-04-17T14:51:53Z</time></trkpt><trkpt lat="40.76817191472491" lon="17.459969361960276"><ele>155.0</ele><time>2026-04-17T14:51:55Z</time></trkpt><trkpt lat="40.76824012924562" lon="17.459920110843726"><ele>155.0</ele><time>2026-04-17T14:51:57Z</time></trkpt><trkpt lat="40.76832529439881" lon="17.459864712193394"><ele>155.0</ele><time>2026-04-17T14:51:59Z</time></trkpt><trkpt lat="40.76844702753898" lon="17.459829099842356"><ele>155.0</ele><time>2026-04-17T14:52:01Z</time></trkpt><trkpt lat="40.76856141146379" lon="17.4597788383022"><ele>154.2</ele><time>2026-04-17T14:52:03Z</time></trkpt><trkpt lat="40.76867570713579" lon="17.459724072515762"><ele>153.4</ele><time>2026-04-17T14:52:05Z</time></trkpt><trkpt lat="40.76881057194721" lon="17.459725088171655"><ele>152.6</ele><time>2026-04-17T14:52:07Z</time></trkpt><trkpt lat="40.7689061814589" lon="17.45967616436326"><ele>151.8</ele><time>2026-04-17T14:52:09Z</time></trkpt><trkpt lat="40.76895796023924" lon="17.459603747758965"><ele>151.0</ele><time>2026-04-17T14:52:10Z</time></trkpt><trkpt lat="40.76900778301078" lon="17.459507360265953"><ele>151.0</ele><time>2026-04-17T14:52:11Z</time></trkpt><trkpt lat="40.769045480074794" lon="17.459433886802497"><ele>151.0</ele><time>2026-04-17T14:52:11.999Z</time></trkpt><trkpt lat="40.76912464613196" lon="17.459349576127433"><ele>151.0</ele><time>2026-04-17T14:52:13.999Z</time></trkpt><trkpt lat="40.76919707926252" lon="17.45940622010818"><ele>151.0</ele><time>2026-04-17T14:52:15.999Z</time></trkpt><trkpt lat="40.76925161641753" lon="17.45949344206795"><ele>151.0</ele><time>2026-04-17T14:52:17.999Z</time></trkpt><trkpt lat="40.76934063283106" lon="17.45951483118047"><ele>151.0</ele><time>2026-04-17T14:52:19.999Z</time></trkpt><trkpt lat="40.76939111242682" lon="17.459463469703888"><ele>151.0</ele><time>2026-04-17T14:52:35.999Z</time></trkpt><trkpt lat="40.76934272612699" lon="17.45940876639151"><ele>151.0</ele><time>2026-04-17T14:53:26.998Z</time></trkpt><trkpt lat="40.76926837012485" lon="17.45947935929278"><ele>151.0</ele><time>2026-04-17T14:53:29.998Z</time></trkpt><trkpt lat="40.76920776246448" lon="17.459421929726748"><ele>151.0</ele><time>2026-04-17T14:53:33Z</time></trkpt><trkpt lat="40.76915216230712" lon="17.45937199217221"><ele>151.0</ele><time>2026-04-17T14:53:35Z</time></trkpt><trkpt lat="40.76907191765912" lon="17.459394868590557"><ele>151.0</ele><time>2026-04-17T14:53:37Z</time></trkpt><trkpt lat="40.76901889580794" lon="17.45947078424444"><ele>151.0</ele><time>2026-04-17T14:53:39Z</time></trkpt><trkpt lat="40.76896418465008" lon="17.45954438857593"><ele>151.0</ele><time>2026-04-17T14:53:41Z</time></trkpt><trkpt lat="40.76891374906813" lon="17.459631926060666"><ele>151.0</ele><time>2026-04-17T14:53:43Z</time></trkpt><trkpt lat="40.76885786216538" lon="17.459702850218367"><ele>151.0</ele><time>2026-04-17T14:53:45Z</time></trkpt><trkpt lat="40.768799953772216" lon="17.459737672848945"><ele>151.0</ele><time>2026-04-17T14:53:47Z</time></trkpt><trkpt lat="40.7687211358043" lon="17.459738052160755"><ele>151.0</ele><time>2026-04-17T14:53:49Z</time></trkpt><trkpt lat="40.76862613321983" lon="17.459742540433144"><ele>151.66666666666669</ele><time>2026-04-17T14:53:51Z</time></trkpt><trkpt lat="40.768547161201994" lon="17.459772290570523"><ele>152.33333333333334</ele><time>2026-04-17T14:53:53Z</time></trkpt><trkpt lat="40.76847462164074" lon="17.459815511780896"><ele>153.0</ele><time>2026-04-17T14:53:55Z</time></trkpt><trkpt lat="40.76837402915106" lon="17.459856243320456"><ele>153.66666666666666</ele><time>2026-04-17T14:53:57Z</time></trkpt><trkpt lat="40.76828936125527" lon="17.459890535881865"><ele>154.33333333333331</ele><time>2026-04-17T14:53:59Z</time></trkpt><trkpt lat="40.76822374767268" lon="17.45993940220019"><ele>155.0</ele><time>2026-04-17T14:54:01Z</time></trkpt><trkpt lat="40.76815952469483" lon="17.459976315824626"><ele>155.0</ele><time>2026-04-17T14:54:03Z</time></trkpt><trkpt lat="40.768071656719975" lon="17.46004210963411"><ele>155.0</ele><time>2026-04-17T14:54:06Z</time></trkpt><trkpt lat="40.76799246709394" lon="17.46009515632766"><ele>155.0</ele><time>2026-04-17T14:54:09Z</time></trkpt><trkpt lat="40.767940827772854" lon="17.460179934132494"><ele>155.0</ele><time>2026-04-17T14:54:11Z</time></trkpt><trkpt lat="40.767847763546335" lon="17.460229606638325"><ele>155.0</ele><time>2026-04-17T14:54:14.999Z</time></trkpt><trkpt lat="40.76778991813676" lon="17.46026705095991"><ele>155.0</ele><time>2026-04-17T14:54:15.999Z</time></trkpt><trkpt lat="40.767704440262364" lon="17.460290322845164"><ele>155.83333333333331</ele><time>2026-04-17T14:54:19.999Z</time></trkpt><trkpt lat="40.767637719272436" lon="17.460323336933293"><ele>156.66666666666666</ele><time>2026-04-17T14:54:21.999Z</time></trkpt><trkpt lat="40.76757066674383" lon="17.460369342549292"><ele>157.5</ele><time>2026-04-17T14:54:22.999Z</time></trkpt><trkpt lat="40.76749918926425" lon="17.460406091490427"><ele>158.33333333333334</ele><time>2026-04-17T14:54:24.999Z</time></trkpt><trkpt lat="40.76741608597104" lon="17.460483316324634"><ele>159.16666666666669</ele><time>2026-04-17T14:54:26.999Z</time></trkpt><trkpt lat="40.767337241122505" lon="17.460528859584297"><ele>160.0</ele><time>2026-04-17T14:54:28.999Z</time></trkpt><trkpt lat="40.7672612360459" lon="17.460559178183342"><ele>160.0</ele><time>2026-04-17T14:54:30.999Z</time></trkpt><trkpt lat="40.76716571953642" lon="17.46057180875279"><ele>160.0</ele><time>2026-04-17T14:54:32.999Z</time></trkpt><trkpt lat="40.76707056499002" lon="17.460534982922347"><ele>160.0</ele><time>2026-04-17T14:54:34.999Z</time></trkpt><trkpt lat="40.766982926337676" lon="17.46052664331473"><ele>160.0</ele><time>2026-04-17T14:54:36.999Z</time></trkpt><trkpt lat="40.76691982147937" lon="17.46051657198773"><ele>160.0</ele><time>2026-04-17T14:54:37.999Z</time></trkpt><trkpt lat="40.766804701348036" lon="17.4604960692053"><ele>161.5</ele><time>2026-04-17T14:54:39.999Z</time></trkpt><trkpt lat="40.766750922469704" lon="17.46042495126395"><ele>163.0</ele><time>2026-04-17T14:54:41.999Z</time></trkpt><trkpt lat="40.766669957376536" lon="17.46034069233214"><ele>164.5</ele><time>2026-04-17T14:54:43.999Z</time></trkpt><trkpt lat="40.76662604503768" lon="17.46027460380018"><ele>166.0</ele><time>2026-04-17T14:54:45.999Z</time></trkpt><trkpt lat="40.76658404662951" lon="17.460181903795974"><ele>167.5</ele><time>2026-04-17T14:54:47.999Z</time></trkpt><trkpt lat="40.76653402479789" lon="17.460097343654855"><ele>169.0</ele><time>2026-04-17T14:54:49.999Z</time></trkpt><trkpt lat="40.76650931595008" lon="17.4600171991363"><ele>169.0</ele><time>2026-04-17T14:54:50.999Z</time></trkpt><trkpt lat="40.76651714746007" lon="17.459930788383325"><ele>169.0</ele><time>2026-04-17T14:54:52.999Z</time></trkpt><trkpt lat="40.76646159175524" lon="17.459854298260627"><ele>169.0</ele><time>2026-04-17T14:54:54.999Z</time></trkpt><trkpt lat="40.766384005835086" lon="17.459767704783115"><ele>169.0</ele><time>2026-04-17T14:54:57.999Z</time></trkpt><trkpt lat="40.76631449821878" lon="17.459709414172124"><ele>169.0</ele><time>2026-04-17T14:54:59.999Z</time></trkpt><trkpt lat="40.76623935546342" lon="17.459643218257344"><ele>169.0</ele><time>2026-04-17T14:55:01.999Z</time></trkpt><trkpt lat="40.76618579476283" lon="17.45956755204024"><ele>170.0</ele><time>2026-04-17T14:55:03.999Z</time></trkpt><trkpt lat="40.76616138779248" lon="17.459483430323235"><ele>171.0</ele><time>2026-04-17T14:55:05.999Z</time></trkpt><trkpt lat="40.766185778508266" lon="17.459373429243712"><ele>172.0</ele><time>2026-04-17T14:55:08.999Z</time></trkpt><trkpt lat="40.76619786881129" lon="17.459250220200932"><ele>173.0</ele><time>2026-04-17T14:55:11.999Z</time></trkpt><trkpt lat="40.76622116218785" lon="17.45915127709607"><ele>174.0</ele><time>2026-04-17T14:55:14.999Z</time></trkpt><trkpt lat="40.76627808377565" lon="17.459075064527784"><ele>175.0</ele><time>2026-04-17T14:55:16.999Z</time></trkpt><trkpt lat="40.76634121042485" lon="17.45900036475557"><ele>175.0</ele><time>2026-04-17T14:55:18.999Z</time></trkpt><trkpt lat="40.766411784858605" lon="17.45893598867659"><ele>175.0</ele><time>2026-04-17T14:55:21.999Z</time></trkpt><trkpt lat="40.76643035946777" lon="17.45882866462888"><ele>175.0</ele><time>2026-04-17T14:55:24.998Z</time></trkpt><trkpt lat="40.76647512400098" lon="17.458741392468404"><ele>175.0</ele><time>2026-04-17T14:55:26.998Z</time></trkpt><trkpt lat="40.76652038727425" lon="17.45868193350043"><ele>175.0</ele><time>2026-04-17T14:55:28.998Z</time></trkpt><trkpt lat="40.766529221757835" lon="17.45858676855004"><ele>175.0</ele><time>2026-04-17T14:55:30.998Z</time></trkpt><trkpt lat="40.76651921398689" lon="17.45849596287813"><ele>175.33333333333334</ele><time>2026-04-17T14:55:32.998Z</time></trkpt><trkpt lat="40.76646005725797" lon="17.458415202388526"><ele>175.66666666666669</ele><time>2026-04-17T14:55:34.998Z</time></trkpt><trkpt lat="40.7664676819644" lon="17.458304264699024"><ele>176.0</ele><time>2026-04-17T14:55:37Z</time></trkpt><trkpt lat="40.76649491048517" lon="17.458209836318407"><ele>176.33333333333334</ele><time>2026-04-17T14:55:39Z</time></trkpt><trkpt lat="40.76650476827426" lon="17.45810034461339"><ele>176.66666666666666</ele><time>2026-04-17T14:55:41Z</time></trkpt><trkpt lat="40.76649764307293" lon="17.457994750858003"><ele>177.0</ele><time>2026-04-17T14:55:43Z</time></trkpt><trkpt lat="40.766480979381306" lon="17.45791302510638"><ele>177.2857142857143</ele><time>2026-04-17T14:55:45Z</time></trkpt><trkpt lat="40.76642518944861" lon="17.457868503896908"><ele>177.57142857142856</ele><time>2026-04-17T14:55:47Z</time></trkpt><trkpt lat="40.766358245461326" lon="17.45785108347216"><ele>177.85714285714286</ele><time>2026-04-17T14:55:50Z</time></trkpt><trkpt lat="40.76630365527559" lon="17.45780045948345"><ele>178.14285714285717</ele><time>2026-04-17T14:55:55Z</time></trkpt><trkpt lat="40.76628823773221" lon="17.45770765837199"><ele>178.42857142857144</ele><time>2026-04-17T14:55:58Z</time></trkpt><trkpt lat="40.76622330369565" lon="17.45763340414635"><ele>178.71428571428572</ele><time>2026-04-17T14:56:01Z</time></trkpt><trkpt lat="40.76616447828188" lon="17.45760032289704"><ele>179.0</ele><time>2026-04-17T14:56:05Z</time></trkpt><trkpt lat="40.76609174411005" lon="17.457626571047665"><ele>179.00000000000003</ele><time>2026-04-17T14:56:10Z</time></trkpt><trkpt lat="40.76602606655606" lon="17.457594401224206"><ele>179.0</ele><time>2026-04-17T14:56:16Z</time></trkpt><trkpt lat="40.76601084236362" lon="17.45750929663957"><ele>179.0</ele><time>2026-04-17T14:56:20Z</time></trkpt><trkpt lat="40.76603840182052" lon="17.457421206353892"><ele>179.0</ele><time>2026-04-17T14:56:22.999Z</time></trkpt><trkpt lat="40.76603858015704" lon="17.457331736513233"><ele>179.0</ele><time>2026-04-17T14:56:25.999Z</time></trkpt><trkpt lat="40.76606153707528" lon="17.457428036254434"><ele>179.00000000000003</ele><time>2026-04-17T14:58:32.999Z</time></trkpt><trkpt lat="40.76610221738971" lon="17.457500647664975"><ele>179.0</ele><time>2026-04-17T14:58:36.999Z</time></trkpt><trkpt lat="40.76614343160584" lon="17.457588654354026"><ele>179.00000000000003</ele><time>2026-04-17T14:58:39.999Z</time></trkpt><trkpt lat="40.766215879247824" lon="17.457631810476315"><ele>179.0</ele><time>2026-04-17T14:58:42.999Z</time></trkpt><trkpt lat="40.766271044669246" lon="17.457699782222985"><ele>179.0</ele><time>2026-04-17T14:58:44.999Z</time></trkpt><trkpt lat="40.766306407733595" lon="17.45778527559315"><ele>179.0</ele><time>2026-04-17T14:58:46.999Z</time></trkpt><trkpt lat="40.76634675619425" lon="17.457852193884744"><ele>179.0</ele><time>2026-04-17T14:58:49.999Z</time></trkpt><trkpt lat="40.76641205870875" lon="17.45789878423246"><ele>179.00000000000003</ele><time>2026-04-17T14:58:51.999Z</time></trkpt><trkpt lat="40.766479215908795" lon="17.457939705590714"><ele>179.0</ele><time>2026-04-17T14:58:52.999Z</time></trkpt><trkpt lat="40.766511339645774" lon="17.458061776017626"><ele>178.6</ele><time>2026-04-17T14:58:54.999Z</time></trkpt><trkpt lat="40.76650773914218" lon="17.458192451314265"><ele>178.2</ele><time>2026-04-17T14:58:56.999Z</time></trkpt><trkpt lat="40.766484976130144" lon="17.458319420967708"><ele>177.79999999999998</ele><time>2026-04-17T14:58:58.999Z</time></trkpt><trkpt lat="40.76646404950908" lon="17.458436828429775"><ele>177.39999999999998</ele><time>2026-04-17T14:59:00.999Z</time></trkpt><trkpt lat="40.766506684320994" lon="17.458529626389716"><ele>177.0</ele><time>2026-04-17T14:59:02.999Z</time></trkpt><trkpt lat="40.766539001937296" lon="17.45863383658601"><ele>177.0</ele><time>2026-04-17T14:59:04.999Z</time></trkpt><trkpt lat="40.76648870586265" lon="17.458764312873797"><ele>177.0</ele><time>2026-04-17T14:59:06.999Z</time></trkpt><trkpt lat="40.76641541418142" lon="17.458868112832466"><ele>177.0</ele><time>2026-04-17T14:59:08.999Z</time></trkpt><trkpt lat="40.766374793999695" lon="17.45899859256474"><ele>177.0</ele><time>2026-04-17T14:59:10.999Z</time></trkpt><trkpt lat="40.76630019192517" lon="17.459067609222146"><ele>177.0</ele><time>2026-04-17T14:59:12.999Z</time></trkpt><trkpt lat="40.76623480938033" lon="17.45914264656708"><ele>176.66666666666666</ele><time>2026-04-17T14:59:14.999Z</time></trkpt><trkpt lat="40.76619521013352" lon="17.459247462060652"><ele>176.33333333333334</ele><time>2026-04-17T14:59:16.999Z</time></trkpt><trkpt lat="40.766178549707845" lon="17.45933333979719"><ele>176.0</ele><time>2026-04-17T14:59:18.999Z</time></trkpt><trkpt lat="40.76617384037705" lon="17.459455070278686"><ele>175.66666666666669</ele><time>2026-04-17T14:59:20.999Z</time></trkpt><trkpt lat="40.76616519583452" lon="17.459555965573376"><ele>175.33333333333334</ele><time>2026-04-17T14:59:22.999Z</time></trkpt><trkpt lat="40.766240943655575" lon="17.459624400280955"><ele>175.0</ele><time>2026-04-17T14:59:25.999Z</time></trkpt><trkpt lat="40.76616523693921" lon="17.459669022479094"><ele>175.83333333333334</ele><time>2026-04-17T14:59:29.999Z</time></trkpt><trkpt lat="40.76608747177729" lon="17.45967561361613"><ele>176.66666666666669</ele><time>2026-04-17T14:59:32.999Z</time></trkpt><trkpt lat="40.766000899060344" lon="17.459701576421033"><ele>177.5</ele><time>2026-04-17T14:59:36.999Z</time></trkpt><trkpt lat="40.765939354920306" lon="17.45962749780625"><ele>178.33333333333334</ele><time>2026-04-17T14:59:39.999Z</time></trkpt><trkpt lat="40.76587008983167" lon="17.459594457303144"><ele>179.16666666666666</ele><time>2026-04-17T14:59:44.998Z</time></trkpt><trkpt lat="40.76585971950313" lon="17.459493109128974"><ele>180.0</ele><time>2026-04-17T14:59:49Z</time></trkpt><trkpt lat="40.76579336511112" lon="17.459475036817054"><ele>180.0</ele><time>2026-04-17T14:59:53Z</time></trkpt><trkpt lat="40.76576537029518" lon="17.459389998349018"><ele>180.0</ele><time>2026-04-17T14:59:56Z</time></trkpt><trkpt lat="40.765692218923974" lon="17.45933212317782"><ele>180.0</ele><time>2026-04-17T14:59:59Z</time></trkpt><trkpt lat="40.76564299720001" lon="17.459278644078683"><ele>180.0</ele><time>2026-04-17T15:00:03Z</time></trkpt><trkpt lat="40.765579021170375" lon="17.459233412043638"><ele>180.0</ele><time>2026-04-17T15:00:06Z</time></trkpt><trkpt lat="40.76550299963967" lon="17.459255146354984"><ele>180.0</ele><time>2026-04-17T15:00:10Z</time></trkpt><trkpt lat="40.7654652459887" lon="17.459182385822647"><ele>180.0</ele><time>2026-04-17T15:00:14Z</time></trkpt><trkpt lat="40.765394120582" lon="17.459165560876624"><ele>180.0</ele><time>2026-04-17T15:00:18Z</time></trkpt><trkpt lat="40.765333166169384" lon="17.459123051000418"><ele>180.0</ele><time>2026-04-17T15:00:21Z</time></trkpt><trkpt lat="40.76532364029461" lon="17.459027020726104"><ele>180.0</ele><time>2026-04-17T15:00:24Z</time></trkpt><trkpt lat="40.765347967185555" lon="17.458931306082725"><ele>180.0</ele><time>2026-04-17T15:00:27Z</time></trkpt><trkpt lat="40.76532300624132" lon="17.45883953830652"><ele>180.0</ele><time>2026-04-17T15:00:30Z</time></trkpt><trkpt lat="40.7652697762821" lon="17.45876319786588"><ele>180.0</ele><time>2026-04-17T15:00:33Z</time></trkpt><trkpt lat="40.765215564204865" lon="17.45870680749674"><ele>180.0</ele><time>2026-04-17T15:00:36Z</time></trkpt><trkpt lat="40.76520169381036" lon="17.458623511973574"><ele>180.0</ele><time>2026-04-17T15:00:39.999Z</time></trkpt><trkpt lat="40.765204022385404" lon="17.458511917700953"><ele>180.0</ele><time>2026-04-17T15:00:43.999Z</time></trkpt><trkpt lat="40.76518102886753" lon="17.458600044780017"><ele>180.0</ele><time>2026-04-17T15:01:24.999Z</time></trkpt><trkpt lat="40.76520351105197" lon="17.458678875803248"><ele>180.0</ele><time>2026-04-17T15:01:26.999Z</time></trkpt><trkpt lat="40.76524104641276" lon="17.458768193089316"><ele>180.0</ele><time>2026-04-17T15:01:28.999Z</time></trkpt><trkpt lat="40.76532334026446" lon="17.458844935288504"><ele>180.0</ele><time>2026-04-17T15:01:30.999Z</time></trkpt><trkpt lat="40.76534986852293" lon="17.45894453790064"><ele>180.0</ele><time>2026-04-17T15:01:32.999Z</time></trkpt><trkpt lat="40.76531252562217" lon="17.459033860707127"><ele>180.0</ele><time>2026-04-17T15:01:35.999Z</time></trkpt><trkpt lat="40.765344122951575" lon="17.45911590504371"><ele>180.0</ele><time>2026-04-17T15:01:38.999Z</time></trkpt><trkpt lat="40.76540792854115" lon="17.459170269020674"><ele>180.0</ele><time>2026-04-17T15:01:42.999Z</time></trkpt><trkpt lat="40.765480893435864" lon="17.45920470803218"><ele>180.0</ele><time>2026-04-17T15:01:45.999Z</time></trkpt><trkpt lat="40.76554521735778" lon="17.45922060757517"><ele>180.0</ele><time>2026-04-17T15:01:49.999Z</time></trkpt><trkpt lat="40.765594942289006" lon="17.45927499296689"><ele>180.0</ele><time>2026-04-17T15:01:52.999Z</time></trkpt><trkpt lat="40.76564853919054" lon="17.459347007057758"><ele>180.0</ele><time>2026-04-17T15:01:56Z</time></trkpt><trkpt lat="40.7657109573071" lon="17.459420411934733"><ele>180.0</ele><time>2026-04-17T15:01:59Z</time></trkpt><trkpt lat="40.76577669710626" lon="17.459481270942096"><ele>180.0</ele><time>2026-04-17T15:02:02Z</time></trkpt><trkpt lat="40.76581649048016" lon="17.45955912768006"><ele>180.0</ele><time>2026-04-17T15:02:05Z</time></trkpt><trkpt lat="40.7658780621528" lon="17.4595990921252"><ele>180.0</ele><time>2026-04-17T15:02:08Z</time></trkpt><trkpt lat="40.765929890380285" lon="17.45966025332902"><ele>180.0</ele><time>2026-04-17T15:02:10Z</time></trkpt><trkpt lat="40.76601960057685" lon="17.459646072804578"><ele>177.25</ele><time>2026-04-17T15:02:13Z</time></trkpt><trkpt lat="40.76608846772553" lon="17.459673872550614"><ele>174.5</ele><time>2026-04-17T15:02:16Z</time></trkpt><trkpt lat="40.76630826620608" lon="17.459776194757918"><ele>171.75</ele><time>2026-04-17T15:02:17Z</time></trkpt><trkpt lat="40.76635610152026" lon="17.459870914893585"><ele>169.0</ele><time>2026-04-17T15:02:18Z</time></trkpt><trkpt lat="40.76641426940201" lon="17.459929732118223"><ele>169.0</ele><time>2026-04-17T15:02:19Z</time></trkpt><trkpt lat="40.76649271225306" lon="17.459983321543362"><ele>169.0</ele><time>2026-04-17T15:02:20Z</time></trkpt><trkpt lat="40.766549851298365" lon="17.46005392840021"><ele>169.0</ele><time>2026-04-17T15:02:21Z</time></trkpt><trkpt lat="40.76659287728831" lon="17.460143032437117"><ele>169.0</ele><time>2026-04-17T15:02:22Z</time></trkpt><trkpt lat="40.766613845054486" lon="17.460244262641034"><ele>169.0</ele><time>2026-04-17T15:02:23Z</time></trkpt><trkpt lat="40.766643317316" lon="17.460330497163145"><ele>169.0</ele><time>2026-04-17T15:02:24Z</time></trkpt><trkpt lat="40.76673304678394" lon="17.460473492693914"><ele>168.66666666666669</ele><time>2026-04-17T15:02:26Z</time></trkpt><trkpt lat="40.76680080836065" lon="17.460526771521284"><ele>168.33333333333334</ele><time>2026-04-17T15:02:27Z</time></trkpt><trkpt lat="40.76686432331523" lon="17.46055653700144"><ele>168.0</ele><time>2026-04-17T15:02:28Z</time></trkpt><trkpt lat="40.76693427634102" lon="17.460593731322536"><ele>167.66666666666666</ele><time>2026-04-17T15:02:29Z</time></trkpt><trkpt lat="40.76701733315912" lon="17.46059660427269"><ele>167.33333333333331</ele><time>2026-04-17T15:02:30Z</time></trkpt><trkpt lat="40.767090659522545" lon="17.460558682361835"><ele>167.0</ele><time>2026-04-17T15:02:31Z</time></trkpt><trkpt lat="40.767165143082956" lon="17.46053220623366"><ele>166.39999999999998</ele><time>2026-04-17T15:02:32Z</time></trkpt><trkpt lat="40.76722691488863" lon="17.46056246586726"><ele>165.79999999999998</ele><time>2026-04-17T15:02:33Z</time></trkpt><trkpt lat="40.76733383075924" lon="17.460539419050626"><ele>165.2</ele><time>2026-04-17T15:02:35Z</time></trkpt><trkpt lat="40.767436324265375" lon="17.460472744058567"><ele>164.6</ele><time>2026-04-17T15:02:37Z</time></trkpt><trkpt lat="40.76748925193509" lon="17.460417716606955"><ele>164.0</ele><time>2026-04-17T15:02:38Z</time></trkpt><trkpt lat="40.76761070083135" lon="17.46034069633393"><ele>162.5</ele><time>2026-04-17T15:02:40Z</time></trkpt><trkpt lat="40.767714432266615" lon="17.46032159807747"><ele>161.0</ele><time>2026-04-17T15:02:42Z</time></trkpt><trkpt lat="40.7677989274223" lon="17.46028136728057"><ele>159.5</ele><time>2026-04-17T15:02:44Z</time></trkpt><trkpt lat="40.767859512544085" lon="17.460242463116366"><ele>158.0</ele><time>2026-04-17T15:02:45Z</time></trkpt><trkpt lat="40.76796285191138" lon="17.46016445526924"><ele>156.5</ele><time>2026-04-17T15:02:47Z</time></trkpt><trkpt lat="40.76800022153864" lon="17.460091791670166"><ele>155.0</ele><time>2026-04-17T15:02:48Z</time></trkpt><trkpt lat="40.76807381734022" lon="17.459998728316524"><ele>155.0</ele><time>2026-04-17T15:02:49.999Z</time></trkpt><trkpt lat="40.76817635395013" lon="17.45998244429543"><ele>155.0</ele><time>2026-04-17T15:02:51.999Z</time></trkpt><trkpt lat="40.768256795984264" lon="17.4599243161621"><ele>155.0</ele><time>2026-04-17T15:02:53.999Z</time></trkpt><trkpt lat="40.76834599979661" lon="17.459857330186413"><ele>155.0</ele><time>2026-04-17T15:02:55.999Z</time></trkpt><trkpt lat="40.768463295381835" lon="17.459823027979688"><ele>155.0</ele><time>2026-04-17T15:02:57.999Z</time></trkpt><trkpt lat="40.76853197871717" lon="17.45979452368204"><ele>154.2</ele><time>2026-04-17T15:02:58.999Z</time></trkpt><trkpt lat="40.768633734822295" lon="17.45973556189982"><ele>153.4</ele><time>2026-04-17T15:03:00.999Z</time></trkpt><trkpt lat="40.76870503426324" lon="17.459727385826223"><ele>152.6</ele><time>2026-04-17T15:03:01.999Z</time></trkpt><trkpt lat="40.768779405877325" lon="17.45972993570731"><ele>151.8</ele><time>2026-04-17T15:03:02.999Z</time></trkpt><trkpt lat="40.76887427172047" lon="17.459705742981594"><ele>151.0</ele><time>2026-04-17T15:03:04.999Z</time></trkpt><trkpt lat="40.768965236190894" lon="17.45959750435906"><ele>151.0</ele><time>2026-04-17T15:03:06.999Z</time></trkpt><trkpt lat="40.76900748016364" lon="17.459502993278992"><ele>151.0</ele><time>2026-04-17T15:03:07.999Z</time></trkpt><trkpt lat="40.769053791277535" lon="17.4594066442135"><ele>151.0</ele><time>2026-04-17T15:03:08.999Z</time></trkpt><trkpt lat="40.76911123151709" lon="17.459346683512187"><ele>151.0</ele><time>2026-04-17T15:03:10.999Z</time></trkpt><trkpt lat="40.769177469365026" lon="17.4594010946161"><ele>151.0</ele><time>2026-04-17T15:03:12.999Z</time></trkpt><trkpt lat="40.76922747123296" lon="17.459475849269552"><ele>151.0</ele><time>2026-04-17T15:03:14.999Z</time></trkpt><trkpt lat="40.76928234920015" lon="17.459523258323358"><ele>151.0</ele><time>2026-04-17T15:03:16.999Z</time></trkpt><trkpt lat="40.76935568492983" lon="17.4595199479102"><ele>151.0</ele><time>2026-04-17T15:03:18.999Z</time></trkpt><trkpt lat="40.7694141667178" lon="17.45946056826854"><ele>151.0</ele><time>2026-04-17T15:03:23.999Z</time></trkpt><trkpt lat="40.769467814360596" lon="17.45935839426458"><ele>151.0</ele><time>2026-04-17T15:03:32.999Z</time></trkpt><trkpt lat="40.76951173855073" lon="17.459292156307736"><ele>151.0</ele><time>2026-04-17T15:03:34.999Z</time></trkpt><trkpt lat="40.76952340541899" lon="17.459196050504563"><ele>151.0</ele><time>2026-04-17T15:03:36.999Z</time></trkpt><trkpt lat="40.76954163267886" lon="17.459100860050235"><ele>149.66666666666669</ele><time>2026-04-17T15:03:38.999Z</time></trkpt><trkpt lat="40.76957653931693" lon="17.459030908226556"><ele>148.33333333333334</ele><time>2026-04-17T15:03:40.999Z</time></trkpt><trkpt lat="40.76961223672371" lon="17.45894590959759"><ele>147.0</ele><time>2026-04-17T15:03:42.999Z</time></trkpt><trkpt lat="40.7696450961296" lon="17.4588287175816"><ele>145.66666666666666</ele><time>2026-04-17T15:03:44.999Z</time></trkpt><trkpt lat="40.769693424358294" lon="17.458741878169437"><ele>144.33333333333331</ele><time>2026-04-17T15:03:46.999Z</time></trkpt><trkpt lat="40.769722066228745" lon="17.458613734516554"><ele>143.0</ele><time>2026-04-17T15:03:48.999Z</time></trkpt><trkpt lat="40.769750071817086" lon="17.458505898691364"><ele>143.0</ele><time>2026-04-17T15:03:50.999Z</time></trkpt><trkpt lat="40.76978470752653" lon="17.458392595187043"><ele>143.0</ele><time>2026-04-17T15:03:52.999Z</time></trkpt><trkpt lat="40.769817429153335" lon="17.45827589893598"><ele>143.0</ele><time>2026-04-17T15:03:54.999Z</time></trkpt><trkpt lat="40.76986207625918" lon="17.458168779595447"><ele>143.0</ele><time>2026-04-17T15:03:56.999Z</time></trkpt><trkpt lat="40.76989288827316" lon="17.458036738679994"><ele>143.0</ele><time>2026-04-17T15:03:58.999Z</time></trkpt><trkpt lat="40.76993623568858" lon="17.457919070806895"><ele>144.8</ele><time>2026-04-17T15:04:01Z</time></trkpt><trkpt lat="40.76998008096498" lon="17.45780783251577"><ele>146.60000000000002</ele><time>2026-04-17T15:04:03Z</time></trkpt><trkpt lat="40.77001557692737" lon="17.457681051315678"><ele>148.39999999999998</ele><time>2026-04-17T15:04:05Z</time></trkpt><trkpt lat="40.77006169004162" lon="17.457552105057335"><ele>150.2</ele><time>2026-04-17T15:04:07Z</time></trkpt><trkpt lat="40.77011256305532" lon="17.457436632468767"><ele>152.0</ele><time>2026-04-17T15:04:09Z</time></trkpt><trkpt lat="40.77014989333921" lon="17.45732336332544"><ele>152.0</ele><time>2026-04-17T15:04:11Z</time></trkpt><trkpt lat="40.77019043853078" lon="17.457191557335587"><ele>152.0</ele><time>2026-04-17T15:04:13Z</time></trkpt><trkpt lat="40.770225921949" lon="17.457063375474945"><ele>152.0</ele><time>2026-04-17T15:04:15Z</time></trkpt><trkpt lat="40.770256624022686" lon="17.456915099796053"><ele>152.0</ele><time>2026-04-17T15:04:17Z</time></trkpt><trkpt lat="40.770285203009486" lon="17.45681083531086"><ele>152.0</ele><time>2026-04-17T15:04:19Z</time></trkpt><trkpt lat="40.77031695730756" lon="17.45665997517601"><ele>153.0</ele><time>2026-04-17T15:04:21Z</time></trkpt><trkpt lat="40.77034543081385" lon="17.45653103664357"><ele>154.0</ele><time>2026-04-17T15:04:23Z</time></trkpt><trkpt lat="40.770387354537746" lon="17.45643642894472"><ele>155.0</ele><time>2026-04-17T15:04:25Z</time></trkpt><trkpt lat="40.770421597115316" lon="17.45633106597615"><ele>156.0</ele><time>2026-04-17T15:04:27Z</time></trkpt><trkpt lat="40.770433629543525" lon="17.456195724260013"><ele>157.0</ele><time>2026-04-17T15:04:29Z</time></trkpt><trkpt lat="40.77042952857125" lon="17.456072094220634"><ele>157.0</ele><time>2026-04-17T15:04:31Z</time></trkpt><trkpt lat="40.77040886028341" lon="17.455956874239725"><ele>157.0</ele><time>2026-04-17T15:04:33Z</time></trkpt><trkpt lat="40.770390525132925" lon="17.455836782618167"><ele>157.0</ele><time>2026-04-17T15:04:35Z</time></trkpt><trkpt lat="40.770388789593575" lon="17.455731235684954"><ele>157.0</ele><time>2026-04-17T15:04:37Z</time></trkpt><trkpt lat="40.77037345427887" lon="17.455613435496517"><ele>157.0</ele><time>2026-04-17T15:04:39Z</time></trkpt><trkpt lat="40.77036869546045" lon="17.455501310113718"><ele>157.0</ele><time>2026-04-17T15:04:41Z</time></trkpt><trkpt lat="40.77036522835146" lon="17.45539782988445"><ele>158.66666666666669</ele><time>2026-04-17T15:04:43Z</time></trkpt><trkpt lat="40.77036629406342" lon="17.455282272521966"><ele>160.33333333333334</ele><time>2026-04-17T15:04:45Z</time></trkpt><trkpt lat="40.77034580232657" lon="17.455166283230316"><ele>162.0</ele><time>2026-04-17T15:04:47Z</time></trkpt><trkpt lat="40.77033567100611" lon="17.455061088560726"><ele>163.66666666666666</ele><time>2026-04-17T15:04:49Z</time></trkpt><trkpt lat="40.770336178550195" lon="17.45496230535526"><ele>165.33333333333331</ele><time>2026-04-17T15:04:51Z</time></trkpt><trkpt lat="40.77031966076424" lon="17.45481969437178"><ele>167.0</ele><time>2026-04-17T15:04:53Z</time></trkpt><trkpt lat="40.770317400645354" lon="17.454729777452677"><ele>167.16666666666666</ele><time>2026-04-17T15:04:55Z</time></trkpt><trkpt lat="40.77030533961158" lon="17.454617399169194"><ele>167.33333333333331</ele><time>2026-04-17T15:04:57Z</time></trkpt><trkpt lat="40.770295578480514" lon="17.45451692891393"><ele>167.5</ele><time>2026-04-17T15:04:58.999Z</time></trkpt><trkpt lat="40.770296845675915" lon="17.454407032956706"><ele>167.66666666666666</ele><time>2026-04-17T15:05:00.999Z</time></trkpt><trkpt lat="40.77027415522179" lon="17.454303715300867"><ele>167.83333333333334</ele><time>2026-04-17T15:05:02.999Z</time></trkpt><trkpt lat="40.77025682434761" lon="17.454191945117277"><ele>168.0</ele><time>2026-04-17T15:05:04.999Z</time></trkpt><trkpt lat="40.770218835156435" lon="17.45408494750445"><ele>168.83333333333334</ele><time>2026-04-17T15:05:06.999Z</time></trkpt><trkpt lat="40.77017419975794" lon="17.45398768443292"><ele>169.66666666666666</ele><time>2026-04-17T15:05:08.999Z</time></trkpt><trkpt lat="40.77013516111898" lon="17.453894802259292"><ele>170.5</ele><time>2026-04-17T15:05:10.999Z</time></trkpt><trkpt lat="40.77009489909354" lon="17.453795831626305"><ele>171.33333333333331</ele><time>2026-04-17T15:05:12.999Z</time></trkpt><trkpt lat="40.770033810680744" lon="17.453713940235506"><ele>172.16666666666666</ele><time>2026-04-17T15:05:14.999Z</time></trkpt><trkpt lat="40.76997084665878" lon="17.453620554736418"><ele>173.0</ele><time>2026-04-17T15:05:16.999Z</time></trkpt><trkpt lat="40.76991127800033" lon="17.45352116570009"><ele>173.0</ele><time>2026-04-17T15:05:19.999Z</time></trkpt><trkpt lat="40.76983364893035" lon="17.45342817231987"><ele>173.0</ele><time>2026-04-17T15:05:22.999Z</time></trkpt><trkpt lat="40.76977691879506" lon="17.453339682433974"><ele>173.0</ele><time>2026-04-17T15:05:24.999Z</time></trkpt><trkpt lat="40.76972857575976" lon="17.453272399215788"><ele>173.0</ele><time>2026-04-17T15:05:26.999Z</time></trkpt><trkpt lat="40.7696431477308" lon="17.453178486425657"><ele>173.0</ele><time>2026-04-17T15:05:28.999Z</time></trkpt><trkpt lat="40.769539075184255" lon="17.453104200361913"><ele>173.0</ele><time>2026-04-17T15:05:30.999Z</time></trkpt><trkpt lat="40.76942244741351" lon="17.453109058832098"><ele>173.0</ele><time>2026-04-17T15:05:32.999Z</time></trkpt><trkpt lat="40.76930925394558" lon="17.45315736166763"><ele>173.0</ele><time>2026-04-17T15:05:34.999Z</time></trkpt><trkpt lat="40.76924528115366" lon="17.453190019258695"><ele>173.0</ele><time>2026-04-17T15:05:35.999Z</time></trkpt><trkpt lat="40.76917705108522" lon="17.45320332101578"><ele>173.0</ele><time>2026-04-17T15:05:36.999Z</time></trkpt><trkpt lat="40.76910370768432" lon="17.453212416490818"><ele>173.0</ele><time>2026-04-17T15:05:37.999Z</time></trkpt><trkpt lat="40.76899050588318" lon="17.453174432977274"><ele>173.60000000000002</ele><time>2026-04-17T15:05:39.999Z</time></trkpt><trkpt lat="40.768895433222234" lon="17.453179682162308"><ele>174.20000000000002</ele><time>2026-04-17T15:05:41.999Z</time></trkpt><trkpt lat="40.76880875543503" lon="17.45324710870991"><ele>174.8</ele><time>2026-04-17T15:05:43.999Z</time></trkpt><trkpt lat="40.76871668147693" lon="17.453313526180793"><ele>175.4</ele><time>2026-04-17T15:05:45.999Z</time></trkpt><trkpt lat="40.76861746640966" lon="17.453360558624375"><ele>176.0</ele><time>2026-04-17T15:05:47.999Z</time></trkpt><trkpt lat="40.768537057485794" lon="17.453412211636593"><ele>176.66666666666666</ele><time>2026-04-17T15:05:49.999Z</time></trkpt><trkpt lat="40.76844844698145" lon="17.453417821931982"><ele>177.33333333333331</ele><time>2026-04-17T15:05:51.999Z</time></trkpt><trkpt lat="40.76838523507271" lon="17.453344198552173"><ele>178.0</ele><time>2026-04-17T15:05:53.999Z</time></trkpt><trkpt lat="40.768317335595704" lon="17.453284960359767"><ele>178.66666666666666</ele><time>2026-04-17T15:05:55.999Z</time></trkpt><trkpt lat="40.76822199159893" lon="17.453259893642542"><ele>179.33333333333334</ele><time>2026-04-17T15:05:57.999Z</time></trkpt><trkpt lat="40.76814381196926" lon="17.453205653382128"><ele>180.0</ele><time>2026-04-17T15:05:59.999Z</time></trkpt><trkpt lat="40.76806634755139" lon="17.4531530065618"><ele>180.0</ele><time>2026-04-17T15:06:01.999Z</time></trkpt><trkpt lat="40.76796402439091" lon="17.453124127247637"><ele>180.0</ele><time>2026-04-17T15:06:03.999Z</time></trkpt><trkpt lat="40.767880067712795" lon="17.453063000816247"><ele>180.0</ele><time>2026-04-17T15:06:06Z</time></trkpt><trkpt lat="40.76778735538143" lon="17.453016920809652"><ele>180.0</ele><time>2026-04-17T15:06:08Z</time></trkpt><trkpt lat="40.76770902632539" lon="17.452976879166258"><ele>180.0</ele><time>2026-04-17T15:06:10Z</time></trkpt><trkpt lat="40.76762383161309" lon="17.452923535272042"><ele>181.33333333333334</ele><time>2026-04-17T15:06:12Z</time></trkpt><trkpt lat="40.767567875247664" lon="17.45288012129658"><ele>182.66666666666666</ele><time>2026-04-17T15:06:13Z</time></trkpt><trkpt lat="40.76747837602872" lon="17.452855457438286"><ele>184.0</ele><time>2026-04-17T15:06:15Z</time></trkpt><trkpt lat="40.767396010056885" lon="17.452808987360783"><ele>185.33333333333331</ele><time>2026-04-17T15:06:17Z</time></trkpt><trkpt lat="40.76731162621438" lon="17.452747146829488"><ele>186.66666666666666</ele><time>2026-04-17T15:06:19Z</time></trkpt><trkpt lat="40.7672338143235" lon="17.45271981424937"><ele>188.0</ele><time>2026-04-17T15:06:21Z</time></trkpt><trkpt lat="40.76716340442381" lon="17.452661552904257"><ele>188.0</ele><time>2026-04-17T15:06:23Z</time></trkpt><trkpt lat="40.767079152448446" lon="17.45260671660092"><ele>188.0</ele><time>2026-04-17T15:06:25Z</time></trkpt><trkpt lat="40.76700148502909" lon="17.45255213501695"><ele>188.0</ele><time>2026-04-17T15:06:27Z</time></trkpt><trkpt lat="40.76691157357189" lon="17.452515575854637"><ele>188.0</ele><time>2026-04-17T15:06:29Z</time></trkpt><trkpt lat="40.76683246592452" lon="17.45246881634324"><ele>188.0</ele><time>2026-04-17T15:06:31Z</time></trkpt><trkpt lat="40.76675048623625" lon="17.452408320060865"><ele>189.33333333333331</ele><time>2026-04-17T15:06:33Z</time></trkpt><trkpt lat="40.766666237801516" lon="17.452368008448712"><ele>190.66666666666666</ele><time>2026-04-17T15:06:35Z</time></trkpt><trkpt lat="40.76658320732383" lon="17.452323987505878"><ele>192.0</ele><time>2026-04-17T15:06:37Z</time></trkpt><trkpt lat="40.76650687780825" lon="17.45228071933602"><ele>193.33333333333331</ele><time>2026-04-17T15:06:39Z</time></trkpt><trkpt lat="40.7664439611042" lon="17.45224536395852"><ele>194.66666666666666</ele><time>2026-04-17T15:06:41Z</time></trkpt><trkpt lat="40.76635420378813" lon="17.452245194868865"><ele>196.0</ele><time>2026-04-17T15:06:44Z</time></trkpt><trkpt lat="40.766297289445156" lon="17.45220959029316"><ele>195.99999999999997</ele><time>2026-04-17T15:06:48Z</time></trkpt><trkpt lat="40.7663388324597" lon="17.452123625377503"><ele>196.0</ele><time>2026-04-17T15:06:50Z</time></trkpt><trkpt lat="40.76636773056524" lon="17.452011847769164"><ele>196.0</ele><time>2026-04-17T15:06:53Z</time></trkpt><trkpt lat="40.76639076341185" lon="17.451894023364588"><ele>196.0</ele><time>2026-04-17T15:06:55.999Z</time></trkpt><trkpt lat="40.76639842500466" lon="17.45180943151201"><ele>195.99999999999997</ele><time>2026-04-17T15:06:57.999Z</time></trkpt><trkpt lat="40.76642279971907" lon="17.451700417083835"><ele>196.0</ele><time>2026-04-17T15:07:00.999Z</time></trkpt><trkpt lat="40.76642857114291" lon="17.451615115575763"><ele>196.42857142857142</ele><time>2026-04-17T15:07:02.999Z</time></trkpt><trkpt lat="40.76642912745294" lon="17.451530544505754"><ele>196.85714285714286</ele><time>2026-04-17T15:07:04.999Z</time></trkpt><trkpt lat="40.76643500341528" lon="17.451440967263764"><ele>197.28571428571428</ele><time>2026-04-17T15:07:06.999Z</time></trkpt><trkpt lat="40.766437231864586" lon="17.451351550004777"><ele>197.71428571428572</ele><time>2026-04-17T15:07:08.999Z</time></trkpt><trkpt lat="40.76644550949733" lon="17.451264153411007"><ele>198.14285714285714</ele><time>2026-04-17T15:07:10.999Z</time></trkpt><trkpt lat="40.76645393292442" lon="17.45117600067902"><ele>198.57142857142856</ele><time>2026-04-17T15:07:12.999Z</time></trkpt><trkpt lat="40.76646302869029" lon="17.451085028649963"><ele>199.0</ele><time>2026-04-17T15:07:14.999Z</time></trkpt><trkpt lat="40.7664667900032" lon="17.450987577030197"><ele>198.99999999999997</ele><time>2026-04-17T15:07:16.999Z</time></trkpt><trkpt lat="40.76646125840868" lon="17.450894811053345"><ele>199.0</ele><time>2026-04-17T15:07:18.999Z</time></trkpt><trkpt lat="40.76646130881795" lon="17.450801587254464"><ele>199.0</ele><time>2026-04-17T15:07:20.999Z</time></trkpt><trkpt lat="40.76645621076756" lon="17.450703010026082"><ele>199.0</ele><time>2026-04-17T15:07:22.999Z</time></trkpt><trkpt lat="40.766446868097056" lon="17.45061895553228"><ele>199.0</ele><time>2026-04-17T15:07:24.999Z</time></trkpt><trkpt lat="40.76643331753184" lon="17.450529321893907"><ele>198.99999999999997</ele><time>2026-04-17T15:07:26.999Z</time></trkpt><trkpt lat="40.766418684491754" lon="17.450442699476064"><ele>199.0</ele><time>2026-04-17T15:07:28.999Z</time></trkpt><trkpt lat="40.766398417714605" lon="17.450356287881263"><ele>198.66666666666666</ele><time>2026-04-17T15:07:30.999Z</time></trkpt><trkpt lat="40.76637231052857" lon="17.45026018213214"><ele>198.33333333333331</ele><time>2026-04-17T15:07:32.999Z</time></trkpt><trkpt lat="40.76634490711631" lon="17.450152552872982"><ele>198.0</ele><time>2026-04-17T15:07:34.999Z</time></trkpt><trkpt lat="40.76631468254706" lon="17.450051091973208"><ele>197.66666666666669</ele><time>2026-04-17T15:07:36.999Z</time></trkpt><trkpt lat="40.76627409737948" lon="17.44998368860563"><ele>197.33333333333334</ele><time>2026-04-17T15:07:37.999Z</time></trkpt><trkpt lat="40.76623674651884" lon="17.449899697738164"><ele>197.0</ele><time>2026-04-17T15:07:39.999Z</time></trkpt><trkpt lat="40.766188425190535" lon="17.449821686369475"><ele>197.00000000000003</ele><time>2026-04-17T15:07:41.999Z</time></trkpt><trkpt lat="40.76612574972831" lon="17.449742778022426"><ele>197.0</ele><time>2026-04-17T15:07:43.999Z</time></trkpt><trkpt lat="40.766064807932466" lon="17.44966408004761"><ele>197.0</ele><time>2026-04-17T15:07:45.999Z</time></trkpt><trkpt lat="40.76599966137007" lon="17.44960313398532"><ele>197.0</ele><time>2026-04-17T15:07:47.999Z</time></trkpt><trkpt lat="40.7659327009693" lon="17.449533745574612"><ele>197.00000000000003</ele><time>2026-04-17T15:07:49.999Z</time></trkpt><trkpt lat="40.76586084569117" lon="17.449480676930065"><ele>197.0</ele><time>2026-04-17T15:07:51.999Z</time></trkpt><trkpt lat="40.76579955877089" lon="17.449434715754354"><ele>198.66666666666669</ele><time>2026-04-17T15:07:53.999Z</time></trkpt><trkpt lat="40.76572196238554" lon="17.449390276829494"><ele>200.33333333333334</ele><time>2026-04-17T15:07:55.999Z</time></trkpt><trkpt lat="40.765655970745456" lon="17.449339672522104"><ele>202.0</ele><time>2026-04-17T15:07:57.999Z</time></trkpt><trkpt lat="40.76559785378555" lon="17.44929556358887"><ele>203.66666666666669</ele><time>2026-04-17T15:07:59.999Z</time></trkpt><trkpt lat="40.765530038350896" lon="17.449238775211246"><ele>205.33333333333334</ele><time>2026-04-17T15:08:01.999Z</time></trkpt><trkpt lat="40.76546978325759" lon="17.449187954534878"><ele>207.0</ele><time>2026-04-17T15:08:03.998Z</time></trkpt><trkpt lat="40.765413569699064" lon="17.44913194031274"><ele>207.0</ele><time>2026-04-17T15:08:05.998Z</time></trkpt><trkpt lat="40.76535363017908" lon="17.449082177275347"><ele>207.0</ele><time>2026-04-17T15:08:07.998Z</time></trkpt><trkpt lat="40.76529697390285" lon="17.44904267588164"><ele>207.0</ele><time>2026-04-17T15:08:09.998Z</time></trkpt><trkpt lat="40.76523454514697" lon="17.448955506757695"><ele>207.0</ele><time>2026-04-17T15:08:13Z</time></trkpt><trkpt lat="40.76520806320996" lon="17.448846558500453"><ele>207.0</ele><time>2026-04-17T15:08:15Z</time></trkpt><trkpt lat="40.76517549760035" lon="17.448754085169433"><ele>207.0</ele><time>2026-04-17T15:08:17Z</time></trkpt><trkpt lat="40.76515695355998" lon="17.448649682557015"><ele>210.33333333333334</ele><time>2026-04-17T15:08:19Z</time></trkpt><trkpt lat="40.765139222427074" lon="17.448560637551335"><ele>213.66666666666669</ele><time>2026-04-17T15:08:21Z</time></trkpt><trkpt lat="40.76512231654933" lon="17.44845738505049"><ele>217.0</ele><time>2026-04-17T15:08:23Z</time></trkpt><trkpt lat="40.76510532476096" lon="17.44836663276127"><ele>220.33333333333334</ele><time>2026-04-17T15:08:25Z</time></trkpt><trkpt lat="40.765083405362695" lon="17.448253606337698"><ele>223.66666666666669</ele><time>2026-04-17T15:08:27Z</time></trkpt><trkpt lat="40.76506597550505" lon="17.44814991569984"><ele>227.0</ele><time>2026-04-17T15:08:29Z</time></trkpt><trkpt lat="40.765078599298704" lon="17.448023266608253"><ele>227.6</ele><time>2026-04-17T15:08:31Z</time></trkpt><trkpt lat="40.76510844598576" lon="17.447897570111003"><ele>228.2</ele><time>2026-04-17T15:08:33Z</time></trkpt><trkpt lat="40.76513562433283" lon="17.447767029047295"><ele>228.8</ele><time>2026-04-17T15:08:35Z</time></trkpt><trkpt lat="40.76518592766874" lon="17.447643745395155"><ele>229.4</ele><time>2026-04-17T15:08:37Z</time></trkpt><trkpt lat="40.76524545239024" lon="17.447508048953352"><ele>230.0</ele><time>2026-04-17T15:08:39Z</time></trkpt><trkpt lat="40.76527880124975" lon="17.447392823272228"><ele>225.8</ele><time>2026-04-17T15:08:41Z</time></trkpt><trkpt lat="40.76531196978873" lon="17.447255550879113"><ele>221.6</ele><time>2026-04-17T15:08:43Z</time></trkpt><trkpt lat="40.76534570254235" lon="17.447136229503766"><ele>217.39999999999998</ele><time>2026-04-17T15:08:45Z</time></trkpt><trkpt lat="40.76538325779411" lon="17.44703348223428"><ele>213.2</ele><time>2026-04-17T15:08:47Z</time></trkpt><trkpt lat="40.76539551955182" lon="17.44692004665218"><ele>209.0</ele><time>2026-04-17T15:08:49Z</time></trkpt><trkpt lat="40.76546104771535" lon="17.446818745382405"><ele>209.0</ele><time>2026-04-17T15:08:51Z</time></trkpt><trkpt lat="40.765495348050194" lon="17.44673567729444"><ele>209.0</ele><time>2026-04-17T15:08:53Z</time></trkpt><trkpt lat="40.76556299472097" lon="17.446628994097072"><ele>209.0</ele><time>2026-04-17T15:08:55Z</time></trkpt><trkpt lat="40.76560758543265" lon="17.44651936428799"><ele>209.0</ele><time>2026-04-17T15:08:57Z</time></trkpt><trkpt lat="40.76566942400469" lon="17.44641264869385"><ele>209.0</ele><time>2026-04-17T15:08:58.999Z</time></trkpt><trkpt lat="40.76572984326873" lon="17.446290659253727"><ele>207.2</ele><time>2026-04-17T15:09:00.999Z</time></trkpt><trkpt lat="40.76580663626813" lon="17.446188397126058"><ele>205.39999999999998</ele><time>2026-04-17T15:09:02.999Z</time></trkpt><trkpt lat="40.76584759938828" lon="17.446107891262578"><ele>203.6</ele><time>2026-04-17T15:09:03.999Z</time></trkpt><trkpt lat="40.765913620004476" lon="17.445992292936054"><ele>201.8</ele><time>2026-04-17T15:09:05.999Z</time></trkpt><trkpt lat="40.76598237765646" lon="17.4458690728172"><ele>200.0</ele><time>2026-04-17T15:09:07.999Z</time></trkpt><trkpt lat="40.76606595470495" lon="17.445728176158752"><ele>200.00000000000003</ele><time>2026-04-17T15:09:09.999Z</time></trkpt><trkpt lat="40.76611424290445" lon="17.44566274542252"><ele>200.0</ele><time>2026-04-17T15:09:10.999Z</time></trkpt><trkpt lat="40.7661593672857" lon="17.445598039731745"><ele>200.0</ele><time>2026-04-17T15:09:11.999Z</time></trkpt><trkpt lat="40.76620521074165" lon="17.445539597331845"><ele>200.0</ele><time>2026-04-17T15:09:12.999Z</time></trkpt><trkpt lat="40.766255070299664" lon="17.445465722406393"><ele>200.00000000000003</ele><time>2026-04-17T15:09:13.999Z</time></trkpt><trkpt lat="40.76633435816843" lon="17.445338586930056"><ele>200.0</ele><time>2026-04-17T15:09:15.999Z</time></trkpt><trkpt lat="40.76638342172808" lon="17.445284214718058"><ele>201.8</ele><time>2026-04-17T15:09:16.999Z</time></trkpt><trkpt lat="40.766478542479405" lon="17.44517596824054"><ele>203.6</ele><time>2026-04-17T15:09:18.999Z</time></trkpt><trkpt lat="40.76655514278361" lon="17.445068521127556"><ele>205.39999999999998</ele><time>2026-04-17T15:09:20.999Z</time></trkpt><trkpt lat="40.76658122796788" lon="17.44495401813485"><ele>207.2</ele><time>2026-04-17T15:09:22.999Z</time></trkpt><trkpt lat="40.76648932140031" lon="17.444858142588757"><ele>209.0</ele><time>2026-04-17T15:09:24.999Z</time></trkpt><trkpt lat="40.766411506845685" lon="17.444838870633372"><ele>209.0</ele><time>2026-04-17T15:09:26.999Z</time></trkpt><trkpt lat="40.76634207558518" lon="17.444804972959606"><ele>209.0</ele><time>2026-04-17T15:09:28.999Z</time></trkpt><trkpt lat="40.76626718359237" lon="17.444765520279603"><ele>209.0</ele><time>2026-04-17T15:09:31.999Z</time></trkpt><trkpt lat="40.76621411669525" lon="17.444710222957283"><ele>209.0</ele><time>2026-04-17T15:09:33.999Z</time></trkpt><trkpt lat="40.76617941060634" lon="17.444635342892937"><ele>209.0</ele><time>2026-04-17T15:09:35.999Z</time></trkpt><trkpt lat="40.76610871453445" lon="17.44460334351559"><ele>209.0</ele><time>2026-04-17T15:09:38.999Z</time></trkpt><trkpt lat="40.76603133857077" lon="17.444613556773763"><ele>209.0</ele><time>2026-04-17T15:09:43.999Z</time></trkpt><trkpt lat="40.7659623643774" lon="17.444681572568758"><ele>213.16666666666669</ele><time>2026-04-17T15:09:47.999Z</time></trkpt><trkpt lat="40.76592481080528" lon="17.444766802493245"><ele>217.33333333333334</ele><time>2026-04-17T15:09:50.999Z</time></trkpt><trkpt lat="40.76588420761525" lon="17.444861248168262"><ele>221.5</ele><time>2026-04-17T15:09:53.999Z</time></trkpt><trkpt lat="40.765827889377846" lon="17.44495143002696"><ele>225.66666666666669</ele><time>2026-04-17T15:09:56.999Z</time></trkpt><trkpt lat="40.76577170071268" lon="17.445049564140987"><ele>229.83333333333334</ele><time>2026-04-17T15:09:58.999Z</time></trkpt><trkpt lat="40.76572768074885" lon="17.445170301663392"><ele>234.0</ele><time>2026-04-17T15:10:00.999Z</time></trkpt><trkpt lat="40.76569052226258" lon="17.445251103776542"><ele>234.0</ele><time>2026-04-17T15:10:02.999Z</time></trkpt><trkpt lat="40.76563948694732" lon="17.445330307300104"><ele>234.0</ele><time>2026-04-17T15:10:04.998Z</time></trkpt><trkpt lat="40.76559560253173" lon="17.445414266574033"><ele>234.0</ele><time>2026-04-17T15:10:06.998Z</time></trkpt><trkpt lat="40.76554974692754" lon="17.445487890157672"><ele>234.0</ele><time>2026-04-17T15:10:08.998Z</time></trkpt><trkpt lat="40.76550053124515" lon="17.445573010501157"><ele>234.0</ele><time>2026-04-17T15:10:10.998Z</time></trkpt><trkpt lat="40.76546365955669" lon="17.44564787270427"><ele>234.0</ele><time>2026-04-17T15:10:12.998Z</time></trkpt><trkpt lat="40.76539940214525" lon="17.44574775196719"><ele>231.83333333333334</ele><time>2026-04-17T15:10:15.998Z</time></trkpt><trkpt lat="40.76536296645102" lon="17.445822029262064"><ele>229.66666666666669</ele><time>2026-04-17T15:10:18Z</time></trkpt><trkpt lat="40.765318357517344" lon="17.44588524069122"><ele>227.5</ele><time>2026-04-17T15:10:20Z</time></trkpt><trkpt lat="40.76525861124331" lon="17.44598796358407"><ele>225.33333333333334</ele><time>2026-04-17T15:10:23Z</time></trkpt><trkpt lat="40.76518573744251" lon="17.44604876592716"><ele>223.16666666666669</ele><time>2026-04-17T15:10:26Z</time></trkpt><trkpt lat="40.76513507412612" lon="17.44613633325064"><ele>221.0</ele><time>2026-04-17T15:10:29Z</time></trkpt><trkpt lat="40.76508622398043" lon="17.44621226196114"><ele>224.33333333333334</ele><time>2026-04-17T15:10:31Z</time></trkpt><trkpt lat="40.76504894915029" lon="17.446280406314635"><ele>227.66666666666669</ele><time>2026-04-17T15:10:33Z</time></trkpt><trkpt lat="40.76499168123361" lon="17.446368338183074"><ele>231.0</ele><time>2026-04-17T15:10:36Z</time></trkpt><trkpt lat="40.76493302695763" lon="17.446448334408267"><ele>234.33333333333331</ele><time>2026-04-17T15:10:39Z</time></trkpt><trkpt lat="40.76487699097149" lon="17.44652098089893"><ele>237.66666666666666</ele><time>2026-04-17T15:10:42Z</time></trkpt><trkpt lat="40.764832067724775" lon="17.446593084969358"><ele>241.0</ele><time>2026-04-17T15:10:44Z</time></trkpt><trkpt lat="40.764762702930156" lon="17.446671690893943"><ele>240.99999999999997</ele><time>2026-04-17T15:10:47Z</time></trkpt><trkpt lat="40.764695799078424" lon="17.446700581774255"><ele>241.0</ele><time>2026-04-17T15:10:51Z</time></trkpt><trkpt lat="40.764619303053806" lon="17.446785705878277"><ele>241.0</ele><time>2026-04-17T15:10:54Z</time></trkpt><trkpt lat="40.76454910766638" lon="17.44684890117127"><ele>241.0</ele><time>2026-04-17T15:10:58Z</time></trkpt><trkpt lat="40.76447525414873" lon="17.44690442036544"><ele>240.99999999999997</ele><time>2026-04-17T15:11:02Z</time></trkpt><trkpt lat="40.764409605946035" lon="17.4469527592055"><ele>241.0</ele><time>2026-04-17T15:11:05Z</time></trkpt><trkpt lat="40.764364292511324" lon="17.44701867805141"><ele>244.16666666666666</ele><time>2026-04-17T15:11:07.999Z</time></trkpt><trkpt lat="40.76428981244818" lon="17.44712897303616"><ele>247.33333333333331</ele><time>2026-04-17T15:11:10.999Z</time></trkpt><trkpt lat="40.764243373898225" lon="17.4472026290296"><ele>250.5</ele><time>2026-04-17T15:11:13.999Z</time></trkpt><trkpt lat="40.76418579450464" lon="17.447292729696734"><ele>253.66666666666669</ele><time>2026-04-17T15:11:15.999Z</time></trkpt><trkpt lat="40.76413860280606" lon="17.447384187461033"><ele>256.83333333333337</ele><time>2026-04-17T15:11:17.999Z</time></trkpt><trkpt lat="40.764099798203446" lon="17.44747310302496"><ele>260.0</ele><time>2026-04-17T15:11:19.999Z</time></trkpt><trkpt lat="40.764065087185635" lon="17.447564189857523"><ele>260.0</ele><time>2026-04-17T15:11:21.999Z</time></trkpt><trkpt lat="40.76402521542175" lon="17.447654019742114"><ele>260.0</ele><time>2026-04-17T15:11:24.999Z</time></trkpt><trkpt lat="40.76399160899113" lon="17.447738723194785"><ele>260.0</ele><time>2026-04-17T15:11:26.999Z</time></trkpt><trkpt lat="40.763957232271395" lon="17.447855344578322"><ele>260.0</ele><time>2026-04-17T15:11:29.999Z</time></trkpt><trkpt lat="40.763930687551486" lon="17.447941289166483"><ele>260.0</ele><time>2026-04-17T15:11:31.999Z</time></trkpt><trkpt lat="40.763903771591586" lon="17.448063161241944"><ele>260.0</ele><time>2026-04-17T15:11:34.999Z</time></trkpt><trkpt lat="40.76387312269888" lon="17.44814408592189"><ele>259.5</ele><time>2026-04-17T15:11:36.999Z</time></trkpt><trkpt lat="40.76385513639475" lon="17.44824379471852"><ele>259.0</ele><time>2026-04-17T15:11:39.999Z</time></trkpt><trkpt lat="40.763833061322494" lon="17.44833600002323"><ele>258.5</ele><time>2026-04-17T15:11:41.999Z</time></trkpt><trkpt lat="40.76382036803684" lon="17.448426401992524"><ele>258.0</ele><time>2026-04-17T15:11:43.999Z</time></trkpt><trkpt lat="40.76379896177778" lon="17.448528874949268"><ele>257.5</ele><time>2026-04-17T15:11:46.999Z</time></trkpt><trkpt lat="40.76377918915964" lon="17.4486268927302"><ele>257.0</ele><time>2026-04-17T15:11:49.999Z</time></trkpt><trkpt lat="40.76377267663905" lon="17.448743910192494"><ele>257.5</ele><time>2026-04-17T15:11:52.999Z</time></trkpt><trkpt lat="40.76376519500764" lon="17.448860582294444"><ele>258.0</ele><time>2026-04-17T15:11:55.999Z</time></trkpt><trkpt lat="40.763774080147016" lon="17.448959626776194"><ele>258.5</ele><time>2026-04-17T15:11:59.999Z</time></trkpt><trkpt lat="40.76378629182106" lon="17.449047619443228"><ele>259.0</ele><time>2026-04-17T15:12:02.999Z</time></trkpt><trkpt lat="40.76372514594316" lon="17.44899710489421"><ele>259.5</ele><time>2026-04-17T15:12:08.999Z</time></trkpt><trkpt lat="40.763701841267384" lon="17.448887752660816"><ele>260.0</ele><time>2026-04-17T15:12:11.999Z</time></trkpt><trkpt lat="40.763681104448246" lon="17.448799653638037"><ele>259.5</ele><time>2026-04-17T15:12:13.999Z</time></trkpt><trkpt lat="40.763646055346754" lon="17.448686801023097"><ele>259.0</ele><time>2026-04-17T15:12:16.998Z</time></trkpt><trkpt lat="40.76362525820309" lon="17.44859191958177"><ele>258.5</ele><time>2026-04-17T15:12:18.998Z</time></trkpt><trkpt lat="40.76361635960788" lon="17.448493610687883"><ele>258.0</ele><time>2026-04-17T15:12:21.998Z</time></trkpt><trkpt lat="40.763617416408664" lon="17.448391185875533"><ele>257.5</ele><time>2026-04-17T15:12:24Z</time></trkpt><trkpt lat="40.76361122560176" lon="17.448269748297033"><ele>257.0</ele><time>2026-04-17T15:12:26Z</time></trkpt><trkpt lat="40.76359874666954" lon="17.448141903795435"><ele>257.0</ele><time>2026-04-17T15:12:29Z</time></trkpt><trkpt lat="40.76358129357284" lon="17.44804767306982"><ele>257.0</ele><time>2026-04-17T15:12:31Z</time></trkpt><trkpt lat="40.763570398667824" lon="17.447954316793652"><ele>257.0</ele><time>2026-04-17T15:12:33Z</time></trkpt><trkpt lat="40.763585351824055" lon="17.4478422308439"><ele>257.0</ele><time>2026-04-17T15:12:35Z</time></trkpt><trkpt lat="40.76356613775978" lon="17.447726737581704"><ele>257.0</ele><time>2026-04-17T15:12:38Z</time></trkpt><trkpt lat="40.76357866504973" lon="17.447640728971983"><ele>257.0</ele><time>2026-04-17T15:12:40Z</time></trkpt><trkpt lat="40.76357995313736" lon="17.44754524400218"><ele>257.5</ele><time>2026-04-17T15:12:42Z</time></trkpt><trkpt lat="40.76355936989312" lon="17.44741585875808"><ele>258.0</ele><time>2026-04-17T15:12:45Z</time></trkpt><trkpt lat="40.763569804554514" lon="17.447321424022526"><ele>258.5</ele><time>2026-04-17T15:12:47Z</time></trkpt><trkpt lat="40.763534550315484" lon="17.44725051847278"><ele>259.0</ele><time>2026-04-17T15:12:49Z</time></trkpt><trkpt lat="40.763566725064365" lon="17.44713414671217"><ele>259.5</ele><time>2026-04-17T15:12:52Z</time></trkpt><trkpt lat="40.7635605663771" lon="17.447049631850142"><ele>260.0</ele><time>2026-04-17T15:12:54Z</time></trkpt><trkpt lat="40.763578642521324" lon="17.446943445060935"><ele>262.6</ele><time>2026-04-17T15:12:56Z</time></trkpt><trkpt lat="40.763613610899505" lon="17.446854260574554"><ele>265.2</ele><time>2026-04-17T15:12:59Z</time></trkpt><trkpt lat="40.76363848152793" lon="17.446767819237785"><ele>267.8</ele><time>2026-04-17T15:13:01Z</time></trkpt><trkpt lat="40.76375977874248" lon="17.446674354931176"><ele>270.4</ele><time>2026-04-17T15:13:04Z</time></trkpt><trkpt lat="40.763806236592046" lon="17.446583086578695"><ele>273.0</ele><time>2026-04-17T15:13:06Z</time></trkpt><trkpt lat="40.7638687481482" lon="17.44647141019172"><ele>273.0</ele><time>2026-04-17T15:13:08Z</time></trkpt><trkpt lat="40.763930438030684" lon="17.446370510932947"><ele>273.0</ele><time>2026-04-17T15:13:11Z</time></trkpt><trkpt lat="40.76395892278661" lon="17.446255829908708"><ele>273.0</ele><time>2026-04-17T15:13:13.999Z</time></trkpt><trkpt lat="40.763999810027556" lon="17.44618115145355"><ele>273.0</ele><time>2026-04-17T15:13:15.999Z</time></trkpt><trkpt lat="40.7640369615355" lon="17.446105802550367"><ele>273.0</ele><time>2026-04-17T15:13:17.999Z</time></trkpt><trkpt lat="40.764072287967934" lon="17.44603307763752"><ele>273.0</ele><time>2026-04-17T15:13:19.999Z</time></trkpt><trkpt lat="40.764114500871564" lon="17.445957898485126"><ele>276.4</ele><time>2026-04-17T15:13:21.999Z</time></trkpt><trkpt lat="40.76416483031801" lon="17.445905365086688"><ele>279.8</ele><time>2026-04-17T15:13:23.999Z</time></trkpt><trkpt lat="40.76422592139486" lon="17.445808895473476"><ele>283.2</ele><time>2026-04-17T15:13:25.999Z</time></trkpt><trkpt lat="40.76426434122359" lon="17.445669475671465"><ele>286.6</ele><time>2026-04-17T15:13:28.999Z</time></trkpt><trkpt lat="40.76427041855918" lon="17.445538791869335"><ele>290.0</ele><time>2026-04-17T15:13:31.999Z</time></trkpt><trkpt lat="40.76432571978662" lon="17.445461759310223"><ele>292.83333333333337</ele><time>2026-04-17T15:13:33.999Z</time></trkpt><trkpt lat="40.76434966805564" lon="17.445348905233814"><ele>295.6666666666667</ele><time>2026-04-17T15:13:35.999Z</time></trkpt><trkpt lat="40.76441061262134" lon="17.445271348211335"><ele>298.5</ele><time>2026-04-17T15:13:37.999Z</time></trkpt><trkpt lat="40.76442875974915" lon="17.44516427384695"><ele>301.3333333333333</ele><time>2026-04-17T15:13:39.999Z</time></trkpt><trkpt lat="40.76445233375499" lon="17.445067208128116"><ele>304.16666666666663</ele><time>2026-04-17T15:13:41.999Z</time></trkpt><trkpt lat="40.764453157807964" lon="17.444926399835346"><ele>307.0</ele><time>2026-04-17T15:13:44.999Z</time></trkpt><trkpt lat="40.76447001310761" lon="17.44482277822936"><ele>303.3333333333333</ele><time>2026-04-17T15:13:46.999Z</time></trkpt><trkpt lat="40.764502988890754" lon="17.444697359320152"><ele>299.66666666666663</ele><time>2026-04-17T15:13:49.999Z</time></trkpt><trkpt lat="40.764500673819654" lon="17.444601605476116"><ele>296.0</ele><time>2026-04-17T15:13:51.999Z</time></trkpt><trkpt lat="40.7645198627293" lon="17.4445086989669"><ele>292.3333333333333</ele><time>2026-04-17T15:13:53.999Z</time></trkpt><trkpt lat="40.764542529062794" lon="17.444422136240753"><ele>288.6666666666667</ele><time>2026-04-17T15:13:55.999Z</time></trkpt><trkpt lat="40.76449092116909" lon="17.444316467155847"><ele>285.0</ele><time>2026-04-17T15:13:59.999Z</time></trkpt><trkpt lat="40.76452282081953" lon="17.44417057352216"><ele>285.0</ele><time>2026-04-17T15:14:02.999Z</time></trkpt><trkpt lat="40.76454691261617" lon="17.444053565604626"><ele>285.0</ele><time>2026-04-17T15:14:06.999Z</time></trkpt><trkpt lat="40.764569260419776" lon="17.443938980414305"><ele>285.0</ele><time>2026-04-17T15:14:09.999Z</time></trkpt><trkpt lat="40.7645685266131" lon="17.443853521329117"><ele>285.0</ele><time>2026-04-17T15:14:11.999Z</time></trkpt><trkpt lat="40.76461122230335" lon="17.443777947341452"><ele>285.0</ele><time>2026-04-17T15:14:13.999Z</time></trkpt><trkpt lat="40.76463969824806" lon="17.443643164837788"><ele>285.0</ele><time>2026-04-17T15:14:15.999Z</time></trkpt><trkpt lat="40.764653373979506" lon="17.443560607423986"><ele>287.1666666666667</ele><time>2026-04-17T15:14:16.999Z</time></trkpt><trkpt lat="40.76466820367083" lon="17.44343971855769"><ele>289.3333333333333</ele><time>2026-04-17T15:14:18.999Z</time></trkpt><trkpt lat="40.76471667421805" lon="17.443308200322054"><ele>291.5</ele><time>2026-04-17T15:14:20.998Z</time></trkpt><trkpt lat="40.764740106636374" lon="17.443226882148814"><ele>293.66666666666663</ele><time>2026-04-17T15:14:22.998Z</time></trkpt><trkpt lat="40.764775671415855" lon="17.443114094812195"><ele>295.8333333333333</ele><time>2026-04-17T15:14:24.998Z</time></trkpt><trkpt lat="40.764797910943564" lon="17.443036026693694"><ele>298.0</ele><time>2026-04-17T15:14:26.998Z</time></trkpt><trkpt lat="40.76484595400426" lon="17.442918258667937"><ele>300.16666666666663</ele><time>2026-04-17T15:14:28.998Z</time></trkpt><trkpt lat="40.76486230479268" lon="17.442818711988345"><ele>302.3333333333333</ele><time>2026-04-17T15:14:31Z</time></trkpt><trkpt lat="40.764887882466525" lon="17.442732912352117"><ele>304.5</ele><time>2026-04-17T15:14:32Z</time></trkpt><trkpt lat="40.76491496935506" lon="17.44262409588753"><ele>306.6666666666667</ele><time>2026-04-17T15:14:34Z</time></trkpt><trkpt lat="40.76495156560756" lon="17.44250526133522"><ele>308.83333333333337</ele><time>2026-04-17T15:14:36Z</time></trkpt><trkpt lat="40.764962650675294" lon="17.442396958261757"><ele>311.0</ele><time>2026-04-17T15:14:38Z</time></trkpt><trkpt lat="40.76500047852245" lon="17.44230466451877"><ele>311.0</ele><time>2026-04-17T15:14:40Z</time></trkpt><trkpt lat="40.765023711906" lon="17.442194737830278"><ele>311.0</ele><time>2026-04-17T15:14:42Z</time></trkpt><trkpt lat="40.76503430488454" lon="17.442056057447775"><ele>311.0</ele><time>2026-04-17T15:14:44Z</time></trkpt><trkpt lat="40.765082132876216" lon="17.441933839371963"><ele>311.0</ele><time>2026-04-17T15:14:46Z</time></trkpt><trkpt lat="40.76511993675931" lon="17.441802873366694"><ele>311.0</ele><time>2026-04-17T15:14:48Z</time></trkpt><trkpt lat="40.76514537875805" lon="17.441687583137092"><ele>313.20000000000005</ele><time>2026-04-17T15:14:50Z</time></trkpt><trkpt lat="40.76516870586096" lon="17.441569234996273"><ele>315.40000000000003</ele><time>2026-04-17T15:14:52Z</time></trkpt><trkpt lat="40.765240754257874" lon="17.441455260702377"><ele>317.6</ele><time>2026-04-17T15:14:54Z</time></trkpt><trkpt lat="40.7652828413436" lon="17.441361171111353"><ele>319.8</ele><time>2026-04-17T15:14:56Z</time></trkpt><trkpt lat="40.765294019863134" lon="17.441249656293156"><ele>322.0</ele><time>2026-04-17T15:14:58Z</time></trkpt><trkpt lat="40.76530693744777" lon="17.441118219690214"><ele>317.0</ele><time>2026-04-17T15:15:00Z</time></trkpt><trkpt lat="40.765308329349075" lon="17.44103454835719"><ele>312.0</ele><time>2026-04-17T15:15:02Z</time></trkpt><trkpt lat="40.7653006344541" lon="17.440906331738304"><ele>307.0</ele><time>2026-04-17T15:15:06Z</time></trkpt><trkpt lat="40.765274596676605" lon="17.440800711717092"><ele>302.0</ele><time>2026-04-17T15:15:08Z</time></trkpt><trkpt lat="40.76525073314926" lon="17.440681510693327"><ele>297.0</ele><time>2026-04-17T15:15:10Z</time></trkpt><trkpt lat="40.765221991261036" lon="17.44053720589245"><ele>299.6666666666667</ele><time>2026-04-17T15:15:12Z</time></trkpt><trkpt lat="40.76517354398138" lon="17.440405253450656"><ele>302.3333333333333</ele><time>2026-04-17T15:15:14Z</time></trkpt><trkpt lat="40.76512889618909" lon="17.440343346007488"><ele>305.0</ele><time>2026-04-17T15:15:15Z</time></trkpt><trkpt lat="40.76508629672178" lon="17.44023469970707"><ele>307.66666666666663</ele><time>2026-04-17T15:15:16.999Z</time></trkpt><trkpt lat="40.76503807112095" lon="17.440146866004838"><ele>310.3333333333333</ele><time>2026-04-17T15:15:18.999Z</time></trkpt><trkpt lat="40.76498505360124" lon="17.44004617013447"><ele>313.0</ele><time>2026-04-17T15:15:20.999Z</time></trkpt><trkpt lat="40.76492368035519" lon="17.439987747712532"><ele>313.0</ele><time>2026-04-17T15:15:22.999Z</time></trkpt><trkpt lat="40.76486371666179" lon="17.439928002639615"><ele>313.0</ele><time>2026-04-17T15:15:25.999Z</time></trkpt><trkpt lat="40.76485158850631" lon="17.439824261657474"><ele>313.0</ele><time>2026-04-17T15:15:28.999Z</time></trkpt><trkpt lat="40.76482773984533" lon="17.439740125436614"><ele>313.0</ele><time>2026-04-17T15:15:31.999Z</time></trkpt><trkpt lat="40.76479540028985" lon="17.43962449030906"><ele>313.0</ele><time>2026-04-17T15:15:34.999Z</time></trkpt><trkpt lat="40.764747837286826" lon="17.439568948812582"><ele>313.0</ele><time>2026-04-17T15:15:37.999Z</time></trkpt><trkpt lat="40.7647170530682" lon="17.43945792882917"><ele>313.7142857142857</ele><time>2026-04-17T15:15:40.999Z</time></trkpt><trkpt lat="40.764669316952485" lon="17.439400565104062"><ele>314.42857142857144</ele><time>2026-04-17T15:15:43.999Z</time></trkpt><trkpt lat="40.76460618035462" lon="17.43935901297726"><ele>315.1428571428571</ele><time>2026-04-17T15:15:45.999Z</time></trkpt><trkpt lat="40.764538458191524" lon="17.43932770041384"><ele>315.8571428571429</ele><time>2026-04-17T15:15:48.999Z</time></trkpt><trkpt lat="40.764473655650555" lon="17.43931501281048"><ele>316.5714285714286</ele><time>2026-04-17T15:15:51.999Z</time></trkpt><trkpt lat="40.76438833217284" lon="17.439394794599277"><ele>317.2857142857143</ele><time>2026-04-17T15:15:54.999Z</time></trkpt><trkpt lat="40.76432679369104" lon="17.439440459516955"><ele>318.0</ele><time>2026-04-17T15:15:59.999Z</time></trkpt><trkpt lat="40.76428720953479" lon="17.43951254731061"><ele>318.0</ele><time>2026-04-17T15:16:04.999Z</time></trkpt><trkpt lat="40.764229661882744" lon="17.43955913085298"><ele>318.0</ele><time>2026-04-17T15:16:16.999Z</time></trkpt><trkpt lat="40.764181952686926" lon="17.439620550311282"><ele>318.0</ele><time>2026-04-17T15:18:30.998Z</time></trkpt><trkpt lat="40.76422715975649" lon="17.439720594445497"><ele>318.0</ele><time>2026-04-17T15:18:46Z</time></trkpt><trkpt lat="40.76426250963053" lon="17.43981584409447"><ele>318.0</ele><time>2026-04-17T15:18:49Z</time></trkpt><trkpt lat="40.76429726109026" lon="17.439901761775445"><ele>318.0</ele><time>2026-04-17T15:18:52Z</time></trkpt><trkpt lat="40.764326268327885" lon="17.439977133923527"><ele>318.0</ele><time>2026-04-17T15:18:54Z</time></trkpt><trkpt lat="40.76432616089173" lon="17.44007177289144"><ele>317.2857142857143</ele><time>2026-04-17T15:18:57Z</time></trkpt><trkpt lat="40.76438385926527" lon="17.440122227397627"><ele>316.5714285714286</ele><time>2026-04-17T15:19:01Z</time></trkpt><trkpt lat="40.76439783508452" lon="17.440209731640078"><ele>315.8571428571429</ele><time>2026-04-17T15:19:05Z</time></trkpt><trkpt lat="40.76443241188156" lon="17.440315917835008"><ele>315.1428571428571</ele><time>2026-04-17T15:19:09Z</time></trkpt><trkpt lat="40.76446926598535" lon="17.440391651568046"><ele>314.42857142857144</ele><time>2026-04-17T15:19:12Z</time></trkpt><trkpt lat="40.76449129157556" lon="17.44048246760227"><ele>313.7142857142857</ele><time>2026-04-17T15:19:15Z</time></trkpt><trkpt lat="40.76450584302392" lon="17.440571623633257"><ele>313.0</ele><time>2026-04-17T15:19:19Z</time></trkpt><trkpt lat="40.76452257041142" lon="17.440663563555997"><ele>315.0</ele><time>2026-04-17T15:19:22Z</time></trkpt><trkpt lat="40.76454970690529" lon="17.44074053775569"><ele>317.0</ele><time>2026-04-17T15:19:24.999Z</time></trkpt><trkpt lat="40.76459571134246" lon="17.440808510353147"><ele>319.0</ele><time>2026-04-17T15:19:35.999Z</time></trkpt><trkpt lat="40.76462851622893" lon="17.440881473632956"><ele>321.0</ele><time>2026-04-17T15:19:51.999Z</time></trkpt><trkpt lat="40.76467676045248" lon="17.44093751298389"><ele>323.0</ele><time>2026-04-17T15:21:13Z</time></trkpt><trkpt lat="40.764630794574614" lon="17.441023711710628"><ele>325.0</ele><time>2026-04-17T15:21:19Z</time></trkpt><trkpt lat="40.764538696125584" lon="17.44114604100962"><ele>325.0</ele><time>2026-04-17T15:21:33Z</time></trkpt><trkpt lat="40.76452527770224" lon="17.441234312889613"><ele>325.0</ele><time>2026-04-17T15:21:56.999Z</time></trkpt><trkpt lat="40.7644773362465" lon="17.441334113125208"><ele>325.0</ele><time>2026-04-17T15:22:00.999Z</time></trkpt><trkpt lat="40.76444436349722" lon="17.44141436234823"><ele>325.0</ele><time>2026-04-17T15:22:03.999Z</time></trkpt><trkpt lat="40.76437910370847" lon="17.44141256195633"><ele>325.0</ele><time>2026-04-17T15:22:06.999Z</time></trkpt><trkpt lat="40.76432942064493" lon="17.44147816749424"><ele>325.0</ele><time>2026-04-17T15:22:09.999Z</time></trkpt><trkpt lat="40.764294602975816" lon="17.44155167800715"><ele>325.0</ele><time>2026-04-17T15:22:12.999Z</time></trkpt><trkpt lat="40.76425496206066" lon="17.44162776736428"><ele>327.3333333333333</ele><time>2026-04-17T15:22:14.999Z</time></trkpt><trkpt lat="40.76421403402155" lon="17.44171542917851"><ele>329.66666666666663</ele><time>2026-04-17T15:22:17.999Z</time></trkpt><trkpt lat="40.76417983355052" lon="17.44182131808148"><ele>332.0</ele><time>2026-04-17T15:22:20.999Z</time></trkpt><trkpt lat="40.764148640783205" lon="17.44192335419058"><ele>334.3333333333333</ele><time>2026-04-17T15:22:24.999Z</time></trkpt><trkpt lat="40.764086228000316" lon="17.441993594585657"><ele>336.6666666666667</ele><time>2026-04-17T15:22:27.999Z</time></trkpt><trkpt lat="40.76403681475754" lon="17.44206870395473"><ele>339.0</ele><time>2026-04-17T15:22:30.999Z</time></trkpt><trkpt lat="40.76402579220017" lon="17.442154411796302"><ele>339.0</ele><time>2026-04-17T15:22:34.999Z</time></trkpt><trkpt lat="40.76399366845414" lon="17.44223443521042"><ele>339.0</ele><time>2026-04-17T15:22:39.999Z</time></trkpt><trkpt lat="40.76398467818348" lon="17.442329910171605"><ele>339.0</ele><time>2026-04-17T15:22:52.998Z</time></trkpt><trkpt lat="40.76393696642818" lon="17.442409113432724"><ele>339.0</ele><time>2026-04-17T15:23:02Z</time></trkpt><trkpt lat="40.76390361110113" lon="17.44248506647488"><ele>339.0</ele><time>2026-04-17T15:23:07Z</time></trkpt><trkpt lat="40.763881936721425" lon="17.442585655268168"><ele>339.0</ele><time>2026-04-17T15:23:12Z</time></trkpt><trkpt lat="40.7638360865515" lon="17.442680477261643"><ele>339.0</ele><time>2026-04-17T15:23:15Z</time></trkpt><trkpt lat="40.763774171284446" lon="17.442720924981412"><ele>339.0</ele><time>2026-04-17T15:23:17Z</time></trkpt><trkpt lat="40.76373865047358" lon="17.442823043658684"><ele>339.0</ele><time>2026-04-17T15:23:20Z</time></trkpt><trkpt lat="40.76374689737361" lon="17.4429386516843"><ele>339.0</ele><time>2026-04-17T15:23:25Z</time></trkpt><trkpt lat="40.763718312114" lon="17.443014579830418"><ele>339.0</ele><time>2026-04-17T15:23:28Z</time></trkpt><trkpt lat="40.7636853914771" lon="17.443111615817532"><ele>339.0</ele><time>2026-04-17T15:23:31Z</time></trkpt><trkpt lat="40.76366909642235" lon="17.443199785532183"><ele>339.0</ele><time>2026-04-17T15:23:34Z</time></trkpt><trkpt lat="40.76370643219516" lon="17.443292102014432"><ele>338.57142857142856</ele><time>2026-04-17T15:23:37Z</time></trkpt><trkpt lat="40.76367428587463" lon="17.44336877547077"><ele>338.14285714285717</ele><time>2026-04-17T15:23:41Z</time></trkpt><trkpt lat="40.76365087716111" lon="17.443451414988417"><ele>337.7142857142857</ele><time>2026-04-17T15:23:44Z</time></trkpt><trkpt lat="40.76364822039417" lon="17.443542855495405"><ele>337.2857142857143</ele><time>2026-04-17T15:23:49.999Z</time></trkpt><trkpt lat="40.76362319342568" lon="17.443629729312043"><ele>336.8571428571429</ele><time>2026-04-17T15:24:03.999Z</time></trkpt><trkpt lat="40.76360085382852" lon="17.443721730867537"><ele>336.42857142857144</ele><time>2026-04-17T15:24:07.999Z</time></trkpt><trkpt lat="40.76356747651738" lon="17.443827076026523"><ele>336.0</ele><time>2026-04-17T15:24:10.999Z</time></trkpt><trkpt lat="40.76352102762749" lon="17.44396433378757"><ele>337.8333333333333</ele><time>2026-04-17T15:24:13.999Z</time></trkpt><trkpt lat="40.763462604471165" lon="17.44401331582536"><ele>339.6666666666667</ele><time>2026-04-17T15:24:15.999Z</time></trkpt><trkpt lat="40.763417729633616" lon="17.44412098906786"><ele>341.5</ele><time>2026-04-17T15:24:19.999Z</time></trkpt><trkpt lat="40.763380467835105" lon="17.44419467632422"><ele>343.33333333333337</ele><time>2026-04-17T15:24:22.999Z</time></trkpt><trkpt lat="40.76339894905719" lon="17.444294583348807"><ele>345.1666666666667</ele><time>2026-04-17T15:24:27.999Z</time></trkpt><trkpt lat="40.763393532164635" lon="17.444389709195264"><ele>347.0</ele><time>2026-04-17T15:24:30.999Z</time></trkpt><trkpt lat="40.76336053464469" lon="17.444496028957673"><ele>347.0</ele><time>2026-04-17T15:24:32.999Z</time></trkpt><trkpt lat="40.76332613414452" lon="17.44456825770475"><ele>347.0</ele><time>2026-04-17T15:24:35.999Z</time></trkpt><trkpt lat="40.763292231136695" lon="17.444706013845707"><ele>347.0</ele><time>2026-04-17T15:24:37.999Z</time></trkpt><trkpt lat="40.76327380716396" lon="17.44483699214546"><ele>347.0</ele><time>2026-04-17T15:24:39.999Z</time></trkpt><trkpt lat="40.7632412108721" lon="17.444931496786413"><ele>347.0</ele><time>2026-04-17T15:24:41.999Z</time></trkpt><trkpt lat="40.76319097622581" lon="17.445029944676648"><ele>347.0</ele><time>2026-04-17T15:24:43.999Z</time></trkpt><trkpt lat="40.76312163428433" lon="17.445145422024325"><ele>346.40000000000003</ele><time>2026-04-17T15:24:45.999Z</time></trkpt><trkpt lat="40.763072433581684" lon="17.44525847842204"><ele>345.8</ele><time>2026-04-17T15:24:47.999Z</time></trkpt><trkpt lat="40.76304264452599" lon="17.44538264479795"><ele>345.2</ele><time>2026-04-17T15:24:49.998Z</time></trkpt><trkpt lat="40.76296548968941" lon="17.445454384410066"><ele>344.6</ele><time>2026-04-17T15:24:52.998Z</time></trkpt><trkpt lat="40.76290384492937" lon="17.44555569337687"><ele>344.0</ele><time>2026-04-17T15:24:54.998Z</time></trkpt><trkpt lat="40.76283720013376" lon="17.445632029435924"><ele>344.6</ele><time>2026-04-17T15:24:56.998Z</time></trkpt><trkpt lat="40.76276811195106" lon="17.445729207959083"><ele>345.2</ele><time>2026-04-17T15:24:58.998Z</time></trkpt><trkpt lat="40.76271117724212" lon="17.445843640603506"><ele>345.8</ele><time>2026-04-17T15:25:01Z</time></trkpt><trkpt lat="40.76262819984691" lon="17.445922438094183"><ele>346.40000000000003</ele><time>2026-04-17T15:25:03Z</time></trkpt><trkpt lat="40.762631139669494" lon="17.446039520683353"><ele>347.0</ele><time>2026-04-17T15:25:04Z</time></trkpt><trkpt lat="40.76261992923823" lon="17.446134886535837"><ele>347.0</ele><time>2026-04-17T15:25:06Z</time></trkpt><trkpt lat="40.76257523450205" lon="17.44627746352072"><ele>347.0</ele><time>2026-04-17T15:25:09Z</time></trkpt><trkpt lat="40.76252888998866" lon="17.44638419756591"><ele>347.0</ele><time>2026-04-17T15:25:11Z</time></trkpt><trkpt lat="40.76248596733148" lon="17.44644831604252"><ele>347.0</ele><time>2026-04-17T15:25:22Z</time></trkpt><trkpt lat="40.76245030244326" lon="17.44654020698793"><ele>347.0</ele><time>2026-04-17T15:25:37Z</time></trkpt><trkpt lat="40.762399767586636" lon="17.446617819606985"><ele>347.0</ele><time>2026-04-17T15:25:42Z</time></trkpt><trkpt lat="40.76239864460344" lon="17.446725150282628"><ele>345.6666666666667</ele><time>2026-04-17T15:25:44Z</time></trkpt><trkpt lat="40.762367127633304" lon="17.446833639579456"><ele>344.33333333333337</ele><time>2026-04-17T15:25:47Z</time></trkpt><trkpt lat="40.76235311461394" lon="17.446943360594275"><ele>343.0</ele><time>2026-04-17T15:25:49Z</time></trkpt><trkpt lat="40.76234015830138" lon="17.44705428123951"><ele>341.6666666666667</ele><time>2026-04-17T15:25:50.999Z</time></trkpt><trkpt lat="40.762310907436465" lon="17.44712883653586"><ele>340.3333333333333</ele><time>2026-04-17T15:25:51.999Z</time></trkpt><trkpt lat="40.762325119050885" lon="17.44723789365419"><ele>339.0</ele><time>2026-04-17T15:25:53.999Z</time></trkpt><trkpt lat="40.76229374457082" lon="17.44734750832547"><ele>337.6</ele><time>2026-04-17T15:25:55.999Z</time></trkpt><trkpt lat="40.7623058076379" lon="17.44748296502099"><ele>336.2</ele><time>2026-04-17T15:25:57.999Z</time></trkpt><trkpt lat="40.762269826226266" lon="17.44761949542001"><ele>334.8</ele><time>2026-04-17T15:25:59.999Z</time></trkpt><trkpt lat="40.76227952032839" lon="17.447708951682195"><ele>333.40000000000003</ele><time>2026-04-17T15:26:01.999Z</time></trkpt><trkpt lat="40.762256282909014" lon="17.44783389716901"><ele>332.0</ele><time>2026-04-17T15:26:04.999Z</time></trkpt><trkpt lat="40.76229635548088" lon="17.447939316090178"><ele>331.33333333333337</ele><time>2026-04-17T15:26:06.999Z</time></trkpt><trkpt lat="40.76231646247027" lon="17.44802735797911"><ele>330.6666666666667</ele><time>2026-04-17T15:26:08.999Z</time></trkpt><trkpt lat="40.76232004653266" lon="17.44813893201489"><ele>330.0</ele><time>2026-04-17T15:26:10.999Z</time></trkpt><trkpt lat="40.76229969168507" lon="17.44823737499088"><ele>329.3333333333333</ele><time>2026-04-17T15:26:12.999Z</time></trkpt><trkpt lat="40.76230863323884" lon="17.448375905896373"><ele>328.66666666666663</ele><time>2026-04-17T15:26:14.999Z</time></trkpt><trkpt lat="40.76232822479925" lon="17.448505440485256"><ele>328.0</ele><time>2026-04-17T15:26:16.999Z</time></trkpt><trkpt lat="40.7623392626037" lon="17.448589504345144"><ele>328.0</ele><time>2026-04-17T15:26:18.999Z</time></trkpt><trkpt lat="40.76239606209015" lon="17.448725633474588"><ele>328.0</ele><time>2026-04-17T15:26:22.999Z</time></trkpt><trkpt lat="40.76245625790266" lon="17.44881873874487"><ele>328.0</ele><time>2026-04-17T15:26:24.999Z</time></trkpt><trkpt lat="40.7624663288758" lon="17.448912658015043"><ele>328.0</ele><time>2026-04-17T15:26:26.999Z</time></trkpt><trkpt lat="40.76242076240678" lon="17.448995881351998"><ele>328.0</ele><time>2026-04-17T15:26:28.999Z</time></trkpt><trkpt lat="40.76239368452126" lon="17.449090889439134"><ele>328.0</ele><time>2026-04-17T15:26:31.999Z</time></trkpt><trkpt lat="40.762390955917894" lon="17.449181361214773"><ele>326.85714285714283</ele><time>2026-04-17T15:26:33.999Z</time></trkpt><trkpt lat="40.76237188023955" lon="17.449284423166034"><ele>325.7142857142857</ele><time>2026-04-17T15:26:35.999Z</time></trkpt><trkpt lat="40.762368905104125" lon="17.449388966284552"><ele>324.57142857142856</ele><time>2026-04-17T15:26:37.999Z</time></trkpt><trkpt lat="40.76229808321456" lon="17.449360932908476"><ele>323.42857142857144</ele><time>2026-04-17T15:26:41.999Z</time></trkpt><trkpt lat="40.76236144596349" lon="17.44933203052292"><ele>322.2857142857143</ele><time>2026-04-17T15:26:52.998Z</time></trkpt><trkpt lat="40.76240396784801" lon="17.449397654922095"><ele>321.1428571428571</ele><time>2026-04-17T15:26:56.998Z</time></trkpt><trkpt lat="40.762409594949816" lon="17.44948422667381"><ele>320.0</ele><time>2026-04-17T15:26:59.998Z</time></trkpt><trkpt lat="40.76241506156564" lon="17.44957999629625"><ele>320.5</ele><time>2026-04-17T15:27:02.998Z</time></trkpt><trkpt lat="40.76238763576376" lon="17.44965506716374"><ele>321.0</ele><time>2026-04-17T15:27:04.998Z</time></trkpt><trkpt lat="40.76238227678773" lon="17.449782929915326"><ele>321.5</ele><time>2026-04-17T15:27:08Z</time></trkpt><trkpt lat="40.76234643800847" lon="17.449880722956166"><ele>322.0</ele><time>2026-04-17T15:27:13Z</time></trkpt><trkpt lat="40.76236975764111" lon="17.449972286986256"><ele>322.5</ele><time>2026-04-17T15:27:17Z</time></trkpt><trkpt lat="40.762382569126366" lon="17.450090513921527"><ele>323.0</ele><time>2026-04-17T15:27:20Z</time></trkpt><trkpt lat="40.762404408214316" lon="17.45019564789771"><ele>323.0</ele><time>2026-04-17T15:27:25Z</time></trkpt><trkpt lat="40.76245305017391" lon="17.450277789504298"><ele>323.0</ele><time>2026-04-17T15:27:29Z</time></trkpt><trkpt lat="40.76246083122633" lon="17.450370793074402"><ele>323.0</ele><time>2026-04-17T15:27:31Z</time></trkpt><trkpt lat="40.762482545050794" lon="17.450459901497275"><ele>323.0</ele><time>2026-04-17T15:27:33Z</time></trkpt><trkpt lat="40.7625334070076" lon="17.45056995110111"><ele>323.0</ele><time>2026-04-17T15:27:36Z</time></trkpt><trkpt lat="40.762576282048926" lon="17.45066488715548"><ele>323.0</ele><time>2026-04-17T15:27:39Z</time></trkpt><trkpt lat="40.762629882643154" lon="17.45076371090041"><ele>322.1666666666667</ele><time>2026-04-17T15:27:42Z</time></trkpt><trkpt lat="40.76269358253692" lon="17.450851301220485"><ele>321.33333333333337</ele><time>2026-04-17T15:27:45Z</time></trkpt><trkpt lat="40.76274782860057" lon="17.450927459886046"><ele>320.5</ele><time>2026-04-17T15:27:48Z</time></trkpt><trkpt lat="40.76280904972732" lon="17.45099505983882"><ele>319.6666666666667</ele><time>2026-04-17T15:27:50.999Z</time></trkpt><trkpt lat="40.762860682858836" lon="17.45108116315352"><ele>318.8333333333333</ele><time>2026-04-17T15:27:53.999Z</time></trkpt><trkpt lat="40.76289302786455" lon="17.451167038750583"><ele>318.0</ele><time>2026-04-17T15:27:56.999Z</time></trkpt><trkpt lat="40.7628910379233" lon="17.45126374778515"><ele>317.5</ele><time>2026-04-17T15:27:59.999Z</time></trkpt><trkpt lat="40.76287770282404" lon="17.45134988759948"><ele>317.0</ele><time>2026-04-17T15:28:02.999Z</time></trkpt><trkpt lat="40.76286150836764" lon="17.451468516520904"><ele>316.5</ele><time>2026-04-17T15:28:22.999Z</time></trkpt><trkpt lat="40.76278558540074" lon="17.451508512628077"><ele>316.0</ele><time>2026-04-17T15:28:28.999Z</time></trkpt><trkpt lat="40.76270320272927" lon="17.451542697074167"><ele>315.5</ele><time>2026-04-17T15:28:33.999Z</time></trkpt><trkpt lat="40.76264712229678" lon="17.451582417710828"><ele>315.0</ele><time>2026-04-17T15:28:41.999Z</time></trkpt><trkpt lat="40.762579629312526" lon="17.45162462533475"><ele>317.3333333333333</ele><time>2026-04-17T15:28:51.998Z</time></trkpt><trkpt lat="40.76252530730316" lon="17.451736275829546"><ele>319.6666666666667</ele><time>2026-04-17T15:28:54.998Z</time></trkpt><trkpt lat="40.762454955336445" lon="17.451758953256448"><ele>322.0</ele><time>2026-04-17T15:28:57.998Z</time></trkpt><trkpt lat="40.76238835660033" lon="17.45181556110681"><ele>324.33333333333337</ele><time>2026-04-17T15:29:01.998Z</time></trkpt><trkpt lat="40.76230042188539" lon="17.45186209372541"><ele>326.6666666666667</ele><time>2026-04-17T15:29:04.998Z</time></trkpt><trkpt lat="40.76222372738015" lon="17.451934479595625"><ele>329.0</ele><time>2026-04-17T15:29:08.998Z</time></trkpt><trkpt lat="40.76216502627251" lon="17.452009551377728"><ele>329.0</ele><time>2026-04-17T15:29:12Z</time></trkpt><trkpt lat="40.762097906247526" lon="17.45206796505428"><ele>329.0</ele><time>2026-04-17T15:29:14Z</time></trkpt><trkpt lat="40.76203772080058" lon="17.45213315201738"><ele>329.0</ele><time>2026-04-17T15:29:17Z</time></trkpt><trkpt lat="40.761978413261545" lon="17.452221698369982"><ele>329.0</ele><time>2026-04-17T15:29:20Z</time></trkpt><trkpt lat="40.76191053106834" lon="17.452304892047565"><ele>329.0</ele><time>2026-04-17T15:29:23Z</time></trkpt><trkpt lat="40.761836978912456" lon="17.45235429498564"><ele>329.0</ele><time>2026-04-17T15:29:26Z</time></trkpt><trkpt lat="40.76177560798173" lon="17.45241450190225"><ele>328.6666666666667</ele><time>2026-04-17T15:29:29Z</time></trkpt><trkpt lat="40.761692976554684" lon="17.452431396316236"><ele>328.33333333333337</ele><time>2026-04-17T15:29:32Z</time></trkpt><trkpt lat="40.76162321508436" lon="17.452498927701022"><ele>328.0</ele><time>2026-04-17T15:29:35Z</time></trkpt><trkpt lat="40.761545468319255" lon="17.452536497324093"><ele>327.6666666666667</ele><time>2026-04-17T15:29:38Z</time></trkpt><trkpt lat="40.76147939203913" lon="17.452559545857394"><ele>327.3333333333333</ele><time>2026-04-17T15:29:42Z</time></trkpt><trkpt lat="40.761397976560275" lon="17.45261950511518"><ele>327.0</ele><time>2026-04-17T15:29:45Z</time></trkpt><trkpt lat="40.76132593098876" lon="17.452659733633464"><ele>327.0</ele><time>2026-04-17T15:29:49Z</time></trkpt><trkpt lat="40.76124074977513" lon="17.4527135331196"><ele>327.0</ele><time>2026-04-17T15:29:52Z</time></trkpt><trkpt lat="40.76120074916184" lon="17.452780310303197"><ele>327.0</ele><time>2026-04-17T15:29:59.999Z</time></trkpt><trkpt lat="40.761137457571635" lon="17.452810914952167"><ele>327.0</ele><time>2026-04-17T15:30:08.999Z</time></trkpt><trkpt lat="40.76113019257292" lon="17.45289649421131"><ele>327.0</ele><time>2026-04-17T15:30:14.999Z</time></trkpt><trkpt lat="40.76109790052485" lon="17.45296931354949"><ele>327.0</ele><time>2026-04-17T15:30:25.999Z</time></trkpt><trkpt lat="40.76104358047422" lon="17.453017570704187"><ele>327.0</ele><time>2026-04-17T15:30:34.999Z</time></trkpt><trkpt lat="40.76097359832077" lon="17.45306174603712"><ele>326.8333333333333</ele><time>2026-04-17T15:30:38.999Z</time></trkpt><trkpt lat="40.76094353064148" lon="17.453149647808676"><ele>326.6666666666667</ele><time>2026-04-17T15:30:41.999Z</time></trkpt><trkpt lat="40.76091804591841" lon="17.45323043341456"><ele>326.5</ele><time>2026-04-17T15:30:43.999Z</time></trkpt><trkpt lat="40.76086365550508" lon="17.453297008996568"><ele>326.33333333333337</ele><time>2026-04-17T15:30:47.999Z</time></trkpt><trkpt lat="40.76085206076463" lon="17.453423992621836"><ele>326.1666666666667</ele><time>2026-04-17T15:30:49.999Z</time></trkpt><trkpt lat="40.76083143894551" lon="17.453509044993034"><ele>326.0</ele><time>2026-04-17T15:30:52.999Z</time></trkpt><trkpt lat="40.76079303383812" lon="17.453598740160498"><ele>326.0</ele><time>2026-04-17T15:30:56.998Z</time></trkpt><trkpt lat="40.76076056436799" lon="17.45371786654336"><ele>326.0</ele><time>2026-04-17T15:30:59.998Z</time></trkpt><trkpt lat="40.76071468317521" lon="17.453795102500642"><ele>326.0</ele><time>2026-04-17T15:31:02.998Z</time></trkpt><trkpt lat="40.76078681107192" lon="17.453813696810627"><ele>326.0</ele><time>2026-04-17T15:31:07.998Z</time></trkpt><trkpt lat="40.76083539114636" lon="17.453738385866473"><ele>326.0</ele><time>2026-04-17T15:31:11.998Z</time></trkpt><trkpt lat="40.7608589570873" lon="17.45364387582596"><ele>326.0</ele><time>2026-04-17T15:31:14.998Z</time></trkpt><trkpt lat="40.760905925621636" lon="17.453702940691336"><ele>326.0</ele><time>2026-04-17T15:31:20Z</time></trkpt><trkpt lat="40.76086754260937" lon="17.453784116925764"><ele>326.0</ele><time>2026-04-17T15:31:26Z</time></trkpt><trkpt lat="40.76078774618727" lon="17.4538072008086"><ele>326.0</ele><time>2026-04-17T15:40:52.999Z</time></trkpt><trkpt lat="40.760718657982174" lon="17.453776191312198"><ele>326.0</ele><time>2026-04-17T15:40:55.999Z</time></trkpt><trkpt lat="40.760643667099835" lon="17.453780623848196"><ele>326.0</ele><time>2026-04-17T15:40:58.999Z</time></trkpt><trkpt lat="40.760568058944735" lon="17.453771808828478"><ele>326.0</ele><time>2026-04-17T15:41:00.999Z</time></trkpt><trkpt lat="40.76049315173468" lon="17.45378458608887"><ele>326.0</ele><time>2026-04-17T15:41:04.999Z</time></trkpt><trkpt lat="40.7604301081495" lon="17.453786481458774"><ele>326.0</ele><time>2026-04-17T15:41:06.999Z</time></trkpt><trkpt lat="40.76036811586881" lon="17.45376665180161"><ele>326.0</ele><time>2026-04-17T15:41:08.999Z</time></trkpt><trkpt lat="40.76028608931111" lon="17.453742026265907"><ele>326.0</ele><time>2026-04-17T15:41:10.999Z</time></trkpt><trkpt lat="40.76019915329051" lon="17.453696980598075"><ele>326.0</ele><time>2026-04-17T15:41:12.999Z</time></trkpt><trkpt lat="40.76010866369439" lon="17.453654499079864"><ele>326.0</ele><time>2026-04-17T15:41:14.999Z</time></trkpt><trkpt lat="40.7600151794313" lon="17.45361535584298"><ele>325.6</ele><time>2026-04-17T15:41:16.999Z</time></trkpt><trkpt lat="40.75992034222982" lon="17.453567408141996"><ele>325.20000000000005</ele><time>2026-04-17T15:41:18.999Z</time></trkpt><trkpt lat="40.75982459042758" lon="17.4535226988513"><ele>324.79999999999995</ele><time>2026-04-17T15:41:20.999Z</time></trkpt><trkpt lat="40.75974832362364" lon="17.453498242215428"><ele>324.4</ele><time>2026-04-17T15:41:21.999Z</time></trkpt><trkpt lat="40.7596570670941" lon="17.45345107728151"><ele>324.0</ele><time>2026-04-17T15:41:23.998Z</time></trkpt><trkpt lat="40.75955665270814" lon="17.453411835485184"><ele>324.0</ele><time>2026-04-17T15:41:25.998Z</time></trkpt><trkpt lat="40.75945682831035" lon="17.453388325517604"><ele>324.0</ele><time>2026-04-17T15:41:27.998Z</time></trkpt><trkpt lat="40.75939936934897" lon="17.453425790591215"><ele>324.0</ele><time>2026-04-17T15:41:29.998Z</time></trkpt><trkpt lat="40.75941237102774" lon="17.453532827422425"><ele>324.0</ele><time>2026-04-17T15:41:32.998Z</time></trkpt><trkpt lat="40.75946023368439" lon="17.453591969043046"><ele>324.0</ele><time>2026-04-17T15:41:34.998Z</time></trkpt><trkpt lat="40.7595046963749" lon="17.453653315300787"><ele>324.0</ele><time>2026-04-17T15:41:36.998Z</time></trkpt><trkpt lat="40.75954617172054" lon="17.453726068841593"><ele>324.0</ele><time>2026-04-17T15:41:38.998Z</time></trkpt><trkpt lat="40.7595820083042" lon="17.453800794070094"><ele>324.8333333333333</ele><time>2026-04-17T15:41:40.998Z</time></trkpt><trkpt lat="40.75961432743343" lon="17.45387526994233"><ele>325.6666666666667</ele><time>2026-04-17T15:41:42.998Z</time></trkpt><trkpt lat="40.75963453335441" lon="17.45395599978386"><ele>326.5</ele><time>2026-04-17T15:41:44.998Z</time></trkpt><trkpt lat="40.75967020414463" lon="17.454058966921917"><ele>327.33333333333337</ele><time>2026-04-17T15:41:48Z</time></trkpt><trkpt lat="40.75968409913828" lon="17.45416714923185"><ele>328.1666666666667</ele><time>2026-04-17T15:41:51Z</time></trkpt><trkpt lat="40.759702220417985" lon="17.454292785899405"><ele>329.0</ele><time>2026-04-17T15:41:54Z</time></trkpt><trkpt lat="40.75971927898882" lon="17.45439312476664"><ele>329.0</ele><time>2026-04-17T15:41:56Z</time></trkpt><trkpt lat="40.759725292163274" lon="17.454507760084557"><ele>329.0</ele><time>2026-04-17T15:41:58Z</time></trkpt><trkpt lat="40.759715833925966" lon="17.45462238616327"><ele>329.0</ele><time>2026-04-17T15:42:00Z</time></trkpt><trkpt lat="40.75967958609571" lon="17.45473380812723"><ele>329.0</ele><time>2026-04-17T15:42:02Z</time></trkpt><trkpt lat="40.75962500703682" lon="17.454824870104506"><ele>329.0</ele><time>2026-04-17T15:42:04Z</time></trkpt><trkpt lat="40.759562403661" lon="17.454916761834987"><ele>329.0</ele><time>2026-04-17T15:42:06Z</time></trkpt><trkpt lat="40.75949829100237" lon="17.455016375472876"><ele>329.1666666666667</ele><time>2026-04-17T15:42:08Z</time></trkpt><trkpt lat="40.75948056745515" lon="17.455157808872627"><ele>329.33333333333337</ele><time>2026-04-17T15:42:10Z</time></trkpt><trkpt lat="40.75948890924474" lon="17.45524470937873"><ele>329.5</ele><time>2026-04-17T15:42:11Z</time></trkpt><trkpt lat="40.75948459040808" lon="17.455332957307704"><ele>329.6666666666667</ele><time>2026-04-17T15:42:12Z</time></trkpt><trkpt lat="40.75948931354501" lon="17.45543908902311"><ele>329.8333333333333</ele><time>2026-04-17T15:42:13Z</time></trkpt><trkpt lat="40.75951503908276" lon="17.45553669589033"><ele>330.0</ele><time>2026-04-17T15:42:14Z</time></trkpt><trkpt lat="40.759545469747124" lon="17.455639996012565"><ele>327.8333333333333</ele><time>2026-04-17T15:42:15Z</time></trkpt><trkpt lat="40.75959712473688" lon="17.455712808617882"><ele>325.6666666666667</ele><time>2026-04-17T15:42:16Z</time></trkpt><trkpt lat="40.7596448031412" lon="17.455775215064914"><ele>323.5</ele><time>2026-04-17T15:42:17Z</time></trkpt><trkpt lat="40.759740242103476" lon="17.45582093029157"><ele>321.33333333333337</ele><time>2026-04-17T15:42:18Z</time></trkpt><trkpt lat="40.75980220328889" lon="17.455896765131445"><ele>319.1666666666667</ele><time>2026-04-17T15:42:19Z</time></trkpt><trkpt lat="40.75984160824736" lon="17.455997881571935"><ele>317.0</ele><time>2026-04-17T15:42:20Z</time></trkpt><trkpt lat="40.759838907741305" lon="17.45611072286139"><ele>317.0</ele><time>2026-04-17T15:42:21Z</time></trkpt><trkpt lat="40.759829125707775" lon="17.456204871659686"><ele>317.0</ele><time>2026-04-17T15:42:22Z</time></trkpt><trkpt lat="40.75979019455929" lon="17.456339258778097"><ele>317.0</ele><time>2026-04-17T15:42:24Z</time></trkpt><trkpt lat="40.75974798403939" lon="17.456464880603193"><ele>317.0</ele><time>2026-04-17T15:42:26Z</time></trkpt><trkpt lat="40.759713738019" lon="17.456553304131273"><ele>317.0</ele><time>2026-04-17T15:42:28Z</time></trkpt><trkpt lat="40.75967895045021" lon="17.456640388398935"><ele>317.0</ele><time>2026-04-17T15:42:30Z</time></trkpt><trkpt lat="40.75964548549598" lon="17.456716339262478"><ele>316.83333333333337</ele><time>2026-04-17T15:42:32Z</time></trkpt><trkpt lat="40.75960530979468" lon="17.456823510984275"><ele>316.6666666666667</ele><time>2026-04-17T15:42:34.999Z</time></trkpt><trkpt lat="40.759576353602256" lon="17.456926534795084"><ele>316.5</ele><time>2026-04-17T15:42:37.999Z</time></trkpt><trkpt lat="40.7595467224331" lon="17.457017540747508"><ele>316.3333333333333</ele><time>2026-04-17T15:42:40.999Z</time></trkpt><trkpt lat="40.75951355336749" lon="17.4571072904606"><ele>316.16666666666663</ele><time>2026-04-17T15:42:43.999Z</time></trkpt><trkpt lat="40.759493166680144" lon="17.457225347321998"><ele>316.0</ele><time>2026-04-17T15:42:46.999Z</time></trkpt><trkpt lat="40.75946420285092" lon="17.457322298685433"><ele>316.5714285714286</ele><time>2026-04-17T15:42:49.999Z</time></trkpt><trkpt lat="40.759448158651836" lon="17.457431182319198"><ele>317.14285714285717</ele><time>2026-04-17T15:42:52.999Z</time></trkpt><trkpt lat="40.759421065464934" lon="17.457507134828113"><ele>317.7142857142857</ele><time>2026-04-17T15:42:55.999Z</time></trkpt><trkpt lat="40.759399357958024" lon="17.457590867693572"><ele>318.28571428571433</ele><time>2026-04-17T15:42:57.999Z</time></trkpt><trkpt lat="40.75938017955476" lon="17.4577032426172"><ele>318.8571428571429</ele><time>2026-04-17T15:43:00.999Z</time></trkpt><trkpt lat="40.75936401459718" lon="17.45778709016516"><ele>319.42857142857144</ele><time>2026-04-17T15:43:02.999Z</time></trkpt><trkpt lat="40.75934336681389" lon="17.45786968194262"><ele>320.0</ele><time>2026-04-17T15:43:04.999Z</time></trkpt><trkpt lat="40.75932927452422" lon="17.457968229865187"><ele>322.33333333333337</ele><time>2026-04-17T15:43:06.999Z</time></trkpt><trkpt lat="40.75931510135557" lon="17.458085789327573"><ele>324.6666666666667</ele><time>2026-04-17T15:43:08.999Z</time></trkpt><trkpt lat="40.759300944863526" lon="17.458203523371605"><ele>327.0</ele><time>2026-04-17T15:43:10.999Z</time></trkpt><trkpt lat="40.75928263268131" lon="17.458326721955306"><ele>329.3333333333333</ele><time>2026-04-17T15:43:12.999Z</time></trkpt><trkpt lat="40.75926527014468" lon="17.458446797806104"><ele>331.66666666666663</ele><time>2026-04-17T15:43:14.999Z</time></trkpt><trkpt lat="40.75925045722555" lon="17.458549713078433"><ele>334.0</ele><time>2026-04-17T15:43:16.999Z</time></trkpt><trkpt lat="40.75923315690361" lon="17.458656500196316"><ele>334.0</ele><time>2026-04-17T15:43:18.999Z</time></trkpt><trkpt lat="40.75921149437524" lon="17.458776238012728"><ele>334.0</ele><time>2026-04-17T15:43:20.999Z</time></trkpt><trkpt lat="40.759189910568644" lon="17.458885508433394"><ele>334.0</ele><time>2026-04-17T15:43:22.999Z</time></trkpt><trkpt lat="40.7591624943701" lon="17.459002206988913"><ele>334.0</ele><time>2026-04-17T15:43:24.999Z</time></trkpt><trkpt lat="40.75913189805389" lon="17.459108198856708"><ele>334.0</ele><time>2026-04-17T15:43:26.999Z</time></trkpt><trkpt lat="40.75907185580133" lon="17.459194300056172"><ele>334.0</ele><time>2026-04-17T15:43:28.998Z</time></trkpt><trkpt lat="40.75898139479978" lon="17.459246402840257"><ele>333.6</ele><time>2026-04-17T15:43:30.998Z</time></trkpt><trkpt lat="40.75888398826874" lon="17.45929337944539"><ele>333.2</ele><time>2026-04-17T15:43:32.998Z</time></trkpt><trkpt lat="40.75879699473518" lon="17.459362343885505"><ele>332.8</ele><time>2026-04-17T15:43:34.998Z</time></trkpt><trkpt lat="40.75871586913091" lon="17.459438244302717"><ele>332.40000000000003</ele><time>2026-04-17T15:43:35.998Z</time></trkpt><trkpt lat="40.75866020017047" lon="17.459516706576135"><ele>332.0</ele><time>2026-04-17T15:43:36.998Z</time></trkpt><trkpt lat="40.75856581430362" lon="17.45960129382504"><ele>330.6666666666667</ele><time>2026-04-17T15:43:37.998Z</time></trkpt><trkpt lat="40.7584763527288" lon="17.459662634446484"><ele>329.33333333333337</ele><time>2026-04-17T15:43:38.998Z</time></trkpt><trkpt lat="40.758414541033375" lon="17.459688272548746"><ele>328.0</ele><time>2026-04-17T15:43:39.998Z</time></trkpt><trkpt lat="40.75834497633301" lon="17.459736946200124"><ele>326.6666666666667</ele><time>2026-04-17T15:43:41.998Z</time></trkpt><trkpt lat="40.75832738401733" lon="17.459873526433714"><ele>325.3333333333333</ele><time>2026-04-17T15:43:43.998Z</time></trkpt><trkpt lat="40.75836461007614" lon="17.45995432055068"><ele>324.0</ele><time>2026-04-17T15:43:44.998Z</time></trkpt><trkpt lat="40.758373412157916" lon="17.460058503317107"><ele>324.0</ele><time>2026-04-17T15:43:45.998Z</time></trkpt><trkpt lat="40.758406488724674" lon="17.460201038773967"><ele>324.0</ele><time>2026-04-17T15:43:47.998Z</time></trkpt><trkpt lat="40.75842459554747" lon="17.46028344326102"><ele>324.0</ele><time>2026-04-17T15:43:48.998Z</time></trkpt><trkpt lat="40.75842577298396" lon="17.46037052437603"><ele>324.0</ele><time>2026-04-17T15:43:49.998Z</time></trkpt><trkpt lat="40.75840991179043" lon="17.46048174552848"><ele>324.0</ele><time>2026-04-17T15:43:50.998Z</time></trkpt><trkpt lat="40.75839960698744" lon="17.460570154150744"><ele>324.0</ele><time>2026-04-17T15:43:51.998Z</time></trkpt><trkpt lat="40.758387919305484" lon="17.460687722384062"><ele>322.8333333333333</ele><time>2026-04-17T15:43:52.998Z</time></trkpt><trkpt lat="40.75837238062597" lon="17.460797566392912"><ele>321.6666666666667</ele><time>2026-04-17T15:43:54Z</time></trkpt><trkpt lat="40.75833110780014" lon="17.460900802932848"><ele>320.5</ele><time>2026-04-17T15:43:55Z</time></trkpt><trkpt lat="40.75830476954121" lon="17.461008132231083"><ele>319.33333333333337</ele><time>2026-04-17T15:43:56Z</time></trkpt><trkpt lat="40.75828219916837" lon="17.461086265578366"><ele>318.1666666666667</ele><time>2026-04-17T15:43:57Z</time></trkpt><trkpt lat="40.75816165155104" lon="17.46110951435543"><ele>317.0</ele><time>2026-04-17T15:43:59Z</time></trkpt><trkpt lat="40.75808912300197" lon="17.461088204798035"><ele>317.0</ele><time>2026-04-17T15:44:00Z</time></trkpt><trkpt lat="40.757957516813505" lon="17.461062247170975"><ele>317.0</ele><time>2026-04-17T15:44:02Z</time></trkpt><trkpt lat="40.757891783866114" lon="17.461026513191538"><ele>317.0</ele><time>2026-04-17T15:44:03Z</time></trkpt><trkpt lat="40.75782264207834" lon="17.46096383519179"><ele>317.0</ele><time>2026-04-17T15:44:04Z</time></trkpt><trkpt lat="40.75776622391577" lon="17.46090594570451"><ele>317.0</ele><time>2026-04-17T15:44:05Z</time></trkpt><trkpt lat="40.75771536059077" lon="17.460835146178503"><ele>317.0</ele><time>2026-04-17T15:44:06Z</time></trkpt><trkpt lat="40.75766775790463" lon="17.460758793739533"><ele>316.57142857142856</ele><time>2026-04-17T15:44:07Z</time></trkpt><trkpt lat="40.75760926809884" lon="17.460693455790125"><ele>316.1428571428571</ele><time>2026-04-17T15:44:08Z</time></trkpt><trkpt lat="40.75754285732085" lon="17.460629727400924"><ele>315.71428571428567</ele><time>2026-04-17T15:44:09Z</time></trkpt><trkpt lat="40.757473926018626" lon="17.460584671231494"><ele>315.2857142857143</ele><time>2026-04-17T15:44:10Z</time></trkpt><trkpt lat="40.75740875415544" lon="17.460569411036648"><ele>314.85714285714283</ele><time>2026-04-17T15:44:11Z</time></trkpt><trkpt lat="40.75735449585309" lon="17.46050759777627"><ele>314.4285714285714</ele><time>2026-04-17T15:44:12Z</time></trkpt><trkpt lat="40.757308487871946" lon="17.46043133019393"><ele>314.0</ele><time>2026-04-17T15:44:13Z</time></trkpt><trkpt lat="40.757246043249914" lon="17.460386953271094"><ele>314.0</ele><time>2026-04-17T15:44:14Z</time></trkpt><trkpt lat="40.757128567335805" lon="17.460420195101413"><ele>314.0</ele><time>2026-04-17T15:44:16Z</time></trkpt><trkpt lat="40.75707954223033" lon="17.46055627912407"><ele>314.0</ele><time>2026-04-17T15:44:18Z</time></trkpt><trkpt lat="40.75700263155202" lon="17.460592057469764"><ele>314.0</ele><time>2026-04-17T15:44:20Z</time></trkpt><trkpt lat="40.75689269735728" lon="17.46060861819932"><ele>314.0</ele><time>2026-04-17T15:44:22Z</time></trkpt><trkpt lat="40.75680504336362" lon="17.460687686843585"><ele>312.2</ele><time>2026-04-17T15:44:24Z</time></trkpt><trkpt lat="40.7567156700677" lon="17.460788217832768"><ele>310.4</ele><time>2026-04-17T15:44:26Z</time></trkpt><trkpt lat="40.75661810099306" lon="17.460831140309345"><ele>308.6</ele><time>2026-04-17T15:44:28Z</time></trkpt><trkpt lat="40.756521342135876" lon="17.460864437867748"><ele>306.8</ele><time>2026-04-17T15:44:30Z</time></trkpt><trkpt lat="40.756430091590104" lon="17.460964635459458"><ele>305.0</ele><time>2026-04-17T15:44:31.999Z</time></trkpt><trkpt lat="40.756333114414886" lon="17.46107333721625"><ele>305.0</ele><time>2026-04-17T15:44:33.999Z</time></trkpt><trkpt lat="40.75624163044861" lon="17.46114629336377"><ele>305.0</ele><time>2026-04-17T15:44:35.999Z</time></trkpt><trkpt lat="40.756154072510874" lon="17.4612364583793"><ele>305.0</ele><time>2026-04-17T15:44:37.999Z</time></trkpt><trkpt lat="40.75611114148931" lon="17.46130012492568"><ele>305.0</ele><time>2026-04-17T15:44:38.999Z</time></trkpt><trkpt lat="40.756050814286695" lon="17.461421773364947"><ele>305.0</ele><time>2026-04-17T15:44:40.999Z</time></trkpt><trkpt lat="40.7559815223376" lon="17.461528087157532"><ele>305.33333333333337</ele><time>2026-04-17T15:44:42.999Z</time></trkpt><trkpt lat="40.75590075805867" lon="17.461637131389637"><ele>305.6666666666667</ele><time>2026-04-17T15:44:44.999Z</time></trkpt><trkpt lat="40.75584222839109" lon="17.461700910724844"><ele>306.0</ele><time>2026-04-17T15:44:46.999Z</time></trkpt><trkpt lat="40.75580409763447" lon="17.4618048372496"><ele>306.3333333333333</ele><time>2026-04-17T15:44:48.999Z</time></trkpt><trkpt lat="40.755790882181856" lon="17.46191356811402"><ele>306.66666666666663</ele><time>2026-04-17T15:44:50.999Z</time></trkpt><trkpt lat="40.75581430282742" lon="17.462006481095024"><ele>307.0</ele><time>2026-04-17T15:44:52.999Z</time></trkpt><trkpt lat="40.75572142430677" lon="17.46204992704275"><ele>307.0</ele><time>2026-04-17T15:44:57.999Z</time></trkpt><trkpt lat="40.75563985977369" lon="17.46206934460163"><ele>307.0</ele><time>2026-04-17T15:44:59.999Z</time></trkpt><trkpt lat="40.75555003709334" lon="17.462101402902988"><ele>307.0</ele><time>2026-04-17T15:45:01.999Z</time></trkpt><trkpt lat="40.7554464709072" lon="17.46212873298387"><ele>307.0</ele><time>2026-04-17T15:45:03.999Z</time></trkpt><trkpt lat="40.7553488524157" lon="17.462162959761912"><ele>307.0</ele><time>2026-04-17T15:45:05.999Z</time></trkpt><trkpt lat="40.75526462319415" lon="17.462134243046922"><ele>306.2</ele><time>2026-04-17T15:45:07.999Z</time></trkpt><trkpt lat="40.75520057236584" lon="17.462035050041546"><ele>305.4</ele><time>2026-04-17T15:45:09.999Z</time></trkpt><trkpt lat="40.75511824451313" lon="17.46192577665261"><ele>304.6</ele><time>2026-04-17T15:45:11.999Z</time></trkpt><trkpt lat="40.755057232468" lon="17.46186131783759"><ele>303.8</ele><time>2026-04-17T15:45:13.999Z</time></trkpt><trkpt lat="40.754972908124245" lon="17.461941131082188"><ele>303.0</ele><time>2026-04-17T15:45:16.999Z</time></trkpt><trkpt lat="40.75497345123559" lon="17.462078153557762"><ele>303.8</ele><time>2026-04-17T15:45:18.999Z</time></trkpt><trkpt lat="40.75497827651608" lon="17.462229077454943"><ele>304.6</ele><time>2026-04-17T15:45:20.999Z</time></trkpt><trkpt lat="40.75497231501073" lon="17.462340706508684"><ele>305.4</ele><time>2026-04-17T15:45:22.999Z</time></trkpt><trkpt lat="40.75497256410893" lon="17.462455663006267"><ele>306.2</ele><time>2026-04-17T15:45:24.999Z</time></trkpt><trkpt lat="40.754975900896724" lon="17.46260144635991"><ele>307.0</ele><time>2026-04-17T15:45:26.998Z</time></trkpt><trkpt lat="40.754977685284864" lon="17.462718898355913"><ele>307.0</ele><time>2026-04-17T15:45:28.998Z</time></trkpt><trkpt lat="40.75498657472739" lon="17.462830751140416"><ele>307.0</ele><time>2026-04-17T15:45:30.998Z</time></trkpt><trkpt lat="40.754996653307934" lon="17.46294346865822"><ele>307.0</ele><time>2026-04-17T15:45:33.998Z</time></trkpt><trkpt lat="40.75501330163798" lon="17.463044135960743"><ele>307.0</ele><time>2026-04-17T15:45:35.998Z</time></trkpt><trkpt lat="40.755022585295336" lon="17.463158832290663"><ele>307.0</ele><time>2026-04-17T15:45:37.998Z</time></trkpt><trkpt lat="40.755025976520045" lon="17.463280270784583"><ele>307.0</ele><time>2026-04-17T15:45:39.998Z</time></trkpt><trkpt lat="40.75503225532557" lon="17.463395251252606"><ele>307.3333333333333</ele><time>2026-04-17T15:45:41.998Z</time></trkpt><trkpt lat="40.75503977332073" lon="17.46350604180292"><ele>307.66666666666663</ele><time>2026-04-17T15:45:43.998Z</time></trkpt><trkpt lat="40.75505003897141" lon="17.463605653782725"><ele>308.0</ele><time>2026-04-17T15:45:45.998Z</time></trkpt><trkpt lat="40.75504784016676" lon="17.463712938562892"><ele>308.3333333333333</ele><time>2026-04-17T15:45:47.998Z</time></trkpt><trkpt lat="40.7550556047184" lon="17.463823296069197"><ele>308.6666666666667</ele><time>2026-04-17T15:45:49.998Z</time></trkpt><trkpt lat="40.75506413697408" lon="17.463935952688878"><ele>309.0</ele><time>2026-04-17T15:45:51.998Z</time></trkpt><trkpt lat="40.75508201473182" lon="17.46409468680462"><ele>310.0</ele><time>2026-04-17T15:45:54.998Z</time></trkpt><trkpt lat="40.755091173857444" lon="17.464208674475074"><ele>311.0</ele><time>2026-04-17T15:45:56.998Z</time></trkpt><trkpt lat="40.755100602041196" lon="17.464308666457743"><ele>312.0</ele><time>2026-04-17T15:45:58.998Z</time></trkpt><trkpt lat="40.75511027031844" lon="17.464408976373665"><ele>313.0</ele><time>2026-04-17T15:46:01Z</time></trkpt><trkpt lat="40.75512102613298" lon="17.464510756532068"><ele>314.0</ele><time>2026-04-17T15:46:03Z</time></trkpt><trkpt lat="40.755123727506785" lon="17.464620768593576"><ele>315.0</ele><time>2026-04-17T15:46:05Z</time></trkpt><trkpt lat="40.75512839822193" lon="17.464721245913054"><ele>315.5</ele><time>2026-04-17T15:46:07Z</time></trkpt><trkpt lat="40.75513583621565" lon="17.464820389734314"><ele>316.0</ele><time>2026-04-17T15:46:09Z</time></trkpt><trkpt lat="40.755143768467626" lon="17.464927924586803"><ele>316.5</ele><time>2026-04-17T15:46:11Z</time></trkpt><trkpt lat="40.75515838252455" lon="17.46503417129875"><ele>317.0</ele><time>2026-04-17T15:46:13Z</time></trkpt><trkpt lat="40.75517811112753" lon="17.465141076186445"><ele>317.5</ele><time>2026-04-17T15:46:15Z</time></trkpt><trkpt lat="40.75520234639764" lon="17.465245151555614"><ele>318.0</ele><time>2026-04-17T15:46:17Z</time></trkpt><trkpt lat="40.75522742650537" lon="17.465345327563316"><ele>319.0</ele><time>2026-04-17T15:46:19Z</time></trkpt><trkpt lat="40.755255536647" lon="17.465444406980367"><ele>320.0</ele><time>2026-04-17T15:46:21Z</time></trkpt><trkpt lat="40.75528497246085" lon="17.465553973590392"><ele>321.0</ele><time>2026-04-17T15:46:23Z</time></trkpt><trkpt lat="40.75531348898856" lon="17.46566252423804"><ele>322.0</ele><time>2026-04-17T15:46:25Z</time></trkpt><trkpt lat="40.75534366873265" lon="17.465796059232552"><ele>323.0</ele><time>2026-04-17T15:46:27Z</time></trkpt><trkpt lat="40.75536426913203" lon="17.465930700713262"><ele>323.6666666666667</ele><time>2026-04-17T15:46:29Z</time></trkpt><trkpt lat="40.75537163970864" lon="17.466022733484408"><ele>324.33333333333337</ele><time>2026-04-17T15:46:31Z</time></trkpt><trkpt lat="40.75539231229946" lon="17.466147987785906"><ele>325.0</ele><time>2026-04-17T15:46:34Z</time></trkpt><trkpt lat="40.75541367224767" lon="17.46623357858326"><ele>325.6666666666667</ele><time>2026-04-17T15:46:36Z</time></trkpt><trkpt lat="40.75543368894331" lon="17.466325578061237"><ele>326.3333333333333</ele><time>2026-04-17T15:46:38Z</time></trkpt><trkpt lat="40.755460437791214" lon="17.46643094612054"><ele>327.0</ele><time>2026-04-17T15:46:39.999Z</time></trkpt><trkpt lat="40.75549091352101" lon="17.466545328344132"><ele>327.0</ele><time>2026-04-17T15:46:41.999Z</time></trkpt><trkpt lat="40.7555290515879" lon="17.466667910559064"><ele>327.0</ele><time>2026-04-17T15:46:43.999Z</time></trkpt><trkpt lat="40.75555050341036" lon="17.466828837349205"><ele>327.0</ele><time>2026-04-17T15:46:45.999Z</time></trkpt><trkpt lat="40.75555370744945" lon="17.46691233781126"><ele>327.0</ele><time>2026-04-17T15:46:46.999Z</time></trkpt><trkpt lat="40.75555728629217" lon="17.467010570044796"><ele>327.0</ele><time>2026-04-17T15:46:47.999Z</time></trkpt><trkpt lat="40.75556117922716" lon="17.467101770040856"><ele>327.0</ele><time>2026-04-17T15:46:48.999Z</time></trkpt><trkpt lat="40.7555579550541" lon="17.467189044215687"><ele>327.1666666666667</ele><time>2026-04-17T15:46:49.999Z</time></trkpt><trkpt lat="40.755510990786064" lon="17.467334046380646"><ele>327.3333333333333</ele><time>2026-04-17T15:46:51.999Z</time></trkpt><trkpt lat="40.7554781523203" lon="17.46740680477146"><ele>327.5</ele><time>2026-04-17T15:46:52.999Z</time></trkpt><trkpt lat="40.755454818518146" lon="17.467486062039995"><ele>327.66666666666663</ele><time>2026-04-17T15:46:53.999Z</time></trkpt><trkpt lat="40.75542157449942" lon="17.46760311272676"><ele>327.8333333333333</ele><time>2026-04-17T15:46:55.999Z</time></trkpt><trkpt lat="40.755394578498866" lon="17.467725636921525"><ele>328.0</ele><time>2026-04-17T15:46:57.999Z</time></trkpt><trkpt lat="40.75536385620118" lon="17.467841597045197"><ele>328.0</ele><time>2026-04-17T15:46:59.999Z</time></trkpt><trkpt lat="40.755333408322464" lon="17.467938651740834"><ele>328.0</ele><time>2026-04-17T15:47:01.999Z</time></trkpt><trkpt lat="40.75529347478789" lon="17.468033455631723"><ele>328.0</ele><time>2026-04-17T15:47:03.999Z</time></trkpt><trkpt lat="40.755257597441386" lon="17.46815026193907"><ele>328.0</ele><time>2026-04-17T15:47:05.999Z</time></trkpt><trkpt lat="40.755233817980006" lon="17.468255260597864"><ele>328.0</ele><time>2026-04-17T15:47:07.999Z</time></trkpt><trkpt lat="40.75523465950227" lon="17.468349506282788"><ele>328.0</ele><time>2026-04-17T15:47:10.999Z</time></trkpt><trkpt lat="40.75529927485226" lon="17.46835367292524"><ele>327.66666666666663</ele><time>2026-04-17T15:47:13.999Z</time></trkpt><trkpt lat="40.7553885984269" lon="17.468285644682588"><ele>327.3333333333333</ele><time>2026-04-17T15:47:15.999Z</time></trkpt><trkpt lat="40.75545613286394" lon="17.46824936261189"><ele>327.0</ele><time>2026-04-17T15:47:17.999Z</time></trkpt><trkpt lat="40.755512607283286" lon="17.468175907883893"><ele>326.6666666666667</ele><time>2026-04-17T15:47:19.999Z</time></trkpt><trkpt lat="40.75557625723169" lon="17.468201473768247"><ele>326.33333333333337</ele><time>2026-04-17T15:47:21.999Z</time></trkpt><trkpt lat="40.75566215864235" lon="17.468252998655014"><ele>326.0</ele><time>2026-04-17T15:47:23.999Z</time></trkpt><trkpt lat="40.75572517243906" lon="17.468311175837748"><ele>326.0</ele><time>2026-04-17T15:47:25.999Z</time></trkpt><trkpt lat="40.75571946481202" lon="17.468402136901567"><ele>326.0</ele><time>2026-04-17T15:47:27.999Z</time></trkpt><trkpt lat="40.75567547540549" lon="17.46847381717996"><ele>326.0</ele><time>2026-04-17T15:47:29.999Z</time></trkpt><trkpt lat="40.75571924871554" lon="17.468566403581892"><ele>326.0</ele><time>2026-04-17T15:47:31.999Z</time></trkpt><trkpt lat="40.75577319977742" lon="17.468679880720725"><ele>326.0</ele><time>2026-04-17T15:47:33.999Z</time></trkpt><trkpt lat="40.755793785110896" lon="17.46876269208946"><ele>326.0</ele><time>2026-04-17T15:47:35.998Z</time></trkpt><trkpt lat="40.755850636501805" lon="17.468817423517766"><ele>324.1666666666667</ele><time>2026-04-17T15:47:38.998Z</time></trkpt><trkpt lat="40.75578598932324" lon="17.468913647717127"><ele>322.33333333333337</ele><time>2026-04-17T15:47:40.998Z</time></trkpt><trkpt lat="40.75571850838043" lon="17.469027086511407"><ele>320.5</ele><time>2026-04-17T15:47:42.998Z</time></trkpt><trkpt lat="40.75567942581288" lon="17.469108497358068"><ele>318.6666666666667</ele><time>2026-04-17T15:47:43.998Z</time></trkpt><trkpt lat="40.755627090286275" lon="17.469172876008145"><ele>316.8333333333333</ele><time>2026-04-17T15:47:44.998Z</time></trkpt><trkpt lat="40.75556891332783" lon="17.469228085439717"><ele>315.0</ele><time>2026-04-17T15:47:46.998Z</time></trkpt><trkpt lat="40.75554354218492" lon="17.46934468000068"><ele>315.0</ele><time>2026-04-17T15:47:49.998Z</time></trkpt><trkpt lat="40.755460767420615" lon="17.469416973360456"><ele>315.0</ele><time>2026-04-17T15:47:51.998Z</time></trkpt><trkpt lat="40.75540455850917" lon="17.469467789851127"><ele>315.0</ele><time>2026-04-17T15:47:55.998Z</time></trkpt><trkpt lat="40.75548167208397" lon="17.4695515056937"><ele>315.0</ele><time>2026-04-17T15:48:00.998Z</time></trkpt><trkpt lat="40.75552840022004" lon="17.46963144223517"><ele>315.0</ele><time>2026-04-17T15:48:02.998Z</time></trkpt><trkpt lat="40.7555301507447" lon="17.469732489968813"><ele>315.0</ele><time>2026-04-17T15:48:07Z</time></trkpt><trkpt lat="40.75552217901492" lon="17.46984676982252"><ele>313.1666666666667</ele><time>2026-04-17T15:48:09Z</time></trkpt><trkpt lat="40.75546083690179" lon="17.469948533243205"><ele>311.3333333333333</ele><time>2026-04-17T15:48:11Z</time></trkpt><trkpt lat="40.75541979402227" lon="17.470070904570214"><ele>309.5</ele><time>2026-04-17T15:48:13Z</time></trkpt><trkpt lat="40.75539221808632" lon="17.470145945672893"><ele>307.66666666666663</ele><time>2026-04-17T15:48:16Z</time></trkpt><trkpt lat="40.75539299471259" lon="17.470237156890175"><ele>305.8333333333333</ele><time>2026-04-17T15:48:20Z</time></trkpt><trkpt lat="40.7553886733714" lon="17.47035692329835"><ele>304.0</ele><time>2026-04-17T15:48:23Z</time></trkpt><trkpt lat="40.75542368547542" lon="17.470486329596692"><ele>302.3333333333333</ele><time>2026-04-17T15:48:25Z</time></trkpt><trkpt lat="40.75544279642015" lon="17.470625827868883"><ele>300.66666666666663</ele><time>2026-04-17T15:48:27Z</time></trkpt><trkpt lat="40.755455466437105" lon="17.470731394792193"><ele>299.0</ele><time>2026-04-17T15:48:31Z</time></trkpt><trkpt lat="40.75550084028376" lon="17.470840875271783"><ele>297.3333333333333</ele><time>2026-04-17T15:48:34Z</time></trkpt><trkpt lat="40.75549322994455" lon="17.47095097618736"><ele>295.6666666666667</ele><time>2026-04-17T15:48:36Z</time></trkpt><trkpt lat="40.755517053890706" lon="17.471050698111632"><ele>294.0</ele><time>2026-04-17T15:48:38Z</time></trkpt><trkpt lat="40.75547301364188" lon="17.471121455304875"><ele>294.0</ele><time>2026-04-17T15:48:41Z</time></trkpt><trkpt lat="40.75545465413841" lon="17.471220092600188"><ele>294.0</ele><time>2026-04-17T15:48:44Z</time></trkpt><trkpt lat="40.755379914622935" lon="17.4712834392906"><ele>294.0</ele><time>2026-04-17T15:48:46.999Z</time></trkpt><trkpt lat="40.75534703458348" lon="17.471368488654313"><ele>294.0</ele><time>2026-04-17T15:48:48.999Z</time></trkpt><trkpt lat="40.755328579689575" lon="17.47147788962934"><ele>294.0</ele><time>2026-04-17T15:48:50.999Z</time></trkpt><trkpt lat="40.75529451249311" lon="17.471602224306952"><ele>294.0</ele><time>2026-04-17T15:48:52.999Z</time></trkpt><trkpt lat="40.755271396900575" lon="17.47169796455734"><ele>295.0</ele><time>2026-04-17T15:48:54.999Z</time></trkpt><trkpt lat="40.755289128365604" lon="17.47186589107527"><ele>296.0</ele><time>2026-04-17T15:48:56.999Z</time></trkpt><trkpt lat="40.755349832804406" lon="17.47198476926519"><ele>297.0</ele><time>2026-04-17T15:48:58.999Z</time></trkpt><trkpt lat="40.755392940511065" lon="17.472113609714736"><ele>298.0</ele><time>2026-04-17T15:49:00.999Z</time></trkpt><trkpt lat="40.75541507732713" lon="17.472219166445136"><ele>299.0</ele><time>2026-04-17T15:49:02.999Z</time></trkpt><trkpt lat="40.7554694338142" lon="17.472311158602402"><ele>300.33333333333337</ele><time>2026-04-17T15:49:04.999Z</time></trkpt><trkpt lat="40.75553420732897" lon="17.47240962807453"><ele>301.6666666666667</ele><time>2026-04-17T15:49:06.999Z</time></trkpt><trkpt lat="40.755585577653086" lon="17.47249614717541"><ele>303.0</ele><time>2026-04-17T15:49:08.999Z</time></trkpt><trkpt lat="40.755627796220416" lon="17.47257229204944"><ele>304.3333333333333</ele><time>2026-04-17T15:49:10.999Z</time></trkpt><trkpt lat="40.75564711229516" lon="17.47266380545032"><ele>305.66666666666663</ele><time>2026-04-17T15:49:12.999Z</time></trkpt><trkpt lat="40.7556453114678" lon="17.472753409533084"><ele>307.0</ele><time>2026-04-17T15:49:14.999Z</time></trkpt><trkpt lat="40.7556665429534" lon="17.47285761833106"><ele>308.0</ele><time>2026-04-17T15:49:17.999Z</time></trkpt><trkpt lat="40.75570777273152" lon="17.472963968465784"><ele>309.0</ele><time>2026-04-17T15:49:21.999Z</time></trkpt><trkpt lat="40.75571371097595" lon="17.473084972987802"><ele>310.0</ele><time>2026-04-17T15:49:23.999Z</time></trkpt><trkpt lat="40.75571364339806" lon="17.473197527072717"><ele>311.0</ele><time>2026-04-17T15:49:25.999Z</time></trkpt><trkpt lat="40.75575437648078" lon="17.473266493874572"><ele>312.0</ele><time>2026-04-17T15:49:28.999Z</time></trkpt><trkpt lat="40.755795974210585" lon="17.473335988366355"><ele>313.0</ele><time>2026-04-17T15:49:30.999Z</time></trkpt><trkpt lat="40.75585888373426" lon="17.47348204983102"><ele>313.0</ele><time>2026-04-17T15:49:32.999Z</time></trkpt><trkpt lat="40.75590318558335" lon="17.473549692899976"><ele>313.0</ele><time>2026-04-17T15:49:35.999Z</time></trkpt><trkpt lat="40.755994723908" lon="17.473601486495912"><ele>313.0</ele><time>2026-04-17T15:49:38.999Z</time></trkpt><trkpt lat="40.7560412987215" lon="17.473668998427563"><ele>313.0</ele><time>2026-04-17T15:49:42.998Z</time></trkpt><trkpt lat="40.756058360184284" lon="17.473774908494402"><ele>313.0</ele><time>2026-04-17T15:49:46.998Z</time></trkpt><trkpt lat="40.756109375602655" lon="17.47385734075869"><ele>313.0</ele><time>2026-04-17T15:49:49.998Z</time></trkpt><trkpt lat="40.75619034625828" lon="17.473916233245852"><ele>314.16666666666663</ele><time>2026-04-17T15:49:51.998Z</time></trkpt><trkpt lat="40.756257026266" lon="17.473963363324653"><ele>315.3333333333333</ele><time>2026-04-17T15:49:53.998Z</time></trkpt><trkpt lat="40.75631578696736" lon="17.474046560927086"><ele>316.5</ele><time>2026-04-17T15:49:56.998Z</time></trkpt><trkpt lat="40.75629391350032" lon="17.474154057956877"><ele>317.6666666666667</ele><time>2026-04-17T15:49:59.998Z</time></trkpt><trkpt lat="40.75631042499933" lon="17.474252185119106"><ele>318.83333333333337</ele><time>2026-04-17T15:50:01.998Z</time></trkpt><trkpt lat="40.75632851396654" lon="17.474339859702596"><ele>320.0</ele><time>2026-04-17T15:50:03.998Z</time></trkpt><trkpt lat="40.756320402589026" lon="17.47445612594438"><ele>320.0</ele><time>2026-04-17T15:50:06.998Z</time></trkpt><trkpt lat="40.75625369604684" lon="17.474486518515103"><ele>320.0</ele><time>2026-04-17T15:50:10.998Z</time></trkpt><trkpt lat="40.75617818003069" lon="17.47450755820107"><ele>320.0</ele><time>2026-04-17T15:50:14Z</time></trkpt><trkpt lat="40.75611786473662" lon="17.474550298947428"><ele>320.0</ele><time>2026-04-17T15:50:16Z</time></trkpt><trkpt lat="40.75603675840899" lon="17.474578325697813"><ele>320.0</ele><time>2026-04-17T15:50:18Z</time></trkpt><trkpt lat="40.755977613193494" lon="17.47463327132057"><ele>320.0</ele><time>2026-04-17T15:50:21Z</time></trkpt><trkpt lat="40.75591121749083" lon="17.474697673711802"><ele>321.33333333333337</ele><time>2026-04-17T15:50:24Z</time></trkpt><trkpt lat="40.755839657290586" lon="17.474737538286654"><ele>322.6666666666667</ele><time>2026-04-17T15:50:27Z</time></trkpt><trkpt lat="40.755781523744815" lon="17.47478995131216"><ele>324.0</ele><time>2026-04-17T15:50:29Z</time></trkpt><trkpt lat="40.75572911668589" lon="17.47483872498816"><ele>325.3333333333333</ele><time>2026-04-17T15:50:31Z</time></trkpt><trkpt lat="40.75565705557961" lon="17.474919965961497"><ele>326.66666666666663</ele><time>2026-04-17T15:50:34Z</time></trkpt><trkpt lat="40.755585121555946" lon="17.475000120603983"><ele>328.0</ele><time>2026-04-17T15:50:37Z</time></trkpt><trkpt lat="40.75552507909581" lon="17.47506820068712"><ele>327.99999999999994</ele><time>2026-04-17T15:50:40Z</time></trkpt><trkpt lat="40.755478783503136" lon="17.4751274027696"><ele>328.0</ele><time>2026-04-17T15:50:42Z</time></trkpt><trkpt lat="40.75541802041397" lon="17.47520116500182"><ele>328.0</ele><time>2026-04-17T15:50:45Z</time></trkpt><trkpt lat="40.75548712281306" lon="17.475177185721975"><ele>328.0</ele><time>2026-04-17T15:51:49.998Z</time></trkpt><trkpt lat="40.75543229428228" lon="17.475218817584086"><ele>328.0</ele><time>2026-04-17T15:52:06.998Z</time></trkpt><trkpt lat="40.7553736207399" lon="17.475251253471864"><ele>327.99999999999994</ele><time>2026-04-17T15:57:06Z</time></trkpt><trkpt lat="40.75531838250739" lon="17.475321145590005"><ele>328.0</ele><time>2026-04-17T15:57:09Z</time></trkpt><trkpt lat="40.755252932506984" lon="17.475383382804313"><ele>327.8333333333333</ele><time>2026-04-17T15:57:11.999Z</time></trkpt><trkpt lat="40.7551898465996" lon="17.47542983633743"><ele>327.66666666666663</ele><time>2026-04-17T15:57:13.999Z</time></trkpt><trkpt lat="40.75511710811336" lon="17.475477309210397"><ele>327.5</ele><time>2026-04-17T15:57:15.999Z</time></trkpt><trkpt lat="40.7550435262674" lon="17.47553589926599"><ele>327.3333333333333</ele><time>2026-04-17T15:57:17.999Z</time></trkpt><trkpt lat="40.75497396519747" lon="17.47560237296887"><ele>327.1666666666667</ele><time>2026-04-17T15:57:19.999Z</time></trkpt><trkpt lat="40.75492962635873" lon="17.475709464000133"><ele>327.0</ele><time>2026-04-17T15:57:21.999Z</time></trkpt><trkpt lat="40.754904406325075" lon="17.475852881418827"><ele>327.0</ele><time>2026-04-17T15:57:23.999Z</time></trkpt><trkpt lat="40.7548859048655" lon="17.47597992850625"><ele>327.0</ele><time>2026-04-17T15:57:25.999Z</time></trkpt><trkpt lat="40.754867777987045" lon="17.476081145023706"><ele>327.0</ele><time>2026-04-17T15:57:27.999Z</time></trkpt><trkpt lat="40.75484535272615" lon="17.47617391450409"><ele>327.0</ele><time>2026-04-17T15:57:29.999Z</time></trkpt><trkpt lat="40.75483858514387" lon="17.476286193901398"><ele>327.0</ele><time>2026-04-17T15:57:32.999Z</time></trkpt><trkpt lat="40.754858603302516" lon="17.476369614717683"><ele>327.0</ele><time>2026-04-17T15:57:34.999Z</time></trkpt><trkpt lat="40.75482744511599" lon="17.47646298205294"><ele>327.8333333333333</ele><time>2026-04-17T15:57:37.999Z</time></trkpt><trkpt lat="40.75484543672784" lon="17.476548803799794"><ele>328.6666666666667</ele><time>2026-04-17T15:57:40.999Z</time></trkpt><trkpt lat="40.754863932500356" lon="17.476658450640667"><ele>329.5</ele><time>2026-04-17T15:57:43.999Z</time></trkpt><trkpt lat="40.754824294212185" lon="17.476744074271092"><ele>330.33333333333337</ele><time>2026-04-17T15:57:46.999Z</time></trkpt><trkpt lat="40.754816555887686" lon="17.476839903260633"><ele>331.1666666666667</ele><time>2026-04-17T15:57:49.999Z</time></trkpt><trkpt lat="40.754883348900634" lon="17.476901337105012"><ele>332.0</ele><time>2026-04-17T15:57:52.999Z</time></trkpt><trkpt lat="40.75496203842391" lon="17.47691098260014"><ele>332.0</ele><time>2026-04-17T15:57:54.999Z</time></trkpt><trkpt lat="40.75502243291863" lon="17.476981652742335"><ele>332.0</ele><time>2026-04-17T15:57:57.999Z</time></trkpt><trkpt lat="40.755101115800684" lon="17.477033978669652"><ele>332.0</ele><time>2026-04-17T15:58:00.999Z</time></trkpt><trkpt lat="40.75515873237625" lon="17.47707765313054"><ele>332.0</ele><time>2026-04-17T15:58:02.998Z</time></trkpt><trkpt lat="40.755236547280106" lon="17.477146609760272"><ele>332.0</ele><time>2026-04-17T15:58:05.998Z</time></trkpt><trkpt lat="40.75531424602569" lon="17.477195607829994"><ele>332.0</ele><time>2026-04-17T15:58:08.998Z</time></trkpt><trkpt lat="40.75538643628613" lon="17.477259302668763"><ele>334.5</ele><time>2026-04-17T15:58:11.998Z</time></trkpt><trkpt lat="40.75545277261628" lon="17.477313242225588"><ele>337.0</ele><time>2026-04-17T15:58:14.998Z</time></trkpt><trkpt lat="40.75551198830804" lon="17.477366026925836"><ele>339.5</ele><time>2026-04-17T15:58:17.998Z</time></trkpt><trkpt lat="40.75558472040608" lon="17.47742751126663"><ele>342.0</ele><time>2026-04-17T15:58:20.998Z</time></trkpt><trkpt lat="40.75565454412677" lon="17.47746135236105"><ele>344.5</ele><time>2026-04-17T15:58:23.998Z</time></trkpt><trkpt lat="40.75573870389071" lon="17.477508985845407"><ele>347.0</ele><time>2026-04-17T15:58:26.998Z</time></trkpt><trkpt lat="40.75580651873923" lon="17.477521032154616"><ele>347.0</ele><time>2026-04-17T15:58:30.998Z</time></trkpt><trkpt lat="40.75588400175953" lon="17.477534413296432"><ele>347.0</ele><time>2026-04-17T15:58:35Z</time></trkpt><trkpt lat="40.75590657854647" lon="17.477647268090795"><ele>347.0</ele><time>2026-04-17T15:58:38Z</time></trkpt><trkpt lat="40.75590144783349" lon="17.47773897271339"><ele>347.0</ele><time>2026-04-17T15:58:40Z</time></trkpt><trkpt lat="40.75591099008084" lon="17.47782703516095"><ele>347.0</ele><time>2026-04-17T15:58:42Z</time></trkpt><trkpt lat="40.75592932265523" lon="17.47792223831387"><ele>347.0</ele><time>2026-04-17T15:58:44Z</time></trkpt><trkpt lat="40.75594915452673" lon="17.478018228856556"><ele>347.1666666666667</ele><time>2026-04-17T15:58:46Z</time></trkpt><trkpt lat="40.75596385934177" lon="17.47813686327348"><ele>347.33333333333337</ele><time>2026-04-17T15:58:48Z</time></trkpt><trkpt lat="40.755978288260444" lon="17.478252061150865"><ele>347.5</ele><time>2026-04-17T15:58:50Z</time></trkpt><trkpt lat="40.75604861753745" lon="17.478339781191988"><ele>347.6666666666667</ele><time>2026-04-17T15:58:52Z</time></trkpt><trkpt lat="40.756129359788076" lon="17.478373467954423"><ele>347.8333333333333</ele><time>2026-04-17T15:58:54Z</time></trkpt><trkpt lat="40.7561999332399" lon="17.478425678872618"><ele>348.0</ele><time>2026-04-17T15:58:56Z</time></trkpt><trkpt lat="40.756303921708714" lon="17.478470715856787"><ele>348.0</ele><time>2026-04-17T15:58:58Z</time></trkpt><trkpt lat="40.756395262680776" lon="17.478547841835905"><ele>348.0</ele><time>2026-04-17T15:59:00Z</time></trkpt><trkpt lat="40.75648529358586" lon="17.47861503546464"><ele>348.0</ele><time>2026-04-17T15:59:02Z</time></trkpt><trkpt lat="40.75658969786762" lon="17.478678117293086"><ele>348.0</ele><time>2026-04-17T15:59:04Z</time></trkpt><trkpt lat="40.75662051398531" lon="17.478757309513778"><ele>348.0</ele><time>2026-04-17T15:59:06Z</time></trkpt><trkpt lat="40.75656549376684" lon="17.47881440608845"><ele>348.1666666666667</ele><time>2026-04-17T15:59:08Z</time></trkpt><trkpt lat="40.75648179677734" lon="17.478846546375877"><ele>348.3333333333333</ele><time>2026-04-17T15:59:10Z</time></trkpt><trkpt lat="40.756419117913474" lon="17.47890474728572"><ele>348.5</ele><time>2026-04-17T15:59:11Z</time></trkpt><trkpt lat="40.75634996507815" lon="17.478996011535543"><ele>348.66666666666663</ele><time>2026-04-17T15:59:12Z</time></trkpt><trkpt lat="40.75630526276376" lon="17.479055245441707"><ele>348.8333333333333</ele><time>2026-04-17T15:59:13Z</time></trkpt><trkpt lat="40.75627947319331" lon="17.479136724749793"><ele>349.0</ele><time>2026-04-17T15:59:14Z</time></trkpt><trkpt lat="40.756310427908964" lon="17.479316107070517"><ele>349.0</ele><time>2026-04-17T15:59:15.999Z</time></trkpt><trkpt lat="40.75637456908118" lon="17.479427903517625"><ele>349.0</ele><time>2026-04-17T15:59:17.999Z</time></trkpt><trkpt lat="40.75636882640436" lon="17.479518806683064"><ele>349.0</ele><time>2026-04-17T15:59:19.999Z</time></trkpt><trkpt lat="40.75635794763742" lon="17.479617401702573"><ele>349.0</ele><time>2026-04-17T15:59:21.999Z</time></trkpt><trkpt lat="40.75632250381797" lon="17.47972677160801"><ele>349.0</ele><time>2026-04-17T15:59:23.999Z</time></trkpt><trkpt lat="40.756331676423464" lon="17.479852566655648"><ele>349.0</ele><time>2026-04-17T15:59:26.999Z</time></trkpt><trkpt lat="40.75631913203317" lon="17.47997405837295"><ele>348.6</ele><time>2026-04-17T15:59:29.999Z</time></trkpt><trkpt lat="40.756221450428434" lon="17.480073731614137"><ele>348.2</ele><time>2026-04-17T15:59:31.999Z</time></trkpt><trkpt lat="40.756151965148284" lon="17.48019088466347"><ele>347.8</ele><time>2026-04-17T15:59:33.999Z</time></trkpt><trkpt lat="40.75611225876508" lon="17.48026382387721"><ele>347.40000000000003</ele><time>2026-04-17T15:59:34.999Z</time></trkpt><trkpt lat="40.75605939674529" lon="17.480358580494958"><ele>347.0</ele><time>2026-04-17T15:59:36.999Z</time></trkpt><trkpt lat="40.75605199791035" lon="17.480477999966112"><ele>346.6666666666667</ele><time>2026-04-17T15:59:38.999Z</time></trkpt><trkpt lat="40.75598257921755" lon="17.48055919899088"><ele>346.33333333333337</ele><time>2026-04-17T15:59:40.999Z</time></trkpt><trkpt lat="40.75591890197488" lon="17.48059862006461"><ele>346.0</ele><time>2026-04-17T15:59:42.999Z</time></trkpt><trkpt lat="40.75585198050984" lon="17.480619966454892"><ele>345.6666666666667</ele><time>2026-04-17T15:59:43.999Z</time></trkpt><trkpt lat="40.75573934092637" lon="17.480638888020376"><ele>345.3333333333333</ele><time>2026-04-17T15:59:45.999Z</time></trkpt><trkpt lat="40.75567147804726" lon="17.480670802203353"><ele>345.0</ele><time>2026-04-17T15:59:47.999Z</time></trkpt><trkpt lat="40.75564503820959" lon="17.480767601359172"><ele>345.0</ele><time>2026-04-17T15:59:50.999Z</time></trkpt><trkpt lat="40.75560603004887" lon="17.480840772917993"><ele>345.0</ele><time>2026-04-17T15:59:52.999Z</time></trkpt><trkpt lat="40.7555766824821" lon="17.480931975335043"><ele>345.0</ele><time>2026-04-17T15:59:54.999Z</time></trkpt><trkpt lat="40.755561505655116" lon="17.481071058526844"><ele>345.0</ele><time>2026-04-17T15:59:56.999Z</time></trkpt><trkpt lat="40.755502796434925" lon="17.481148138476513"><ele>345.0</ele><time>2026-04-17T15:59:58.999Z</time></trkpt><trkpt lat="40.75540526850075" lon="17.481216730734747"><ele>345.0</ele><time>2026-04-17T16:00:00.999Z</time></trkpt><trkpt lat="40.75534153910212" lon="17.48134817476817"><ele>344.3333333333333</ele><time>2026-04-17T16:00:02.999Z</time></trkpt><trkpt lat="40.75531211545475" lon="17.481429338512523"><ele>343.6666666666667</ele><time>2026-04-17T16:00:03.999Z</time></trkpt><trkpt lat="40.75521141637687" lon="17.481528522593248"><ele>343.0</ele><time>2026-04-17T16:00:05.999Z</time></trkpt><trkpt lat="40.7551512004807" lon="17.4815880753916"><ele>342.33333333333337</ele><time>2026-04-17T16:00:06.999Z</time></trkpt><trkpt lat="40.75507294498231" lon="17.481614524387222"><ele>341.6666666666667</ele><time>2026-04-17T16:00:07.999Z</time></trkpt><trkpt lat="40.755000389785856" lon="17.481653745015855"><ele>341.0</ele><time>2026-04-17T16:00:08.998Z</time></trkpt><trkpt lat="40.754944484130704" lon="17.48173311673292"><ele>341.0</ele><time>2026-04-17T16:00:09.998Z</time></trkpt><trkpt lat="40.7549270575643" lon="17.48185826882178"><ele>341.0</ele><time>2026-04-17T16:00:10.998Z</time></trkpt><trkpt lat="40.754926703495535" lon="17.481954720284296"><ele>341.0</ele><time>2026-04-17T16:00:11.998Z</time></trkpt><trkpt lat="40.75490925909405" lon="17.482035760716492"><ele>341.0</ele><time>2026-04-17T16:00:12.998Z</time></trkpt><trkpt lat="40.75488813086937" lon="17.482141474927865"><ele>341.0</ele><time>2026-04-17T16:00:14.998Z</time></trkpt><trkpt lat="40.75494330246663" lon="17.482229992361834"><ele>341.0</ele><time>2026-04-17T16:00:17.998Z</time></trkpt><trkpt lat="40.75504285143242" lon="17.48225396934835"><ele>339.75</ele><time>2026-04-17T16:00:20.998Z</time></trkpt><trkpt lat="40.75511161454336" lon="17.482374513666674"><ele>338.5</ele><time>2026-04-17T16:00:22.998Z</time></trkpt><trkpt lat="40.75520274663423" lon="17.482481062507226"><ele>337.25</ele><time>2026-04-17T16:00:24.998Z</time></trkpt><trkpt lat="40.75530187332291" lon="17.48258807698151"><ele>336.0</ele><time>2026-04-17T16:00:26.998Z</time></trkpt><trkpt lat="40.75538762676615" lon="17.48265889334905"><ele>335.0</ele><time>2026-04-17T16:00:28.998Z</time></trkpt><trkpt lat="40.755416569475756" lon="17.482751053128517"><ele>334.0</ele><time>2026-04-17T16:00:31.998Z</time></trkpt><trkpt lat="40.75535945420238" lon="17.482804460158988"><ele>333.0</ele><time>2026-04-17T16:00:33.998Z</time></trkpt><trkpt lat="40.75528439777597" lon="17.482895860026506"><ele>332.0</ele><time>2026-04-17T16:00:35.998Z</time></trkpt><trkpt lat="40.75521841961919" lon="17.483011158031616"><ele>331.0</ele><time>2026-04-17T16:00:37.998Z</time></trkpt><trkpt lat="40.75517060367847" lon="17.48306707565943"><ele>330.0</ele><time>2026-04-17T16:00:38.998Z</time></trkpt><trkpt lat="40.75508242168684" lon="17.483126893350537"><ele>330.0</ele><time>2026-04-17T16:00:41Z</time></trkpt><trkpt lat="40.75499449028358" lon="17.483170361613478"><ele>330.0</ele><time>2026-04-17T16:00:43Z</time></trkpt><trkpt lat="40.75492130283122" lon="17.483125134568418"><ele>330.0</ele><time>2026-04-17T16:00:45Z</time></trkpt><trkpt lat="40.75486468000845" lon="17.48323094322569"><ele>330.0</ele><time>2026-04-17T16:00:49Z</time></trkpt><trkpt lat="40.75487422179095" lon="17.4833618070324"><ele>330.0</ele><time>2026-04-17T16:00:51Z</time></trkpt><trkpt lat="40.754878882661146" lon="17.483508338487486"><ele>330.0</ele><time>2026-04-17T16:00:53Z</time></trkpt><trkpt lat="40.75486791720013" lon="17.483590904413717"><ele>330.0</ele><time>2026-04-17T16:00:54Z</time></trkpt><trkpt lat="40.754838642609016" lon="17.483693606058722"><ele>330.0</ele><time>2026-04-17T16:00:56Z</time></trkpt><trkpt lat="40.754746133311244" lon="17.48371687882503"><ele>330.0</ele><time>2026-04-17T16:00:58Z</time></trkpt><trkpt lat="40.75476852849817" lon="17.483798742217445"><ele>330.0</ele><time>2026-04-17T16:01:17.999Z</time></trkpt><trkpt lat="40.754718649424845" lon="17.483889862753617"><ele>330.0</ele><time>2026-04-17T16:01:21.999Z</time></trkpt><trkpt lat="40.7546640881393" lon="17.48397019947504"><ele>329.7142857142857</ele><time>2026-04-17T16:01:24.999Z</time></trkpt><trkpt lat="40.75462472329513" lon="17.48408247493895"><ele>329.42857142857144</ele><time>2026-04-17T16:01:27.999Z</time></trkpt><trkpt lat="40.754598842913296" lon="17.48416213302519"><ele>329.1428571428571</ele><time>2026-04-17T16:01:29.999Z</time></trkpt><trkpt lat="40.75461268817198" lon="17.48425222777638"><ele>328.8571428571429</ele><time>2026-04-17T16:01:31.999Z</time></trkpt><trkpt lat="40.754602003877025" lon="17.48433524361888"><ele>328.57142857142856</ele><time>2026-04-17T16:01:33.999Z</time></trkpt><trkpt lat="40.75458364309323" lon="17.484415398271427"><ele>328.2857142857143</ele><time>2026-04-17T16:01:35.999Z</time></trkpt><trkpt lat="40.75452580530991" lon="17.484472568497825"><ele>328.0</ele><time>2026-04-17T16:01:37.999Z</time></trkpt><trkpt lat="40.75447358298361" lon="17.484540711544987"><ele>328.3333333333333</ele><time>2026-04-17T16:01:39.999Z</time></trkpt><trkpt lat="40.754434130732136" lon="17.484617795286063"><ele>328.66666666666663</ele><time>2026-04-17T16:01:41.999Z</time></trkpt><trkpt lat="40.75440819387766" lon="17.484714860290566"><ele>329.0</ele><time>2026-04-17T16:01:43.999Z</time></trkpt><trkpt lat="40.754349191573326" lon="17.484781456932694"><ele>329.3333333333333</ele><time>2026-04-17T16:01:45.999Z</time></trkpt><trkpt lat="40.75430159667138" lon="17.484856354149287"><ele>329.6666666666667</ele><time>2026-04-17T16:01:47.999Z</time></trkpt><trkpt lat="40.75429346783146" lon="17.48494952033583"><ele>330.0</ele><time>2026-04-17T16:01:49.999Z</time></trkpt><trkpt lat="40.754244009858425" lon="17.485038058692993"><ele>330.0</ele><time>2026-04-17T16:01:51.999Z</time></trkpt><trkpt lat="40.75418891297033" lon="17.485118084176282"><ele>330.0</ele><time>2026-04-17T16:01:53.999Z</time></trkpt><trkpt lat="40.75412568949985" lon="17.4851974442983"><ele>330.0</ele><time>2026-04-17T16:01:56.999Z</time></trkpt><trkpt lat="40.75406672436647" lon="17.4852301821685"><ele>330.0</ele><time>2026-04-17T16:01:58.999Z</time></trkpt><trkpt lat="40.753993140716545" lon="17.485297723804248"><ele>330.0</ele><time>2026-04-17T16:02:01.999Z</time></trkpt><trkpt lat="40.75391782592628" lon="17.485314041104296"><ele>330.0</ele><time>2026-04-17T16:02:04.999Z</time></trkpt><trkpt lat="40.75386796108663" lon="17.485255135916"><ele>330.0</ele><time>2026-04-17T16:02:06.999Z</time></trkpt><trkpt lat="40.75382403266654" lon="17.485189130066722"><ele>330.0</ele><time>2026-04-17T16:02:08.999Z</time></trkpt><trkpt lat="40.753832473376704" lon="17.485089535391584"><ele>330.0</ele><time>2026-04-17T16:02:11.999Z</time></trkpt><trkpt lat="40.75378183781433" lon="17.48499144968072"><ele>330.0</ele><time>2026-04-17T16:02:14.998Z</time></trkpt><trkpt lat="40.75370577129972" lon="17.48492716225046"><ele>330.0</ele><time>2026-04-17T16:02:16.998Z</time></trkpt><trkpt lat="40.75362226513572" lon="17.484908105669568"><ele>330.0</ele><time>2026-04-17T16:02:18.998Z</time></trkpt><trkpt lat="40.75352369822108" lon="17.48484017833924"><ele>329.8333333333333</ele><time>2026-04-17T16:02:20.998Z</time></trkpt><trkpt lat="40.75342275008305" lon="17.484829727261964"><ele>329.6666666666667</ele><time>2026-04-17T16:02:22.998Z</time></trkpt><trkpt lat="40.7533608589591" lon="17.484873021898625"><ele>329.5</ele><time>2026-04-17T16:02:24.998Z</time></trkpt><trkpt lat="40.753314502631525" lon="17.484986320765888"><ele>329.33333333333337</ele><time>2026-04-17T16:02:26.998Z</time></trkpt><trkpt lat="40.7532550987763" lon="17.485063229448713"><ele>329.1666666666667</ele><time>2026-04-17T16:02:28.998Z</time></trkpt><trkpt lat="40.75319053279374" lon="17.485092972871588"><ele>329.0</ele><time>2026-04-17T16:02:29.998Z</time></trkpt><trkpt lat="40.753090551133056" lon="17.48513826616532"><ele>329.0</ele><time>2026-04-17T16:02:31.998Z</time></trkpt><trkpt lat="40.753008420268834" lon="17.485050022005357"><ele>329.0</ele><time>2026-04-17T16:02:33.998Z</time></trkpt><trkpt lat="40.7529499231954" lon="17.484943114752348"><ele>329.0</ele><time>2026-04-17T16:02:35.998Z</time></trkpt><trkpt lat="40.75288126607358" lon="17.48493267101548"><ele>329.0</ele><time>2026-04-17T16:02:37.998Z</time></trkpt><trkpt lat="40.75283063304231" lon="17.48502115032761"><ele>329.0</ele><time>2026-04-17T16:02:39.998Z</time></trkpt><trkpt lat="40.75278345466462" lon="17.485117812799615"><ele>329.0</ele><time>2026-04-17T16:02:41.998Z</time></trkpt><trkpt lat="40.752702890636755" lon="17.48518073407968"><ele>328.1666666666667</ele><time>2026-04-17T16:02:43.998Z</time></trkpt><trkpt lat="40.75265347464495" lon="17.485256151158673"><ele>327.33333333333337</ele><time>2026-04-17T16:02:45.998Z</time></trkpt><trkpt lat="40.75268444131349" lon="17.485358951975734"><ele>326.5</ele><time>2026-04-17T16:02:48Z</time></trkpt><trkpt lat="40.75273454974858" lon="17.48544648175351"><ele>325.6666666666667</ele><time>2026-04-17T16:02:49Z</time></trkpt><trkpt lat="40.75277397588642" lon="17.48551341798946"><ele>324.8333333333333</ele><time>2026-04-17T16:02:50Z</time></trkpt><trkpt lat="40.75280137435379" lon="17.48560090733463"><ele>324.0</ele><time>2026-04-17T16:02:51Z</time></trkpt><trkpt lat="40.75279091476573" lon="17.485707138116762"><ele>324.0</ele><time>2026-04-17T16:02:53Z</time></trkpt><trkpt lat="40.752708068546454" lon="17.48578729714248"><ele>324.0</ele><time>2026-04-17T16:02:55Z</time></trkpt><trkpt lat="40.75265278930603" lon="17.485843872850396"><ele>324.0</ele><time>2026-04-17T16:02:56Z</time></trkpt><trkpt lat="40.75255020246592" lon="17.48594863405365"><ele>324.0</ele><time>2026-04-17T16:02:58Z</time></trkpt><trkpt lat="40.75248832973501" lon="17.485991775716847"><ele>324.0</ele><time>2026-04-17T16:02:59Z</time></trkpt><trkpt lat="40.75241773713461" lon="17.486019804434093"><ele>324.0</ele><time>2026-04-17T16:03:00Z</time></trkpt><trkpt lat="40.75231204979598" lon="17.486127697731714"><ele>323.8333333333333</ele><time>2026-04-17T16:03:02Z</time></trkpt><trkpt lat="40.75226518655803" lon="17.486241638594066"><ele>323.6666666666667</ele><time>2026-04-17T16:03:04Z</time></trkpt><trkpt lat="40.75219336845621" lon="17.486344016370428"><ele>323.5</ele><time>2026-04-17T16:03:06Z</time></trkpt><trkpt lat="40.75213799194904" lon="17.486388954308136"><ele>323.33333333333337</ele><time>2026-04-17T16:03:07Z</time></trkpt><trkpt lat="40.75208554423317" lon="17.48643875574362"><ele>323.1666666666667</ele><time>2026-04-17T16:03:08Z</time></trkpt><trkpt lat="40.75200742361098" lon="17.486543935645642"><ele>323.0</ele><time>2026-04-17T16:03:10Z</time></trkpt><trkpt lat="40.75193709876661" lon="17.486663436948355"><ele>322.6666666666667</ele><time>2026-04-17T16:03:12Z</time></trkpt><trkpt lat="40.75189449691623" lon="17.486725498283718"><ele>322.33333333333337</ele><time>2026-04-17T16:03:13Z</time></trkpt><trkpt lat="40.75184370905023" lon="17.48678943016052"><ele>322.0</ele><time>2026-04-17T16:03:14Z</time></trkpt><trkpt lat="40.75178056888126" lon="17.48685073086774"><ele>321.6666666666667</ele><time>2026-04-17T16:03:15Z</time></trkpt><trkpt lat="40.751707009900514" lon="17.4869274501677"><ele>321.3333333333333</ele><time>2026-04-17T16:03:17Z</time></trkpt><trkpt lat="40.75163073022912" lon="17.486950668863926"><ele>321.0</ele><time>2026-04-17T16:03:19Z</time></trkpt><trkpt lat="40.75155813777262" lon="17.487039287275262"><ele>321.8333333333333</ele><time>2026-04-17T16:03:22Z</time></trkpt><trkpt lat="40.75150278714118" lon="17.487145031677496"><ele>322.6666666666667</ele><time>2026-04-17T16:03:24.999Z</time></trkpt><trkpt lat="40.75148552287851" lon="17.48723277898946"><ele>323.5</ele><time>2026-04-17T16:03:26.999Z</time></trkpt><trkpt lat="40.75151095720451" lon="17.487335079280697"><ele>324.33333333333337</ele><time>2026-04-17T16:03:29.999Z</time></trkpt><trkpt lat="40.7515619188194" lon="17.487393202715953"><ele>325.1666666666667</ele><time>2026-04-17T16:03:33.999Z</time></trkpt><trkpt lat="40.75159720434874" lon="17.48747425846663"><ele>326.0</ele><time>2026-04-17T16:03:36.999Z</time></trkpt><trkpt lat="40.75165117270481" lon="17.487541935556198"><ele>326.0</ele><time>2026-04-17T16:03:43.999Z</time></trkpt><trkpt lat="40.75169903533572" lon="17.48762053599806"><ele>326.0</ele><time>2026-04-17T16:03:46.999Z</time></trkpt><trkpt lat="40.75175253389937" lon="17.48772272084082"><ele>326.0</ele><time>2026-04-17T16:03:50.999Z</time></trkpt><trkpt lat="40.751764624368185" lon="17.487805023836287"><ele>326.0</ele><time>2026-04-17T16:03:52.999Z</time></trkpt><trkpt lat="40.7518084904717" lon="17.487867237770246"><ele>326.0</ele><time>2026-04-17T16:03:54.999Z</time></trkpt><trkpt lat="40.7518594440226" lon="17.48794831737754"><ele>326.0</ele><time>2026-04-17T16:03:56.999Z</time></trkpt><trkpt lat="40.75190024892471" lon="17.488074876956826"><ele>321.83333333333337</ele><time>2026-04-17T16:03:58.999Z</time></trkpt><trkpt lat="40.751953195996364" lon="17.488175205509382"><ele>317.6666666666667</ele><time>2026-04-17T16:04:00.999Z</time></trkpt><trkpt lat="40.75196971639138" lon="17.4882554126507"><ele>313.5</ele><time>2026-04-17T16:04:02.999Z</time></trkpt><trkpt lat="40.751955823871015" lon="17.488357075703917"><ele>309.3333333333333</ele><time>2026-04-17T16:04:05.999Z</time></trkpt><trkpt lat="40.75201188948609" lon="17.488438400230624"><ele>305.16666666666663</ele><time>2026-04-17T16:04:07.999Z</time></trkpt><trkpt lat="40.75201514279195" lon="17.488532154565018"><ele>301.0</ele><time>2026-04-17T16:04:09.999Z</time></trkpt><trkpt lat="40.75194762997602" lon="17.488568456877974"><ele>301.0</ele><time>2026-04-17T16:04:11.999Z</time></trkpt><trkpt lat="40.75187826837237" lon="17.48856420876357"><ele>301.0</ele><time>2026-04-17T16:04:13.999Z</time></trkpt><trkpt lat="40.75182108322746" lon="17.488656651340445"><ele>301.0</ele><time>2026-04-17T16:04:16.999Z</time></trkpt><trkpt lat="40.75177731215296" lon="17.488731760132545"><ele>301.0</ele><time>2026-04-17T16:04:19.998Z</time></trkpt><trkpt lat="40.75172920374886" lon="17.488799882020647"><ele>301.0</ele><time>2026-04-17T16:04:22.998Z</time></trkpt><trkpt lat="40.75168147879004" lon="17.48887503132588"><ele>301.0</ele><time>2026-04-17T16:04:24.998Z</time></trkpt><trkpt lat="40.751628801075384" lon="17.48894948731071"><ele>302.8333333333333</ele><time>2026-04-17T16:04:26.998Z</time></trkpt><trkpt lat="40.75156886967792" lon="17.489016217061746"><ele>304.66666666666663</ele><time>2026-04-17T16:04:31.998Z</time></trkpt><trkpt lat="40.751515127660824" lon="17.489089636307508"><ele>306.5</ele><time>2026-04-17T16:04:35.998Z</time></trkpt><trkpt lat="40.75144919226961" lon="17.48917554367537"><ele>308.3333333333333</ele><time>2026-04-17T16:04:38.998Z</time></trkpt><trkpt lat="40.75140219790204" lon="17.489239124915375"><ele>310.1666666666667</ele><time>2026-04-17T16:04:41.998Z</time></trkpt><trkpt lat="40.75133450167681" lon="17.489297691444182"><ele>312.0</ele><time>2026-04-17T16:04:44.998Z</time></trkpt><trkpt lat="40.75125724542785" lon="17.489315497282373"><ele>312.0</ele><time>2026-04-17T16:04:47.998Z</time></trkpt><trkpt lat="40.751179653114924" lon="17.4893570691663"><ele>312.0</ele><time>2026-04-17T16:04:50.998Z</time></trkpt><trkpt lat="40.75111712210525" lon="17.489424391445837"><ele>312.0</ele><time>2026-04-17T16:04:54Z</time></trkpt><trkpt lat="40.75110912319399" lon="17.489534702319414"><ele>312.0</ele><time>2026-04-17T16:04:57Z</time></trkpt><trkpt lat="40.751056286249515" lon="17.489598942153272"><ele>312.0</ele><time>2026-04-17T16:05:00Z</time></trkpt><trkpt lat="40.750998901918756" lon="17.48968663779745"><ele>312.0</ele><time>2026-04-17T16:05:04Z</time></trkpt><trkpt lat="40.75093594567578" lon="17.489774464842736"><ele>312.6666666666667</ele><time>2026-04-17T16:05:07Z</time></trkpt><trkpt lat="40.750872759214566" lon="17.489864471122306"><ele>313.3333333333333</ele><time>2026-04-17T16:05:10Z</time></trkpt><trkpt lat="40.75081695070927" lon="17.489956284166286"><ele>314.0</ele><time>2026-04-17T16:05:12Z</time></trkpt><trkpt lat="40.75076712300658" lon="17.49004380352111"><ele>314.66666666666663</ele><time>2026-04-17T16:05:15Z</time></trkpt><trkpt lat="40.75071984640969" lon="17.49012572992707"><ele>315.3333333333333</ele><time>2026-04-17T16:05:17Z</time></trkpt><trkpt lat="40.75069513861877" lon="17.49023852526095"><ele>316.0</ele><time>2026-04-17T16:05:20Z</time></trkpt><trkpt lat="40.75066652923571" lon="17.49035378054894"><ele>313.3333333333333</ele><time>2026-04-17T16:05:23Z</time></trkpt><trkpt lat="40.75065999186661" lon="17.490440174564707"><ele>310.66666666666663</ele><time>2026-04-17T16:05:26Z</time></trkpt><trkpt lat="40.75062228483781" lon="17.490523019399756"><ele>308.0</ele><time>2026-04-17T16:05:29Z</time></trkpt><trkpt lat="40.750553265175085" lon="17.490588847615317"><ele>305.3333333333333</ele><time>2026-04-17T16:05:33Z</time></trkpt><trkpt lat="40.75049381316531" lon="17.490636499145754"><ele>302.6666666666667</ele><time>2026-04-17T16:05:34.999Z</time></trkpt><trkpt lat="40.75044418828642" lon="17.490699669156992"><ele>300.0</ele><time>2026-04-17T16:05:36.999Z</time></trkpt><trkpt lat="40.75035780744202" lon="17.49074703212837"><ele>299.99999999999994</ele><time>2026-04-17T16:05:39.999Z</time></trkpt><trkpt lat="40.75029781255297" lon="17.49078237523112"><ele>300.0</ele><time>2026-04-17T16:05:41.999Z</time></trkpt><trkpt lat="40.75023715138323" lon="17.490811360143006"><ele>300.0</ele><time>2026-04-17T16:05:43.999Z</time></trkpt><trkpt lat="40.75016587683671" lon="17.490885368824056"><ele>300.0</ele><time>2026-04-17T16:05:46.999Z</time></trkpt><trkpt lat="40.75008809657191" lon="17.490873679341085"><ele>300.0</ele><time>2026-04-17T16:05:49.999Z</time></trkpt><trkpt lat="40.75001901521116" lon="17.490872927077664"><ele>299.99999999999994</ele><time>2026-04-17T16:05:52.999Z</time></trkpt><trkpt lat="40.74995152758499" lon="17.490877241225316"><ele>300.0</ele><time>2026-04-17T16:05:54.999Z</time></trkpt><trkpt lat="40.74987858390668" lon="17.49093967242106"><ele>304.2</ele><time>2026-04-17T16:05:58.999Z</time></trkpt><trkpt lat="40.749802303581255" lon="17.49098693979602"><ele>308.4</ele><time>2026-04-17T16:06:02.999Z</time></trkpt><trkpt lat="40.749738515169035" lon="17.49094998385819"><ele>312.6</ele><time>2026-04-17T16:06:04.999Z</time></trkpt><trkpt lat="40.749666816966474" lon="17.490872657480782"><ele>316.8</ele><time>2026-04-17T16:06:07.999Z</time></trkpt><trkpt lat="40.74960667633503" lon="17.49077757650414"><ele>321.0</ele><time>2026-04-17T16:06:11.999Z</time></trkpt><trkpt lat="40.749536683442514" lon="17.490627390382578"><ele>321.0</ele><time>2026-04-17T16:06:14.999Z</time></trkpt><trkpt lat="40.74949060533331" lon="17.49052558845616"><ele>321.0</ele><time>2026-04-17T16:06:16.999Z</time></trkpt><trkpt lat="40.74943687656704" lon="17.49044619788218"><ele>321.0</ele><time>2026-04-17T16:06:18.999Z</time></trkpt><trkpt lat="40.74939582506788" lon="17.490319629195206"><ele>321.0</ele><time>2026-04-17T16:06:20.999Z</time></trkpt><trkpt lat="40.74934892751024" lon="17.490243175230546"><ele>321.0</ele><time>2026-04-17T16:06:22.999Z</time></trkpt><trkpt lat="40.7493170288175" lon="17.4901087884123"><ele>321.1428571428571</ele><time>2026-04-17T16:06:24.999Z</time></trkpt><trkpt lat="40.74928269293292" lon="17.490019083732264"><ele>321.2857142857143</ele><time>2026-04-17T16:06:26.999Z</time></trkpt><trkpt lat="40.749215775691674" lon="17.490017756150067"><ele>321.42857142857144</ele><time>2026-04-17T16:06:30.998Z</time></trkpt><trkpt lat="40.749169095960866" lon="17.490091265210786"><ele>321.57142857142856</ele><time>2026-04-17T16:06:32.998Z</time></trkpt><trkpt lat="40.749120242228145" lon="17.490145711975977"><ele>321.7142857142857</ele><time>2026-04-17T16:06:34.998Z</time></trkpt><trkpt lat="40.74906567043697" lon="17.490200161844022"><ele>321.85714285714283</ele><time>2026-04-17T16:06:36.998Z</time></trkpt><trkpt lat="40.74900520852356" lon="17.490240758188783"><ele>322.0</ele><time>2026-04-17T16:06:38.998Z</time></trkpt><trkpt lat="40.748950918562414" lon="17.490304319133543"><ele>322.0</ele><time>2026-04-17T16:06:40.998Z</time></trkpt><trkpt lat="40.748907487818286" lon="17.4903682491189"><ele>322.0</ele><time>2026-04-17T16:06:42.998Z</time></trkpt><trkpt lat="40.748861461880736" lon="17.490469992096454"><ele>322.0</ele><time>2026-04-17T16:06:45.998Z</time></trkpt><trkpt lat="40.74878599563143" lon="17.490499779262638"><ele>322.0</ele><time>2026-04-17T16:06:48.998Z</time></trkpt><trkpt lat="40.74871398100037" lon="17.49049433656875"><ele>322.0</ele><time>2026-04-17T16:06:51.998Z</time></trkpt><trkpt lat="40.74865361948021" lon="17.49054133593854"><ele>322.0</ele><time>2026-04-17T16:06:54.998Z</time></trkpt><trkpt lat="40.74858845587656" lon="17.490598087629916"><ele>322.5</ele><time>2026-04-17T16:07:04Z</time></trkpt><trkpt lat="40.748541245834865" lon="17.49065607440511"><ele>323.0</ele><time>2026-04-17T16:07:06Z</time></trkpt><trkpt lat="40.74846967388048" lon="17.490731159822207"><ele>323.5</ele><time>2026-04-17T16:07:09Z</time></trkpt><trkpt lat="40.748419006990105" lon="17.490798119871254"><ele>324.0</ele><time>2026-04-17T16:07:11Z</time></trkpt><trkpt lat="40.748361965786806" lon="17.490857194366445"><ele>324.5</ele><time>2026-04-17T16:07:13Z</time></trkpt><trkpt lat="40.748295373967544" lon="17.49092226184727"><ele>325.0</ele><time>2026-04-17T16:07:15Z</time></trkpt><trkpt lat="40.74822088112366" lon="17.491001085962594"><ele>325.0</ele><time>2026-04-17T16:07:17Z</time></trkpt><trkpt lat="40.74813430816663" lon="17.49109072603524"><ele>325.0</ele><time>2026-04-17T16:07:19Z</time></trkpt><trkpt lat="40.74804788102248" lon="17.491178463992522"><ele>325.0</ele><time>2026-04-17T16:07:21Z</time></trkpt><trkpt lat="40.74795957920566" lon="17.49127499806556"><ele>325.0</ele><time>2026-04-17T16:07:23Z</time></trkpt><trkpt lat="40.74787714953857" lon="17.491361085200175"><ele>325.0</ele><time>2026-04-17T16:07:25Z</time></trkpt><trkpt lat="40.74779193894773" lon="17.491461278220775"><ele>325.0</ele><time>2026-04-17T16:07:27Z</time></trkpt><trkpt lat="40.74770194466418" lon="17.491551293332428"><ele>325.0</ele><time>2026-04-17T16:07:29Z</time></trkpt><trkpt lat="40.74760396616768" lon="17.491643828319226"><ele>325.0</ele><time>2026-04-17T16:07:31Z</time></trkpt><trkpt lat="40.74755761853943" lon="17.49170028852231"><ele>325.0</ele><time>2026-04-17T16:07:32Z</time></trkpt><trkpt lat="40.74751667659819" lon="17.491870367688946"><ele>325.0</ele><time>2026-04-17T16:07:34Z</time></trkpt><trkpt lat="40.74750688759483" lon="17.49198313964854"><ele>325.0</ele><time>2026-04-17T16:07:36Z</time></trkpt><trkpt lat="40.74746621614174" lon="17.492050749947968"><ele>325.0</ele><time>2026-04-17T16:07:38.999Z</time></trkpt><trkpt lat="40.74739770621721" lon="17.49201614657449"><ele>325.0</ele><time>2026-04-17T16:07:40.999Z</time></trkpt><trkpt lat="40.74732324606919" lon="17.491998747167038"><ele>325.0</ele><time>2026-04-17T16:07:42.999Z</time></trkpt><trkpt lat="40.74723125756794" lon="17.49205679967773"><ele>325.0</ele><time>2026-04-17T16:07:44.999Z</time></trkpt><trkpt lat="40.74713725422797" lon="17.49214824513504"><ele>325.0</ele><time>2026-04-17T16:07:46.999Z</time></trkpt><trkpt lat="40.74704284060455" lon="17.49225476021923"><ele>324.8333333333333</ele><time>2026-04-17T16:07:48.999Z</time></trkpt><trkpt lat="40.74695041812986" lon="17.492343705042572"><ele>324.66666666666663</ele><time>2026-04-17T16:07:50.999Z</time></trkpt><trkpt lat="40.74686304234571" lon="17.49245303185806"><ele>324.5</ele><time>2026-04-17T16:07:52.999Z</time></trkpt><trkpt lat="40.74681969548426" lon="17.49251459250957"><ele>324.3333333333333</ele><time>2026-04-17T16:07:53.999Z</time></trkpt><trkpt lat="40.74677561181667" lon="17.492575835552575"><ele>324.1666666666667</ele><time>2026-04-17T16:07:54.999Z</time></trkpt><trkpt lat="40.7467345980864" lon="17.49264217280543"><ele>324.0</ele><time>2026-04-17T16:07:55.999Z</time></trkpt><trkpt lat="40.74664985150268" lon="17.492751893551286"><ele>324.0</ele><time>2026-04-17T16:07:57.999Z</time></trkpt><trkpt lat="40.74660850602005" lon="17.492822697524865"><ele>324.0</ele><time>2026-04-17T16:07:58.999Z</time></trkpt><trkpt lat="40.74657455276018" lon="17.49289270665193"><ele>324.0</ele><time>2026-04-17T16:07:59.999Z</time></trkpt><trkpt lat="40.74653467050776" lon="17.492967532207064"><ele>324.0</ele><time>2026-04-17T16:08:00.999Z</time></trkpt><trkpt lat="40.74645187709472" lon="17.493098344751623"><ele>324.0</ele><time>2026-04-17T16:08:02.999Z</time></trkpt><trkpt lat="40.746405338505966" lon="17.493184715260707"><ele>324.0</ele><time>2026-04-17T16:08:03.999Z</time></trkpt><trkpt lat="40.74636769787879" lon="17.49325359148874"><ele>323.7142857142857</ele><time>2026-04-17T16:08:04.999Z</time></trkpt><trkpt lat="40.74632967011381" lon="17.49332624992181"><ele>323.42857142857144</ele><time>2026-04-17T16:08:05.999Z</time></trkpt><trkpt lat="40.746281771256406" lon="17.49340305861868"><ele>323.1428571428571</ele><time>2026-04-17T16:08:06.999Z</time></trkpt><trkpt lat="40.74623855817147" lon="17.493481024491576"><ele>322.8571428571429</ele><time>2026-04-17T16:08:07.999Z</time></trkpt><trkpt lat="40.746194934124276" lon="17.493555709266666"><ele>322.57142857142856</ele><time>2026-04-17T16:08:08.999Z</time></trkpt><trkpt lat="40.74615246124304" lon="17.493631435478946"><ele>322.2857142857143</ele><time>2026-04-17T16:08:09.999Z</time></trkpt><trkpt lat="40.746109509443116" lon="17.49370881290934"><ele>322.0</ele><time>2026-04-17T16:08:10.999Z</time></trkpt><trkpt lat="40.74606593387105" lon="17.49378466764186"><ele>321.5</ele><time>2026-04-17T16:08:11.999Z</time></trkpt><trkpt lat="40.74601835737896" lon="17.493859432046534"><ele>321.0</ele><time>2026-04-17T16:08:12.999Z</time></trkpt><trkpt lat="40.74597713287406" lon="17.49393788962378"><ele>320.5</ele><time>2026-04-17T16:08:13.999Z</time></trkpt><trkpt lat="40.745934563107056" lon="17.494015443105745"><ele>320.0</ele><time>2026-04-17T16:08:14.999Z</time></trkpt><trkpt lat="40.74589199883832" lon="17.494094780982646"><ele>319.5</ele><time>2026-04-17T16:08:15.999Z</time></trkpt><trkpt lat="40.745844478013986" lon="17.49418263923849"><ele>319.0</ele><time>2026-04-17T16:08:16.999Z</time></trkpt><trkpt lat="40.745795027070145" lon="17.4942711808785"><ele>319.0</ele><time>2026-04-17T16:08:17.999Z</time></trkpt><trkpt lat="40.74575699813485" lon="17.49434828665353"><ele>319.0</ele><time>2026-04-17T16:08:18.999Z</time></trkpt><trkpt lat="40.7457120453006" lon="17.49442431722997"><ele>319.0</ele><time>2026-04-17T16:08:19.999Z</time></trkpt><trkpt lat="40.74566957358311" lon="17.49450385356055"><ele>319.0</ele><time>2026-04-17T16:08:20.999Z</time></trkpt><trkpt lat="40.7456271998822" lon="17.494591309806612"><ele>319.0</ele><time>2026-04-17T16:08:21.999Z</time></trkpt><trkpt lat="40.74558337438473" lon="17.49468649330665"><ele>319.0</ele><time>2026-04-17T16:08:22.999Z</time></trkpt><trkpt lat="40.7455374523119" lon="17.494764457307568"><ele>318.59999999999997</ele><time>2026-04-17T16:08:23.999Z</time></trkpt><trkpt lat="40.74548877234377" lon="17.49484612915337"><ele>318.2</ele><time>2026-04-17T16:08:24.999Z</time></trkpt><trkpt lat="40.74544297119248" lon="17.494932128579453"><ele>317.79999999999995</ele><time>2026-04-17T16:08:25.999Z</time></trkpt><trkpt lat="40.74540025720803" lon="17.495016999509406"><ele>317.4</ele><time>2026-04-17T16:08:26.999Z</time></trkpt><trkpt lat="40.745312928086875" lon="17.49516926878043"><ele>317.0</ele><time>2026-04-17T16:08:28.999Z</time></trkpt><trkpt lat="40.74527265053921" lon="17.49524461088274"><ele>317.0</ele><time>2026-04-17T16:08:29.999Z</time></trkpt><trkpt lat="40.745227044356454" lon="17.49532531467591"><ele>317.0</ele><time>2026-04-17T16:08:30.999Z</time></trkpt><trkpt lat="40.745177697031586" lon="17.495398384080993"><ele>317.0</ele><time>2026-04-17T16:08:31.999Z</time></trkpt><trkpt lat="40.7451314885449" lon="17.495476501893524"><ele>317.0</ele><time>2026-04-17T16:08:32.999Z</time></trkpt><trkpt lat="40.74508676676149" lon="17.495558653877676"><ele>317.0</ele><time>2026-04-17T16:08:33.998Z</time></trkpt><trkpt lat="40.745044959782135" lon="17.495632393961984"><ele>317.0</ele><time>2026-04-17T16:08:34.998Z</time></trkpt><trkpt lat="40.74499467757889" lon="17.495711329192744"><ele>316.33333333333337</ele><time>2026-04-17T16:08:35.998Z</time></trkpt><trkpt lat="40.74495047084598" lon="17.495793835467957"><ele>315.6666666666667</ele><time>2026-04-17T16:08:36.998Z</time></trkpt><trkpt lat="40.74490732139028" lon="17.49589276681339"><ele>315.0</ele><time>2026-04-17T16:08:37.998Z</time></trkpt><trkpt lat="40.744858681730456" lon="17.495978083582468"><ele>314.3333333333333</ele><time>2026-04-17T16:08:38.998Z</time></trkpt><trkpt lat="40.74481599798746" lon="17.49605992936936"><ele>313.66666666666663</ele><time>2026-04-17T16:08:39.998Z</time></trkpt><trkpt lat="40.744765350636065" lon="17.496145738350588"><ele>313.0</ele><time>2026-04-17T16:08:40.998Z</time></trkpt><trkpt lat="40.74469959683534" lon="17.49622010670082"><ele>312.5</ele><time>2026-04-17T16:08:41.998Z</time></trkpt><trkpt lat="40.744645823852906" lon="17.496305571185605"><ele>312.0</ele><time>2026-04-17T16:08:42.998Z</time></trkpt><trkpt lat="40.74459123874645" lon="17.49639232645021"><ele>311.5</ele><time>2026-04-17T16:08:43.998Z</time></trkpt><trkpt lat="40.74454737314681" lon="17.49649486156556"><ele>311.0</ele><time>2026-04-17T16:08:44.998Z</time></trkpt><trkpt lat="40.74448652666067" lon="17.49655556710506"><ele>310.5</ele><time>2026-04-17T16:08:45.998Z</time></trkpt><trkpt lat="40.74442780857599" lon="17.49664430556517"><ele>310.0</ele><time>2026-04-17T16:08:47.998Z</time></trkpt><trkpt lat="40.744337197324995" lon="17.49657642597169"><ele>310.0</ele><time>2026-04-17T16:08:49.998Z</time></trkpt><trkpt lat="40.74428942089701" lon="17.496517132409316"><ele>310.0</ele><time>2026-04-17T16:08:50.998Z</time></trkpt><trkpt lat="40.744205276890185" lon="17.49643788389467"><ele>310.0</ele><time>2026-04-17T16:08:52.998Z</time></trkpt><trkpt lat="40.74416966186334" lon="17.496366012738207"><ele>310.0</ele><time>2026-04-17T16:08:53.998Z</time></trkpt><trkpt lat="40.74412511708413" lon="17.49628230297846"><ele>310.0</ele><time>2026-04-17T16:08:54.998Z</time></trkpt><trkpt lat="40.7440799087999" lon="17.496202885047612"><ele>310.0</ele><time>2026-04-17T16:08:55.998Z</time></trkpt><trkpt lat="40.74407899826219" lon="17.49609705974929"><ele>310.0</ele><time>2026-04-17T16:08:57.998Z</time></trkpt><trkpt lat="40.7441444031762" lon="17.49604001697117"><ele>310.0</ele><time>2026-04-17T16:09:00.998Z</time></trkpt><trkpt lat="40.744189125568" lon="17.49596218011862"><ele>310.0</ele><time>2026-04-17T16:09:02.998Z</time></trkpt><trkpt lat="40.744189762451576" lon="17.495820571205595"><ele>310.0</ele><time>2026-04-17T16:09:05Z</time></trkpt><trkpt lat="40.744192525882255" lon="17.4956860412643"><ele>310.0</ele><time>2026-04-17T16:09:07Z</time></trkpt><trkpt lat="40.744125062033724" lon="17.49561705165883"><ele>310.0</ele><time>2026-04-17T16:09:10Z</time></trkpt><trkpt lat="40.744018116085876" lon="17.495626357590037"><ele>310.0</ele><time>2026-04-17T16:09:12Z</time></trkpt><trkpt lat="40.74392604283418" lon="17.49558131967049"><ele>310.0</ele><time>2026-04-17T16:09:14Z</time></trkpt><trkpt lat="40.74384356823478" lon="17.495480475853984"><ele>310.0</ele><time>2026-04-17T16:09:16Z</time></trkpt><trkpt lat="40.74373510293592" lon="17.495397943846044"><ele>310.0</ele><time>2026-04-17T16:09:18Z</time></trkpt><trkpt lat="40.74366557896797" lon="17.49538287708522"><ele>310.0</ele><time>2026-04-17T16:09:19Z</time></trkpt><trkpt lat="40.74359912865278" lon="17.49537102517656"><ele>308.0</ele><time>2026-04-17T16:09:20Z</time></trkpt><trkpt lat="40.74352785371704" lon="17.495343126595408"><ele>306.0</ele><time>2026-04-17T16:09:21Z</time></trkpt><trkpt lat="40.743475266925394" lon="17.49527486079419"><ele>304.0</ele><time>2026-04-17T16:09:22Z</time></trkpt><trkpt lat="40.743418540499924" lon="17.495201378534095"><ele>302.0</ele><time>2026-04-17T16:09:23Z</time></trkpt><trkpt lat="40.743364945080835" lon="17.495125650071113"><ele>300.0</ele><time>2026-04-17T16:09:24Z</time></trkpt><trkpt lat="40.743294497931295" lon="17.495020479414475"><ele>298.0</ele><time>2026-04-17T16:09:26Z</time></trkpt><trkpt lat="40.74329261601" lon="17.494905652562792"><ele>298.0</ele><time>2026-04-17T16:09:28Z</time></trkpt><trkpt lat="40.743340043713246" lon="17.494805086784318"><ele>298.0</ele><time>2026-04-17T16:09:30Z</time></trkpt><trkpt lat="40.74329650332038" lon="17.494710587187978"><ele>298.0</ele><time>2026-04-17T16:09:33Z</time></trkpt><trkpt lat="40.74322922365382" lon="17.494791458422146"><ele>298.0</ele><time>2026-04-17T16:09:36Z</time></trkpt><trkpt lat="40.74315762098286" lon="17.494801301950464"><ele>298.0</ele><time>2026-04-17T16:09:39Z</time></trkpt><trkpt lat="40.74309467504687" lon="17.49472168763028"><ele>298.0</ele><time>2026-04-17T16:09:41Z</time></trkpt><trkpt lat="40.74302460198029" lon="17.494742763170677"><ele>298.0</ele><time>2026-04-17T16:09:43Z</time></trkpt><trkpt lat="40.74297122444993" lon="17.494695443995926"><ele>298.0</ele><time>2026-04-17T16:09:45Z</time></trkpt><trkpt lat="40.742880106165494" lon="17.494655216638616"><ele>298.0</ele><time>2026-04-17T16:09:47Z</time></trkpt><trkpt lat="40.74284223336335" lon="17.49456186520469"><ele>298.0</ele><time>2026-04-17T16:09:48.999Z</time></trkpt><trkpt lat="40.74279543144859" lon="17.494500610825064"><ele>298.0</ele><time>2026-04-17T16:09:51.999Z</time></trkpt><trkpt lat="40.742813241654055" lon="17.494416690239404"><ele>298.0</ele><time>2026-04-17T16:09:54.999Z</time></trkpt><trkpt lat="40.742855292226345" lon="17.49433535012785"><ele>298.0</ele><time>2026-04-17T16:09:56.999Z</time></trkpt><trkpt lat="40.74292684705732" lon="17.494231564750343"><ele>297.2</ele><time>2026-04-17T16:09:58.999Z</time></trkpt><trkpt lat="40.743016159742155" lon="17.494138604583316"><ele>296.4</ele><time>2026-04-17T16:10:00.999Z</time></trkpt><trkpt lat="40.743115433120956" lon="17.49411435869202"><ele>295.59999999999997</ele><time>2026-04-17T16:10:02.999Z</time></trkpt><trkpt lat="40.743206720878575" lon="17.49408455890079"><ele>294.8</ele><time>2026-04-17T16:10:04.999Z</time></trkpt><trkpt lat="40.74330212032289" lon="17.494010835252784"><ele>294.0</ele><time>2026-04-17T16:10:06.999Z</time></trkpt><trkpt lat="40.743372885332285" lon="17.493925983033463"><ele>294.0</ele><time>2026-04-17T16:10:08.999Z</time></trkpt><trkpt lat="40.74342502583118" lon="17.49382505645918"><ele>294.0</ele><time>2026-04-17T16:10:10.999Z</time></trkpt><trkpt lat="40.74343225654324" lon="17.493688968906657"><ele>294.0</ele><time>2026-04-17T16:10:12.999Z</time></trkpt><trkpt lat="40.74343676891027" lon="17.493571257345646"><ele>294.0</ele><time>2026-04-17T16:10:14.999Z</time></trkpt><trkpt lat="40.74339036182096" lon="17.49346356239781"><ele>294.0</ele><time>2026-04-17T16:10:16.999Z</time></trkpt><trkpt lat="40.74333295571438" lon="17.493368390044367"><ele>294.2</ele><time>2026-04-17T16:10:18.999Z</time></trkpt><trkpt lat="40.74326277250366" lon="17.493274488678292"><ele>294.4</ele><time>2026-04-17T16:10:20.999Z</time></trkpt><trkpt lat="40.74316162556893" lon="17.493268715977003"><ele>294.6</ele><time>2026-04-17T16:10:22.999Z</time></trkpt><trkpt lat="40.74309458405106" lon="17.493261829705027"><ele>294.8</ele><time>2026-04-17T16:10:24.999Z</time></trkpt><trkpt lat="40.74302951586072" lon="17.493163425551273"><ele>295.0</ele><time>2026-04-17T16:10:26.999Z</time></trkpt><trkpt lat="40.7430042149614" lon="17.493019708854874"><ele>295.0</ele><time>2026-04-17T16:10:28.999Z</time></trkpt><trkpt lat="40.74298167363674" lon="17.492856405648602"><ele>295.0</ele><time>2026-04-17T16:10:30.999Z</time></trkpt><trkpt lat="40.74293774815232" lon="17.492756089333234"><ele>295.0</ele><time>2026-04-17T16:10:32.999Z</time></trkpt><trkpt lat="40.742907021948454" lon="17.49265351637461"><ele>295.0</ele><time>2026-04-17T16:10:34.999Z</time></trkpt><trkpt lat="40.74282608156949" lon="17.492583969273568"><ele>295.0</ele><time>2026-04-17T16:10:36.999Z</time></trkpt><trkpt lat="40.74271126440479" lon="17.492560023262737"><ele>295.2</ele><time>2026-04-17T16:10:38.999Z</time></trkpt><trkpt lat="40.74260274684673" lon="17.492577742015456"><ele>295.4</ele><time>2026-04-17T16:10:40.999Z</time></trkpt><trkpt lat="40.74249693012523" lon="17.492593524684512"><ele>295.6</ele><time>2026-04-17T16:10:42.999Z</time></trkpt><trkpt lat="40.74241588449275" lon="17.492533891820443"><ele>295.8</ele><time>2026-04-17T16:10:44.999Z</time></trkpt><trkpt lat="40.74231426128493" lon="17.492465739201663"><ele>296.0</ele><time>2026-04-17T16:10:46.998Z</time></trkpt><trkpt lat="40.742209199337786" lon="17.492479869218023"><ele>296.0</ele><time>2026-04-17T16:10:48.998Z</time></trkpt><trkpt lat="40.74211190660811" lon="17.492471802687504"><ele>296.0</ele><time>2026-04-17T16:10:50.998Z</time></trkpt><trkpt lat="40.74201369686376" lon="17.492420643977603"><ele>296.0</ele><time>2026-04-17T16:10:52.998Z</time></trkpt><trkpt lat="40.741889121012925" lon="17.49239579948358"><ele>296.0</ele><time>2026-04-17T16:10:54.998Z</time></trkpt><trkpt lat="40.74177492231989" lon="17.49233949431384"><ele>295.1666666666667</ele><time>2026-04-17T16:10:56.998Z</time></trkpt><trkpt lat="40.74170333394822" lon="17.492310055151652"><ele>294.33333333333337</ele><time>2026-04-17T16:10:58.998Z</time></trkpt><trkpt lat="40.741621259278126" lon="17.492381707387153"><ele>293.5</ele><time>2026-04-17T16:11:00.998Z</time></trkpt><trkpt lat="40.74158542550327" lon="17.492488708752504"><ele>292.6666666666667</ele><time>2026-04-17T16:11:02.998Z</time></trkpt><trkpt lat="40.74156151033234" lon="17.492630724821836"><ele>291.8333333333333</ele><time>2026-04-17T16:11:04.998Z</time></trkpt><trkpt lat="40.74153931088258" lon="17.492710008630134"><ele>291.0</ele><time>2026-04-17T16:11:05.998Z</time></trkpt><trkpt lat="40.741494322134145" lon="17.492843067652725"><ele>291.0</ele><time>2026-04-17T16:11:07.998Z</time></trkpt><trkpt lat="40.74145246900015" lon="17.492908689135056"><ele>291.0</ele><time>2026-04-17T16:11:09.998Z</time></trkpt><trkpt lat="40.74135601866604" lon="17.492883707602463"><ele>291.0</ele><time>2026-04-17T16:11:12Z</time></trkpt><trkpt lat="40.74122852805845" lon="17.492841405858012"><ele>291.0</ele><time>2026-04-17T16:11:14Z</time></trkpt><trkpt lat="40.741103191425964" lon="17.49280853936481"><ele>291.0</ele><time>2026-04-17T16:11:16Z</time></trkpt><trkpt lat="40.74104762209812" lon="17.492769354526544"><ele>289.0</ele><time>2026-04-17T16:11:18Z</time></trkpt><trkpt lat="40.74095344773865" lon="17.49277798565837"><ele>287.0</ele><time>2026-04-17T16:11:20Z</time></trkpt><trkpt lat="40.74083351943725" lon="17.492719720175543"><ele>285.0</ele><time>2026-04-17T16:11:22Z</time></trkpt><trkpt lat="40.74072447682584" lon="17.4926908009851"><ele>283.0</ele><time>2026-04-17T16:11:24Z</time></trkpt><trkpt lat="40.74062022099884" lon="17.492653086652503"><ele>281.0</ele><time>2026-04-17T16:11:26Z</time></trkpt><trkpt lat="40.74052953597291" lon="17.49264136062286"><ele>281.0</ele><time>2026-04-17T16:11:28Z</time></trkpt><trkpt lat="40.74041247473463" lon="17.49261986040244"><ele>281.0</ele><time>2026-04-17T16:11:30Z</time></trkpt><trkpt lat="40.74034820786343" lon="17.49260343936275"><ele>281.0</ele><time>2026-04-17T16:11:31Z</time></trkpt><trkpt lat="40.74027467852245" lon="17.492588928266127"><ele>281.0</ele><time>2026-04-17T16:11:34Z</time></trkpt><trkpt lat="40.74030227987867" lon="17.49267955627025"><ele>281.0</ele><time>2026-04-17T16:11:37Z</time></trkpt><trkpt lat="40.7403575557994" lon="17.492794100106416"><ele>281.0</ele><time>2026-04-17T16:11:39Z</time></trkpt><trkpt lat="40.74039560412845" lon="17.492885316503354"><ele>280.40000000000003</ele><time>2026-04-17T16:11:41Z</time></trkpt><trkpt lat="40.7404512068052" lon="17.493005299022098"><ele>279.8</ele><time>2026-04-17T16:11:43Z</time></trkpt><trkpt lat="40.74047059364422" lon="17.493125525876884"><ele>279.20000000000005</ele><time>2026-04-17T16:11:45Z</time></trkpt><trkpt lat="40.740535367963545" lon="17.49326479638672"><ele>278.6</ele><time>2026-04-17T16:11:47Z</time></trkpt><trkpt lat="40.7405703264163" lon="17.49338891872465"><ele>278.0</ele><time>2026-04-17T16:11:49Z</time></trkpt><trkpt lat="40.74057758100538" lon="17.493535214904842"><ele>278.0</ele><time>2026-04-17T16:11:51Z</time></trkpt><trkpt lat="40.74057673472607" lon="17.4936542642384"><ele>278.0</ele><time>2026-04-17T16:11:52.999Z</time></trkpt><trkpt lat="40.74058175113597" lon="17.493777787488927"><ele>278.0</ele><time>2026-04-17T16:11:54.999Z</time></trkpt><trkpt lat="40.740583122410186" lon="17.493904414887716"><ele>278.0</ele><time>2026-04-17T16:11:56.999Z</time></trkpt><trkpt lat="40.740577611559104" lon="17.49402591153932"><ele>278.0</ele><time>2026-04-17T16:11:58.999Z</time></trkpt><trkpt lat="40.74057594592195" lon="17.494150207822905"><ele>278.0</ele><time>2026-04-17T16:12:00.999Z</time></trkpt><trkpt lat="40.74058303956343" lon="17.494276620092382"><ele>278.0</ele><time>2026-04-17T16:12:02.999Z</time></trkpt><trkpt lat="40.74057428620399" lon="17.49438420855436"><ele>278.0</ele><time>2026-04-17T16:12:04.999Z</time></trkpt><trkpt lat="40.740565399474676" lon="17.494490835707886"><ele>278.0</ele><time>2026-04-17T16:12:06.999Z</time></trkpt><trkpt lat="40.74054971442457" lon="17.494601923190253"><ele>278.0</ele><time>2026-04-17T16:12:08.999Z</time></trkpt><trkpt lat="40.74051590881931" lon="17.494732395252463"><ele>278.0</ele><time>2026-04-17T16:12:10.999Z</time></trkpt><trkpt lat="40.740472729830245" lon="17.494848078140002"><ele>278.4</ele><time>2026-04-17T16:12:12.999Z</time></trkpt><trkpt lat="40.740460305879154" lon="17.495040185667836"><ele>278.8</ele><time>2026-04-17T16:12:16.999Z</time></trkpt><trkpt lat="40.74047619000213" lon="17.495125702558795"><ele>279.2</ele><time>2026-04-17T16:12:17.999Z</time></trkpt><trkpt lat="40.740487316107824" lon="17.4952433541188"><ele>279.6</ele><time>2026-04-17T16:12:19.999Z</time></trkpt><trkpt lat="40.74048247467259" lon="17.4953798335066"><ele>280.0</ele><time>2026-04-17T16:12:21.999Z</time></trkpt><trkpt lat="40.74049037104515" lon="17.495510950088192"><ele>280.2</ele><time>2026-04-17T16:12:23.999Z</time></trkpt><trkpt lat="40.74049100648923" lon="17.495645056122076"><ele>280.4</ele><time>2026-04-17T16:12:25.999Z</time></trkpt><trkpt lat="40.7404924711711" lon="17.49572919467698"><ele>280.6</ele><time>2026-04-17T16:12:26.999Z</time></trkpt><trkpt lat="40.74049779997672" lon="17.495898012836385"><ele>280.8</ele><time>2026-04-17T16:12:28.999Z</time></trkpt><trkpt lat="40.74049763940052" lon="17.496041981550587"><ele>281.0</ele><time>2026-04-17T16:12:30.999Z</time></trkpt><trkpt lat="40.74050549170461" lon="17.496124786268993"><ele>281.0</ele><time>2026-04-17T16:12:31.999Z</time></trkpt><trkpt lat="40.7405264470308" lon="17.496283698119704"><ele>281.0</ele><time>2026-04-17T16:12:33.999Z</time></trkpt><trkpt lat="40.74055320358685" lon="17.49643413452811"><ele>281.0</ele><time>2026-04-17T16:12:35.999Z</time></trkpt><trkpt lat="40.74056226625476" lon="17.496562123535"><ele>281.0</ele><time>2026-04-17T16:12:37.999Z</time></trkpt><trkpt lat="40.74057179774807" lon="17.49665365175278"><ele>281.0</ele><time>2026-04-17T16:12:38.999Z</time></trkpt><trkpt lat="40.74058280373498" lon="17.496744468620225"><ele>281.0</ele><time>2026-04-17T16:12:39.999Z</time></trkpt><trkpt lat="40.74059719439544" lon="17.49691231022263"><ele>281.0</ele><time>2026-04-17T16:12:41.999Z</time></trkpt><trkpt lat="40.74060163859575" lon="17.496997603520555"><ele>281.0</ele><time>2026-04-17T16:12:42.999Z</time></trkpt><trkpt lat="40.74059695836265" lon="17.497080666991724"><ele>281.0</ele><time>2026-04-17T16:12:43.999Z</time></trkpt><trkpt lat="40.740591168824224" lon="17.49716739682347"><ele>281.0</ele><time>2026-04-17T16:12:44.999Z</time></trkpt><trkpt lat="40.740588049043744" lon="17.497252050176076"><ele>281.0</ele><time>2026-04-17T16:12:45.999Z</time></trkpt><trkpt lat="40.74057836204224" lon="17.497424732757374"><ele>281.0</ele><time>2026-04-17T16:12:47.998Z</time></trkpt><trkpt lat="40.74056911564131" lon="17.497584615374926"><ele>281.0</ele><time>2026-04-17T16:12:49.998Z</time></trkpt><trkpt lat="40.74055530493525" lon="17.49767245930209"><ele>281.0</ele><time>2026-04-17T16:12:50.998Z</time></trkpt><trkpt lat="40.74054398109299" lon="17.49775487388017"><ele>281.0</ele><time>2026-04-17T16:12:51.998Z</time></trkpt><trkpt lat="40.74053290246287" lon="17.4978373485667"><ele>281.0</ele><time>2026-04-17T16:12:52.998Z</time></trkpt><trkpt lat="40.7405192696781" lon="17.49793737529203"><ele>281.0</ele><time>2026-04-17T16:12:53.998Z</time></trkpt><trkpt lat="40.74050609435538" lon="17.498020957769626"><ele>280.7142857142857</ele><time>2026-04-17T16:12:54.998Z</time></trkpt><trkpt lat="40.74049953267606" lon="17.498106382938502"><ele>280.42857142857144</ele><time>2026-04-17T16:12:55.998Z</time></trkpt><trkpt lat="40.74048177536256" lon="17.498200151589145"><ele>280.1428571428571</ele><time>2026-04-17T16:12:56.998Z</time></trkpt><trkpt lat="40.74047207901625" lon="17.498293195527427"><ele>279.8571428571429</ele><time>2026-04-17T16:12:57.998Z</time></trkpt><trkpt lat="40.740461531610336" lon="17.498382836921483"><ele>279.57142857142856</ele><time>2026-04-17T16:12:58.998Z</time></trkpt><trkpt lat="40.74045006349652" lon="17.498476726786347"><ele>279.2857142857143</ele><time>2026-04-17T16:12:59.998Z</time></trkpt><trkpt lat="40.740438212762506" lon="17.498573607973725"><ele>279.0</ele><time>2026-04-17T16:13:00.998Z</time></trkpt><trkpt lat="40.74042563110706" lon="17.498673066040247"><ele>278.5</ele><time>2026-04-17T16:13:01.998Z</time></trkpt><trkpt lat="40.7404154750413" lon="17.498767105386705"><ele>278.0</ele><time>2026-04-17T16:13:02.998Z</time></trkpt><trkpt lat="40.7403999391423" lon="17.498859043524867"><ele>277.5</ele><time>2026-04-17T16:13:03.998Z</time></trkpt><trkpt lat="40.74039915039022" lon="17.498967035062538"><ele>277.0</ele><time>2026-04-17T16:13:04.998Z</time></trkpt><trkpt lat="40.74039784188701" lon="17.499092880491286"><ele>276.5</ele><time>2026-04-17T16:13:05.998Z</time></trkpt><trkpt lat="40.740389457021024" lon="17.499191096563948"><ele>276.0</ele><time>2026-04-17T16:13:06.998Z</time></trkpt><trkpt lat="40.74038809239797" lon="17.49929955630197"><ele>276.0</ele><time>2026-04-17T16:13:07.998Z</time></trkpt><trkpt lat="40.74038562580976" lon="17.499398345504655"><ele>276.0</ele><time>2026-04-17T16:13:08.998Z</time></trkpt><trkpt lat="40.74038098286296" lon="17.499481655374964"><ele>276.0</ele><time>2026-04-17T16:13:09.998Z</time></trkpt><trkpt lat="40.74037753500025" lon="17.499573319106677"><ele>276.0</ele><time>2026-04-17T16:13:10.998Z</time></trkpt><trkpt lat="40.74037196876416" lon="17.499666187506943"><ele>276.0</ele><time>2026-04-17T16:13:11.998Z</time></trkpt><trkpt lat="40.74035658070012" lon="17.499845481756388"><ele>276.0</ele><time>2026-04-17T16:13:13.998Z</time></trkpt><trkpt lat="40.740354770176026" lon="17.499936453905164"><ele>275.6</ele><time>2026-04-17T16:13:14.998Z</time></trkpt><trkpt lat="40.740340072309586" lon="17.50008028489621"><ele>275.20000000000005</ele><time>2026-04-17T16:13:17Z</time></trkpt><trkpt lat="40.74032591917314" lon="17.500227384266346"><ele>274.79999999999995</ele><time>2026-04-17T16:13:19Z</time></trkpt><trkpt lat="40.740319587653545" lon="17.500312903068103"><ele>274.4</ele><time>2026-04-17T16:13:20Z</time></trkpt><trkpt lat="40.74031509481692" lon="17.500397239353077"><ele>274.0</ele><time>2026-04-17T16:13:21Z</time></trkpt><trkpt lat="40.74030502393643" lon="17.500544425131128"><ele>275.0</ele><time>2026-04-17T16:13:23Z</time></trkpt><trkpt lat="40.74029356743735" lon="17.500680008360764"><ele>276.0</ele><time>2026-04-17T16:13:25Z</time></trkpt><trkpt lat="40.7402859519504" lon="17.50084350030831"><ele>277.0</ele><time>2026-04-17T16:13:27Z</time></trkpt><trkpt lat="40.74027996787762" lon="17.501009359320506"><ele>278.0</ele><time>2026-04-17T16:13:29Z</time></trkpt><trkpt lat="40.740269995126646" lon="17.501166471682023"><ele>279.0</ele><time>2026-04-17T16:13:31Z</time></trkpt><trkpt lat="40.74026298369695" lon="17.50132465507062"><ele>280.0</ele><time>2026-04-17T16:13:33Z</time></trkpt><trkpt lat="40.74024396685239" lon="17.501483349272494"><ele>281.0</ele><time>2026-04-17T16:13:35Z</time></trkpt><trkpt lat="40.740183839635336" lon="17.501612019911793"><ele>282.0</ele><time>2026-04-17T16:13:37Z</time></trkpt><trkpt lat="40.740115057888616" lon="17.501730486926416"><ele>282.5</ele><time>2026-04-17T16:13:39Z</time></trkpt><trkpt lat="40.74004288315227" lon="17.501838117562745"><ele>283.0</ele><time>2026-04-17T16:13:41Z</time></trkpt><trkpt lat="40.73997569357659" lon="17.50196618329307"><ele>283.5</ele><time>2026-04-17T16:13:43Z</time></trkpt><trkpt lat="40.73991473455462" lon="17.502089373811316"><ele>284.0</ele><time>2026-04-17T16:13:45Z</time></trkpt><trkpt lat="40.73985916393894" lon="17.502222699510018"><ele>284.0</ele><time>2026-04-17T16:13:47Z</time></trkpt><trkpt lat="40.73981186043313" lon="17.50234033719302"><ele>284.0</ele><time>2026-04-17T16:13:49Z</time></trkpt><trkpt lat="40.73978245673231" lon="17.50247186926032"><ele>284.0</ele><time>2026-04-17T16:13:51Z</time></trkpt><trkpt lat="40.7397846050522" lon="17.502603448873973"><ele>284.0</ele><time>2026-04-17T16:13:53Z</time></trkpt><trkpt lat="40.73977599367805" lon="17.502740207843672"><ele>284.0</ele><time>2026-04-17T16:13:55Z</time></trkpt><trkpt lat="40.739767753954354" lon="17.502879657032523"><ele>285.4</ele><time>2026-04-17T16:13:57Z</time></trkpt><trkpt lat="40.739772272092964" lon="17.503020336226097"><ele>286.79999999999995</ele><time>2026-04-17T16:13:58.999Z</time></trkpt><trkpt lat="40.739772451802736" lon="17.50314974805162"><ele>288.20000000000005</ele><time>2026-04-17T16:14:00.999Z</time></trkpt><trkpt lat="40.739770600183576" lon="17.50329488222455"><ele>289.6</ele><time>2026-04-17T16:14:02.999Z</time></trkpt><trkpt lat="40.73976179665895" lon="17.503399043151468"><ele>291.0</ele><time>2026-04-17T16:14:04.999Z</time></trkpt><trkpt lat="40.73975646321363" lon="17.50350909810512"><ele>291.0</ele><time>2026-04-17T16:14:06.999Z</time></trkpt><trkpt lat="40.73975409545792" lon="17.503615847432616"><ele>291.0</ele><time>2026-04-17T16:14:08.999Z</time></trkpt><trkpt lat="40.739746353601014" lon="17.50372094336784"><ele>291.0</ele><time>2026-04-17T16:14:10.999Z</time></trkpt><trkpt lat="40.739744788380726" lon="17.503848572967513"><ele>291.0</ele><time>2026-04-17T16:14:12.999Z</time></trkpt><trkpt lat="40.73975711737979" lon="17.503967087119626"><ele>291.0</ele><time>2026-04-17T16:14:14.999Z</time></trkpt><trkpt lat="40.73979566553324" lon="17.504070479022097"><ele>291.0</ele><time>2026-04-17T16:14:16.999Z</time></trkpt><trkpt lat="40.73983707184478" lon="17.504151058966674"><ele>291.2</ele><time>2026-04-17T16:14:18.999Z</time></trkpt><trkpt lat="40.73985690096149" lon="17.50423868457854"><ele>291.40000000000003</ele><time>2026-04-17T16:14:20.999Z</time></trkpt><trkpt lat="40.73985504222364" lon="17.504343987249246"><ele>291.6</ele><time>2026-04-17T16:14:22.999Z</time></trkpt><trkpt lat="40.73984276142387" lon="17.504445432044964"><ele>291.8</ele><time>2026-04-17T16:14:24.999Z</time></trkpt><trkpt lat="40.73983167790417" lon="17.504594152553636"><ele>292.0</ele><time>2026-04-17T16:14:26.999Z</time></trkpt><trkpt lat="40.739841337582625" lon="17.504763873473205"><ele>292.0</ele><time>2026-04-17T16:14:28.999Z</time></trkpt><trkpt lat="40.73983600695037" lon="17.504852324510857"><ele>292.0</ele><time>2026-04-17T16:14:29.999Z</time></trkpt><trkpt lat="40.73982115845314" lon="17.504934176770817"><ele>292.0</ele><time>2026-04-17T16:14:30.999Z</time></trkpt><trkpt lat="40.73981181193019" lon="17.50501991158848"><ele>292.0</ele><time>2026-04-17T16:14:31.999Z</time></trkpt><trkpt lat="40.7398067675095" lon="17.505109510244267"><ele>292.0</ele><time>2026-04-17T16:14:32.999Z</time></trkpt><trkpt lat="40.73979594878332" lon="17.505207634154083"><ele>292.0</ele><time>2026-04-17T16:14:33.999Z</time></trkpt><trkpt lat="40.73977672635268" lon="17.505294543729352"><ele>292.0</ele><time>2026-04-17T16:14:34.999Z</time></trkpt><trkpt lat="40.73976140762813" lon="17.505390457373736"><ele>291.8333333333333</ele><time>2026-04-17T16:14:35.999Z</time></trkpt><trkpt lat="40.73975094338295" lon="17.50550053381374"><ele>291.66666666666663</ele><time>2026-04-17T16:14:36.999Z</time></trkpt><trkpt lat="40.73973816780997" lon="17.505601208981115"><ele>291.5</ele><time>2026-04-17T16:14:37.999Z</time></trkpt><trkpt lat="40.73972477415707" lon="17.505697453986095"><ele>291.3333333333333</ele><time>2026-04-17T16:14:38.999Z</time></trkpt><trkpt lat="40.73971639841614" lon="17.50578993354593"><ele>291.1666666666667</ele><time>2026-04-17T16:14:39.999Z</time></trkpt><trkpt lat="40.73971338116024" lon="17.50590607313183"><ele>291.0</ele><time>2026-04-17T16:14:40.999Z</time></trkpt><trkpt lat="40.739714000319175" lon="17.50601422494365"><ele>291.0</ele><time>2026-04-17T16:14:41.999Z</time></trkpt><trkpt lat="40.739720531499934" lon="17.506132634559762"><ele>291.0</ele><time>2026-04-17T16:14:42.999Z</time></trkpt><trkpt lat="40.739716338085884" lon="17.506249563655206"><ele>291.0</ele><time>2026-04-17T16:14:43.999Z</time></trkpt><trkpt lat="40.73971576423927" lon="17.50636822734481"><ele>291.0</ele><time>2026-04-17T16:14:44.999Z</time></trkpt><trkpt lat="40.73971595329037" lon="17.506483908557723"><ele>291.0</ele><time>2026-04-17T16:14:45.999Z</time></trkpt><trkpt lat="40.73971520576448" lon="17.506608923891253"><ele>289.6</ele><time>2026-04-17T16:14:46.999Z</time></trkpt><trkpt lat="40.73971081617378" lon="17.50672490196288"><ele>288.20000000000005</ele><time>2026-04-17T16:14:47.999Z</time></trkpt><trkpt lat="40.73970568581663" lon="17.506851012243494"><ele>286.79999999999995</ele><time>2026-04-17T16:14:48.999Z</time></trkpt><trkpt lat="40.739704267273275" lon="17.506968593573337"><ele>285.4</ele><time>2026-04-17T16:14:49.999Z</time></trkpt><trkpt lat="40.73970276118171" lon="17.507103805544975"><ele>284.0</ele><time>2026-04-17T16:14:50.999Z</time></trkpt><trkpt lat="40.73969870223068" lon="17.507229156005177"><ele>282.2</ele><time>2026-04-17T16:14:51.999Z</time></trkpt><trkpt lat="40.73969304765286" lon="17.50736020942038"><ele>280.4</ele><time>2026-04-17T16:14:52.999Z</time></trkpt><trkpt lat="40.73968534054549" lon="17.50748672620359"><ele>278.6</ele><time>2026-04-17T16:14:53.999Z</time></trkpt><trkpt lat="40.73967392516633" lon="17.507614442113045"><ele>276.8</ele><time>2026-04-17T16:14:54.998Z</time></trkpt><trkpt lat="40.73965731540133" lon="17.507747530760312"><ele>275.0</ele><time>2026-04-17T16:14:55.998Z</time></trkpt><trkpt lat="40.73964009617327" lon="17.50787742744474"><ele>272.4</ele><time>2026-04-17T16:14:56.998Z</time></trkpt><trkpt lat="40.73961724390306" lon="17.508008562176286"><ele>269.8</ele><time>2026-04-17T16:14:57.998Z</time></trkpt><trkpt lat="40.739587924762894" lon="17.50813945577242"><ele>267.2</ele><time>2026-04-17T16:14:58.998Z</time></trkpt><trkpt lat="40.739555322633095" lon="17.50826759806719"><ele>264.6</ele><time>2026-04-17T16:14:59.998Z</time></trkpt><trkpt lat="40.73952305818113" lon="17.508391091201666"><ele>262.0</ele><time>2026-04-17T16:15:00.998Z</time></trkpt><trkpt lat="40.73948373432135" lon="17.50851147108549"><ele>262.0</ele><time>2026-04-17T16:15:01.998Z</time></trkpt><trkpt lat="40.73944063249984" lon="17.50863484949104"><ele>262.0</ele><time>2026-04-17T16:15:02.998Z</time></trkpt><trkpt lat="40.73939814779122" lon="17.508750636185788"><ele>262.0</ele><time>2026-04-17T16:15:03.998Z</time></trkpt><trkpt lat="40.73935600718158" lon="17.50885779040528"><ele>262.0</ele><time>2026-04-17T16:15:04.998Z</time></trkpt><trkpt lat="40.739313464967026" lon="17.50895806931306"><ele>262.0</ele><time>2026-04-17T16:15:05.998Z</time></trkpt><trkpt lat="40.739273524474896" lon="17.509058275981364"><ele>262.8571428571429</ele><time>2026-04-17T16:15:06.998Z</time></trkpt><trkpt lat="40.73923381120502" lon="17.509153803496645"><ele>263.7142857142857</ele><time>2026-04-17T16:15:07.998Z</time></trkpt><trkpt lat="40.73919470166564" lon="17.509246032377852"><ele>264.57142857142856</ele><time>2026-04-17T16:15:08.998Z</time></trkpt><trkpt lat="40.73915475903616" lon="17.509330636611992"><ele>265.42857142857144</ele><time>2026-04-17T16:15:09.998Z</time></trkpt><trkpt lat="40.739116715186746" lon="17.509411061295022"><ele>266.2857142857143</ele><time>2026-04-17T16:15:10.998Z</time></trkpt><trkpt lat="40.73907753503463" lon="17.509485220042073"><ele>267.14285714285717</ele><time>2026-04-17T16:15:11.998Z</time></trkpt><trkpt lat="40.739044193697595" lon="17.509561463175253"><ele>268.0</ele><time>2026-04-17T16:15:12.998Z</time></trkpt><trkpt lat="40.73898430793757" lon="17.509694068738096"><ele>268.6</ele><time>2026-04-17T16:15:14.998Z</time></trkpt><trkpt lat="40.73892666487623" lon="17.50980891538168"><ele>269.20000000000005</ele><time>2026-04-17T16:15:16.998Z</time></trkpt><trkpt lat="40.73886688728035" lon="17.50992481818719"><ele>269.8</ele><time>2026-04-17T16:15:18.998Z</time></trkpt><trkpt lat="40.7388116137171" lon="17.51003232637104"><ele>270.40000000000003</ele><time>2026-04-17T16:15:20.998Z</time></trkpt><trkpt lat="40.73875368250036" lon="17.510139733734807"><ele>271.0</ele><time>2026-04-17T16:15:23Z</time></trkpt><trkpt lat="40.738692114671764" lon="17.510253957192642"><ele>271.0</ele><time>2026-04-17T16:15:25Z</time></trkpt><trkpt lat="40.73863778427061" lon="17.510369999588267"><ele>271.0</ele><time>2026-04-17T16:15:27Z</time></trkpt><trkpt lat="40.73857559563497" lon="17.51048443013116"><ele>271.0</ele><time>2026-04-17T16:15:29Z</time></trkpt><trkpt lat="40.73852044775823" lon="17.510600283048984"><ele>271.0</ele><time>2026-04-17T16:15:31Z</time></trkpt><trkpt lat="40.73846199460304" lon="17.510721054131757"><ele>271.0</ele><time>2026-04-17T16:15:33Z</time></trkpt><trkpt lat="40.73840808145061" lon="17.510837715242165"><ele>273.2</ele><time>2026-04-17T16:15:35Z</time></trkpt><trkpt lat="40.7383540212078" lon="17.510953458139404"><ele>275.40000000000003</ele><time>2026-04-17T16:15:37Z</time></trkpt><trkpt lat="40.73830378901719" lon="17.51106560133301"><ele>277.6</ele><time>2026-04-17T16:15:39Z</time></trkpt><trkpt lat="40.73824411391611" lon="17.511167726790795"><ele>279.8</ele><time>2026-04-17T16:15:41Z</time></trkpt><trkpt lat="40.73818915369678" lon="17.511286752443148"><ele>282.0</ele><time>2026-04-17T16:15:43Z</time></trkpt><trkpt lat="40.73813890819152" lon="17.511399670350073"><ele>283.6</ele><time>2026-04-17T16:15:45Z</time></trkpt><trkpt lat="40.73807835280523" lon="17.511502002991286"><ele>285.2</ele><time>2026-04-17T16:15:47Z</time></trkpt><trkpt lat="40.73802361460956" lon="17.511606747684752"><ele>286.8</ele><time>2026-04-17T16:15:49Z</time></trkpt><trkpt lat="40.737972944582786" lon="17.511731244294676"><ele>288.4</ele><time>2026-04-17T16:15:51Z</time></trkpt><trkpt lat="40.73792120605834" lon="17.51182777685567"><ele>290.0</ele><time>2026-04-17T16:15:53Z</time></trkpt><trkpt lat="40.73786780335251" lon="17.511935575918823"><ele>290.0</ele><time>2026-04-17T16:15:55Z</time></trkpt><trkpt lat="40.73781533666814" lon="17.512052290781845"><ele>290.0</ele><time>2026-04-17T16:15:57Z</time></trkpt><trkpt lat="40.73775216789302" lon="17.512153117788596"><ele>290.0</ele><time>2026-04-17T16:15:59Z</time></trkpt><trkpt lat="40.7377055452203" lon="17.512213912802515"><ele>290.0</ele><time>2026-04-17T16:16:01Z</time></trkpt><trkpt lat="40.737673695940046" lon="17.512294790829053"><ele>290.0</ele><time>2026-04-17T16:16:02Z</time></trkpt><trkpt lat="40.73762154778783" lon="17.51240413760221"><ele>290.0</ele><time>2026-04-17T16:16:03.999Z</time></trkpt><trkpt lat="40.73755688844643" lon="17.51251646039023"><ele>290.0</ele><time>2026-04-17T16:16:05.999Z</time></trkpt><trkpt lat="40.73750575299434" lon="17.51262422166004"><ele>290.0</ele><time>2026-04-17T16:16:07.999Z</time></trkpt><trkpt lat="40.737449652609016" lon="17.512730580764256"><ele>290.0</ele><time>2026-04-17T16:16:09.999Z</time></trkpt><trkpt lat="40.73739522216757" lon="17.512839241762645"><ele>290.0</ele><time>2026-04-17T16:16:11.999Z</time></trkpt><trkpt lat="40.73733922706298" lon="17.512956835362665"><ele>290.0</ele><time>2026-04-17T16:16:13.999Z</time></trkpt><trkpt lat="40.73728176587408" lon="17.51306886049539"><ele>290.8</ele><time>2026-04-17T16:16:15.999Z</time></trkpt><trkpt lat="40.73723140754815" lon="17.51317354219895"><ele>291.6</ele><time>2026-04-17T16:16:17.999Z</time></trkpt><trkpt lat="40.7371794827348" lon="17.513293402912357"><ele>292.4</ele><time>2026-04-17T16:16:19.999Z</time></trkpt><trkpt lat="40.73711971511378" lon="17.513401571881108"><ele>293.2</ele><time>2026-04-17T16:16:21.999Z</time></trkpt><trkpt lat="40.73707469544219" lon="17.5135247426344"><ele>294.0</ele><time>2026-04-17T16:16:23.999Z</time></trkpt><trkpt lat="40.737024959370025" lon="17.513651523000107"><ele>294.8</ele><time>2026-04-17T16:16:25.999Z</time></trkpt><trkpt lat="40.73697734789234" lon="17.51378264660444"><ele>295.59999999999997</ele><time>2026-04-17T16:16:27.999Z</time></trkpt><trkpt lat="40.73694322568396" lon="17.513913888664828"><ele>296.4</ele><time>2026-04-17T16:16:29.999Z</time></trkpt><trkpt lat="40.736898963190534" lon="17.51404916416733"><ele>297.2</ele><time>2026-04-17T16:16:31.999Z</time></trkpt><trkpt lat="40.736851295051885" lon="17.51417859488202"><ele>298.0</ele><time>2026-04-17T16:16:33.999Z</time></trkpt><trkpt lat="40.73681485380986" lon="17.51430788452024"><ele>298.8</ele><time>2026-04-17T16:16:35.999Z</time></trkpt><trkpt lat="40.7367877100754" lon="17.5144530409903"><ele>299.6</ele><time>2026-04-17T16:16:37.999Z</time></trkpt><trkpt lat="40.736756424659085" lon="17.514576017519307"><ele>300.4</ele><time>2026-04-17T16:16:39.999Z</time></trkpt><trkpt lat="40.73673697256023" lon="17.51472535020619"><ele>301.2</ele><time>2026-04-17T16:16:41.999Z</time></trkpt><trkpt lat="40.73671565892274" lon="17.514867833096396"><ele>302.0</ele><time>2026-04-17T16:16:43.999Z</time></trkpt><trkpt lat="40.73669811454963" lon="17.51501087074579"><ele>302.25</ele><time>2026-04-17T16:16:45.999Z</time></trkpt><trkpt lat="40.736685590336066" lon="17.51516285236447"><ele>302.5</ele><time>2026-04-17T16:16:47.999Z</time></trkpt><trkpt lat="40.73666242179273" lon="17.515319687317845"><ele>302.75</ele><time>2026-04-17T16:16:49.999Z</time></trkpt><trkpt lat="40.73666250380456" lon="17.51546628321259"><ele>303.0</ele><time>2026-04-17T16:16:51.999Z</time></trkpt><trkpt lat="40.736656726571425" lon="17.51562035515987"><ele>303.0</ele><time>2026-04-17T16:16:53.999Z</time></trkpt><trkpt lat="40.73666117611014" lon="17.51576759315529"><ele>303.0</ele><time>2026-04-17T16:16:55.999Z</time></trkpt><trkpt lat="40.736677758577024" lon="17.515939986270123"><ele>303.0</ele><time>2026-04-17T16:16:57.999Z</time></trkpt><trkpt lat="40.73668379620156" lon="17.516072330935916"><ele>303.0</ele><time>2026-04-17T16:16:59.998Z</time></trkpt><trkpt lat="40.736691297771365" lon="17.51621038083648"><ele>303.0</ele><time>2026-04-17T16:17:01.998Z</time></trkpt><trkpt lat="40.73669086672879" lon="17.51634565173178"><ele>302.6666666666667</ele><time>2026-04-17T16:17:03.998Z</time></trkpt><trkpt lat="40.73669949369667" lon="17.516428424866675"><ele>302.3333333333333</ele><time>2026-04-17T16:17:04.998Z</time></trkpt><trkpt lat="40.73670856909656" lon="17.51651074176173"><ele>302.0</ele><time>2026-04-17T16:17:05.998Z</time></trkpt><trkpt lat="40.73671785339711" lon="17.516649863235454"><ele>301.66666666666663</ele><time>2026-04-17T16:17:07.998Z</time></trkpt><trkpt lat="40.73672784581539" lon="17.516799420129512"><ele>301.3333333333333</ele><time>2026-04-17T16:17:09.998Z</time></trkpt><trkpt lat="40.73673305620675" lon="17.516884052747567"><ele>301.0</ele><time>2026-04-17T16:17:10.998Z</time></trkpt><trkpt lat="40.73673735409106" lon="17.51704054081624"><ele>300.75</ele><time>2026-04-17T16:17:12.998Z</time></trkpt><trkpt lat="40.73674992788442" lon="17.517200771470453"><ele>300.5</ele><time>2026-04-17T16:17:14.998Z</time></trkpt><trkpt lat="40.73674790557098" lon="17.517331142255074"><ele>300.25</ele><time>2026-04-17T16:17:16.998Z</time></trkpt><trkpt lat="40.736765311334416" lon="17.51747768367484"><ele>300.0</ele><time>2026-04-17T16:17:18.998Z</time></trkpt><trkpt lat="40.73677971988971" lon="17.517642219625824"><ele>300.0</ele><time>2026-04-17T16:17:20.998Z</time></trkpt><trkpt lat="40.73678865306131" lon="17.51779816372624"><ele>300.0</ele><time>2026-04-17T16:17:22.998Z</time></trkpt><trkpt lat="40.73680090502029" lon="17.517952294737693"><ele>300.0</ele><time>2026-04-17T16:17:24.998Z</time></trkpt><trkpt lat="40.73679868270046" lon="17.518039106282966"><ele>300.0</ele><time>2026-04-17T16:17:25.998Z</time></trkpt><trkpt lat="40.736798990307655" lon="17.518125820413925"><ele>300.0</ele><time>2026-04-17T16:17:26.998Z</time></trkpt><trkpt lat="40.736820828434475" lon="17.51829219586444"><ele>300.0</ele><time>2026-04-17T16:17:29Z</time></trkpt><trkpt lat="40.73683230491428" lon="17.51845130047885"><ele>300.0</ele><time>2026-04-17T16:17:31Z</time></trkpt><trkpt lat="40.73683842269837" lon="17.518537745414093"><ele>300.0</ele><time>2026-04-17T16:17:32Z</time></trkpt><trkpt lat="40.736846410729065" lon="17.51870010047213"><ele>300.0</ele><time>2026-04-17T16:17:34Z</time></trkpt><trkpt lat="40.736855686405704" lon="17.51879311962733"><ele>300.0</ele><time>2026-04-17T16:17:35Z</time></trkpt><trkpt lat="40.73686025851031" lon="17.518878806448882"><ele>300.0</ele><time>2026-04-17T16:17:36Z</time></trkpt><trkpt lat="40.7368653682624" lon="17.51903942076801"><ele>300.0</ele><time>2026-04-17T16:17:38Z</time></trkpt><trkpt lat="40.73687462469993" lon="17.519135713631755"><ele>300.0</ele><time>2026-04-17T16:17:39Z</time></trkpt><trkpt lat="40.73688759042023" lon="17.51928800684736"><ele>300.0</ele><time>2026-04-17T16:17:41Z</time></trkpt><trkpt lat="40.73689439714993" lon="17.51944384390772"><ele>300.0</ele><time>2026-04-17T16:17:43Z</time></trkpt><trkpt lat="40.73690184980737" lon="17.519527402810787"><ele>300.0</ele><time>2026-04-17T16:17:44Z</time></trkpt><trkpt lat="40.73691678832937" lon="17.519625806868394"><ele>300.0</ele><time>2026-04-17T16:17:45Z</time></trkpt><trkpt lat="40.7369184823483" lon="17.519768692222524"><ele>300.6</ele><time>2026-04-17T16:17:47Z</time></trkpt><trkpt lat="40.736917334007465" lon="17.519853368067885"><ele>301.2</ele><time>2026-04-17T16:17:48Z</time></trkpt><trkpt lat="40.73692812728346" lon="17.520020963750046"><ele>301.8</ele><time>2026-04-17T16:17:50Z</time></trkpt><trkpt lat="40.73694206615782" lon="17.52018400060589"><ele>302.4</ele><time>2026-04-17T16:17:52Z</time></trkpt><trkpt lat="40.73695697794724" lon="17.520350961195728"><ele>303.0</ele><time>2026-04-17T16:17:54Z</time></trkpt><trkpt lat="40.73696135627268" lon="17.52043817989958"><ele>303.0</ele><time>2026-04-17T16:17:55Z</time></trkpt><trkpt lat="40.736972016647286" lon="17.520597650083616"><ele>303.0</ele><time>2026-04-17T16:17:57Z</time></trkpt><trkpt lat="40.73698298694396" lon="17.52076762633898"><ele>303.0</ele><time>2026-04-17T16:17:59Z</time></trkpt><trkpt lat="40.736995353672235" lon="17.520925666736446"><ele>303.0</ele><time>2026-04-17T16:18:01Z</time></trkpt><trkpt lat="40.73700020816861" lon="17.521012615011763"><ele>303.0</ele><time>2026-04-17T16:18:01.999Z</time></trkpt><trkpt lat="40.737012754986516" lon="17.521179713249683"><ele>301.6</ele><time>2026-04-17T16:18:03.999Z</time></trkpt><trkpt lat="40.737020603017335" lon="17.521264796586962"><ele>300.20000000000005</ele><time>2026-04-17T16:18:04.999Z</time></trkpt><trkpt lat="40.737030083028344" lon="17.52143079232474"><ele>298.8</ele><time>2026-04-17T16:18:06.999Z</time></trkpt><trkpt lat="40.73703984525079" lon="17.521593288426693"><ele>297.40000000000003</ele><time>2026-04-17T16:18:08.999Z</time></trkpt><trkpt lat="40.73704552914684" lon="17.521676511165087"><ele>296.0</ele><time>2026-04-17T16:18:09.999Z</time></trkpt><trkpt lat="40.737057569724485" lon="17.521843854252555"><ele>296.0</ele><time>2026-04-17T16:18:11.999Z</time></trkpt><trkpt lat="40.7370642227321" lon="17.521927001490955"><ele>296.0</ele><time>2026-04-17T16:18:12.999Z</time></trkpt><trkpt lat="40.737072992093395" lon="17.522088727853266"><ele>296.0</ele><time>2026-04-17T16:18:14.999Z</time></trkpt><trkpt lat="40.73708117243354" lon="17.52217262065211"><ele>296.0</ele><time>2026-04-17T16:18:15.999Z</time></trkpt><trkpt lat="40.737085464203375" lon="17.522255873572604"><ele>296.0</ele><time>2026-04-17T16:18:16.999Z</time></trkpt><trkpt lat="40.73709657883656" lon="17.522413488200012"><ele>296.0</ele><time>2026-04-17T16:18:18.999Z</time></trkpt><trkpt lat="40.73710228403646" lon="17.52249838407039"><ele>296.1666666666667</ele><time>2026-04-17T16:18:19.999Z</time></trkpt><trkpt lat="40.73710950811218" lon="17.52258534156772"><ele>296.33333333333337</ele><time>2026-04-17T16:18:20.999Z</time></trkpt><trkpt lat="40.737114058664005" lon="17.522738647959574"><ele>296.5</ele><time>2026-04-17T16:18:22.999Z</time></trkpt><trkpt lat="40.73711657690285" lon="17.522822398500434"><ele>296.6666666666667</ele><time>2026-04-17T16:18:23.999Z</time></trkpt><trkpt lat="40.73712553134889" lon="17.522911338654723"><ele>296.8333333333333</ele><time>2026-04-17T16:18:24.999Z</time></trkpt><trkpt lat="40.73713433689159" lon="17.523071576199587"><ele>297.0</ele><time>2026-04-17T16:18:26.999Z</time></trkpt><trkpt lat="40.737139830852605" lon="17.523159672581215"><ele>297.0</ele><time>2026-04-17T16:18:27.999Z</time></trkpt><trkpt lat="40.737146167121445" lon="17.523247122571455"><ele>297.0</ele><time>2026-04-17T16:18:28.999Z</time></trkpt><trkpt lat="40.7371515326271" lon="17.523342298250952"><ele>297.0</ele><time>2026-04-17T16:18:29.999Z</time></trkpt><trkpt lat="40.73716470039316" lon="17.523500231419472"><ele>297.0</ele><time>2026-04-17T16:18:31.999Z</time></trkpt><trkpt lat="40.73717357890019" lon="17.523669537849816"><ele>297.0</ele><time>2026-04-17T16:18:33.999Z</time></trkpt><trkpt lat="40.73718131076108" lon="17.523762177285803"><ele>297.4</ele><time>2026-04-17T16:18:34.999Z</time></trkpt><trkpt lat="40.737188852823216" lon="17.523922268326285"><ele>297.79999999999995</ele><time>2026-04-17T16:18:36.999Z</time></trkpt><trkpt lat="40.73719858604233" lon="17.52407901381515"><ele>298.2</ele><time>2026-04-17T16:18:38.999Z</time></trkpt><trkpt lat="40.73721420008177" lon="17.52423826994538"><ele>298.59999999999997</ele><time>2026-04-17T16:18:40.999Z</time></trkpt><trkpt lat="40.73722224345345" lon="17.524337314962157"><ele>299.0</ele><time>2026-04-17T16:18:41.999Z</time></trkpt><trkpt lat="40.73722486144808" lon="17.524482261785863"><ele>298.8</ele><time>2026-04-17T16:18:43.999Z</time></trkpt><trkpt lat="40.737232654681556" lon="17.524572763683565"><ele>298.59999999999997</ele><time>2026-04-17T16:18:44.999Z</time></trkpt><trkpt lat="40.737240714877835" lon="17.524729352073976"><ele>298.4</ele><time>2026-04-17T16:18:46.999Z</time></trkpt><trkpt lat="40.73724806881956" lon="17.52489499702588"><ele>298.2</ele><time>2026-04-17T16:18:48.999Z</time></trkpt><trkpt lat="40.737263407692566" lon="17.525058419972662"><ele>298.0</ele><time>2026-04-17T16:18:50.999Z</time></trkpt><trkpt lat="40.737271182095874" lon="17.525225660893895"><ele>298.0</ele><time>2026-04-17T16:18:52.999Z</time></trkpt><trkpt lat="40.73727340784468" lon="17.525312258674745"><ele>298.0</ele><time>2026-04-17T16:18:53.999Z</time></trkpt><trkpt lat="40.73727759447554" lon="17.525397232452445"><ele>298.0</ele><time>2026-04-17T16:18:54.999Z</time></trkpt><trkpt lat="40.73728600653476" lon="17.525571042715605"><ele>298.0</ele><time>2026-04-17T16:18:56.998Z</time></trkpt><trkpt lat="40.73729343548698" lon="17.52572941028068"><ele>298.0</ele><time>2026-04-17T16:18:58.998Z</time></trkpt><trkpt lat="40.73729831799966" lon="17.525816538456244"><ele>298.0</ele><time>2026-04-17T16:18:59.998Z</time></trkpt><trkpt lat="40.73730158456598" lon="17.525905511803447"><ele>297.3333333333333</ele><time>2026-04-17T16:19:00.998Z</time></trkpt><trkpt lat="40.73730869881602" lon="17.526002728718648"><ele>296.66666666666663</ele><time>2026-04-17T16:19:01.998Z</time></trkpt><trkpt lat="40.73731494351515" lon="17.526103424120087"><ele>296.0</ele><time>2026-04-17T16:19:02.998Z</time></trkpt><trkpt lat="40.73731502327934" lon="17.52619306369526"><ele>295.3333333333333</ele><time>2026-04-17T16:19:03.998Z</time></trkpt><trkpt lat="40.73732167740987" lon="17.52629972086697"><ele>294.6666666666667</ele><time>2026-04-17T16:19:04.998Z</time></trkpt><trkpt lat="40.737324085908796" lon="17.526396295994203"><ele>294.0</ele><time>2026-04-17T16:19:05.998Z</time></trkpt><trkpt lat="40.73733069645686" lon="17.52650029173409"><ele>293.6666666666667</ele><time>2026-04-17T16:19:06.998Z</time></trkpt><trkpt lat="40.73734068539771" lon="17.52659306181952"><ele>293.3333333333333</ele><time>2026-04-17T16:19:07.998Z</time></trkpt><trkpt lat="40.73734997146692" lon="17.526709892883638"><ele>293.0</ele><time>2026-04-17T16:19:08.998Z</time></trkpt><trkpt lat="40.73735563150151" lon="17.526818953764792"><ele>292.66666666666663</ele><time>2026-04-17T16:19:09.998Z</time></trkpt><trkpt lat="40.737355945518736" lon="17.52692270491834"><ele>292.3333333333333</ele><time>2026-04-17T16:19:10.998Z</time></trkpt><trkpt lat="40.737355732184916" lon="17.527030492422405"><ele>292.0</ele><time>2026-04-17T16:19:11.998Z</time></trkpt><trkpt lat="40.73735883081635" lon="17.527129215131453"><ele>291.57142857142856</ele><time>2026-04-17T16:19:12.998Z</time></trkpt><trkpt lat="40.73736333460092" lon="17.527237852973144"><ele>291.14285714285717</ele><time>2026-04-17T16:19:13.998Z</time></trkpt><trkpt lat="40.73736942155007" lon="17.527336815594087"><ele>290.7142857142857</ele><time>2026-04-17T16:19:14.998Z</time></trkpt><trkpt lat="40.73738168485178" lon="17.52744064109364"><ele>290.2857142857143</ele><time>2026-04-17T16:19:15.998Z</time></trkpt><trkpt lat="40.737391212982665" lon="17.527536939794935"><ele>289.85714285714283</ele><time>2026-04-17T16:19:16.998Z</time></trkpt><trkpt lat="40.73739800618078" lon="17.527628510557943"><ele>289.42857142857144</ele><time>2026-04-17T16:19:17.998Z</time></trkpt><trkpt lat="40.73740201702336" lon="17.52771836982946"><ele>289.0</ele><time>2026-04-17T16:19:18.998Z</time></trkpt><trkpt lat="40.73740737917254" lon="17.52788897699016"><ele>288.66666666666663</ele><time>2026-04-17T16:19:20.998Z</time></trkpt><trkpt lat="40.737406445045764" lon="17.527974181242477"><ele>288.3333333333333</ele><time>2026-04-17T16:19:21.998Z</time></trkpt><trkpt lat="40.73740833577529" lon="17.528135724628612"><ele>288.0</ele><time>2026-04-17T16:19:23.998Z</time></trkpt><trkpt lat="40.7374119899584" lon="17.52822196667204"><ele>287.6666666666667</ele><time>2026-04-17T16:19:24.998Z</time></trkpt><trkpt lat="40.7374160572938" lon="17.52831101869827"><ele>287.33333333333337</ele><time>2026-04-17T16:19:25.998Z</time></trkpt><trkpt lat="40.73741510557682" lon="17.52846834973952"><ele>287.0</ele><time>2026-04-17T16:19:27.998Z</time></trkpt><trkpt lat="40.737410069672386" lon="17.528557475361154"><ele>287.0</ele><time>2026-04-17T16:19:28.998Z</time></trkpt><trkpt lat="40.7374080176416" lon="17.52864319051646"><ele>287.0</ele><time>2026-04-17T16:19:29.998Z</time></trkpt><trkpt lat="40.73739160999366" lon="17.528801537950283"><ele>287.0</ele><time>2026-04-17T16:19:31.998Z</time></trkpt><trkpt lat="40.737369381473265" lon="17.52896291575323"><ele>287.0</ele><time>2026-04-17T16:19:34Z</time></trkpt><trkpt lat="40.737356049178324" lon="17.529045654802644"><ele>287.0</ele><time>2026-04-17T16:19:35Z</time></trkpt><trkpt lat="40.73732806896939" lon="17.52920405149703"><ele>286.8</ele><time>2026-04-17T16:19:37Z</time></trkpt><trkpt lat="40.73729798627809" lon="17.529360479900312"><ele>286.6</ele><time>2026-04-17T16:19:39Z</time></trkpt><trkpt lat="40.73728076703454" lon="17.52944428491987"><ele>286.40000000000003</ele><time>2026-04-17T16:19:40Z</time></trkpt><trkpt lat="40.73726101796261" lon="17.529528795240974"><ele>286.2</ele><time>2026-04-17T16:19:41Z</time></trkpt><trkpt lat="40.73723663500831" lon="17.529689764901065"><ele>286.0</ele><time>2026-04-17T16:19:43Z</time></trkpt><trkpt lat="40.7372150635697" lon="17.529777932272783"><ele>285.8</ele><time>2026-04-17T16:19:44Z</time></trkpt><trkpt lat="40.73718014776125" lon="17.529924311530486"><ele>285.6</ele><time>2026-04-17T16:19:46Z</time></trkpt><trkpt lat="40.73714781409688" lon="17.530077215697293"><ele>285.4</ele><time>2026-04-17T16:19:48Z</time></trkpt><trkpt lat="40.73711221101454" lon="17.53023229279648"><ele>285.2</ele><time>2026-04-17T16:19:50Z</time></trkpt><trkpt lat="40.73708996728972" lon="17.530313676341972"><ele>285.0</ele><time>2026-04-17T16:19:51Z</time></trkpt><trkpt lat="40.737071029719566" lon="17.530396324215694"><ele>285.0</ele><time>2026-04-17T16:19:52Z</time></trkpt><trkpt lat="40.7370309252239" lon="17.530552180277756"><ele>285.0</ele><time>2026-04-17T16:19:54Z</time></trkpt><trkpt lat="40.73699528537738" lon="17.53069909450643"><ele>285.0</ele><time>2026-04-17T16:19:56Z</time></trkpt><trkpt lat="40.73696325544344" lon="17.530853664666147"><ele>285.0</ele><time>2026-04-17T16:19:58Z</time></trkpt><trkpt lat="40.736923679670525" lon="17.531011329508562"><ele>285.0</ele><time>2026-04-17T16:20:00Z</time></trkpt><trkpt lat="40.73690266319292" lon="17.53110512260501"><ele>285.0</ele><time>2026-04-17T16:20:01Z</time></trkpt><trkpt lat="40.73687808199977" lon="17.53118673778532"><ele>285.0</ele><time>2026-04-17T16:20:02Z</time></trkpt><trkpt lat="40.73685444596047" lon="17.531275131013942"><ele>285.0</ele><time>2026-04-17T16:20:03Z</time></trkpt><trkpt lat="40.736830458623615" lon="17.531353797369494"><ele>285.0</ele><time>2026-04-17T16:20:04Z</time></trkpt><trkpt lat="40.7368130077684" lon="17.531451909524467"><ele>285.0</ele><time>2026-04-17T16:20:05Z</time></trkpt><trkpt lat="40.73679469533428" lon="17.531553917348653"><ele>285.0</ele><time>2026-04-17T16:20:06Z</time></trkpt><trkpt lat="40.73676660900939" lon="17.53164458262151"><ele>285.1666666666667</ele><time>2026-04-17T16:20:07Z</time></trkpt><trkpt lat="40.7367333295518" lon="17.531723655156192"><ele>285.3333333333333</ele><time>2026-04-17T16:20:08Z</time></trkpt><trkpt lat="40.736697505906065" lon="17.531819997236163"><ele>285.5</ele><time>2026-04-17T16:20:09Z</time></trkpt><trkpt lat="40.73666405455213" lon="17.531912145419206"><ele>285.66666666666663</ele><time>2026-04-17T16:20:10Z</time></trkpt><trkpt lat="40.73661907501726" lon="17.531998156019462"><ele>285.8333333333333</ele><time>2026-04-17T16:20:11Z</time></trkpt><trkpt lat="40.73657288423642" lon="17.532092988770284"><ele>286.0</ele><time>2026-04-17T16:20:12Z</time></trkpt><trkpt lat="40.73651987411673" lon="17.532185764643003"><ele>285.66666666666663</ele><time>2026-04-17T16:20:13Z</time></trkpt><trkpt lat="40.736470777111634" lon="17.532278217627987"><ele>285.3333333333333</ele><time>2026-04-17T16:20:13.999Z</time></trkpt><trkpt lat="40.73641723854611" lon="17.53236718929832"><ele>285.0</ele><time>2026-04-17T16:20:14.999Z</time></trkpt><trkpt lat="40.736356973169634" lon="17.53245298575296"><ele>284.6666666666667</ele><time>2026-04-17T16:20:15.999Z</time></trkpt><trkpt lat="40.73629146768747" lon="17.532534647469124"><ele>284.33333333333337</ele><time>2026-04-17T16:20:16.999Z</time></trkpt><trkpt lat="40.736226013474166" lon="17.532620839123783"><ele>284.0</ele><time>2026-04-17T16:20:17.999Z</time></trkpt><trkpt lat="40.73615442787018" lon="17.53270828779671"><ele>284.0</ele><time>2026-04-17T16:20:18.999Z</time></trkpt><trkpt lat="40.73608335703816" lon="17.532782626659973"><ele>284.0</ele><time>2026-04-17T16:20:19.999Z</time></trkpt><trkpt lat="40.73601187895543" lon="17.532865585682416"><ele>284.0</ele><time>2026-04-17T16:20:20.999Z</time></trkpt><trkpt lat="40.73593793333183" lon="17.532950780425427"><ele>284.0</ele><time>2026-04-17T16:20:21.999Z</time></trkpt><trkpt lat="40.73586903248756" lon="17.533024260900763"><ele>284.0</ele><time>2026-04-17T16:20:22.999Z</time></trkpt><trkpt lat="40.73579249486578" lon="17.533116727970754"><ele>283.2</ele><time>2026-04-17T16:20:23.999Z</time></trkpt><trkpt lat="40.73571766899701" lon="17.533201554608297"><ele>282.4</ele><time>2026-04-17T16:20:24.999Z</time></trkpt><trkpt lat="40.73564631109258" lon="17.53327819819564"><ele>281.6</ele><time>2026-04-17T16:20:25.999Z</time></trkpt><trkpt lat="40.73557952142998" lon="17.533347126625227"><ele>280.8</ele><time>2026-04-17T16:20:26.999Z</time></trkpt><trkpt lat="40.735513848222205" lon="17.53344026302719"><ele>280.0</ele><time>2026-04-17T16:20:27.999Z</time></trkpt><trkpt lat="40.73544743807294" lon="17.53353626127587"><ele>280.0</ele><time>2026-04-17T16:20:28.999Z</time></trkpt><trkpt lat="40.735389258913976" lon="17.53362162755266"><ele>280.0</ele><time>2026-04-17T16:20:29.999Z</time></trkpt><trkpt lat="40.73533315500485" lon="17.533723603948662"><ele>280.0</ele><time>2026-04-17T16:20:30.999Z</time></trkpt><trkpt lat="40.73528358389759" lon="17.533820057384588"><ele>280.0</ele><time>2026-04-17T16:20:31.999Z</time></trkpt><trkpt lat="40.73524079205896" lon="17.53392094987102"><ele>280.0</ele><time>2026-04-17T16:20:32.999Z</time></trkpt><trkpt lat="40.73519980765294" lon="17.534010688729737"><ele>280.0</ele><time>2026-04-17T16:20:33.999Z</time></trkpt><trkpt lat="40.735161674744695" lon="17.53410763825812"><ele>279.16666666666663</ele><time>2026-04-17T16:20:34.999Z</time></trkpt><trkpt lat="40.73513003316757" lon="17.534206171936766"><ele>278.3333333333333</ele><time>2026-04-17T16:20:35.999Z</time></trkpt><trkpt lat="40.735097055766516" lon="17.534300086155923"><ele>277.5</ele><time>2026-04-17T16:20:36.999Z</time></trkpt><trkpt lat="40.73507114921265" lon="17.53440133595017"><ele>276.6666666666667</ele><time>2026-04-17T16:20:37.999Z</time></trkpt><trkpt lat="40.73504543782588" lon="17.534495247674986"><ele>275.83333333333337</ele><time>2026-04-17T16:20:38.999Z</time></trkpt><trkpt lat="40.73501756578442" lon="17.53458564887307"><ele>275.0</ele><time>2026-04-17T16:20:39.999Z</time></trkpt><trkpt lat="40.73499185070011" lon="17.534680693875487"><ele>274.7142857142857</ele><time>2026-04-17T16:20:40.999Z</time></trkpt><trkpt lat="40.73496696984143" lon="17.534769301521976"><ele>274.42857142857144</ele><time>2026-04-17T16:20:41.999Z</time></trkpt><trkpt lat="40.73495064254339" lon="17.53486651641113"><ele>274.1428571428571</ele><time>2026-04-17T16:20:42.999Z</time></trkpt><trkpt lat="40.73493960674861" lon="17.534962972891297"><ele>273.8571428571429</ele><time>2026-04-17T16:20:43.999Z</time></trkpt><trkpt lat="40.73493257644143" lon="17.535059093940497"><ele>273.57142857142856</ele><time>2026-04-17T16:20:44.999Z</time></trkpt><trkpt lat="40.734921331064655" lon="17.53514402192393"><ele>273.2857142857143</ele><time>2026-04-17T16:20:45.999Z</time></trkpt><trkpt lat="40.73491673503346" lon="17.53523784632474"><ele>273.0</ele><time>2026-04-17T16:20:46.999Z</time></trkpt><trkpt lat="40.73490996304128" lon="17.535330638625616"><ele>272.8333333333333</ele><time>2026-04-17T16:20:47.999Z</time></trkpt><trkpt lat="40.7349071748336" lon="17.53542115319782"><ele>272.6666666666667</ele><time>2026-04-17T16:20:48.999Z</time></trkpt><trkpt lat="40.7349048266373" lon="17.53550933913784"><ele>272.5</ele><time>2026-04-17T16:20:49.999Z</time></trkpt><trkpt lat="40.73490216187837" lon="17.535593653069544"><ele>272.33333333333337</ele><time>2026-04-17T16:20:50.999Z</time></trkpt><trkpt lat="40.7349035802265" lon="17.535758544532378"><ele>272.1666666666667</ele><time>2026-04-17T16:20:52.999Z</time></trkpt><trkpt lat="40.73490490775898" lon="17.53584259398443"><ele>272.0</ele><time>2026-04-17T16:20:53.999Z</time></trkpt><trkpt lat="40.73491182702334" lon="17.535925704213785"><ele>272.0</ele><time>2026-04-17T16:20:54.999Z</time></trkpt><trkpt lat="40.734922095327185" lon="17.536008032426285"><ele>272.0</ele><time>2026-04-17T16:20:55.999Z</time></trkpt><trkpt lat="40.7349515845838" lon="17.5361642517689"><ele>272.0</ele><time>2026-04-17T16:20:57.999Z</time></trkpt><trkpt lat="40.73498388089915" lon="17.536315754239045"><ele>272.0</ele><time>2026-04-17T16:20:59.999Z</time></trkpt><trkpt lat="40.735015578187934" lon="17.53646578812137"><ele>272.0</ele><time>2026-04-17T16:21:01.999Z</time></trkpt><trkpt lat="40.73505884589684" lon="17.5366094630529"><ele>271.4</ele><time>2026-04-17T16:21:03.999Z</time></trkpt><trkpt lat="40.73510761623253" lon="17.536745636299322"><ele>270.79999999999995</ele><time>2026-04-17T16:21:05.999Z</time></trkpt><trkpt lat="40.73515462763452" lon="17.53687529111192"><ele>270.2</ele><time>2026-04-17T16:21:07.999Z</time></trkpt><trkpt lat="40.73519460405283" lon="17.53700950574737"><ele>269.59999999999997</ele><time>2026-04-17T16:21:09.999Z</time></trkpt><trkpt lat="40.7352472974768" lon="17.53713757110821"><ele>269.0</ele><time>2026-04-17T16:21:11.998Z</time></trkpt><trkpt lat="40.73528688689918" lon="17.537267268807508"><ele>267.8</ele><time>2026-04-17T16:21:13.998Z</time></trkpt><trkpt lat="40.73533044180363" lon="17.537393769785158"><ele>266.59999999999997</ele><time>2026-04-17T16:21:15.998Z</time></trkpt><trkpt lat="40.73539371188303" lon="17.537511544651316"><ele>265.4</ele><time>2026-04-17T16:21:17.998Z</time></trkpt><trkpt lat="40.735422203236084" lon="17.537595850874766"><ele>264.2</ele><time>2026-04-17T16:21:18.998Z</time></trkpt><trkpt lat="40.73546888414525" lon="17.537735857674964"><ele>263.0</ele><time>2026-04-17T16:21:20.998Z</time></trkpt><trkpt lat="40.735531223682386" lon="17.53787632288269"><ele>262.8</ele><time>2026-04-17T16:21:22.998Z</time></trkpt><trkpt lat="40.73558247786581" lon="17.538006889982256"><ele>262.6</ele><time>2026-04-17T16:21:24.998Z</time></trkpt><trkpt lat="40.73563176146534" lon="17.53813455934773"><ele>262.4</ele><time>2026-04-17T16:21:26.998Z</time></trkpt><trkpt lat="40.7356682291357" lon="17.538256137788956"><ele>262.2</ele><time>2026-04-17T16:21:28.998Z</time></trkpt><trkpt lat="40.735712680013194" lon="17.538390950031573"><ele>262.0</ele><time>2026-04-17T16:21:30.998Z</time></trkpt><trkpt lat="40.73574826193602" lon="17.538541059450594"><ele>262.0</ele><time>2026-04-17T16:21:32.998Z</time></trkpt><trkpt lat="40.73576113990956" lon="17.538623279325453"><ele>262.0</ele><time>2026-04-17T16:21:33.998Z</time></trkpt><trkpt lat="40.73577295686238" lon="17.53870874699441"><ele>262.0</ele><time>2026-04-17T16:21:34.998Z</time></trkpt><trkpt lat="40.735797204617214" lon="17.538870326144846"><ele>262.0</ele><time>2026-04-17T16:21:36.998Z</time></trkpt><trkpt lat="40.73578824578936" lon="17.539029136521723"><ele>262.0</ele><time>2026-04-17T16:21:38.998Z</time></trkpt><trkpt lat="40.73578467852965" lon="17.5391807354894"><ele>262.5</ele><time>2026-04-17T16:21:41Z</time></trkpt><trkpt lat="40.73575802417681" lon="17.539331459207077"><ele>263.0</ele><time>2026-04-17T16:21:43Z</time></trkpt><trkpt lat="40.73572576426961" lon="17.539475754662494"><ele>263.5</ele><time>2026-04-17T16:21:45Z</time></trkpt><trkpt lat="40.735675821568584" lon="17.539617300596127"><ele>264.0</ele><time>2026-04-17T16:21:47Z</time></trkpt><trkpt lat="40.735628937217676" lon="17.539759453613797"><ele>264.2</ele><time>2026-04-17T16:21:49Z</time></trkpt><trkpt lat="40.73557985171315" lon="17.539878674475478"><ele>264.4</ele><time>2026-04-17T16:21:51Z</time></trkpt><trkpt lat="40.73552584132423" lon="17.54001126129513"><ele>264.6</ele><time>2026-04-17T16:21:53Z</time></trkpt><trkpt lat="40.73547689946302" lon="17.540144436024498"><ele>264.8</ele><time>2026-04-17T16:21:55Z</time></trkpt><trkpt lat="40.73543132852332" lon="17.540275966536573"><ele>265.0</ele><time>2026-04-17T16:21:57Z</time></trkpt><trkpt lat="40.735391140249305" lon="17.540397788440917"><ele>264.2</ele><time>2026-04-17T16:21:59Z</time></trkpt><trkpt lat="40.73535444392076" lon="17.540541739076634"><ele>263.4</ele><time>2026-04-17T16:22:01Z</time></trkpt><trkpt lat="40.73536695823783" lon="17.540628205503292"><ele>262.6</ele><time>2026-04-17T16:22:02Z</time></trkpt><trkpt lat="40.735327416641006" lon="17.540757129075974"><ele>261.8</ele><time>2026-04-17T16:22:04Z</time></trkpt><trkpt lat="40.73528990668035" lon="17.540897781752136"><ele>261.0</ele><time>2026-04-17T16:22:06Z</time></trkpt><trkpt lat="40.7352676003118" lon="17.54105217832766"><ele>261.0</ele><time>2026-04-17T16:22:08Z</time></trkpt><trkpt lat="40.73527761646594" lon="17.541145479033847"><ele>261.0</ele><time>2026-04-17T16:22:09Z</time></trkpt><trkpt lat="40.735265298512346" lon="17.541237711377395"><ele>261.0</ele><time>2026-04-17T16:22:10Z</time></trkpt><trkpt lat="40.735270667397565" lon="17.541326138801075"><ele>261.0</ele><time>2026-04-17T16:22:11Z</time></trkpt><trkpt lat="40.7352831214249" lon="17.54141384545401"><ele>261.0</ele><time>2026-04-17T16:22:12Z</time></trkpt><trkpt lat="40.73529310384344" lon="17.541497694988507"><ele>261.0</ele><time>2026-04-17T16:22:13Z</time></trkpt><trkpt lat="40.73530139299271" lon="17.54158362065857"><ele>261.0</ele><time>2026-04-17T16:22:14Z</time></trkpt><trkpt lat="40.7353106602804" lon="17.541744004681973"><ele>260.8</ele><time>2026-04-17T16:22:16Z</time></trkpt><trkpt lat="40.73531058944207" lon="17.541897257266406"><ele>260.6</ele><time>2026-04-17T16:22:17.999Z</time></trkpt><trkpt lat="40.73528659327108" lon="17.542045077568243"><ele>260.4</ele><time>2026-04-17T16:22:19.999Z</time></trkpt><trkpt lat="40.73522382246531" lon="17.542174048766288"><ele>260.2</ele><time>2026-04-17T16:22:21.999Z</time></trkpt><trkpt lat="40.73517676534874" lon="17.54223007420675"><ele>260.0</ele><time>2026-04-17T16:22:22.999Z</time></trkpt><trkpt lat="40.73508108443949" lon="17.54232619872707"><ele>259.8</ele><time>2026-04-17T16:22:24.999Z</time></trkpt><trkpt lat="40.73499950451477" lon="17.54243352548177"><ele>259.6</ele><time>2026-04-17T16:22:26.999Z</time></trkpt><trkpt lat="40.734922367665426" lon="17.542506805792417"><ele>259.4</ele><time>2026-04-17T16:22:28.999Z</time></trkpt><trkpt lat="40.734948970339225" lon="17.542625289519815"><ele>259.2</ele><time>2026-04-17T16:22:29.999Z</time></trkpt><trkpt lat="40.734930591761646" lon="17.542762164682866"><ele>259.0</ele><time>2026-04-17T16:22:31.999Z</time></trkpt><trkpt lat="40.734916332966016" lon="17.542902365559254"><ele>260.4</ele><time>2026-04-17T16:22:33.999Z</time></trkpt><trkpt lat="40.734913622451614" lon="17.543044942851825"><ele>261.79999999999995</ele><time>2026-04-17T16:22:35.999Z</time></trkpt><trkpt lat="40.73491859999923" lon="17.543164248302013"><ele>263.20000000000005</ele><time>2026-04-17T16:22:37.999Z</time></trkpt><trkpt lat="40.73493011140241" lon="17.543249176165173"><ele>264.6</ele><time>2026-04-17T16:22:38.999Z</time></trkpt><trkpt lat="40.734935531834175" lon="17.54339079913822"><ele>266.0</ele><time>2026-04-17T16:22:40.999Z</time></trkpt><trkpt lat="40.734957637122946" lon="17.543511677198268"><ele>266.0</ele><time>2026-04-17T16:22:42.999Z</time></trkpt><trkpt lat="40.734971144025465" lon="17.543629927758555"><ele>266.0</ele><time>2026-04-17T16:22:44.999Z</time></trkpt><trkpt lat="40.73497883639538" lon="17.543735143484238"><ele>266.0</ele><time>2026-04-17T16:22:46.999Z</time></trkpt><trkpt lat="40.73500106761789" lon="17.543823293478486"><ele>266.0</ele><time>2026-04-17T16:22:48.999Z</time></trkpt><trkpt lat="40.73500070801388" lon="17.5439118518645"><ele>266.0</ele><time>2026-04-17T16:22:50.999Z</time></trkpt><trkpt lat="40.73500388691192" lon="17.544002595710165"><ele>266.0</ele><time>2026-04-17T16:22:52.999Z</time></trkpt><trkpt lat="40.73502112918075" lon="17.544094856621"><ele>266.0</ele><time>2026-04-17T16:22:54.999Z</time></trkpt><trkpt lat="40.73502185698918" lon="17.54418800237993"><ele>266.5</ele><time>2026-04-17T16:22:56.999Z</time></trkpt><trkpt lat="40.73502558045742" lon="17.54429240726831"><ele>267.0</ele><time>2026-04-17T16:22:58.999Z</time></trkpt><trkpt lat="40.735029599782294" lon="17.544411760427504"><ele>267.5</ele><time>2026-04-17T16:23:00.999Z</time></trkpt><trkpt lat="40.735042730765" lon="17.544506899200915"><ele>268.0</ele><time>2026-04-17T16:23:02.999Z</time></trkpt><trkpt lat="40.73503935083297" lon="17.544626724955315"><ele>268.5</ele><time>2026-04-17T16:23:04.999Z</time></trkpt><trkpt lat="40.735062215283286" lon="17.544707680704395"><ele>269.0</ele><time>2026-04-17T16:23:05.999Z</time></trkpt><trkpt lat="40.73508565972704" lon="17.544837549490353"><ele>269.2</ele><time>2026-04-17T16:23:07.999Z</time></trkpt><trkpt lat="40.73511332158325" lon="17.544971107853453"><ele>269.4</ele><time>2026-04-17T16:23:09.999Z</time></trkpt><trkpt lat="40.73514732191731" lon="17.545088409267475"><ele>269.6</ele><time>2026-04-17T16:23:11.999Z</time></trkpt><trkpt lat="40.73517072659405" lon="17.54519310092237"><ele>269.8</ele><time>2026-04-17T16:23:13.998Z</time></trkpt><trkpt lat="40.735198212280366" lon="17.545302625271475"><ele>270.0</ele><time>2026-04-17T16:23:15.998Z</time></trkpt><trkpt lat="40.73523733441798" lon="17.545399910946376"><ele>270.4</ele><time>2026-04-17T16:23:17.998Z</time></trkpt><trkpt lat="40.73526431955816" lon="17.54549353163317"><ele>270.8</ele><time>2026-04-17T16:23:19.998Z</time></trkpt><trkpt lat="40.735307015589285" lon="17.545630235994345"><ele>271.2</ele><time>2026-04-17T16:23:21.998Z</time></trkpt><trkpt lat="40.735326888388016" lon="17.545751160801327"><ele>271.6</ele><time>2026-04-17T16:23:23.998Z</time></trkpt><trkpt lat="40.73532484335515" lon="17.54592710226786"><ele>272.0</ele><time>2026-04-17T16:23:25.998Z</time></trkpt><trkpt lat="40.73525900898989" lon="17.54606887461266"><ele>272.0</ele><time>2026-04-17T16:23:27.998Z</time></trkpt><trkpt lat="40.735217663314735" lon="17.546132322563757"><ele>272.0</ele><time>2026-04-17T16:23:28.998Z</time></trkpt><trkpt lat="40.73513785698818" lon="17.546222156937198"><ele>272.0</ele><time>2026-04-17T16:23:30.998Z</time></trkpt><trkpt lat="40.7350656016044" lon="17.546311594025056"><ele>272.0</ele><time>2026-04-17T16:23:32.998Z</time></trkpt><trkpt lat="40.73499281679692" lon="17.546404594118982"><ele>272.0</ele><time>2026-04-17T16:23:34.998Z</time></trkpt><trkpt lat="40.73490899026354" lon="17.54647921668409"><ele>272.2</ele><time>2026-04-17T16:23:36.998Z</time></trkpt><trkpt lat="40.73478694039125" lon="17.546526022769967"><ele>272.4</ele><time>2026-04-17T16:23:38.998Z</time></trkpt><trkpt lat="40.73472038608917" lon="17.546538175519593"><ele>272.6</ele><time>2026-04-17T16:23:39.998Z</time></trkpt><trkpt lat="40.73461606916111" lon="17.5465389167843"><ele>272.8</ele><time>2026-04-17T16:23:41.998Z</time></trkpt><trkpt lat="40.734504745509746" lon="17.546575819514374"><ele>273.0</ele><time>2026-04-17T16:23:43.998Z</time></trkpt><trkpt lat="40.73441599138826" lon="17.54662653497162"><ele>273.25</ele><time>2026-04-17T16:23:46Z</time></trkpt><trkpt lat="40.73431346665481" lon="17.546690239800725"><ele>273.5</ele><time>2026-04-17T16:23:48Z</time></trkpt><trkpt lat="40.73422601083918" lon="17.546794580814442"><ele>273.75</ele><time>2026-04-17T16:23:50Z</time></trkpt><trkpt lat="40.73414700373852" lon="17.546897887322043"><ele>274.0</ele><time>2026-04-17T16:23:52Z</time></trkpt><trkpt lat="40.73408963243597" lon="17.547017422174495"><ele>274.2</ele><time>2026-04-17T16:23:54Z</time></trkpt><trkpt lat="40.73403519197127" lon="17.547120277033404"><ele>274.4</ele><time>2026-04-17T16:23:56Z</time></trkpt><trkpt lat="40.733973709190835" lon="17.547246216163266"><ele>274.6</ele><time>2026-04-17T16:23:58Z</time></trkpt><trkpt lat="40.73392123530512" lon="17.547347387479416"><ele>274.8</ele><time>2026-04-17T16:24:00Z</time></trkpt><trkpt lat="40.733864843691315" lon="17.547438254539603"><ele>275.0</ele><time>2026-04-17T16:24:02Z</time></trkpt><trkpt lat="40.73382387739409" lon="17.547515417894832"><ele>275.0</ele><time>2026-04-17T16:24:04Z</time></trkpt><trkpt lat="40.7337640293432" lon="17.54759166613506"><ele>275.0</ele><time>2026-04-17T16:24:06Z</time></trkpt><trkpt lat="40.733717499725124" lon="17.54768837456996"><ele>275.0</ele><time>2026-04-17T16:24:08Z</time></trkpt><trkpt lat="40.73369363887081" lon="17.54781959097854"><ele>275.0</ele><time>2026-04-17T16:24:10Z</time></trkpt><trkpt lat="40.733691801235814" lon="17.547952394315892"><ele>275.0</ele><time>2026-04-17T16:24:12Z</time></trkpt><trkpt lat="40.73372454890298" lon="17.54808777107906"><ele>275.8</ele><time>2026-04-17T16:24:14Z</time></trkpt><trkpt lat="40.73374965974375" lon="17.54816396745766"><ele>276.6</ele><time>2026-04-17T16:24:15Z</time></trkpt><trkpt lat="40.73378607940375" lon="17.54829983942178"><ele>277.4</ele><time>2026-04-17T16:24:17Z</time></trkpt><trkpt lat="40.73380060281282" lon="17.548445371296427"><ele>278.2</ele><time>2026-04-17T16:24:19Z</time></trkpt><trkpt lat="40.73381809567211" lon="17.54858784540763"><ele>279.0</ele><time>2026-04-17T16:24:21Z</time></trkpt><trkpt lat="40.73382725981593" lon="17.54874266430788"><ele>279.2</ele><time>2026-04-17T16:24:23Z</time></trkpt><trkpt lat="40.73384013161192" lon="17.548898512198527"><ele>279.4</ele><time>2026-04-17T16:24:25Z</time></trkpt><trkpt lat="40.73385654514157" lon="17.549037972191105"><ele>279.6</ele><time>2026-04-17T16:24:26.999Z</time></trkpt><trkpt lat="40.73386650308454" lon="17.549185758106688"><ele>279.8</ele><time>2026-04-17T16:24:28.999Z</time></trkpt><trkpt lat="40.73388314888622" lon="17.549322402505712"><ele>280.0</ele><time>2026-04-17T16:24:30.999Z</time></trkpt><trkpt lat="40.733901449936745" lon="17.549478746573776"><ele>280.0</ele><time>2026-04-17T16:24:32.999Z</time></trkpt><trkpt lat="40.73392207484032" lon="17.549560319831162"><ele>280.0</ele><time>2026-04-17T16:24:33.999Z</time></trkpt><trkpt lat="40.733954792013435" lon="17.549698251029845"><ele>280.0</ele><time>2026-04-17T16:24:35.999Z</time></trkpt><trkpt lat="40.73397483465403" lon="17.549818748776623"><ele>280.0</ele><time>2026-04-17T16:24:37.999Z</time></trkpt><trkpt lat="40.73398148452021" lon="17.54997723825103"><ele>280.0</ele><time>2026-04-17T16:24:39.999Z</time></trkpt><trkpt lat="40.73396537136315" lon="17.550143790980524"><ele>280.0</ele><time>2026-04-17T16:24:41.999Z</time></trkpt><trkpt lat="40.73395044308664" lon="17.55022959911834"><ele>280.0</ele><time>2026-04-17T16:24:42.999Z</time></trkpt><trkpt lat="40.73393230983089" lon="17.55032177144627"><ele>280.0</ele><time>2026-04-17T16:24:43.999Z</time></trkpt><trkpt lat="40.73389275703753" lon="17.55041153308612"><ele>280.0</ele><time>2026-04-17T16:24:44.999Z</time></trkpt><trkpt lat="40.73383259587797" lon="17.550504480739903"><ele>280.0</ele><time>2026-04-17T16:24:45.999Z</time></trkpt><trkpt lat="40.733754164261995" lon="17.550567602996328"><ele>280.0</ele><time>2026-04-17T16:24:46.999Z</time></trkpt><trkpt lat="40.73367522136742" lon="17.550608023300153"><ele>279.8333333333333</ele><time>2026-04-17T16:24:47.999Z</time></trkpt><trkpt lat="40.733603280296634" lon="17.550657330988294"><ele>279.66666666666663</ele><time>2026-04-17T16:24:48.999Z</time></trkpt><trkpt lat="40.73352956212303" lon="17.55071579476652"><ele>279.5</ele><time>2026-04-17T16:24:49.999Z</time></trkpt><trkpt lat="40.73345639326595" lon="17.55078254486491"><ele>279.3333333333333</ele><time>2026-04-17T16:24:50.999Z</time></trkpt><trkpt lat="40.73337967031004" lon="17.550858478172202"><ele>279.1666666666667</ele><time>2026-04-17T16:24:51.999Z</time></trkpt><trkpt lat="40.73330565368889" lon="17.550922392523553"><ele>279.0</ele><time>2026-04-17T16:24:52.999Z</time></trkpt><trkpt lat="40.7332297354846" lon="17.551000546191794"><ele>278.4</ele><time>2026-04-17T16:24:53.999Z</time></trkpt><trkpt lat="40.73314443815514" lon="17.551054804262947"><ele>277.79999999999995</ele><time>2026-04-17T16:24:54.999Z</time></trkpt><trkpt lat="40.73306968054462" lon="17.55112311146996"><ele>277.20000000000005</ele><time>2026-04-17T16:24:55.999Z</time></trkpt><trkpt lat="40.73300043747808" lon="17.551207812860547"><ele>276.6</ele><time>2026-04-17T16:24:56.999Z</time></trkpt><trkpt lat="40.73292600477163" lon="17.55127514657332"><ele>276.0</ele><time>2026-04-17T16:24:57.999Z</time></trkpt><trkpt lat="40.732853878173906" lon="17.551340934433483"><ele>275.8</ele><time>2026-04-17T16:24:58.999Z</time></trkpt><trkpt lat="40.73279426592658" lon="17.5514309033432"><ele>275.6</ele><time>2026-04-17T16:24:59.999Z</time></trkpt><trkpt lat="40.73275109539724" lon="17.551528306637852"><ele>275.4</ele><time>2026-04-17T16:25:00.999Z</time></trkpt><trkpt lat="40.73271858572959" lon="17.551649225184363"><ele>275.2</ele><time>2026-04-17T16:25:01.999Z</time></trkpt><trkpt lat="40.732682523376695" lon="17.55176561040552"><ele>275.0</ele><time>2026-04-17T16:25:02.999Z</time></trkpt><trkpt lat="40.73265621506415" lon="17.551880658305848"><ele>273.83333333333337</ele><time>2026-04-17T16:25:03.999Z</time></trkpt><trkpt lat="40.73262836434693" lon="17.55199126094769"><ele>272.6666666666667</ele><time>2026-04-17T16:25:04.999Z</time></trkpt><trkpt lat="40.73260800956552" lon="17.552097823867573"><ele>271.5</ele><time>2026-04-17T16:25:05.999Z</time></trkpt><trkpt lat="40.73259096512721" lon="17.552195788828808"><ele>270.3333333333333</ele><time>2026-04-17T16:25:06.999Z</time></trkpt><trkpt lat="40.732586559166336" lon="17.552305850970782"><ele>269.16666666666663</ele><time>2026-04-17T16:25:07.999Z</time></trkpt><trkpt lat="40.73257766393593" lon="17.552416813441287"><ele>268.0</ele><time>2026-04-17T16:25:08.999Z</time></trkpt><trkpt lat="40.732560621611384" lon="17.552530677850044"><ele>267.8</ele><time>2026-04-17T16:25:09.999Z</time></trkpt><trkpt lat="40.73250929163558" lon="17.552628120374862"><ele>267.6</ele><time>2026-04-17T16:25:10.999Z</time></trkpt><trkpt lat="40.732480546991106" lon="17.55274342965187"><ele>267.4</ele><time>2026-04-17T16:25:11.999Z</time></trkpt><trkpt lat="40.73245515183703" lon="17.552857904028276"><ele>267.2</ele><time>2026-04-17T16:25:12.999Z</time></trkpt><trkpt lat="40.7324515637139" lon="17.552996912516267"><ele>267.0</ele><time>2026-04-17T16:25:13.999Z</time></trkpt><trkpt lat="40.73243599190451" lon="17.553118819849338"><ele>266.6</ele><time>2026-04-17T16:25:14.999Z</time></trkpt><trkpt lat="40.73239107686166" lon="17.553248204637356"><ele>266.2</ele><time>2026-04-17T16:25:15.999Z</time></trkpt><trkpt lat="40.73235935181982" lon="17.553369040667373"><ele>265.8</ele><time>2026-04-17T16:25:16.999Z</time></trkpt><trkpt lat="40.73231367812799" lon="17.55347351480849"><ele>265.4</ele><time>2026-04-17T16:25:17.999Z</time></trkpt><trkpt lat="40.73228290174302" lon="17.55359172477457"><ele>265.0</ele><time>2026-04-17T16:25:18.999Z</time></trkpt><trkpt lat="40.73222639393401" lon="17.55371094834222"><ele>264.66666666666663</ele><time>2026-04-17T16:25:19.999Z</time></trkpt><trkpt lat="40.73218437120245" lon="17.553806484178303"><ele>264.3333333333333</ele><time>2026-04-17T16:25:20.999Z</time></trkpt><trkpt lat="40.732157566887665" lon="17.553888499795907"><ele>264.0</ele><time>2026-04-17T16:25:21.999Z</time></trkpt><trkpt lat="40.732082534379145" lon="17.553925180052637"><ele>263.6666666666667</ele><time>2026-04-17T16:25:22.999Z</time></trkpt><trkpt lat="40.731995132745695" lon="17.553901971375932"><ele>263.33333333333337</ele><time>2026-04-17T16:25:23.999Z</time></trkpt><trkpt lat="40.73191566860001" lon="17.553823225047633"><ele>263.0</ele><time>2026-04-17T16:25:24.998Z</time></trkpt><trkpt lat="40.731858123655684" lon="17.553717484309246"><ele>262.0</ele><time>2026-04-17T16:25:25.998Z</time></trkpt><trkpt lat="40.73178404882367" lon="17.55363701758645"><ele>261.0</ele><time>2026-04-17T16:25:26.998Z</time></trkpt><trkpt lat="40.731690203717456" lon="17.553588157887763"><ele>260.0</ele><time>2026-04-17T16:25:27.998Z</time></trkpt><trkpt lat="40.73158055192405" lon="17.553594233169026"><ele>259.0</ele><time>2026-04-17T16:25:28.998Z</time></trkpt><trkpt lat="40.731475585406464" lon="17.553648580374336"><ele>258.0</ele><time>2026-04-17T16:25:29.998Z</time></trkpt><trkpt lat="40.731396320978256" lon="17.553740489822687"><ele>258.0</ele><time>2026-04-17T16:25:30.998Z</time></trkpt><trkpt lat="40.73132020553726" lon="17.55385742708536"><ele>258.0</ele><time>2026-04-17T16:25:31.998Z</time></trkpt><trkpt lat="40.73124968512054" lon="17.553970299837513"><ele>258.0</ele><time>2026-04-17T16:25:32.998Z</time></trkpt><trkpt lat="40.73117811670218" lon="17.55408041452448"><ele>258.0</ele><time>2026-04-17T16:25:33.998Z</time></trkpt><trkpt lat="40.7311150778146" lon="17.554195700836797"><ele>258.0</ele><time>2026-04-17T16:25:34.998Z</time></trkpt><trkpt lat="40.731061823625716" lon="17.55431379580792"><ele>256.4</ele><time>2026-04-17T16:25:35.998Z</time></trkpt><trkpt lat="40.73100603244792" lon="17.55444032858322"><ele>254.8</ele><time>2026-04-17T16:25:36.998Z</time></trkpt><trkpt lat="40.730954646320455" lon="17.55455694820421"><ele>253.2</ele><time>2026-04-17T16:25:37.998Z</time></trkpt><trkpt lat="40.73089663898344" lon="17.554668979521438"><ele>251.6</ele><time>2026-04-17T16:25:38.998Z</time></trkpt><trkpt lat="40.73083447826504" lon="17.554772366871575"><ele>250.0</ele><time>2026-04-17T16:25:39.998Z</time></trkpt><trkpt lat="40.73077640833642" lon="17.55487384563524"><ele>250.0</ele><time>2026-04-17T16:25:40.998Z</time></trkpt><trkpt lat="40.73071822247292" lon="17.554979743322978"><ele>250.0</ele><time>2026-04-17T16:25:41.998Z</time></trkpt><trkpt lat="40.73066003805889" lon="17.555087720521133"><ele>250.0</ele><time>2026-04-17T16:25:42.998Z</time></trkpt><trkpt lat="40.730616909754126" lon="17.555196473442376"><ele>250.0</ele><time>2026-04-17T16:25:43.998Z</time></trkpt><trkpt lat="40.73056703411382" lon="17.55530788195742"><ele>250.0</ele><time>2026-04-17T16:25:44.998Z</time></trkpt><trkpt lat="40.730525307621605" lon="17.555427815095875"><ele>250.6</ele><time>2026-04-17T16:25:45.998Z</time></trkpt><trkpt lat="40.73047363879548" lon="17.555538778169872"><ele>251.2</ele><time>2026-04-17T16:25:46.998Z</time></trkpt><trkpt lat="40.730432039275165" lon="17.555658634863928"><ele>251.8</ele><time>2026-04-17T16:25:47.998Z</time></trkpt><trkpt lat="40.73039461233344" lon="17.555773713095277"><ele>252.4</ele><time>2026-04-17T16:25:48.998Z</time></trkpt><trkpt lat="40.73036109191185" lon="17.555885465056978"><ele>253.0</ele><time>2026-04-17T16:25:49.998Z</time></trkpt><trkpt lat="40.73032682738788" lon="17.555990029544155"><ele>252.99999999999997</ele><time>2026-04-17T16:25:50.998Z</time></trkpt><trkpt lat="40.730286729743774" lon="17.556089070562393"><ele>253.0</ele><time>2026-04-17T16:25:52Z</time></trkpt><trkpt lat="40.73024828203368" lon="17.556191001932973"><ele>253.0</ele><time>2026-04-17T16:25:53Z</time></trkpt><trkpt lat="40.730213982265816" lon="17.556295645298842"><ele>253.0</ele><time>2026-04-17T16:25:54Z</time></trkpt><trkpt lat="40.73017683868185" lon="17.556390850976687"><ele>252.99999999999997</ele><time>2026-04-17T16:25:55Z</time></trkpt><trkpt lat="40.73014717021476" lon="17.556480556306845"><ele>253.0</ele><time>2026-04-17T16:25:56Z</time></trkpt><trkpt lat="40.73010774820346" lon="17.55656737988803"><ele>251.16666666666666</ele><time>2026-04-17T16:25:57Z</time></trkpt><trkpt lat="40.7300396728915" lon="17.55662263903775"><ele>249.33333333333331</ele><time>2026-04-17T16:25:58Z</time></trkpt><trkpt lat="40.72997351223717" lon="17.556673912425826"><ele>247.5</ele><time>2026-04-17T16:25:59Z</time></trkpt><trkpt lat="40.72989909602638" lon="17.55672629786117"><ele>245.66666666666669</ele><time>2026-04-17T16:26:00Z</time></trkpt><trkpt lat="40.729820447911315" lon="17.556778757349772"><ele>243.83333333333334</ele><time>2026-04-17T16:26:01Z</time></trkpt><trkpt lat="40.729738747177684" lon="17.55683325295527"><ele>242.0</ele><time>2026-04-17T16:26:02Z</time></trkpt><trkpt lat="40.7296580341854" lon="17.55688708966626"><ele>242.00000000000003</ele><time>2026-04-17T16:26:03Z</time></trkpt><trkpt lat="40.72958187073292" lon="17.55695348125763"><ele>242.0</ele><time>2026-04-17T16:26:04Z</time></trkpt><trkpt lat="40.72950099176136" lon="17.557004367063694"><ele>242.0</ele><time>2026-04-17T16:26:05Z</time></trkpt><trkpt lat="40.72942277687838" lon="17.557059596082834"><ele>242.0</ele><time>2026-04-17T16:26:06Z</time></trkpt><trkpt lat="40.72934339534758" lon="17.55711045433195"><ele>242.00000000000003</ele><time>2026-04-17T16:26:07Z</time></trkpt><trkpt lat="40.72926945498688" lon="17.557158597638786"><ele>242.0</ele><time>2026-04-17T16:26:08Z</time></trkpt><trkpt lat="40.72919703187937" lon="17.557207438391416"><ele>241.00000000000003</ele><time>2026-04-17T16:26:09Z</time></trkpt><trkpt lat="40.72912859508462" lon="17.557252201531178"><ele>240.0</ele><time>2026-04-17T16:26:10Z</time></trkpt><trkpt lat="40.72906243274547" lon="17.557298027854603"><ele>239.0</ele><time>2026-04-17T16:26:11Z</time></trkpt><trkpt lat="40.72900089854719" lon="17.557340519075"><ele>238.0</ele><time>2026-04-17T16:26:12Z</time></trkpt><trkpt lat="40.72894297580981" lon="17.557386584714507"><ele>237.00000000000003</ele><time>2026-04-17T16:26:13Z</time></trkpt><trkpt lat="40.72884429239387" lon="17.55748310349059"><ele>236.0</ele><time>2026-04-17T16:26:15Z</time></trkpt><trkpt lat="40.72876797505837" lon="17.557600826746604"><ele>236.00000000000003</ele><time>2026-04-17T16:26:17Z</time></trkpt><trkpt lat="40.72872102270756" lon="17.557750078672516"><ele>236.0</ele><time>2026-04-17T16:26:19Z</time></trkpt><trkpt lat="40.72871983880533" lon="17.557836978993457"><ele>236.0</ele><time>2026-04-17T16:26:20Z</time></trkpt><trkpt lat="40.728717201318666" lon="17.55792784249577"><ele>236.0</ele><time>2026-04-17T16:26:21Z</time></trkpt><trkpt lat="40.72872551510015" lon="17.558021283861407"><ele>236.00000000000003</ele><time>2026-04-17T16:26:22Z</time></trkpt><trkpt lat="40.72871822795859" lon="17.558109023343427"><ele>236.0</ele><time>2026-04-17T16:26:23Z</time></trkpt><trkpt lat="40.72870412076728" lon="17.55819845472948"><ele>236.0</ele><time>2026-04-17T16:26:24Z</time></trkpt><trkpt lat="40.72867633304796" lon="17.558287000941842"><ele>236.0</ele><time>2026-04-17T16:26:25Z</time></trkpt><trkpt lat="40.728651173622005" lon="17.558377142735143"><ele>236.0</ele><time>2026-04-17T16:26:26Z</time></trkpt><trkpt lat="40.72861565889791" lon="17.558454352327132"><ele>236.0</ele><time>2026-04-17T16:26:27Z</time></trkpt><trkpt lat="40.72858346702231" lon="17.558541763637045"><ele>236.0</ele><time>2026-04-17T16:26:28Z</time></trkpt><trkpt lat="40.72854145055304" lon="17.55862421113636"><ele>236.0</ele><time>2026-04-17T16:26:29Z</time></trkpt><trkpt lat="40.728507411432034" lon="17.55871262973457"><ele>236.0</ele><time>2026-04-17T16:26:30Z</time></trkpt><trkpt lat="40.728469160732686" lon="17.55880430836036"><ele>234.8</ele><time>2026-04-17T16:26:31Z</time></trkpt><trkpt lat="40.728430671004766" lon="17.55890361746838"><ele>233.60000000000002</ele><time>2026-04-17T16:26:31.999Z</time></trkpt><trkpt lat="40.7283928067911" lon="17.559011111390507"><ele>232.4</ele><time>2026-04-17T16:26:32.999Z</time></trkpt><trkpt lat="40.72834957514574" lon="17.559125088859822"><ele>231.2</ele><time>2026-04-17T16:26:33.999Z</time></trkpt><trkpt lat="40.728307355024896" lon="17.559237076079178"><ele>230.0</ele><time>2026-04-17T16:26:34.999Z</time></trkpt><trkpt lat="40.72825916598694" lon="17.559330440343686"><ele>230.0</ele><time>2026-04-17T16:26:35.999Z</time></trkpt><trkpt lat="40.728212088498665" lon="17.5594411331988"><ele>230.0</ele><time>2026-04-17T16:26:36.999Z</time></trkpt><trkpt lat="40.728169033279336" lon="17.559553227316396"><ele>230.0</ele><time>2026-04-17T16:26:37.999Z</time></trkpt><trkpt lat="40.72812862040999" lon="17.559668139078195"><ele>230.0</ele><time>2026-04-17T16:26:38.999Z</time></trkpt><trkpt lat="40.7280847485327" lon="17.5597749816602"><ele>230.0</ele><time>2026-04-17T16:26:39.999Z</time></trkpt><trkpt lat="40.72804436978903" lon="17.55987572366995"><ele>229.6</ele><time>2026-04-17T16:26:40.999Z</time></trkpt><trkpt lat="40.728006381065995" lon="17.55997374425977"><ele>229.2</ele><time>2026-04-17T16:26:41.999Z</time></trkpt><trkpt lat="40.72794334271258" lon="17.560044345819833"><ele>228.8</ele><time>2026-04-17T16:26:42.999Z</time></trkpt><trkpt lat="40.72786509793001" lon="17.560080064757262"><ele>228.4</ele><time>2026-04-17T16:26:43.999Z</time></trkpt><trkpt lat="40.7277421137916" lon="17.56015821808802"><ele>228.0</ele><time>2026-04-17T16:26:45.999Z</time></trkpt><trkpt lat="40.72766769272347" lon="17.56018424246902"><ele>228.0</ele><time>2026-04-17T16:26:47.999Z</time></trkpt><trkpt lat="40.7276161327809" lon="17.5602511394948"><ele>228.0</ele><time>2026-04-17T16:26:49.999Z</time></trkpt><trkpt lat="40.727594838706295" lon="17.56039892724791"><ele>228.0</ele><time>2026-04-17T16:26:51.999Z</time></trkpt><trkpt lat="40.72763824744243" lon="17.56054656449867"><ele>228.0</ele><time>2026-04-17T16:26:53.999Z</time></trkpt><trkpt lat="40.727663092961436" lon="17.560627344098176"><ele>228.0</ele><time>2026-04-17T16:26:54.999Z</time></trkpt><trkpt lat="40.727694686736484" lon="17.560712172903543"><ele>228.0</ele><time>2026-04-17T16:26:55.999Z</time></trkpt><trkpt lat="40.727732856328934" lon="17.56080903713256"><ele>226.60000000000002</ele><time>2026-04-17T16:26:56.999Z</time></trkpt><trkpt lat="40.72776894035596" lon="17.56090823108223"><ele>225.20000000000002</ele><time>2026-04-17T16:26:57.999Z</time></trkpt><trkpt lat="40.7278036230999" lon="17.561013474854754"><ele>223.8</ele><time>2026-04-17T16:26:58.999Z</time></trkpt><trkpt lat="40.72784606672115" lon="17.561124709024245"><ele>222.4</ele><time>2026-04-17T16:26:59.999Z</time></trkpt><trkpt lat="40.72788711140906" lon="17.561227078831287"><ele>221.0</ele><time>2026-04-17T16:27:00.999Z</time></trkpt><trkpt lat="40.72792790957198" lon="17.561343264275568"><ele>220.60000000000002</ele><time>2026-04-17T16:27:01.999Z</time></trkpt><trkpt lat="40.72796110042334" lon="17.561465177385347"><ele>220.20000000000002</ele><time>2026-04-17T16:27:02.999Z</time></trkpt><trkpt lat="40.72798599505986" lon="17.561587830496578"><ele>219.79999999999998</ele><time>2026-04-17T16:27:03.999Z</time></trkpt><trkpt lat="40.72799298661302" lon="17.561709662546907"><ele>219.39999999999998</ele><time>2026-04-17T16:27:04.999Z</time></trkpt><trkpt lat="40.72798540227621" lon="17.56182332371635"><ele>219.0</ele><time>2026-04-17T16:27:05.999Z</time></trkpt><trkpt lat="40.72797156635358" lon="17.561933397649778"><ele>219.0</ele><time>2026-04-17T16:27:06.999Z</time></trkpt><trkpt lat="40.727961297914355" lon="17.562044736792448"><ele>219.0</ele><time>2026-04-17T16:27:07.999Z</time></trkpt><trkpt lat="40.72795618108571" lon="17.562146150383963"><ele>219.0</ele><time>2026-04-17T16:27:08.999Z</time></trkpt><trkpt lat="40.72795693967072" lon="17.562241588535965"><ele>219.0</ele><time>2026-04-17T16:27:09.999Z</time></trkpt><trkpt lat="40.72797039567682" lon="17.56233125023314"><ele>219.0</ele><time>2026-04-17T16:27:10.999Z</time></trkpt><trkpt lat="40.7279971333113" lon="17.56248395626301"><ele>219.0</ele><time>2026-04-17T16:27:12.999Z</time></trkpt><trkpt lat="40.72802445166574" lon="17.562617432910205"><ele>219.0</ele><time>2026-04-17T16:27:14.999Z</time></trkpt><trkpt lat="40.72805272777773" lon="17.562765214118844"><ele>219.0</ele><time>2026-04-17T16:27:16.999Z</time></trkpt><trkpt lat="40.72808290663352" lon="17.562913626617625"><ele>219.0</ele><time>2026-04-17T16:27:18.999Z</time></trkpt><trkpt lat="40.728108593157444" lon="17.563056555755924"><ele>219.0</ele><time>2026-04-17T16:27:20.999Z</time></trkpt><trkpt lat="40.72814140418834" lon="17.563204478640987"><ele>219.39999999999998</ele><time>2026-04-17T16:27:22.999Z</time></trkpt><trkpt lat="40.72816283192727" lon="17.563284809959697"><ele>219.79999999999998</ele><time>2026-04-17T16:27:23.999Z</time></trkpt><trkpt lat="40.72818596092337" lon="17.56344060682225"><ele>220.20000000000002</ele><time>2026-04-17T16:27:25.999Z</time></trkpt><trkpt lat="40.72820831343273" lon="17.563599478919134"><ele>220.60000000000002</ele><time>2026-04-17T16:27:27.999Z</time></trkpt><trkpt lat="40.728217233962134" lon="17.56375297085256"><ele>221.0</ele><time>2026-04-17T16:27:29.998Z</time></trkpt><trkpt lat="40.72821498533583" lon="17.563893074369226"><ele>222.4</ele><time>2026-04-17T16:27:31.998Z</time></trkpt><trkpt lat="40.7282069533985" lon="17.564031109624473"><ele>223.8</ele><time>2026-04-17T16:27:33.998Z</time></trkpt><trkpt lat="40.72819735597045" lon="17.56417130350616"><ele>225.20000000000002</ele><time>2026-04-17T16:27:35.998Z</time></trkpt><trkpt lat="40.7281954962644" lon="17.564314717914726"><ele>226.60000000000002</ele><time>2026-04-17T16:27:37.998Z</time></trkpt><trkpt lat="40.728206409441626" lon="17.564465572068713"><ele>228.0</ele><time>2026-04-17T16:27:39.998Z</time></trkpt><trkpt lat="40.728208002807975" lon="17.564615780491565"><ele>228.8</ele><time>2026-04-17T16:27:41.998Z</time></trkpt><trkpt lat="40.72820724787286" lon="17.56477617535936"><ele>229.60000000000002</ele><time>2026-04-17T16:27:43.998Z</time></trkpt><trkpt lat="40.72819525637934" lon="17.56490909621495"><ele>230.39999999999998</ele><time>2026-04-17T16:27:45.998Z</time></trkpt><trkpt lat="40.72817438792663" lon="17.56504301391408"><ele>231.2</ele><time>2026-04-17T16:27:47.998Z</time></trkpt><trkpt lat="40.728126551491044" lon="17.56516079417201"><ele>232.0</ele><time>2026-04-17T16:27:49.998Z</time></trkpt><trkpt lat="40.728060844899936" lon="17.565270862344214"><ele>232.8</ele><time>2026-04-17T16:27:51.998Z</time></trkpt><trkpt lat="40.727996139708665" lon="17.565375247755025"><ele>233.6</ele><time>2026-04-17T16:27:53.998Z</time></trkpt><trkpt lat="40.72793177107244" lon="17.565480516731984"><ele>234.40000000000003</ele><time>2026-04-17T16:27:55.998Z</time></trkpt><trkpt lat="40.727849126938814" lon="17.565564602472115"><ele>235.20000000000002</ele><time>2026-04-17T16:27:58Z</time></trkpt><trkpt lat="40.72776320987851" lon="17.56564500914445"><ele>236.0</ele><time>2026-04-17T16:28:00Z</time></trkpt><trkpt lat="40.72767524015959" lon="17.565723591387215"><ele>236.25</ele><time>2026-04-17T16:28:02Z</time></trkpt><trkpt lat="40.727584636731144" lon="17.56581300023613"><ele>236.5</ele><time>2026-04-17T16:28:04Z</time></trkpt><trkpt lat="40.727485202199304" lon="17.565901762297557"><ele>236.75</ele><time>2026-04-17T16:28:06Z</time></trkpt><trkpt lat="40.72739158772671" lon="17.56599543242781"><ele>237.0</ele><time>2026-04-17T16:28:08Z</time></trkpt><trkpt lat="40.72729370120469" lon="17.566083784356728"><ele>237.0</ele><time>2026-04-17T16:28:10Z</time></trkpt><trkpt lat="40.72720001407294" lon="17.56618024624924"><ele>237.0</ele><time>2026-04-17T16:28:12Z</time></trkpt><trkpt lat="40.72715178043499" lon="17.56630825085735"><ele>237.0</ele><time>2026-04-17T16:28:14Z</time></trkpt><trkpt lat="40.727158060846" lon="17.56646281265283"><ele>237.0</ele><time>2026-04-17T16:28:16Z</time></trkpt><trkpt lat="40.7271605114612" lon="17.5665497625826"><ele>237.0</ele><time>2026-04-17T16:28:17Z</time></trkpt><trkpt lat="40.72717184033615" lon="17.566634714777074"><ele>236.8</ele><time>2026-04-17T16:28:18Z</time></trkpt><trkpt lat="40.72718493725232" lon="17.56671939439076"><ele>236.6</ele><time>2026-04-17T16:28:19Z</time></trkpt><trkpt lat="40.72724316229188" lon="17.566861110990924"><ele>236.40000000000003</ele><time>2026-04-17T16:28:21Z</time></trkpt><trkpt lat="40.72732032180674" lon="17.566983814772794"><ele>236.20000000000002</ele><time>2026-04-17T16:28:23Z</time></trkpt><trkpt lat="40.72740605769499" lon="17.567095370144752"><ele>236.0</ele><time>2026-04-17T16:28:25Z</time></trkpt><trkpt lat="40.72749838914435" lon="17.567199088687524"><ele>235.5</ele><time>2026-04-17T16:28:27Z</time></trkpt><trkpt lat="40.727594104454056" lon="17.56730539295329"><ele>235.0</ele><time>2026-04-17T16:28:29Z</time></trkpt><trkpt lat="40.727687224617604" lon="17.567417211493527"><ele>234.5</ele><time>2026-04-17T16:28:31Z</time></trkpt><trkpt lat="40.727760343347505" lon="17.567543449218174"><ele>234.0</ele><time>2026-04-17T16:28:33Z</time></trkpt><trkpt lat="40.727815923546764" lon="17.567686114951986"><ele>234.0</ele><time>2026-04-17T16:28:35Z</time></trkpt><trkpt lat="40.72786017732714" lon="17.56783526841448"><ele>233.99999999999997</ele><time>2026-04-17T16:28:37Z</time></trkpt><trkpt lat="40.72789954418651" lon="17.567992221125856"><ele>233.99999999999997</ele><time>2026-04-17T16:28:38.999Z</time></trkpt><trkpt lat="40.72793626828926" lon="17.56813955975488"><ele>234.0</ele><time>2026-04-17T16:28:40.999Z</time></trkpt><trkpt lat="40.72795433269249" lon="17.568219377215506"><ele>234.0</ele><time>2026-04-17T16:28:41.999Z</time></trkpt><trkpt lat="40.727974776308756" lon="17.568350360641922"><ele>233.6</ele><time>2026-04-17T16:28:43.999Z</time></trkpt><trkpt lat="40.72799026012874" lon="17.568479947637154"><ele>233.2</ele><time>2026-04-17T16:28:45.999Z</time></trkpt><trkpt lat="40.728015067322005" lon="17.568604222139637"><ele>232.79999999999998</ele><time>2026-04-17T16:28:47.999Z</time></trkpt><trkpt lat="40.72803327641628" lon="17.568739336713335"><ele>232.39999999999998</ele><time>2026-04-17T16:28:49.999Z</time></trkpt><trkpt lat="40.72805909862581" lon="17.56886096876877"><ele>232.0</ele><time>2026-04-17T16:28:51.999Z</time></trkpt><trkpt lat="40.728079186309635" lon="17.568985750839886"><ele>231.83333333333331</ele><time>2026-04-17T16:28:53.999Z</time></trkpt><trkpt lat="40.72810166440027" lon="17.569103557976874"><ele>231.66666666666666</ele><time>2026-04-17T16:28:55.999Z</time></trkpt><trkpt lat="40.72813772586595" lon="17.56921990091897"><ele>231.5</ele><time>2026-04-17T16:28:57.999Z</time></trkpt><trkpt lat="40.72817474421604" lon="17.569328207440414"><ele>231.33333333333331</ele><time>2026-04-17T16:28:59.999Z</time></trkpt><trkpt lat="40.72819776295057" lon="17.56942671198934"><ele>231.16666666666666</ele><time>2026-04-17T16:29:01.999Z</time></trkpt><trkpt lat="40.72822124312748" lon="17.569530130104017"><ele>231.0</ele><time>2026-04-17T16:29:03.999Z</time></trkpt><trkpt lat="40.72823968558394" lon="17.569663548300788"><ele>231.4</ele><time>2026-04-17T16:29:05.999Z</time></trkpt><trkpt lat="40.72824417637001" lon="17.569787420847323"><ele>231.8</ele><time>2026-04-17T16:29:07.999Z</time></trkpt><trkpt lat="40.728235625607944" lon="17.569911908509855"><ele>232.20000000000002</ele><time>2026-04-17T16:29:09.999Z</time></trkpt><trkpt lat="40.7282271350966" lon="17.570043367467584"><ele>232.60000000000002</ele><time>2026-04-17T16:29:11.999Z</time></trkpt><trkpt lat="40.72819552879698" lon="17.570170894047585"><ele>233.0</ele><time>2026-04-17T16:29:13.999Z</time></trkpt><trkpt lat="40.72813593159285" lon="17.570269415776018"><ele>233.0</ele><time>2026-04-17T16:29:15.999Z</time></trkpt><trkpt lat="40.72807126715489" lon="17.570390346484537"><ele>233.0</ele><time>2026-04-17T16:29:17.999Z</time></trkpt><trkpt lat="40.72804712203273" lon="17.570537723228522"><ele>233.0</ele><time>2026-04-17T16:29:19.999Z</time></trkpt><trkpt lat="40.728096923814114" lon="17.570664181498845"><ele>233.0</ele><time>2026-04-17T16:29:21.999Z</time></trkpt><trkpt lat="40.728153985916855" lon="17.57076377097889"><ele>233.0</ele><time>2026-04-17T16:29:23.999Z</time></trkpt><trkpt lat="40.72817807379578" lon="17.570893819980377"><ele>233.0</ele><time>2026-04-17T16:29:25.999Z</time></trkpt><trkpt lat="40.72819739421438" lon="17.571039848833536"><ele>233.0</ele><time>2026-04-17T16:29:27.999Z</time></trkpt><trkpt lat="40.72820807793644" lon="17.571167470055595"><ele>233.0</ele><time>2026-04-17T16:29:29.999Z</time></trkpt><trkpt lat="40.72821867018215" lon="17.571285648516785"><ele>233.0</ele><time>2026-04-17T16:29:31.999Z</time></trkpt><trkpt lat="40.728227385517094" lon="17.571413729826375"><ele>233.0</ele><time>2026-04-17T16:29:33.999Z</time></trkpt><trkpt lat="40.728233977234005" lon="17.57152476632006"><ele>232.8</ele><time>2026-04-17T16:29:35.998Z</time></trkpt><trkpt lat="40.72823893363636" lon="17.5716593443122"><ele>232.60000000000002</ele><time>2026-04-17T16:29:37.998Z</time></trkpt><trkpt lat="40.72824175984109" lon="17.57179203465271"><ele>232.39999999999998</ele><time>2026-04-17T16:29:39.998Z</time></trkpt><trkpt lat="40.72824417541799" lon="17.57193222486769"><ele>232.2</ele><time>2026-04-17T16:29:41.998Z</time></trkpt><trkpt lat="40.728246142356845" lon="17.57206418461004"><ele>232.0</ele><time>2026-04-17T16:29:43.998Z</time></trkpt><trkpt lat="40.72829006949737" lon="17.572190758568638"><ele>231.8</ele><time>2026-04-17T16:29:45.998Z</time></trkpt><trkpt lat="40.72828692699478" lon="17.572335451960416"><ele>231.6</ele><time>2026-04-17T16:29:47.998Z</time></trkpt><trkpt lat="40.72827055000506" lon="17.572487723149248"><ele>231.40000000000003</ele><time>2026-04-17T16:29:49.998Z</time></trkpt><trkpt lat="40.72823125222957" lon="17.57261796262296"><ele>231.20000000000002</ele><time>2026-04-17T16:29:51.998Z</time></trkpt><trkpt lat="40.728200095784324" lon="17.572762965728774"><ele>231.0</ele><time>2026-04-17T16:29:53.998Z</time></trkpt><trkpt lat="40.72818437464297" lon="17.572847224696535"><ele>231.4</ele><time>2026-04-17T16:29:54.998Z</time></trkpt><trkpt lat="40.72823957716901" lon="17.572977860621762"><ele>231.8</ele><time>2026-04-17T16:29:56.998Z</time></trkpt><trkpt lat="40.728228322636305" lon="17.573084121846072"><ele>232.20000000000002</ele><time>2026-04-17T16:29:57.998Z</time></trkpt><trkpt lat="40.72821026448703" lon="17.573234624299722"><ele>232.60000000000002</ele><time>2026-04-17T16:29:59.998Z</time></trkpt><trkpt lat="40.72817090957441" lon="17.573360235916606"><ele>233.0</ele><time>2026-04-17T16:30:01.998Z</time></trkpt><trkpt lat="40.72812945315654" lon="17.57346907406953"><ele>233.0</ele><time>2026-04-17T16:30:04Z</time></trkpt><trkpt lat="40.728078194969584" lon="17.573588052792804"><ele>233.0</ele><time>2026-04-17T16:30:06Z</time></trkpt><trkpt lat="40.72803035432565" lon="17.57371440671873"><ele>233.0</ele><time>2026-04-17T16:30:08Z</time></trkpt><trkpt lat="40.727992777525166" lon="17.573823214011934"><ele>233.0</ele><time>2026-04-17T16:30:10Z</time></trkpt><trkpt lat="40.72794591298601" lon="17.573904473514602"><ele>233.0</ele><time>2026-04-17T16:30:12Z</time></trkpt><trkpt lat="40.72791055400603" lon="17.573992740183378"><ele>233.4</ele><time>2026-04-17T16:30:14Z</time></trkpt><trkpt lat="40.72802478575327" lon="17.574072823770003"><ele>233.8</ele><time>2026-04-17T16:30:17Z</time></trkpt><trkpt lat="40.72813539581376" lon="17.574093045727825"><ele>234.2</ele><time>2026-04-17T16:30:19Z</time></trkpt><trkpt lat="40.72820618494796" lon="17.574132232703295"><ele>234.6</ele><time>2026-04-17T16:30:21Z</time></trkpt><trkpt lat="40.72828777245267" lon="17.574165548136065"><ele>235.0</ele><time>2026-04-17T16:30:23Z</time></trkpt><trkpt lat="40.72837225547352" lon="17.574200944973"><ele>234.99999999999997</ele><time>2026-04-17T16:30:25Z</time></trkpt><trkpt lat="40.728456912763846" lon="17.574249687153642"><ele>235.0</ele><time>2026-04-17T16:30:27Z</time></trkpt><trkpt lat="40.72852382405135" lon="17.574329731465294"><ele>235.0</ele><time>2026-04-17T16:30:29Z</time></trkpt><trkpt lat="40.72856913273353" lon="17.574419732335787"><ele>235.0</ele><time>2026-04-17T16:30:31Z</time></trkpt><trkpt lat="40.728641993703434" lon="17.574491061351996"><ele>234.99999999999997</ele><time>2026-04-17T16:30:33Z</time></trkpt><trkpt lat="40.72870687970661" lon="17.57457081686955"><ele>235.0</ele><time>2026-04-17T16:30:35Z</time></trkpt><trkpt lat="40.728654447116284" lon="17.574731399158612"><ele>235.0</ele><time>2026-04-17T16:30:37Z</time></trkpt><trkpt lat="40.72861259883032" lon="17.574845795023176"><ele>235.0</ele><time>2026-04-17T16:30:39Z</time></trkpt><trkpt lat="40.72857823139907" lon="17.57496746697085"><ele>235.0</ele><time>2026-04-17T16:30:41Z</time></trkpt><trkpt lat="40.72854283433303" lon="17.57508076519535"><ele>235.0</ele><time>2026-04-17T16:30:43Z</time></trkpt><trkpt lat="40.72851757767541" lon="17.575190575620624"><ele>235.0</ele><time>2026-04-17T16:30:45Z</time></trkpt><trkpt lat="40.72848314789783" lon="17.575309295715808"><ele>235.6</ele><time>2026-04-17T16:30:47Z</time></trkpt><trkpt lat="40.72845755859925" lon="17.57542719343244"><ele>236.2</ele><time>2026-04-17T16:30:49Z</time></trkpt><trkpt lat="40.728433833817206" lon="17.57554201512227"><ele>236.8</ele><time>2026-04-17T16:30:50.999Z</time></trkpt><trkpt lat="40.72841540710771" lon="17.57566003472187"><ele>237.4</ele><time>2026-04-17T16:30:52.999Z</time></trkpt><trkpt lat="40.72839068736869" lon="17.575781359036085"><ele>238.0</ele><time>2026-04-17T16:30:54.999Z</time></trkpt><trkpt lat="40.728362727547776" lon="17.57588667300747"><ele>237.99999999999997</ele><time>2026-04-17T16:30:56.999Z</time></trkpt><trkpt lat="40.72833438138376" lon="17.57599391546089"><ele>238.0</ele><time>2026-04-17T16:30:58.999Z</time></trkpt><trkpt lat="40.72831455176629" lon="17.576078967465893"><ele>238.0</ele><time>2026-04-17T16:31:00.999Z</time></trkpt><trkpt lat="40.72829549307468" lon="17.57617021114922"><ele>238.0</ele><time>2026-04-17T16:31:04.999Z</time></trkpt><trkpt lat="40.72838309669961" lon="17.576223882459605"><ele>237.99999999999997</ele><time>2026-04-17T16:31:05.999Z</time></trkpt><trkpt lat="40.72847699563794" lon="17.57626349776852"><ele>238.0</ele><time>2026-04-17T16:31:07.999Z</time></trkpt><trkpt lat="40.72859828794056" lon="17.576293279574518"><ele>237.66666666666666</ele><time>2026-04-17T16:31:09.999Z</time></trkpt><trkpt lat="40.7286707869531" lon="17.57632615235209"><ele>237.33333333333331</ele><time>2026-04-17T16:31:11.999Z</time></trkpt><trkpt lat="40.728748653451" lon="17.576372090860257"><ele>237.0</ele><time>2026-04-17T16:31:13.999Z</time></trkpt><trkpt lat="40.7288196657885" lon="17.576419986682474"><ele>236.66666666666669</ele><time>2026-04-17T16:31:15.999Z</time></trkpt><trkpt lat="40.728888667162025" lon="17.576472584640847"><ele>236.33333333333334</ele><time>2026-04-17T16:31:17.999Z</time></trkpt><trkpt lat="40.728946480579204" lon="17.576520549312143"><ele>236.0</ele><time>2026-04-17T16:31:19.999Z</time></trkpt><trkpt lat="40.72900636756474" lon="17.576572173164184"><ele>236.00000000000003</ele><time>2026-04-17T16:31:22.999Z</time></trkpt><trkpt lat="40.7290661710362" lon="17.576627039161902"><ele>236.0</ele><time>2026-04-17T16:31:26.999Z</time></trkpt><trkpt lat="40.72913313155034" lon="17.576690232591"><ele>236.0</ele><time>2026-04-17T16:31:30.999Z</time></trkpt><trkpt lat="40.72919288479191" lon="17.576750065534995"><ele>236.0</ele><time>2026-04-17T16:31:33.999Z</time></trkpt><trkpt lat="40.72924540071544" lon="17.57680263957121"><ele>236.00000000000003</ele><time>2026-04-17T16:31:35.999Z</time></trkpt><trkpt lat="40.72932774605814" lon="17.576885075451695"><ele>236.0</ele><time>2026-04-17T16:31:37.999Z</time></trkpt><trkpt lat="40.72941602026759" lon="17.576972898817747"><ele>235.83333333333334</ele><time>2026-04-17T16:31:39.999Z</time></trkpt><trkpt lat="40.72949819306011" lon="17.57705472192802"><ele>235.66666666666669</ele><time>2026-04-17T16:31:41.999Z</time></trkpt><trkpt lat="40.729550967216845" lon="17.57710647431712"><ele>235.5</ele><time>2026-04-17T16:31:43.999Z</time></trkpt><trkpt lat="40.72960621928236" lon="17.57715774600633"><ele>235.33333333333331</ele><time>2026-04-17T16:31:45.999Z</time></trkpt><trkpt lat="40.72968836611252" lon="17.5771835796991"><ele>235.16666666666666</ele><time>2026-04-17T16:31:47.998Z</time></trkpt><trkpt lat="40.72977225743412" lon="17.577248848092722"><ele>235.0</ele><time>2026-04-17T16:31:50.998Z</time></trkpt><trkpt lat="40.729840568549854" lon="17.577309684954542"><ele>234.99999999999997</ele><time>2026-04-17T16:31:53.998Z</time></trkpt><trkpt lat="40.72989324810082" lon="17.5773639668177"><ele>235.0</ele><time>2026-04-17T16:31:55.998Z</time></trkpt><trkpt lat="40.7299505634225" lon="17.577428308900885"><ele>235.0</ele><time>2026-04-17T16:31:57.998Z</time></trkpt><trkpt lat="40.7299874982282" lon="17.577513070158236"><ele>235.0</ele><time>2026-04-17T16:31:59.998Z</time></trkpt><trkpt lat="40.73006005205832" lon="17.577590338879173"><ele>234.99999999999997</ele><time>2026-04-17T16:32:01.998Z</time></trkpt><trkpt lat="40.73015383869654" lon="17.577675829803194"><ele>235.0</ele><time>2026-04-17T16:32:03.998Z</time></trkpt><trkpt lat="40.73022457540586" lon="17.577786078862808"><ele>233.99999999999997</ele><time>2026-04-17T16:32:05.998Z</time></trkpt><trkpt lat="40.730293246483235" lon="17.57787859670573"><ele>233.0</ele><time>2026-04-17T16:32:07.998Z</time></trkpt><trkpt lat="40.730352497629" lon="17.57792634997362"><ele>232.0</ele><time>2026-04-17T16:32:08.998Z</time></trkpt><trkpt lat="40.73041363200847" lon="17.57796209013651"><ele>231.0</ele><time>2026-04-17T16:32:10Z</time></trkpt><trkpt lat="40.73047072503521" lon="17.578021040125297"><ele>229.99999999999997</ele><time>2026-04-17T16:32:11Z</time></trkpt><trkpt lat="40.730539287856" lon="17.578087458656867"><ele>229.0</ele><time>2026-04-17T16:32:12Z</time></trkpt><trkpt lat="40.73063139193845" lon="17.57815459695821"><ele>228.99999999999997</ele><time>2026-04-17T16:32:13Z</time></trkpt><trkpt lat="40.73069629837475" lon="17.578202318375606"><ele>229.0</ele><time>2026-04-17T16:32:14Z</time></trkpt><trkpt lat="40.730783158982604" lon="17.578262252423787"><ele>229.0</ele><time>2026-04-17T16:32:15Z</time></trkpt><trkpt lat="40.73084191476737" lon="17.578333070355853"><ele>229.0</ele><time>2026-04-17T16:32:16Z</time></trkpt><trkpt lat="40.730913784671" lon="17.578392940255906"><ele>228.99999999999997</ele><time>2026-04-17T16:32:17Z</time></trkpt><trkpt lat="40.730989236418665" lon="17.578429894270474"><ele>229.0</ele><time>2026-04-17T16:32:18Z</time></trkpt><trkpt lat="40.731069602984654" lon="17.578461120748003"><ele>226.6</ele><time>2026-04-17T16:32:19Z</time></trkpt><trkpt lat="40.731112156069464" lon="17.578529526405582"><ele>224.2</ele><time>2026-04-17T16:32:20Z</time></trkpt><trkpt lat="40.731156011524284" lon="17.57859012886543"><ele>221.79999999999998</ele><time>2026-04-17T16:32:21Z</time></trkpt><trkpt lat="40.73124382006127" lon="17.578654787165746"><ele>219.39999999999998</ele><time>2026-04-17T16:32:23Z</time></trkpt><trkpt lat="40.73137926722898" lon="17.578715905620086"><ele>217.0</ele><time>2026-04-17T16:32:25Z</time></trkpt><trkpt lat="40.73145954080359" lon="17.578724487742566"><ele>217.0</ele><time>2026-04-17T16:32:26Z</time></trkpt><trkpt lat="40.731547729057624" lon="17.578699099261772"><ele>217.0</ele><time>2026-04-17T16:32:27Z</time></trkpt><trkpt lat="40.7315871569552" lon="17.578614211059055"><ele>217.0</ele><time>2026-04-17T16:32:28Z</time></trkpt><trkpt lat="40.731671212140206" lon="17.578575693863122"><ele>217.0</ele><time>2026-04-17T16:32:30Z</time></trkpt><trkpt lat="40.731776121621856" lon="17.578650301080085"><ele>217.0</ele><time>2026-04-17T16:32:32Z</time></trkpt><trkpt lat="40.731845394292804" lon="17.578710194758784"><ele>215.83333333333331</ele><time>2026-04-17T16:32:34Z</time></trkpt><trkpt lat="40.73192854323856" lon="17.578720759459554"><ele>214.66666666666666</ele><time>2026-04-17T16:32:37Z</time></trkpt><trkpt lat="40.731992941632164" lon="17.578660874697867"><ele>213.5</ele><time>2026-04-17T16:32:39Z</time></trkpt><trkpt lat="40.73203276505011" lon="17.578586885879027"><ele>212.33333333333331</ele><time>2026-04-17T16:32:41Z</time></trkpt><trkpt lat="40.73207876151304" lon="17.57852923493805"><ele>211.16666666666666</ele><time>2026-04-17T16:32:43Z</time></trkpt><trkpt lat="40.732131750557436" lon="17.578447126711495"><ele>210.0</ele><time>2026-04-17T16:32:46Z</time></trkpt><trkpt lat="40.73217777965258" lon="17.578363251613627"><ele>210.0</ele><time>2026-04-17T16:32:49Z</time></trkpt><trkpt lat="40.732242517217536" lon="17.57829021889732"><ele>210.0</ele><time>2026-04-17T16:32:52Z</time></trkpt><trkpt lat="40.73230122508852" lon="17.578233577081633"><ele>210.0</ele><time>2026-04-17T16:32:54.999Z</time></trkpt><trkpt lat="40.73237073973079" lon="17.57818177093455"><ele>210.0</ele><time>2026-04-17T16:32:57.999Z</time></trkpt><trkpt lat="40.732444963870385" lon="17.57813607990913"><ele>210.0</ele><time>2026-04-17T16:33:00.999Z</time></trkpt><trkpt lat="40.73251964565708" lon="17.578161594755297"><ele>210.0</ele><time>2026-04-17T16:33:03.999Z</time></trkpt><trkpt lat="40.73259731173821" lon="17.578194503714798"><ele>211.4</ele><time>2026-04-17T16:33:06.999Z</time></trkpt><trkpt lat="40.732790650524265" lon="17.57817235720756"><ele>212.8</ele><time>2026-04-17T16:33:18.999Z</time></trkpt><trkpt lat="40.732881787498634" lon="17.5781192603486"><ele>214.2</ele><time>2026-04-17T16:33:21.999Z</time></trkpt><trkpt lat="40.732946269640415" lon="17.57807085878176"><ele>215.6</ele><time>2026-04-17T16:33:24.999Z</time></trkpt><trkpt lat="40.73302600162762" lon="17.578059219329983"><ele>217.0</ele><time>2026-04-17T16:33:28.999Z</time></trkpt><trkpt lat="40.73310237803987" lon="17.57810330583283"><ele>216.99999999999997</ele><time>2026-04-17T16:33:31.999Z</time></trkpt><trkpt lat="40.73318327771835" lon="17.578167304535068"><ele>217.0</ele><time>2026-04-17T16:33:34.999Z</time></trkpt><trkpt lat="40.73319573242467" lon="17.578276654687897"><ele>217.0</ele><time>2026-04-17T16:33:39.999Z</time></trkpt><trkpt lat="40.73323790537031" lon="17.578338483516575"><ele>217.0</ele><time>2026-04-17T16:33:43.999Z</time></trkpt><trkpt lat="40.73324080089171" lon="17.578454009487114"><ele>216.99999999999997</ele><time>2026-04-17T16:33:46.999Z</time></trkpt><trkpt lat="40.73325125430096" lon="17.578566661269413"><ele>217.0</ele><time>2026-04-17T16:33:51.998Z</time></trkpt><trkpt lat="40.7332788589723" lon="17.578656729528404"><ele>216.33333333333331</ele><time>2026-04-17T16:33:54.998Z</time></trkpt><trkpt lat="40.733314167506954" lon="17.578727765007212"><ele>215.66666666666666</ele><time>2026-04-17T16:33:57.998Z</time></trkpt><trkpt lat="40.73337913283129" lon="17.578752839159506"><ele>215.0</ele><time>2026-04-17T16:34:01.998Z</time></trkpt><trkpt lat="40.733418337090846" lon="17.578842328099324"><ele>214.33333333333331</ele><time>2026-04-17T16:34:05.998Z</time></trkpt><trkpt lat="40.7334902561863" lon="17.578903975645723"><ele>213.66666666666666</ele><time>2026-04-17T16:34:08.998Z</time></trkpt><trkpt lat="40.73351723227996" lon="17.578999070500934"><ele>213.0</ele><time>2026-04-17T16:34:12.998Z</time></trkpt><trkpt lat="40.73372268961455" lon="17.57896695141041"><ele>215.2</ele><time>2026-04-17T16:34:24Z</time></trkpt><trkpt lat="40.73380404740435" lon="17.57893017186957"><ele>217.4</ele><time>2026-04-17T16:34:28Z</time></trkpt><trkpt lat="40.733887883809864" lon="17.578864042021305"><ele>219.59999999999997</ele><time>2026-04-17T16:34:31Z</time></trkpt><trkpt lat="40.73394872365197" lon="17.57884203398806"><ele>221.79999999999998</ele><time>2026-04-17T16:34:33Z</time></trkpt><trkpt lat="40.734102989798956" lon="17.578801977412787"><ele>224.0</ele><time>2026-04-17T16:34:47Z</time></trkpt><trkpt lat="40.73416892929723" lon="17.578777567771233"><ele>224.66666666666669</ele><time>2026-04-17T16:34:52Z</time></trkpt><trkpt lat="40.73417286531715" lon="17.57867982950733"><ele>225.33333333333334</ele><time>2026-04-17T16:34:57Z</time></trkpt><trkpt lat="40.73415404310403" lon="17.57857573034668"><ele>226.0</ele><time>2026-04-17T16:34:59.999Z</time></trkpt><trkpt lat="40.73417684013781" lon="17.578494990962415"><ele>226.66666666666669</ele><time>2026-04-17T16:35:03.999Z</time></trkpt><trkpt lat="40.734214521510786" lon="17.57834999348954"><ele>227.33333333333334</ele><time>2026-04-17T16:35:36.999Z</time></trkpt><trkpt lat="40.73424125408156" lon="17.578257531972582"><ele>228.0</ele><time>2026-04-17T16:36:07.998Z</time></trkpt><trkpt lat="40.73425150236801" lon="17.578165521016142"><ele>228.0</ele><time>2026-04-17T16:36:31Z</time></trkpt><trkpt lat="40.734275480858926" lon="17.578081635863818"><ele>227.99999999999997</ele><time>2026-04-17T16:36:34Z</time></trkpt><trkpt lat="40.73432680050093" lon="17.578148940139325"><ele>228.0</ele><time>2026-04-17T16:36:47Z</time></trkpt><trkpt lat="40.73427298780663" lon="17.578207831881258"><ele>228.0</ele><time>2026-04-17T16:36:50Z</time></trkpt><trkpt lat="40.73422478578256" lon="17.57828437965356"><ele>227.99999999999997</ele><time>2026-04-17T16:36:54Z</time></trkpt><trkpt lat="40.73415695441811" lon="17.578330043857886"><ele>228.0</ele><time>2026-04-17T16:37:57.999Z</time></trkpt><trkpt lat="40.73414222389532" lon="17.578410938535377"><ele>228.0</ele><time>2026-04-17T16:38:00.998Z</time></trkpt><trkpt lat="40.734177151080246" lon="17.578481022057648"><ele>228.0</ele><time>2026-04-17T16:38:03.998Z</time></trkpt><trkpt lat="40.73419112839775" lon="17.578575495756443"><ele>228.0</ele><time>2026-04-17T16:38:08.998Z</time></trkpt><trkpt lat="40.73418389808283" lon="17.57869117005522"><ele>228.0</ele><time>2026-04-17T16:38:11.998Z</time></trkpt><trkpt lat="40.734179880533446" lon="17.578805765015545"><ele>228.0</ele><time>2026-04-17T16:38:14.998Z</time></trkpt><trkpt lat="40.73411267320761" lon="17.578814439049733"><ele>228.0</ele><time>2026-04-17T16:38:16.998Z</time></trkpt><trkpt lat="40.7340373802131" lon="17.57884092075923"><ele>228.0</ele><time>2026-04-17T16:38:18.998Z</time></trkpt><trkpt lat="40.73398412997627" lon="17.578904234796546"><ele>227.42857142857142</ele><time>2026-04-17T16:38:21.998Z</time></trkpt><trkpt lat="40.7339956416141" lon="17.5790040047278"><ele>226.85714285714283</ele><time>2026-04-17T16:38:23.998Z</time></trkpt><trkpt lat="40.73392939089876" lon="17.578991922970726"><ele>226.28571428571428</ele><time>2026-04-17T16:38:25.998Z</time></trkpt><trkpt lat="40.73385129381235" lon="17.578983749380036"><ele>225.71428571428572</ele><time>2026-04-17T16:38:33Z</time></trkpt><trkpt lat="40.73376967556836" lon="17.578999721540075"><ele>225.14285714285714</ele><time>2026-04-17T16:38:37Z</time></trkpt><trkpt lat="40.733701960727" lon="17.57902549950148"><ele>224.57142857142856</ele><time>2026-04-17T16:38:40Z</time></trkpt><trkpt lat="40.73363376437239" lon="17.579031781544757"><ele>224.0</ele><time>2026-04-17T16:38:43Z</time></trkpt><trkpt lat="40.73356991432501" lon="17.579030864605162"><ele>222.83333333333334</ele><time>2026-04-17T16:38:45Z</time></trkpt><trkpt lat="40.73349750307734" lon="17.578928266239096"><ele>221.66666666666669</ele><time>2026-04-17T16:38:48Z</time></trkpt><trkpt lat="40.733455262465434" lon="17.57884554528892"><ele>220.5</ele><time>2026-04-17T16:38:50Z</time></trkpt><trkpt lat="40.733409345062405" lon="17.578784762981442"><ele>219.33333333333331</ele><time>2026-04-17T16:38:53Z</time></trkpt><trkpt lat="40.733351801836534" lon="17.57873264485724"><ele>218.16666666666666</ele><time>2026-04-17T16:38:56Z</time></trkpt><trkpt lat="40.7332844347606" lon="17.57866846219992"><ele>217.0</ele><time>2026-04-17T16:39:01Z</time></trkpt><trkpt lat="40.73326293558223" lon="17.57858347907743"><ele>216.99999999999997</ele><time>2026-04-17T16:39:04Z</time></trkpt><trkpt lat="40.73324796062703" lon="17.578467167056424"><ele>217.0</ele><time>2026-04-17T16:39:07Z</time></trkpt><trkpt lat="40.733240564388666" lon="17.578372410346347"><ele>217.0</ele><time>2026-04-17T16:39:10Z</time></trkpt><trkpt lat="40.73321306346817" lon="17.57828860378358"><ele>217.0</ele><time>2026-04-17T16:39:12.999Z</time></trkpt><trkpt lat="40.733182512252405" lon="17.578209096101954"><ele>216.99999999999997</ele><time>2026-04-17T16:39:17.999Z</time></trkpt><trkpt lat="40.73310170798169" lon="17.578180749378394"><ele>217.0</ele><time>2026-04-17T16:39:20.999Z</time></trkpt><trkpt lat="40.73303066221561" lon="17.57809933548009"><ele>217.0</ele><time>2026-04-17T16:39:24.999Z</time></trkpt><trkpt lat="40.732946320686516" lon="17.57812673310441"><ele>217.0</ele><time>2026-04-17T16:39:29.999Z</time></trkpt><trkpt lat="40.732881185084054" lon="17.578129683449184"><ele>217.0</ele><time>2026-04-17T16:39:36.999Z</time></trkpt><trkpt lat="40.73281637845846" lon="17.578160814919706"><ele>217.0</ele><time>2026-04-17T16:39:42.999Z</time></trkpt><trkpt lat="40.732749368010985" lon="17.57818115036333"><ele>217.0</ele><time>2026-04-17T16:39:45.999Z</time></trkpt><trkpt lat="40.73268613831993" lon="17.578182580475005"><ele>217.0</ele><time>2026-04-17T16:39:48.999Z</time></trkpt><trkpt lat="40.73260970839135" lon="17.578174849233957"><ele>217.0</ele><time>2026-04-17T16:39:51.999Z</time></trkpt><trkpt lat="40.732539955131934" lon="17.578173111255087"><ele>216.0</ele><time>2026-04-17T16:39:54.999Z</time></trkpt><trkpt lat="40.732471569317596" lon="17.578156487259506"><ele>215.0</ele><time>2026-04-17T16:39:57.999Z</time></trkpt><trkpt lat="40.73240707646023" lon="17.57814880756643"><ele>214.0</ele><time>2026-04-17T16:40:00.999Z</time></trkpt><trkpt lat="40.732348653028865" lon="17.578208914844577"><ele>213.0</ele><time>2026-04-17T16:40:03.999Z</time></trkpt><trkpt lat="40.73230452694899" lon="17.57826869837146"><ele>212.0</ele><time>2026-04-17T16:40:06.998Z</time></trkpt><trkpt lat="40.73224845294508" lon="17.5783444767149"><ele>211.0</ele><time>2026-04-17T16:40:10.998Z</time></trkpt><trkpt lat="40.732178609773534" lon="17.578414214271238"><ele>210.0</ele><time>2026-04-17T16:40:13.998Z</time></trkpt><trkpt lat="40.73211146352318" lon="17.578488692440523"><ele>210.0</ele><time>2026-04-17T16:40:16.998Z</time></trkpt><trkpt lat="40.73206936265744" lon="17.578569850349467"><ele>210.0</ele><time>2026-04-17T16:40:19.998Z</time></trkpt><trkpt lat="40.732015734699466" lon="17.578648167933345"><ele>210.0</ele><time>2026-04-17T16:40:23.998Z</time></trkpt><trkpt lat="40.731981507564505" lon="17.57875606055955"><ele>210.0</ele><time>2026-04-17T16:40:27.998Z</time></trkpt><trkpt lat="40.731971005404596" lon="17.578845678644672"><ele>210.0</ele><time>2026-04-17T16:40:31.998Z</time></trkpt><trkpt lat="40.73194923182589" lon="17.578936142779337"><ele>210.0</ele><time>2026-04-17T16:40:36Z</time></trkpt><trkpt lat="40.73193511186903" lon="17.579020117080564"><ele>210.0</ele><time>2026-04-17T16:40:41Z</time></trkpt><trkpt lat="40.7319110516908" lon="17.57910868477375"><ele>206.0</ele><time>2026-04-17T16:40:45Z</time></trkpt><trkpt lat="40.731940791847315" lon="17.579033060320825"><ele>206.0</ele><time>2026-04-17T16:41:51.999Z</time></trkpt><trkpt lat="40.73195062759358" lon="17.579115116833407"><ele>206.0</ele><time>2026-04-17T17:10:53.999Z</time></trkpt></trkseg></trk></gpx>